<?xml version="1.0" encoding="UTF-8"?>
<gpx xmlns="http://www.topografix.com/GPX/1/1"
     creator="GpsDump 4.84"
     version="1.1"
     xmlns:xsi="http://www.w3.org/2001/XMLSchema-instance"
     xsi:schemaLocation="http://www.topografix.com/GPX/1/1 http://www.topografix.com/GPX/1/1/gpx.xsd">
  <metadata>
    <link href="http://www.gethome.no/stein.sorensen/">
      <text>GPS dump for www.flightlog.org</text>
    </link>
    <time>2014-07-16T08:18:33Z</time>
    <bounds minlat="37.113500" minlon="-3.524300" maxlat="37.259300" maxlon="-2.995933"/>
  </metadata>
  <trk>
    <name>Track 001</name>
    <trkseg>
      <trkpt lat="37.142300" lon="-3.519583">
        <ele>1280.0</ele>
        <time>2014-07-12T12:43:10Z</time>
      </trkpt>
      <trkpt lat="37.142317" lon="-3.519600">
        <ele>1279.0</ele>
        <time>2014-07-12T12:43:13Z</time>
      </trkpt>
      <trkpt lat="37.142317" lon="-3.519600">
        <ele>1279.0</ele>
        <time>2014-07-12T12:43:16Z</time>
      </trkpt>
      <trkpt lat="37.142333" lon="-3.519567">
        <ele>1279.0</ele>
        <time>2014-07-12T12:43:19Z</time>
      </trkpt>
      <trkpt lat="37.142350" lon="-3.519550">
        <ele>1279.0</ele>
        <time>2014-07-12T12:43:22Z</time>
      </trkpt>
      <trkpt lat="37.142350" lon="-3.519550">
        <ele>1279.0</ele>
        <time>2014-07-12T12:43:28Z</time>
      </trkpt>
      <trkpt lat="37.142350" lon="-3.519533">
        <ele>1278.0</ele>
        <time>2014-07-12T12:43:31Z</time>
      </trkpt>
      <trkpt lat="37.142350" lon="-3.519533">
        <ele>1278.0</ele>
        <time>2014-07-12T12:43:34Z</time>
      </trkpt>
      <trkpt lat="37.142350" lon="-3.519517">
        <ele>1278.0</ele>
        <time>2014-07-12T12:43:37Z</time>
      </trkpt>
      <trkpt lat="37.142367" lon="-3.519500">
        <ele>1278.0</ele>
        <time>2014-07-12T12:43:40Z</time>
      </trkpt>
      <trkpt lat="37.142367" lon="-3.519500">
        <ele>1278.0</ele>
        <time>2014-07-12T12:43:43Z</time>
      </trkpt>
      <trkpt lat="37.142367" lon="-3.519500">
        <ele>1277.0</ele>
        <time>2014-07-12T12:43:46Z</time>
      </trkpt>
      <trkpt lat="37.142367" lon="-3.519500">
        <ele>1277.0</ele>
        <time>2014-07-12T12:43:49Z</time>
      </trkpt>
      <trkpt lat="37.142367" lon="-3.519483">
        <ele>1277.0</ele>
        <time>2014-07-12T12:43:52Z</time>
      </trkpt>
      <trkpt lat="37.142367" lon="-3.519483">
        <ele>1277.0</ele>
        <time>2014-07-12T12:43:55Z</time>
      </trkpt>
      <trkpt lat="37.142367" lon="-3.519483">
        <ele>1277.0</ele>
        <time>2014-07-12T12:43:58Z</time>
      </trkpt>
      <trkpt lat="37.142350" lon="-3.519500">
        <ele>1277.0</ele>
        <time>2014-07-12T12:44:01Z</time>
      </trkpt>
      <trkpt lat="37.142383" lon="-3.519517">
        <ele>1276.0</ele>
        <time>2014-07-12T12:44:04Z</time>
      </trkpt>
      <trkpt lat="37.142383" lon="-3.519550">
        <ele>1276.0</ele>
        <time>2014-07-12T12:44:07Z</time>
      </trkpt>
      <trkpt lat="37.142367" lon="-3.519650">
        <ele>1275.0</ele>
        <time>2014-07-12T12:44:10Z</time>
      </trkpt>
      <trkpt lat="37.142317" lon="-3.519867">
        <ele>1274.0</ele>
        <time>2014-07-12T12:44:13Z</time>
      </trkpt>
      <trkpt lat="37.142267" lon="-3.520083">
        <ele>1273.0</ele>
        <time>2014-07-12T12:44:16Z</time>
      </trkpt>
      <trkpt lat="37.142200" lon="-3.520183">
        <ele>1272.0</ele>
        <time>2014-07-12T12:44:19Z</time>
      </trkpt>
      <trkpt lat="37.142217" lon="-3.520333">
        <ele>1272.0</ele>
        <time>2014-07-12T12:44:22Z</time>
      </trkpt>
      <trkpt lat="37.142283" lon="-3.520533">
        <ele>1271.0</ele>
        <time>2014-07-12T12:44:25Z</time>
      </trkpt>
      <trkpt lat="37.142350" lon="-3.520733">
        <ele>1270.0</ele>
        <time>2014-07-12T12:44:28Z</time>
      </trkpt>
      <trkpt lat="37.142467" lon="-3.520933">
        <ele>1270.0</ele>
        <time>2014-07-12T12:44:31Z</time>
      </trkpt>
      <trkpt lat="37.142633" lon="-3.521050">
        <ele>1269.0</ele>
        <time>2014-07-12T12:44:34Z</time>
      </trkpt>
      <trkpt lat="37.142833" lon="-3.521117">
        <ele>1268.0</ele>
        <time>2014-07-12T12:44:37Z</time>
      </trkpt>
      <trkpt lat="37.143033" lon="-3.521217">
        <ele>1268.0</ele>
        <time>2014-07-12T12:44:40Z</time>
      </trkpt>
      <trkpt lat="37.143100" lon="-3.521233">
        <ele>1267.0</ele>
        <time>2014-07-12T12:44:41Z</time>
      </trkpt>
      <trkpt lat="37.143150" lon="-3.521250">
        <ele>1267.0</ele>
        <time>2014-07-12T12:44:42Z</time>
      </trkpt>
      <trkpt lat="37.143333" lon="-3.521350">
        <ele>1266.0</ele>
        <time>2014-07-12T12:44:45Z</time>
      </trkpt>
      <trkpt lat="37.143550" lon="-3.521467">
        <ele>1266.0</ele>
        <time>2014-07-12T12:44:48Z</time>
      </trkpt>
      <trkpt lat="37.143750" lon="-3.521517">
        <ele>1265.0</ele>
        <time>2014-07-12T12:44:51Z</time>
      </trkpt>
      <trkpt lat="37.144017" lon="-3.521517">
        <ele>1265.0</ele>
        <time>2014-07-12T12:44:54Z</time>
      </trkpt>
      <trkpt lat="37.144283" lon="-3.521550">
        <ele>1265.0</ele>
        <time>2014-07-12T12:44:57Z</time>
      </trkpt>
      <trkpt lat="37.144533" lon="-3.521633">
        <ele>1265.0</ele>
        <time>2014-07-12T12:45:00Z</time>
      </trkpt>
      <trkpt lat="37.144767" lon="-3.521633">
        <ele>1265.0</ele>
        <time>2014-07-12T12:45:03Z</time>
      </trkpt>
      <trkpt lat="37.144983" lon="-3.521650">
        <ele>1265.0</ele>
        <time>2014-07-12T12:45:06Z</time>
      </trkpt>
      <trkpt lat="37.145233" lon="-3.521650">
        <ele>1263.0</ele>
        <time>2014-07-12T12:45:09Z</time>
      </trkpt>
      <trkpt lat="37.145483" lon="-3.521617">
        <ele>1262.0</ele>
        <time>2014-07-12T12:45:12Z</time>
      </trkpt>
      <trkpt lat="37.145750" lon="-3.521683">
        <ele>1259.0</ele>
        <time>2014-07-12T12:45:15Z</time>
      </trkpt>
      <trkpt lat="37.145983" lon="-3.521750">
        <ele>1257.0</ele>
        <time>2014-07-12T12:45:18Z</time>
      </trkpt>
      <trkpt lat="37.146233" lon="-3.521800">
        <ele>1255.0</ele>
        <time>2014-07-12T12:45:21Z</time>
      </trkpt>
      <trkpt lat="37.146483" lon="-3.521833">
        <ele>1253.0</ele>
        <time>2014-07-12T12:45:24Z</time>
      </trkpt>
      <trkpt lat="37.146733" lon="-3.521883">
        <ele>1251.0</ele>
        <time>2014-07-12T12:45:27Z</time>
      </trkpt>
      <trkpt lat="37.146917" lon="-3.521950">
        <ele>1248.0</ele>
        <time>2014-07-12T12:45:30Z</time>
      </trkpt>
      <trkpt lat="37.147117" lon="-3.522033">
        <ele>1245.0</ele>
        <time>2014-07-12T12:45:33Z</time>
      </trkpt>
      <trkpt lat="37.147317" lon="-3.522167">
        <ele>1241.0</ele>
        <time>2014-07-12T12:45:36Z</time>
      </trkpt>
      <trkpt lat="37.147450" lon="-3.522350">
        <ele>1237.0</ele>
        <time>2014-07-12T12:45:39Z</time>
      </trkpt>
      <trkpt lat="37.147467" lon="-3.522567">
        <ele>1233.0</ele>
        <time>2014-07-12T12:45:42Z</time>
      </trkpt>
      <trkpt lat="37.147417" lon="-3.522750">
        <ele>1230.0</ele>
        <time>2014-07-12T12:45:45Z</time>
      </trkpt>
      <trkpt lat="37.147300" lon="-3.522883">
        <ele>1228.0</ele>
        <time>2014-07-12T12:45:48Z</time>
      </trkpt>
      <trkpt lat="37.147217" lon="-3.523033">
        <ele>1226.0</ele>
        <time>2014-07-12T12:45:51Z</time>
      </trkpt>
      <trkpt lat="37.147167" lon="-3.523150">
        <ele>1223.0</ele>
        <time>2014-07-12T12:45:54Z</time>
      </trkpt>
      <trkpt lat="37.147100" lon="-3.523233">
        <ele>1221.0</ele>
        <time>2014-07-12T12:45:57Z</time>
      </trkpt>
      <trkpt lat="37.147033" lon="-3.523317">
        <ele>1219.0</ele>
        <time>2014-07-12T12:46:00Z</time>
      </trkpt>
      <trkpt lat="37.147067" lon="-3.523533">
        <ele>1217.0</ele>
        <time>2014-07-12T12:46:03Z</time>
      </trkpt>
      <trkpt lat="37.147083" lon="-3.523683">
        <ele>1215.0</ele>
        <time>2014-07-12T12:46:06Z</time>
      </trkpt>
      <trkpt lat="37.147050" lon="-3.523867">
        <ele>1212.0</ele>
        <time>2014-07-12T12:46:10Z</time>
      </trkpt>
      <trkpt lat="37.146983" lon="-3.523933">
        <ele>1210.0</ele>
        <time>2014-07-12T12:46:13Z</time>
      </trkpt>
      <trkpt lat="37.146867" lon="-3.523950">
        <ele>1209.0</ele>
        <time>2014-07-12T12:46:16Z</time>
      </trkpt>
      <trkpt lat="37.146950" lon="-3.524000">
        <ele>1208.0</ele>
        <time>2014-07-12T12:46:19Z</time>
      </trkpt>
      <trkpt lat="37.147233" lon="-3.524067">
        <ele>1206.0</ele>
        <time>2014-07-12T12:46:22Z</time>
      </trkpt>
      <trkpt lat="37.147400" lon="-3.524167">
        <ele>1205.0</ele>
        <time>2014-07-12T12:46:25Z</time>
      </trkpt>
      <trkpt lat="37.147383" lon="-3.524300">
        <ele>1205.0</ele>
        <time>2014-07-12T12:46:28Z</time>
      </trkpt>
      <trkpt lat="37.147217" lon="-3.524000">
        <ele>1206.0</ele>
        <time>2014-07-12T12:46:31Z</time>
      </trkpt>
      <trkpt lat="37.147400" lon="-3.523583">
        <ele>1206.0</ele>
        <time>2014-07-12T12:46:34Z</time>
      </trkpt>
      <trkpt lat="37.147583" lon="-3.523650">
        <ele>1208.0</ele>
        <time>2014-07-12T12:46:37Z</time>
      </trkpt>
      <trkpt lat="37.147500" lon="-3.523750">
        <ele>1210.0</ele>
        <time>2014-07-12T12:46:40Z</time>
      </trkpt>
      <trkpt lat="37.147400" lon="-3.523750">
        <ele>1212.0</ele>
        <time>2014-07-12T12:46:43Z</time>
      </trkpt>
      <trkpt lat="37.147267" lon="-3.523783">
        <ele>1212.0</ele>
        <time>2014-07-12T12:46:46Z</time>
      </trkpt>
      <trkpt lat="37.147333" lon="-3.523883">
        <ele>1214.0</ele>
        <time>2014-07-12T12:46:49Z</time>
      </trkpt>
      <trkpt lat="37.147450" lon="-3.523800">
        <ele>1216.0</ele>
        <time>2014-07-12T12:46:52Z</time>
      </trkpt>
      <trkpt lat="37.147133" lon="-3.523633">
        <ele>1216.0</ele>
        <time>2014-07-12T12:46:55Z</time>
      </trkpt>
      <trkpt lat="37.147150" lon="-3.523667">
        <ele>1217.0</ele>
        <time>2014-07-12T12:46:58Z</time>
      </trkpt>
      <trkpt lat="37.147383" lon="-3.523400">
        <ele>1224.0</ele>
        <time>2014-07-12T12:47:01Z</time>
      </trkpt>
      <trkpt lat="37.147550" lon="-3.522933">
        <ele>1233.0</ele>
        <time>2014-07-12T12:47:04Z</time>
      </trkpt>
      <trkpt lat="37.147550" lon="-3.522433">
        <ele>1242.0</ele>
        <time>2014-07-12T12:47:07Z</time>
      </trkpt>
      <trkpt lat="37.147367" lon="-3.522083">
        <ele>1251.0</ele>
        <time>2014-07-12T12:47:10Z</time>
      </trkpt>
      <trkpt lat="37.147233" lon="-3.522017">
        <ele>1257.0</ele>
        <time>2014-07-12T12:47:13Z</time>
      </trkpt>
      <trkpt lat="37.147183" lon="-3.522067">
        <ele>1262.0</ele>
        <time>2014-07-12T12:47:16Z</time>
      </trkpt>
      <trkpt lat="37.147133" lon="-3.522217">
        <ele>1268.0</ele>
        <time>2014-07-12T12:47:19Z</time>
      </trkpt>
      <trkpt lat="37.147100" lon="-3.522283">
        <ele>1274.0</ele>
        <time>2014-07-12T12:47:22Z</time>
      </trkpt>
      <trkpt lat="37.146917" lon="-3.522233">
        <ele>1285.0</ele>
        <time>2014-07-12T12:47:25Z</time>
      </trkpt>
      <trkpt lat="37.146683" lon="-3.521817">
        <ele>1298.0</ele>
        <time>2014-07-12T12:47:28Z</time>
      </trkpt>
      <trkpt lat="37.146850" lon="-3.521333">
        <ele>1309.0</ele>
        <time>2014-07-12T12:47:31Z</time>
      </trkpt>
      <trkpt lat="37.147033" lon="-3.521283">
        <ele>1317.0</ele>
        <time>2014-07-12T12:47:34Z</time>
      </trkpt>
      <trkpt lat="37.146933" lon="-3.521283">
        <ele>1325.0</ele>
        <time>2014-07-12T12:47:37Z</time>
      </trkpt>
      <trkpt lat="37.146683" lon="-3.521033">
        <ele>1337.0</ele>
        <time>2014-07-12T12:47:40Z</time>
      </trkpt>
      <trkpt lat="37.146533" lon="-3.520550">
        <ele>1348.0</ele>
        <time>2014-07-12T12:47:43Z</time>
      </trkpt>
      <trkpt lat="37.146600" lon="-3.520050">
        <ele>1358.0</ele>
        <time>2014-07-12T12:47:46Z</time>
      </trkpt>
      <trkpt lat="37.146850" lon="-3.519783">
        <ele>1368.0</ele>
        <time>2014-07-12T12:47:49Z</time>
      </trkpt>
      <trkpt lat="37.147067" lon="-3.519767">
        <ele>1378.0</ele>
        <time>2014-07-12T12:47:52Z</time>
      </trkpt>
      <trkpt lat="37.147150" lon="-3.519900">
        <ele>1386.0</ele>
        <time>2014-07-12T12:47:55Z</time>
      </trkpt>
      <trkpt lat="37.147000" lon="-3.519917">
        <ele>1395.0</ele>
        <time>2014-07-12T12:47:58Z</time>
      </trkpt>
      <trkpt lat="37.146800" lon="-3.519500">
        <ele>1406.0</ele>
        <time>2014-07-12T12:48:01Z</time>
      </trkpt>
      <trkpt lat="37.146833" lon="-3.518967">
        <ele>1416.0</ele>
        <time>2014-07-12T12:48:04Z</time>
      </trkpt>
      <trkpt lat="37.147067" lon="-3.518650">
        <ele>1427.0</ele>
        <time>2014-07-12T12:48:07Z</time>
      </trkpt>
      <trkpt lat="37.147300" lon="-3.518600">
        <ele>1436.0</ele>
        <time>2014-07-12T12:48:10Z</time>
      </trkpt>
      <trkpt lat="37.147350" lon="-3.518700">
        <ele>1441.0</ele>
        <time>2014-07-12T12:48:13Z</time>
      </trkpt>
      <trkpt lat="37.147217" lon="-3.518817">
        <ele>1450.0</ele>
        <time>2014-07-12T12:48:16Z</time>
      </trkpt>
      <trkpt lat="37.146933" lon="-3.518633">
        <ele>1461.0</ele>
        <time>2014-07-12T12:48:19Z</time>
      </trkpt>
      <trkpt lat="37.146817" lon="-3.518100">
        <ele>1472.0</ele>
        <time>2014-07-12T12:48:22Z</time>
      </trkpt>
      <trkpt lat="37.147033" lon="-3.517667">
        <ele>1482.0</ele>
        <time>2014-07-12T12:48:25Z</time>
      </trkpt>
      <trkpt lat="37.147300" lon="-3.517550">
        <ele>1492.0</ele>
        <time>2014-07-12T12:48:28Z</time>
      </trkpt>
      <trkpt lat="37.147383" lon="-3.517633">
        <ele>1499.0</ele>
        <time>2014-07-12T12:48:31Z</time>
      </trkpt>
      <trkpt lat="37.147183" lon="-3.517767">
        <ele>1512.0</ele>
        <time>2014-07-12T12:48:34Z</time>
      </trkpt>
      <trkpt lat="37.146883" lon="-3.517567">
        <ele>1523.0</ele>
        <time>2014-07-12T12:48:37Z</time>
      </trkpt>
      <trkpt lat="37.146650" lon="-3.517100">
        <ele>1534.0</ele>
        <time>2014-07-12T12:48:41Z</time>
      </trkpt>
      <trkpt lat="37.146650" lon="-3.516517">
        <ele>1544.0</ele>
        <time>2014-07-12T12:48:44Z</time>
      </trkpt>
      <trkpt lat="37.146867" lon="-3.516133">
        <ele>1553.0</ele>
        <time>2014-07-12T12:48:47Z</time>
      </trkpt>
      <trkpt lat="37.147133" lon="-3.516067">
        <ele>1562.0</ele>
        <time>2014-07-12T12:48:50Z</time>
      </trkpt>
      <trkpt lat="37.147167" lon="-3.516117">
        <ele>1566.0</ele>
        <time>2014-07-12T12:48:53Z</time>
      </trkpt>
      <trkpt lat="37.147067" lon="-3.516150">
        <ele>1572.0</ele>
        <time>2014-07-12T12:48:56Z</time>
      </trkpt>
      <trkpt lat="37.147000" lon="-3.516233">
        <ele>1578.0</ele>
        <time>2014-07-12T12:48:59Z</time>
      </trkpt>
      <trkpt lat="37.147000" lon="-3.516367">
        <ele>1584.0</ele>
        <time>2014-07-12T12:49:02Z</time>
      </trkpt>
      <trkpt lat="37.146900" lon="-3.516483">
        <ele>1592.0</ele>
        <time>2014-07-12T12:49:05Z</time>
      </trkpt>
      <trkpt lat="37.146800" lon="-3.516617">
        <ele>1602.0</ele>
        <time>2014-07-12T12:49:08Z</time>
      </trkpt>
      <trkpt lat="37.146900" lon="-3.516500">
        <ele>1610.0</ele>
        <time>2014-07-12T12:49:11Z</time>
      </trkpt>
      <trkpt lat="37.146967" lon="-3.516067">
        <ele>1620.0</ele>
        <time>2014-07-12T12:49:14Z</time>
      </trkpt>
      <trkpt lat="37.146783" lon="-3.515600">
        <ele>1626.0</ele>
        <time>2014-07-12T12:49:17Z</time>
      </trkpt>
      <trkpt lat="37.146483" lon="-3.515400">
        <ele>1635.0</ele>
        <time>2014-07-12T12:49:20Z</time>
      </trkpt>
      <trkpt lat="37.146283" lon="-3.515517">
        <ele>1639.0</ele>
        <time>2014-07-12T12:49:23Z</time>
      </trkpt>
      <trkpt lat="37.146333" lon="-3.515600">
        <ele>1643.0</ele>
        <time>2014-07-12T12:49:26Z</time>
      </trkpt>
      <trkpt lat="37.146450" lon="-3.515600">
        <ele>1648.0</ele>
        <time>2014-07-12T12:49:29Z</time>
      </trkpt>
      <trkpt lat="37.146617" lon="-3.515483">
        <ele>1658.0</ele>
        <time>2014-07-12T12:49:32Z</time>
      </trkpt>
      <trkpt lat="37.146733" lon="-3.515083">
        <ele>1668.0</ele>
        <time>2014-07-12T12:49:35Z</time>
      </trkpt>
      <trkpt lat="37.146633" lon="-3.514633">
        <ele>1678.0</ele>
        <time>2014-07-12T12:49:38Z</time>
      </trkpt>
      <trkpt lat="37.146350" lon="-3.514450">
        <ele>1686.0</ele>
        <time>2014-07-12T12:49:41Z</time>
      </trkpt>
      <trkpt lat="37.146217" lon="-3.514583">
        <ele>1693.0</ele>
        <time>2014-07-12T12:49:44Z</time>
      </trkpt>
      <trkpt lat="37.146317" lon="-3.514633">
        <ele>1697.0</ele>
        <time>2014-07-12T12:49:47Z</time>
      </trkpt>
      <trkpt lat="37.146500" lon="-3.514350">
        <ele>1705.0</ele>
        <time>2014-07-12T12:49:50Z</time>
      </trkpt>
      <trkpt lat="37.146517" lon="-3.513867">
        <ele>1712.0</ele>
        <time>2014-07-12T12:49:53Z</time>
      </trkpt>
      <trkpt lat="37.146267" lon="-3.513683">
        <ele>1719.0</ele>
        <time>2014-07-12T12:49:56Z</time>
      </trkpt>
      <trkpt lat="37.146100" lon="-3.513817">
        <ele>1726.0</ele>
        <time>2014-07-12T12:49:59Z</time>
      </trkpt>
      <trkpt lat="37.146183" lon="-3.513883">
        <ele>1730.0</ele>
        <time>2014-07-12T12:50:02Z</time>
      </trkpt>
      <trkpt lat="37.146333" lon="-3.513617">
        <ele>1737.0</ele>
        <time>2014-07-12T12:50:05Z</time>
      </trkpt>
      <trkpt lat="37.146367" lon="-3.513133">
        <ele>1743.0</ele>
        <time>2014-07-12T12:50:08Z</time>
      </trkpt>
      <trkpt lat="37.146200" lon="-3.512683">
        <ele>1750.0</ele>
        <time>2014-07-12T12:50:11Z</time>
      </trkpt>
      <trkpt lat="37.145967" lon="-3.512633">
        <ele>1757.0</ele>
        <time>2014-07-12T12:50:14Z</time>
      </trkpt>
      <trkpt lat="37.145900" lon="-3.512783">
        <ele>1762.0</ele>
        <time>2014-07-12T12:50:17Z</time>
      </trkpt>
      <trkpt lat="37.145967" lon="-3.512883">
        <ele>1766.0</ele>
        <time>2014-07-12T12:50:20Z</time>
      </trkpt>
      <trkpt lat="37.146067" lon="-3.512950">
        <ele>1770.0</ele>
        <time>2014-07-12T12:50:23Z</time>
      </trkpt>
      <trkpt lat="37.146133" lon="-3.512950">
        <ele>1774.0</ele>
        <time>2014-07-12T12:50:26Z</time>
      </trkpt>
      <trkpt lat="37.146283" lon="-3.513000">
        <ele>1779.0</ele>
        <time>2014-07-12T12:50:29Z</time>
      </trkpt>
      <trkpt lat="37.146333" lon="-3.513083">
        <ele>1782.0</ele>
        <time>2014-07-12T12:50:32Z</time>
      </trkpt>
      <trkpt lat="37.146417" lon="-3.513133">
        <ele>1785.0</ele>
        <time>2014-07-12T12:50:35Z</time>
      </trkpt>
      <trkpt lat="37.146617" lon="-3.513033">
        <ele>1789.0</ele>
        <time>2014-07-12T12:50:38Z</time>
      </trkpt>
      <trkpt lat="37.146750" lon="-3.512983">
        <ele>1792.0</ele>
        <time>2014-07-12T12:50:41Z</time>
      </trkpt>
      <trkpt lat="37.146933" lon="-3.512967">
        <ele>1795.0</ele>
        <time>2014-07-12T12:50:44Z</time>
      </trkpt>
      <trkpt lat="37.147133" lon="-3.512683">
        <ele>1796.0</ele>
        <time>2014-07-12T12:50:47Z</time>
      </trkpt>
      <trkpt lat="37.147217" lon="-3.512217">
        <ele>1796.0</ele>
        <time>2014-07-12T12:50:50Z</time>
      </trkpt>
      <trkpt lat="37.147167" lon="-3.511733">
        <ele>1796.0</ele>
        <time>2014-07-12T12:50:53Z</time>
      </trkpt>
      <trkpt lat="37.147033" lon="-3.511267">
        <ele>1795.0</ele>
        <time>2014-07-12T12:50:56Z</time>
      </trkpt>
      <trkpt lat="37.146817" lon="-3.510933">
        <ele>1794.0</ele>
        <time>2014-07-12T12:50:59Z</time>
      </trkpt>
      <trkpt lat="37.146467" lon="-3.510583">
        <ele>1793.0</ele>
        <time>2014-07-12T12:51:02Z</time>
      </trkpt>
      <trkpt lat="37.146217" lon="-3.510433">
        <ele>1793.0</ele>
        <time>2014-07-12T12:51:05Z</time>
      </trkpt>
      <trkpt lat="37.145967" lon="-3.510500">
        <ele>1793.0</ele>
        <time>2014-07-12T12:51:09Z</time>
      </trkpt>
      <trkpt lat="37.145933" lon="-3.510633">
        <ele>1792.0</ele>
        <time>2014-07-12T12:51:12Z</time>
      </trkpt>
      <trkpt lat="37.146150" lon="-3.510550">
        <ele>1791.0</ele>
        <time>2014-07-12T12:51:15Z</time>
      </trkpt>
      <trkpt lat="37.146317" lon="-3.510217">
        <ele>1792.0</ele>
        <time>2014-07-12T12:51:18Z</time>
      </trkpt>
      <trkpt lat="37.146250" lon="-3.509733">
        <ele>1793.0</ele>
        <time>2014-07-12T12:51:21Z</time>
      </trkpt>
      <trkpt lat="37.146033" lon="-3.509433">
        <ele>1794.0</ele>
        <time>2014-07-12T12:51:24Z</time>
      </trkpt>
      <trkpt lat="37.145850" lon="-3.509433">
        <ele>1797.0</ele>
        <time>2014-07-12T12:51:27Z</time>
      </trkpt>
      <trkpt lat="37.145667" lon="-3.509567">
        <ele>1799.0</ele>
        <time>2014-07-12T12:51:30Z</time>
      </trkpt>
      <trkpt lat="37.145650" lon="-3.509717">
        <ele>1801.0</ele>
        <time>2014-07-12T12:51:33Z</time>
      </trkpt>
      <trkpt lat="37.145717" lon="-3.509750">
        <ele>1802.0</ele>
        <time>2014-07-12T12:51:36Z</time>
      </trkpt>
      <trkpt lat="37.145867" lon="-3.509650">
        <ele>1803.0</ele>
        <time>2014-07-12T12:51:39Z</time>
      </trkpt>
      <trkpt lat="37.146067" lon="-3.509383">
        <ele>1803.0</ele>
        <time>2014-07-12T12:51:42Z</time>
      </trkpt>
      <trkpt lat="37.146200" lon="-3.509000">
        <ele>1804.0</ele>
        <time>2014-07-12T12:51:45Z</time>
      </trkpt>
      <trkpt lat="37.146300" lon="-3.508550">
        <ele>1804.0</ele>
        <time>2014-07-12T12:51:48Z</time>
      </trkpt>
      <trkpt lat="37.146333" lon="-3.508083">
        <ele>1804.0</ele>
        <time>2014-07-12T12:51:51Z</time>
      </trkpt>
      <trkpt lat="37.146333" lon="-3.507650">
        <ele>1805.0</ele>
        <time>2014-07-12T12:51:54Z</time>
      </trkpt>
      <trkpt lat="37.146283" lon="-3.507267">
        <ele>1807.0</ele>
        <time>2014-07-12T12:51:57Z</time>
      </trkpt>
      <trkpt lat="37.146200" lon="-3.506850">
        <ele>1811.0</ele>
        <time>2014-07-12T12:52:00Z</time>
      </trkpt>
      <trkpt lat="37.145967" lon="-3.506633">
        <ele>1815.0</ele>
        <time>2014-07-12T12:52:03Z</time>
      </trkpt>
      <trkpt lat="37.145750" lon="-3.506817">
        <ele>1818.0</ele>
        <time>2014-07-12T12:52:06Z</time>
      </trkpt>
      <trkpt lat="37.145850" lon="-3.506883">
        <ele>1820.0</ele>
        <time>2014-07-12T12:52:09Z</time>
      </trkpt>
      <trkpt lat="37.146067" lon="-3.506833">
        <ele>1827.0</ele>
        <time>2014-07-12T12:52:12Z</time>
      </trkpt>
      <trkpt lat="37.146317" lon="-3.506817">
        <ele>1835.0</ele>
        <time>2014-07-12T12:52:15Z</time>
      </trkpt>
      <trkpt lat="37.146617" lon="-3.506717">
        <ele>1843.0</ele>
        <time>2014-07-12T12:52:18Z</time>
      </trkpt>
      <trkpt lat="37.146917" lon="-3.506367">
        <ele>1851.0</ele>
        <time>2014-07-12T12:52:21Z</time>
      </trkpt>
      <trkpt lat="37.146967" lon="-3.505850">
        <ele>1859.0</ele>
        <time>2014-07-12T12:52:24Z</time>
      </trkpt>
      <trkpt lat="37.146867" lon="-3.505367">
        <ele>1867.0</ele>
        <time>2014-07-12T12:52:27Z</time>
      </trkpt>
      <trkpt lat="37.146683" lon="-3.504983">
        <ele>1874.0</ele>
        <time>2014-07-12T12:52:30Z</time>
      </trkpt>
      <trkpt lat="37.146433" lon="-3.504617">
        <ele>1881.0</ele>
        <time>2014-07-12T12:52:33Z</time>
      </trkpt>
      <trkpt lat="37.146200" lon="-3.504250">
        <ele>1888.0</ele>
        <time>2014-07-12T12:52:36Z</time>
      </trkpt>
      <trkpt lat="37.145933" lon="-3.503967">
        <ele>1897.0</ele>
        <time>2014-07-12T12:52:39Z</time>
      </trkpt>
      <trkpt lat="37.145667" lon="-3.503867">
        <ele>1907.0</ele>
        <time>2014-07-12T12:52:42Z</time>
      </trkpt>
      <trkpt lat="37.145567" lon="-3.503900">
        <ele>1914.0</ele>
        <time>2014-07-12T12:52:45Z</time>
      </trkpt>
      <trkpt lat="37.145733" lon="-3.503933">
        <ele>1924.0</ele>
        <time>2014-07-12T12:52:48Z</time>
      </trkpt>
      <trkpt lat="37.145967" lon="-3.503617">
        <ele>1937.0</ele>
        <time>2014-07-12T12:52:51Z</time>
      </trkpt>
      <trkpt lat="37.145917" lon="-3.503100">
        <ele>1949.0</ele>
        <time>2014-07-12T12:52:54Z</time>
      </trkpt>
      <trkpt lat="37.145733" lon="-3.502717">
        <ele>1961.0</ele>
        <time>2014-07-12T12:52:57Z</time>
      </trkpt>
      <trkpt lat="37.145500" lon="-3.502433">
        <ele>1974.0</ele>
        <time>2014-07-12T12:53:00Z</time>
      </trkpt>
      <trkpt lat="37.145250" lon="-3.502333">
        <ele>1986.0</ele>
        <time>2014-07-12T12:53:03Z</time>
      </trkpt>
      <trkpt lat="37.145200" lon="-3.502450">
        <ele>1993.0</ele>
        <time>2014-07-12T12:53:06Z</time>
      </trkpt>
      <trkpt lat="37.145300" lon="-3.502583">
        <ele>2003.0</ele>
        <time>2014-07-12T12:53:09Z</time>
      </trkpt>
      <trkpt lat="37.145550" lon="-3.502567">
        <ele>2019.0</ele>
        <time>2014-07-12T12:53:12Z</time>
      </trkpt>
      <trkpt lat="37.145817" lon="-3.502333">
        <ele>2034.0</ele>
        <time>2014-07-12T12:53:15Z</time>
      </trkpt>
      <trkpt lat="37.145950" lon="-3.501917">
        <ele>2049.0</ele>
        <time>2014-07-12T12:53:18Z</time>
      </trkpt>
      <trkpt lat="37.145917" lon="-3.501417">
        <ele>2062.0</ele>
        <time>2014-07-12T12:53:21Z</time>
      </trkpt>
      <trkpt lat="37.145750" lon="-3.500950">
        <ele>2076.0</ele>
        <time>2014-07-12T12:53:24Z</time>
      </trkpt>
      <trkpt lat="37.145517" lon="-3.500567">
        <ele>2090.0</ele>
        <time>2014-07-12T12:53:27Z</time>
      </trkpt>
      <trkpt lat="37.145217" lon="-3.500433">
        <ele>2106.0</ele>
        <time>2014-07-12T12:53:30Z</time>
      </trkpt>
      <trkpt lat="37.145150" lon="-3.500567">
        <ele>2110.0</ele>
        <time>2014-07-12T12:53:33Z</time>
      </trkpt>
      <trkpt lat="37.145333" lon="-3.500550">
        <ele>2123.0</ele>
        <time>2014-07-12T12:53:37Z</time>
      </trkpt>
      <trkpt lat="37.145617" lon="-3.500317">
        <ele>2138.0</ele>
        <time>2014-07-12T12:53:40Z</time>
      </trkpt>
      <trkpt lat="37.145733" lon="-3.499883">
        <ele>2154.0</ele>
        <time>2014-07-12T12:53:43Z</time>
      </trkpt>
      <trkpt lat="37.145667" lon="-3.499367">
        <ele>2168.0</ele>
        <time>2014-07-12T12:53:46Z</time>
      </trkpt>
      <trkpt lat="37.145417" lon="-3.498950">
        <ele>2182.0</ele>
        <time>2014-07-12T12:53:49Z</time>
      </trkpt>
      <trkpt lat="37.145133" lon="-3.498800">
        <ele>2197.0</ele>
        <time>2014-07-12T12:53:52Z</time>
      </trkpt>
      <trkpt lat="37.145017" lon="-3.498867">
        <ele>2207.0</ele>
        <time>2014-07-12T12:53:55Z</time>
      </trkpt>
      <trkpt lat="37.145067" lon="-3.498933">
        <ele>2215.0</ele>
        <time>2014-07-12T12:53:58Z</time>
      </trkpt>
      <trkpt lat="37.145283" lon="-3.498883">
        <ele>2233.0</ele>
        <time>2014-07-12T12:54:01Z</time>
      </trkpt>
      <trkpt lat="37.145567" lon="-3.498650">
        <ele>2249.0</ele>
        <time>2014-07-12T12:54:04Z</time>
      </trkpt>
      <trkpt lat="37.145733" lon="-3.498217">
        <ele>2265.0</ele>
        <time>2014-07-12T12:54:07Z</time>
      </trkpt>
      <trkpt lat="37.145683" lon="-3.497717">
        <ele>2280.0</ele>
        <time>2014-07-12T12:54:10Z</time>
      </trkpt>
      <trkpt lat="37.145500" lon="-3.497267">
        <ele>2293.0</ele>
        <time>2014-07-12T12:54:13Z</time>
      </trkpt>
      <trkpt lat="37.145217" lon="-3.496933">
        <ele>2306.0</ele>
        <time>2014-07-12T12:54:16Z</time>
      </trkpt>
      <trkpt lat="37.144917" lon="-3.496817">
        <ele>2318.0</ele>
        <time>2014-07-12T12:54:19Z</time>
      </trkpt>
      <trkpt lat="37.144750" lon="-3.496917">
        <ele>2327.0</ele>
        <time>2014-07-12T12:54:22Z</time>
      </trkpt>
      <trkpt lat="37.144733" lon="-3.497133">
        <ele>2339.0</ele>
        <time>2014-07-12T12:54:25Z</time>
      </trkpt>
      <trkpt lat="37.144817" lon="-3.497350">
        <ele>2350.0</ele>
        <time>2014-07-12T12:54:28Z</time>
      </trkpt>
      <trkpt lat="37.144983" lon="-3.497483">
        <ele>2361.0</ele>
        <time>2014-07-12T12:54:31Z</time>
      </trkpt>
      <trkpt lat="37.145133" lon="-3.497617">
        <ele>2373.0</ele>
        <time>2014-07-12T12:54:34Z</time>
      </trkpt>
      <trkpt lat="37.145333" lon="-3.497783">
        <ele>2384.0</ele>
        <time>2014-07-12T12:54:37Z</time>
      </trkpt>
      <trkpt lat="37.145533" lon="-3.497767">
        <ele>2395.0</ele>
        <time>2014-07-12T12:54:40Z</time>
      </trkpt>
      <trkpt lat="37.145767" lon="-3.497650">
        <ele>2406.0</ele>
        <time>2014-07-12T12:54:43Z</time>
      </trkpt>
      <trkpt lat="37.145950" lon="-3.497283">
        <ele>2417.0</ele>
        <time>2014-07-12T12:54:46Z</time>
      </trkpt>
      <trkpt lat="37.145917" lon="-3.496850">
        <ele>2428.0</ele>
        <time>2014-07-12T12:54:49Z</time>
      </trkpt>
      <trkpt lat="37.145833" lon="-3.496400">
        <ele>2438.0</ele>
        <time>2014-07-12T12:54:52Z</time>
      </trkpt>
      <trkpt lat="37.145667" lon="-3.496067">
        <ele>2449.0</ele>
        <time>2014-07-12T12:54:55Z</time>
      </trkpt>
      <trkpt lat="37.145417" lon="-3.495917">
        <ele>2460.0</ele>
        <time>2014-07-12T12:54:58Z</time>
      </trkpt>
      <trkpt lat="37.145200" lon="-3.495917">
        <ele>2473.0</ele>
        <time>2014-07-12T12:55:01Z</time>
      </trkpt>
      <trkpt lat="37.144983" lon="-3.495983">
        <ele>2485.0</ele>
        <time>2014-07-12T12:55:04Z</time>
      </trkpt>
      <trkpt lat="37.144967" lon="-3.496167">
        <ele>2497.0</ele>
        <time>2014-07-12T12:55:07Z</time>
      </trkpt>
      <trkpt lat="37.145167" lon="-3.496133">
        <ele>2508.0</ele>
        <time>2014-07-12T12:55:10Z</time>
      </trkpt>
      <trkpt lat="37.145300" lon="-3.495817">
        <ele>2518.0</ele>
        <time>2014-07-12T12:55:13Z</time>
      </trkpt>
      <trkpt lat="37.145433" lon="-3.495483">
        <ele>2529.0</ele>
        <time>2014-07-12T12:55:16Z</time>
      </trkpt>
      <trkpt lat="37.145583" lon="-3.495100">
        <ele>2539.0</ele>
        <time>2014-07-12T12:55:19Z</time>
      </trkpt>
      <trkpt lat="37.145567" lon="-3.494683">
        <ele>2550.0</ele>
        <time>2014-07-12T12:55:22Z</time>
      </trkpt>
      <trkpt lat="37.145367" lon="-3.494483">
        <ele>2559.0</ele>
        <time>2014-07-12T12:55:25Z</time>
      </trkpt>
      <trkpt lat="37.145250" lon="-3.494600">
        <ele>2568.0</ele>
        <time>2014-07-12T12:55:28Z</time>
      </trkpt>
      <trkpt lat="37.145350" lon="-3.494783">
        <ele>2577.0</ele>
        <time>2014-07-12T12:55:31Z</time>
      </trkpt>
      <trkpt lat="37.145600" lon="-3.494850">
        <ele>2586.0</ele>
        <time>2014-07-12T12:55:34Z</time>
      </trkpt>
      <trkpt lat="37.145867" lon="-3.494717">
        <ele>2594.0</ele>
        <time>2014-07-12T12:55:37Z</time>
      </trkpt>
      <trkpt lat="37.146017" lon="-3.494383">
        <ele>2602.0</ele>
        <time>2014-07-12T12:55:40Z</time>
      </trkpt>
      <trkpt lat="37.145967" lon="-3.494017">
        <ele>2610.0</ele>
        <time>2014-07-12T12:55:43Z</time>
      </trkpt>
      <trkpt lat="37.145867" lon="-3.493700">
        <ele>2617.0</ele>
        <time>2014-07-12T12:55:46Z</time>
      </trkpt>
      <trkpt lat="37.145700" lon="-3.493283">
        <ele>2624.0</ele>
        <time>2014-07-12T12:55:49Z</time>
      </trkpt>
      <trkpt lat="37.145550" lon="-3.492933">
        <ele>2631.0</ele>
        <time>2014-07-12T12:55:52Z</time>
      </trkpt>
      <trkpt lat="37.145350" lon="-3.492617">
        <ele>2638.0</ele>
        <time>2014-07-12T12:55:55Z</time>
      </trkpt>
      <trkpt lat="37.145067" lon="-3.492400">
        <ele>2644.0</ele>
        <time>2014-07-12T12:55:58Z</time>
      </trkpt>
      <trkpt lat="37.144700" lon="-3.492383">
        <ele>2653.0</ele>
        <time>2014-07-12T12:56:01Z</time>
      </trkpt>
      <trkpt lat="37.144500" lon="-3.492533">
        <ele>2659.0</ele>
        <time>2014-07-12T12:56:04Z</time>
      </trkpt>
      <trkpt lat="37.144483" lon="-3.492783">
        <ele>2666.0</ele>
        <time>2014-07-12T12:56:08Z</time>
      </trkpt>
      <trkpt lat="37.144533" lon="-3.493000">
        <ele>2672.0</ele>
        <time>2014-07-12T12:56:11Z</time>
      </trkpt>
      <trkpt lat="37.144667" lon="-3.493150">
        <ele>2678.0</ele>
        <time>2014-07-12T12:56:14Z</time>
      </trkpt>
      <trkpt lat="37.144850" lon="-3.493033">
        <ele>2683.0</ele>
        <time>2014-07-12T12:56:17Z</time>
      </trkpt>
      <trkpt lat="37.145000" lon="-3.492683">
        <ele>2686.0</ele>
        <time>2014-07-12T12:56:20Z</time>
      </trkpt>
      <trkpt lat="37.145033" lon="-3.492217">
        <ele>2690.0</ele>
        <time>2014-07-12T12:56:23Z</time>
      </trkpt>
      <trkpt lat="37.145067" lon="-3.491733">
        <ele>2693.0</ele>
        <time>2014-07-12T12:56:26Z</time>
      </trkpt>
      <trkpt lat="37.145033" lon="-3.491250">
        <ele>2696.0</ele>
        <time>2014-07-12T12:56:29Z</time>
      </trkpt>
      <trkpt lat="37.144933" lon="-3.490800">
        <ele>2698.0</ele>
        <time>2014-07-12T12:56:32Z</time>
      </trkpt>
      <trkpt lat="37.144767" lon="-3.490417">
        <ele>2701.0</ele>
        <time>2014-07-12T12:56:35Z</time>
      </trkpt>
      <trkpt lat="37.144567" lon="-3.490100">
        <ele>2705.0</ele>
        <time>2014-07-12T12:56:38Z</time>
      </trkpt>
      <trkpt lat="37.144350" lon="-3.489950">
        <ele>2709.0</ele>
        <time>2014-07-12T12:56:41Z</time>
      </trkpt>
      <trkpt lat="37.144183" lon="-3.490017">
        <ele>2713.0</ele>
        <time>2014-07-12T12:56:44Z</time>
      </trkpt>
      <trkpt lat="37.144117" lon="-3.490150">
        <ele>2715.0</ele>
        <time>2014-07-12T12:56:47Z</time>
      </trkpt>
      <trkpt lat="37.144133" lon="-3.490367">
        <ele>2721.0</ele>
        <time>2014-07-12T12:56:50Z</time>
      </trkpt>
      <trkpt lat="37.144317" lon="-3.490500">
        <ele>2726.0</ele>
        <time>2014-07-12T12:56:53Z</time>
      </trkpt>
      <trkpt lat="37.144617" lon="-3.490450">
        <ele>2730.0</ele>
        <time>2014-07-12T12:56:56Z</time>
      </trkpt>
      <trkpt lat="37.144833" lon="-3.490167">
        <ele>2734.0</ele>
        <time>2014-07-12T12:56:59Z</time>
      </trkpt>
      <trkpt lat="37.144850" lon="-3.489717">
        <ele>2738.0</ele>
        <time>2014-07-12T12:57:02Z</time>
      </trkpt>
      <trkpt lat="37.144700" lon="-3.489317">
        <ele>2742.0</ele>
        <time>2014-07-12T12:57:05Z</time>
      </trkpt>
      <trkpt lat="37.144533" lon="-3.488967">
        <ele>2745.0</ele>
        <time>2014-07-12T12:57:08Z</time>
      </trkpt>
      <trkpt lat="37.144333" lon="-3.488733">
        <ele>2749.0</ele>
        <time>2014-07-12T12:57:11Z</time>
      </trkpt>
      <trkpt lat="37.144083" lon="-3.488600">
        <ele>2752.0</ele>
        <time>2014-07-12T12:57:14Z</time>
      </trkpt>
      <trkpt lat="37.143883" lon="-3.488717">
        <ele>2755.0</ele>
        <time>2014-07-12T12:57:17Z</time>
      </trkpt>
      <trkpt lat="37.143783" lon="-3.488950">
        <ele>2759.0</ele>
        <time>2014-07-12T12:57:20Z</time>
      </trkpt>
      <trkpt lat="37.143817" lon="-3.489150">
        <ele>2761.0</ele>
        <time>2014-07-12T12:57:23Z</time>
      </trkpt>
      <trkpt lat="37.143983" lon="-3.489217">
        <ele>2764.0</ele>
        <time>2014-07-12T12:57:26Z</time>
      </trkpt>
      <trkpt lat="37.144167" lon="-3.489183">
        <ele>2767.0</ele>
        <time>2014-07-12T12:57:29Z</time>
      </trkpt>
      <trkpt lat="37.144400" lon="-3.489000">
        <ele>2769.0</ele>
        <time>2014-07-12T12:57:32Z</time>
      </trkpt>
      <trkpt lat="37.144600" lon="-3.488700">
        <ele>2770.0</ele>
        <time>2014-07-12T12:57:35Z</time>
      </trkpt>
      <trkpt lat="37.144650" lon="-3.488300">
        <ele>2770.0</ele>
        <time>2014-07-12T12:57:38Z</time>
      </trkpt>
      <trkpt lat="37.144517" lon="-3.487850">
        <ele>2769.0</ele>
        <time>2014-07-12T12:57:41Z</time>
      </trkpt>
      <trkpt lat="37.144317" lon="-3.487433">
        <ele>2769.0</ele>
        <time>2014-07-12T12:57:44Z</time>
      </trkpt>
      <trkpt lat="37.144083" lon="-3.487117">
        <ele>2768.0</ele>
        <time>2014-07-12T12:57:47Z</time>
      </trkpt>
      <trkpt lat="37.143833" lon="-3.486933">
        <ele>2770.0</ele>
        <time>2014-07-12T12:57:50Z</time>
      </trkpt>
      <trkpt lat="37.143583" lon="-3.486783">
        <ele>2771.0</ele>
        <time>2014-07-12T12:57:53Z</time>
      </trkpt>
      <trkpt lat="37.143467" lon="-3.486867">
        <ele>2771.0</ele>
        <time>2014-07-12T12:57:56Z</time>
      </trkpt>
      <trkpt lat="37.143633" lon="-3.486950">
        <ele>2772.0</ele>
        <time>2014-07-12T12:57:59Z</time>
      </trkpt>
      <trkpt lat="37.143867" lon="-3.486717">
        <ele>2772.0</ele>
        <time>2014-07-12T12:58:02Z</time>
      </trkpt>
      <trkpt lat="37.143933" lon="-3.486217">
        <ele>2773.0</ele>
        <time>2014-07-12T12:58:05Z</time>
      </trkpt>
      <trkpt lat="37.143783" lon="-3.485750">
        <ele>2774.0</ele>
        <time>2014-07-12T12:58:08Z</time>
      </trkpt>
      <trkpt lat="37.143550" lon="-3.485567">
        <ele>2776.0</ele>
        <time>2014-07-12T12:58:11Z</time>
      </trkpt>
      <trkpt lat="37.143350" lon="-3.485583">
        <ele>2779.0</ele>
        <time>2014-07-12T12:58:14Z</time>
      </trkpt>
      <trkpt lat="37.143267" lon="-3.485700">
        <ele>2781.0</ele>
        <time>2014-07-12T12:58:17Z</time>
      </trkpt>
      <trkpt lat="37.143267" lon="-3.485783">
        <ele>2784.0</ele>
        <time>2014-07-12T12:58:20Z</time>
      </trkpt>
      <trkpt lat="37.143417" lon="-3.485833">
        <ele>2787.0</ele>
        <time>2014-07-12T12:58:23Z</time>
      </trkpt>
      <trkpt lat="37.143633" lon="-3.485583">
        <ele>2792.0</ele>
        <time>2014-07-12T12:58:26Z</time>
      </trkpt>
      <trkpt lat="37.143733" lon="-3.484983">
        <ele>2797.0</ele>
        <time>2014-07-12T12:58:29Z</time>
      </trkpt>
      <trkpt lat="37.143667" lon="-3.484500">
        <ele>2801.0</ele>
        <time>2014-07-12T12:58:32Z</time>
      </trkpt>
      <trkpt lat="37.143450" lon="-3.484100">
        <ele>2804.0</ele>
        <time>2014-07-12T12:58:35Z</time>
      </trkpt>
      <trkpt lat="37.143167" lon="-3.483933">
        <ele>2807.0</ele>
        <time>2014-07-12T12:58:39Z</time>
      </trkpt>
      <trkpt lat="37.142950" lon="-3.483950">
        <ele>2811.0</ele>
        <time>2014-07-12T12:58:42Z</time>
      </trkpt>
      <trkpt lat="37.142833" lon="-3.484017">
        <ele>2813.0</ele>
        <time>2014-07-12T12:58:45Z</time>
      </trkpt>
      <trkpt lat="37.142883" lon="-3.484150">
        <ele>2814.0</ele>
        <time>2014-07-12T12:58:48Z</time>
      </trkpt>
      <trkpt lat="37.143067" lon="-3.484117">
        <ele>2816.0</ele>
        <time>2014-07-12T12:58:51Z</time>
      </trkpt>
      <trkpt lat="37.143267" lon="-3.483850">
        <ele>2817.0</ele>
        <time>2014-07-12T12:58:54Z</time>
      </trkpt>
      <trkpt lat="37.143450" lon="-3.483433">
        <ele>2817.0</ele>
        <time>2014-07-12T12:58:57Z</time>
      </trkpt>
      <trkpt lat="37.143483" lon="-3.482983">
        <ele>2818.0</ele>
        <time>2014-07-12T12:59:00Z</time>
      </trkpt>
      <trkpt lat="37.143417" lon="-3.482467">
        <ele>2819.0</ele>
        <time>2014-07-12T12:59:03Z</time>
      </trkpt>
      <trkpt lat="37.143250" lon="-3.482133">
        <ele>2820.0</ele>
        <time>2014-07-12T12:59:06Z</time>
      </trkpt>
      <trkpt lat="37.143000" lon="-3.482033">
        <ele>2821.0</ele>
        <time>2014-07-12T12:59:09Z</time>
      </trkpt>
      <trkpt lat="37.142800" lon="-3.482050">
        <ele>2821.0</ele>
        <time>2014-07-12T12:59:12Z</time>
      </trkpt>
      <trkpt lat="37.142783" lon="-3.482117">
        <ele>2821.0</ele>
        <time>2014-07-12T12:59:15Z</time>
      </trkpt>
      <trkpt lat="37.142883" lon="-3.482167">
        <ele>2821.0</ele>
        <time>2014-07-12T12:59:18Z</time>
      </trkpt>
      <trkpt lat="37.143050" lon="-3.482117">
        <ele>2822.0</ele>
        <time>2014-07-12T12:59:21Z</time>
      </trkpt>
      <trkpt lat="37.143317" lon="-3.481917">
        <ele>2822.0</ele>
        <time>2014-07-12T12:59:24Z</time>
      </trkpt>
      <trkpt lat="37.143567" lon="-3.481533">
        <ele>2823.0</ele>
        <time>2014-07-12T12:59:27Z</time>
      </trkpt>
      <trkpt lat="37.143633" lon="-3.481083">
        <ele>2825.0</ele>
        <time>2014-07-12T12:59:30Z</time>
      </trkpt>
      <trkpt lat="37.143550" lon="-3.480600">
        <ele>2826.0</ele>
        <time>2014-07-12T12:59:33Z</time>
      </trkpt>
      <trkpt lat="37.143367" lon="-3.480183">
        <ele>2828.0</ele>
        <time>2014-07-12T12:59:36Z</time>
      </trkpt>
      <trkpt lat="37.143100" lon="-3.479950">
        <ele>2829.0</ele>
        <time>2014-07-12T12:59:39Z</time>
      </trkpt>
      <trkpt lat="37.142900" lon="-3.479933">
        <ele>2830.0</ele>
        <time>2014-07-12T12:59:42Z</time>
      </trkpt>
      <trkpt lat="37.142783" lon="-3.480017">
        <ele>2831.0</ele>
        <time>2014-07-12T12:59:45Z</time>
      </trkpt>
      <trkpt lat="37.142817" lon="-3.480117">
        <ele>2832.0</ele>
        <time>2014-07-12T12:59:48Z</time>
      </trkpt>
      <trkpt lat="37.143017" lon="-3.480067">
        <ele>2834.0</ele>
        <time>2014-07-12T12:59:51Z</time>
      </trkpt>
      <trkpt lat="37.143233" lon="-3.479783">
        <ele>2836.0</ele>
        <time>2014-07-12T12:59:54Z</time>
      </trkpt>
      <trkpt lat="37.143317" lon="-3.479317">
        <ele>2838.0</ele>
        <time>2014-07-12T12:59:57Z</time>
      </trkpt>
      <trkpt lat="37.143267" lon="-3.478867">
        <ele>2840.0</ele>
        <time>2014-07-12T13:00:00Z</time>
      </trkpt>
      <trkpt lat="37.143033" lon="-3.478567">
        <ele>2842.0</ele>
        <time>2014-07-12T13:00:03Z</time>
      </trkpt>
      <trkpt lat="37.142767" lon="-3.478550">
        <ele>2844.0</ele>
        <time>2014-07-12T13:00:06Z</time>
      </trkpt>
      <trkpt lat="37.142600" lon="-3.478617">
        <ele>2846.0</ele>
        <time>2014-07-12T13:00:09Z</time>
      </trkpt>
      <trkpt lat="37.142400" lon="-3.478717">
        <ele>2848.0</ele>
        <time>2014-07-12T13:00:12Z</time>
      </trkpt>
      <trkpt lat="37.142267" lon="-3.478817">
        <ele>2849.0</ele>
        <time>2014-07-12T13:00:15Z</time>
      </trkpt>
      <trkpt lat="37.142183" lon="-3.478933">
        <ele>2849.0</ele>
        <time>2014-07-12T13:00:18Z</time>
      </trkpt>
      <trkpt lat="37.142117" lon="-3.479083">
        <ele>2848.0</ele>
        <time>2014-07-12T13:00:21Z</time>
      </trkpt>
      <trkpt lat="37.142083" lon="-3.479250">
        <ele>2846.0</ele>
        <time>2014-07-12T13:00:24Z</time>
      </trkpt>
      <trkpt lat="37.142067" lon="-3.479433">
        <ele>2844.0</ele>
        <time>2014-07-12T13:00:27Z</time>
      </trkpt>
      <trkpt lat="37.142067" lon="-3.479600">
        <ele>2842.0</ele>
        <time>2014-07-12T13:00:30Z</time>
      </trkpt>
      <trkpt lat="37.142067" lon="-3.479783">
        <ele>2839.0</ele>
        <time>2014-07-12T13:00:33Z</time>
      </trkpt>
      <trkpt lat="37.142033" lon="-3.479950">
        <ele>2835.0</ele>
        <time>2014-07-12T13:00:36Z</time>
      </trkpt>
      <trkpt lat="37.142000" lon="-3.480117">
        <ele>2832.0</ele>
        <time>2014-07-12T13:00:39Z</time>
      </trkpt>
      <trkpt lat="37.141950" lon="-3.480317">
        <ele>2827.0</ele>
        <time>2014-07-12T13:00:42Z</time>
      </trkpt>
      <trkpt lat="37.141917" lon="-3.480500">
        <ele>2823.0</ele>
        <time>2014-07-12T13:00:45Z</time>
      </trkpt>
      <trkpt lat="37.141867" lon="-3.480667">
        <ele>2818.0</ele>
        <time>2014-07-12T13:00:48Z</time>
      </trkpt>
      <trkpt lat="37.141850" lon="-3.480833">
        <ele>2814.0</ele>
        <time>2014-07-12T13:00:51Z</time>
      </trkpt>
      <trkpt lat="37.141817" lon="-3.480983">
        <ele>2809.0</ele>
        <time>2014-07-12T13:00:54Z</time>
      </trkpt>
      <trkpt lat="37.141767" lon="-3.481167">
        <ele>2802.0</ele>
        <time>2014-07-12T13:00:57Z</time>
      </trkpt>
      <trkpt lat="37.141717" lon="-3.481433">
        <ele>2791.0</ele>
        <time>2014-07-12T13:01:00Z</time>
      </trkpt>
      <trkpt lat="37.141683" lon="-3.481633">
        <ele>2784.0</ele>
        <time>2014-07-12T13:01:03Z</time>
      </trkpt>
      <trkpt lat="37.141633" lon="-3.481833">
        <ele>2777.0</ele>
        <time>2014-07-12T13:01:06Z</time>
      </trkpt>
      <trkpt lat="37.141583" lon="-3.481983">
        <ele>2773.0</ele>
        <time>2014-07-12T13:01:10Z</time>
      </trkpt>
      <trkpt lat="37.141483" lon="-3.482100">
        <ele>2769.0</ele>
        <time>2014-07-12T13:01:13Z</time>
      </trkpt>
      <trkpt lat="37.141483" lon="-3.482233">
        <ele>2765.0</ele>
        <time>2014-07-12T13:01:16Z</time>
      </trkpt>
      <trkpt lat="37.141500" lon="-3.482333">
        <ele>2760.0</ele>
        <time>2014-07-12T13:01:19Z</time>
      </trkpt>
      <trkpt lat="37.141517" lon="-3.482483">
        <ele>2756.0</ele>
        <time>2014-07-12T13:01:22Z</time>
      </trkpt>
      <trkpt lat="37.141517" lon="-3.482667">
        <ele>2751.0</ele>
        <time>2014-07-12T13:01:25Z</time>
      </trkpt>
      <trkpt lat="37.141483" lon="-3.482833">
        <ele>2746.0</ele>
        <time>2014-07-12T13:01:28Z</time>
      </trkpt>
      <trkpt lat="37.141400" lon="-3.483017">
        <ele>2736.0</ele>
        <time>2014-07-12T13:01:31Z</time>
      </trkpt>
      <trkpt lat="37.141317" lon="-3.483183">
        <ele>2729.0</ele>
        <time>2014-07-12T13:01:34Z</time>
      </trkpt>
      <trkpt lat="37.141317" lon="-3.483183">
        <ele>2729.0</ele>
        <time>2014-07-12T13:01:34Z</time>
      </trkpt>
      <trkpt lat="37.141283" lon="-3.483233">
        <ele>2726.0</ele>
        <time>2014-07-12T13:01:35Z</time>
      </trkpt>
      <trkpt lat="37.141133" lon="-3.483417">
        <ele>2719.0</ele>
        <time>2014-07-12T13:01:38Z</time>
      </trkpt>
      <trkpt lat="37.140917" lon="-3.483467">
        <ele>2712.0</ele>
        <time>2014-07-12T13:01:41Z</time>
      </trkpt>
      <trkpt lat="37.140567" lon="-3.483200">
        <ele>2705.0</ele>
        <time>2014-07-12T13:01:44Z</time>
      </trkpt>
      <trkpt lat="37.140333" lon="-3.482700">
        <ele>2700.0</ele>
        <time>2014-07-12T13:01:47Z</time>
      </trkpt>
      <trkpt lat="37.140167" lon="-3.482150">
        <ele>2695.0</ele>
        <time>2014-07-12T13:01:50Z</time>
      </trkpt>
      <trkpt lat="37.139967" lon="-3.481567">
        <ele>2691.0</ele>
        <time>2014-07-12T13:01:53Z</time>
      </trkpt>
      <trkpt lat="37.139800" lon="-3.481017">
        <ele>2687.0</ele>
        <time>2014-07-12T13:01:56Z</time>
      </trkpt>
      <trkpt lat="37.139633" lon="-3.480467">
        <ele>2683.0</ele>
        <time>2014-07-12T13:01:59Z</time>
      </trkpt>
      <trkpt lat="37.139483" lon="-3.479933">
        <ele>2679.0</ele>
        <time>2014-07-12T13:02:02Z</time>
      </trkpt>
      <trkpt lat="37.139333" lon="-3.479417">
        <ele>2676.0</ele>
        <time>2014-07-12T13:02:05Z</time>
      </trkpt>
      <trkpt lat="37.139150" lon="-3.478900">
        <ele>2672.0</ele>
        <time>2014-07-12T13:02:08Z</time>
      </trkpt>
      <trkpt lat="37.138983" lon="-3.478383">
        <ele>2668.0</ele>
        <time>2014-07-12T13:02:11Z</time>
      </trkpt>
      <trkpt lat="37.138800" lon="-3.477883">
        <ele>2663.0</ele>
        <time>2014-07-12T13:02:14Z</time>
      </trkpt>
      <trkpt lat="37.138633" lon="-3.477350">
        <ele>2659.0</ele>
        <time>2014-07-12T13:02:17Z</time>
      </trkpt>
      <trkpt lat="37.138433" lon="-3.476833">
        <ele>2654.0</ele>
        <time>2014-07-12T13:02:20Z</time>
      </trkpt>
      <trkpt lat="37.138217" lon="-3.476333">
        <ele>2648.0</ele>
        <time>2014-07-12T13:02:23Z</time>
      </trkpt>
      <trkpt lat="37.138033" lon="-3.475783">
        <ele>2642.0</ele>
        <time>2014-07-12T13:02:26Z</time>
      </trkpt>
      <trkpt lat="37.137883" lon="-3.475200">
        <ele>2636.0</ele>
        <time>2014-07-12T13:02:29Z</time>
      </trkpt>
      <trkpt lat="37.137767" lon="-3.474650">
        <ele>2630.0</ele>
        <time>2014-07-12T13:02:32Z</time>
      </trkpt>
      <trkpt lat="37.137633" lon="-3.474133">
        <ele>2624.0</ele>
        <time>2014-07-12T13:02:35Z</time>
      </trkpt>
      <trkpt lat="37.137517" lon="-3.473667">
        <ele>2617.0</ele>
        <time>2014-07-12T13:02:38Z</time>
      </trkpt>
      <trkpt lat="37.137417" lon="-3.473150">
        <ele>2611.0</ele>
        <time>2014-07-12T13:02:41Z</time>
      </trkpt>
      <trkpt lat="37.137333" lon="-3.472667">
        <ele>2604.0</ele>
        <time>2014-07-12T13:02:44Z</time>
      </trkpt>
      <trkpt lat="37.137267" lon="-3.472267">
        <ele>2598.0</ele>
        <time>2014-07-12T13:02:47Z</time>
      </trkpt>
      <trkpt lat="37.137200" lon="-3.471800">
        <ele>2591.0</ele>
        <time>2014-07-12T13:02:50Z</time>
      </trkpt>
      <trkpt lat="37.137100" lon="-3.471367">
        <ele>2585.0</ele>
        <time>2014-07-12T13:02:53Z</time>
      </trkpt>
      <trkpt lat="37.136983" lon="-3.470933">
        <ele>2578.0</ele>
        <time>2014-07-12T13:02:56Z</time>
      </trkpt>
      <trkpt lat="37.136867" lon="-3.470533">
        <ele>2571.0</ele>
        <time>2014-07-12T13:02:59Z</time>
      </trkpt>
      <trkpt lat="37.136750" lon="-3.470100">
        <ele>2564.0</ele>
        <time>2014-07-12T13:03:02Z</time>
      </trkpt>
      <trkpt lat="37.136667" lon="-3.469633">
        <ele>2557.0</ele>
        <time>2014-07-12T13:03:05Z</time>
      </trkpt>
      <trkpt lat="37.136583" lon="-3.469167">
        <ele>2551.0</ele>
        <time>2014-07-12T13:03:08Z</time>
      </trkpt>
      <trkpt lat="37.136483" lon="-3.468733">
        <ele>2544.0</ele>
        <time>2014-07-12T13:03:11Z</time>
      </trkpt>
      <trkpt lat="37.136400" lon="-3.468283">
        <ele>2538.0</ele>
        <time>2014-07-12T13:03:14Z</time>
      </trkpt>
      <trkpt lat="37.136317" lon="-3.467817">
        <ele>2532.0</ele>
        <time>2014-07-12T13:03:17Z</time>
      </trkpt>
      <trkpt lat="37.136167" lon="-3.467217">
        <ele>2525.0</ele>
        <time>2014-07-12T13:03:20Z</time>
      </trkpt>
      <trkpt lat="37.136033" lon="-3.466767">
        <ele>2520.0</ele>
        <time>2014-07-12T13:03:23Z</time>
      </trkpt>
      <trkpt lat="37.135883" lon="-3.466300">
        <ele>2516.0</ele>
        <time>2014-07-12T13:03:26Z</time>
      </trkpt>
      <trkpt lat="37.135767" lon="-3.465833">
        <ele>2512.0</ele>
        <time>2014-07-12T13:03:29Z</time>
      </trkpt>
      <trkpt lat="37.135617" lon="-3.465333">
        <ele>2508.0</ele>
        <time>2014-07-12T13:03:33Z</time>
      </trkpt>
      <trkpt lat="37.135450" lon="-3.464817">
        <ele>2504.0</ele>
        <time>2014-07-12T13:03:36Z</time>
      </trkpt>
      <trkpt lat="37.135383" lon="-3.464300">
        <ele>2501.0</ele>
        <time>2014-07-12T13:03:39Z</time>
      </trkpt>
      <trkpt lat="37.135317" lon="-3.463767">
        <ele>2498.0</ele>
        <time>2014-07-12T13:03:42Z</time>
      </trkpt>
      <trkpt lat="37.135217" lon="-3.463283">
        <ele>2496.0</ele>
        <time>2014-07-12T13:03:45Z</time>
      </trkpt>
      <trkpt lat="37.135050" lon="-3.462950">
        <ele>2494.0</ele>
        <time>2014-07-12T13:03:48Z</time>
      </trkpt>
      <trkpt lat="37.135000" lon="-3.463033">
        <ele>2493.0</ele>
        <time>2014-07-12T13:03:51Z</time>
      </trkpt>
      <trkpt lat="37.135200" lon="-3.463083">
        <ele>2492.0</ele>
        <time>2014-07-12T13:03:54Z</time>
      </trkpt>
      <trkpt lat="37.135483" lon="-3.462867">
        <ele>2490.0</ele>
        <time>2014-07-12T13:03:57Z</time>
      </trkpt>
      <trkpt lat="37.135617" lon="-3.462383">
        <ele>2490.0</ele>
        <time>2014-07-12T13:04:00Z</time>
      </trkpt>
      <trkpt lat="37.135583" lon="-3.461817">
        <ele>2489.0</ele>
        <time>2014-07-12T13:04:03Z</time>
      </trkpt>
      <trkpt lat="37.135517" lon="-3.461233">
        <ele>2489.0</ele>
        <time>2014-07-12T13:04:06Z</time>
      </trkpt>
      <trkpt lat="37.135433" lon="-3.460700">
        <ele>2488.0</ele>
        <time>2014-07-12T13:04:09Z</time>
      </trkpt>
      <trkpt lat="37.135267" lon="-3.460250">
        <ele>2488.0</ele>
        <time>2014-07-12T13:04:12Z</time>
      </trkpt>
      <trkpt lat="37.135100" lon="-3.460200">
        <ele>2488.0</ele>
        <time>2014-07-12T13:04:15Z</time>
      </trkpt>
      <trkpt lat="37.135117" lon="-3.460317">
        <ele>2488.0</ele>
        <time>2014-07-12T13:04:18Z</time>
      </trkpt>
      <trkpt lat="37.135350" lon="-3.460217">
        <ele>2487.0</ele>
        <time>2014-07-12T13:04:21Z</time>
      </trkpt>
      <trkpt lat="37.135533" lon="-3.459767">
        <ele>2486.0</ele>
        <time>2014-07-12T13:04:24Z</time>
      </trkpt>
      <trkpt lat="37.135567" lon="-3.459200">
        <ele>2486.0</ele>
        <time>2014-07-12T13:04:27Z</time>
      </trkpt>
      <trkpt lat="37.135500" lon="-3.458650">
        <ele>2485.0</ele>
        <time>2014-07-12T13:04:30Z</time>
      </trkpt>
      <trkpt lat="37.135333" lon="-3.458267">
        <ele>2485.0</ele>
        <time>2014-07-12T13:04:33Z</time>
      </trkpt>
      <trkpt lat="37.135167" lon="-3.458283">
        <ele>2486.0</ele>
        <time>2014-07-12T13:04:36Z</time>
      </trkpt>
      <trkpt lat="37.135217" lon="-3.458367">
        <ele>2486.0</ele>
        <time>2014-07-12T13:04:39Z</time>
      </trkpt>
      <trkpt lat="37.135433" lon="-3.458300">
        <ele>2486.0</ele>
        <time>2014-07-12T13:04:42Z</time>
      </trkpt>
      <trkpt lat="37.135650" lon="-3.457917">
        <ele>2486.0</ele>
        <time>2014-07-12T13:04:45Z</time>
      </trkpt>
      <trkpt lat="37.135683" lon="-3.457400">
        <ele>2487.0</ele>
        <time>2014-07-12T13:04:48Z</time>
      </trkpt>
      <trkpt lat="37.135600" lon="-3.456850">
        <ele>2487.0</ele>
        <time>2014-07-12T13:04:51Z</time>
      </trkpt>
      <trkpt lat="37.135350" lon="-3.456567">
        <ele>2488.0</ele>
        <time>2014-07-12T13:04:54Z</time>
      </trkpt>
      <trkpt lat="37.135183" lon="-3.456567">
        <ele>2488.0</ele>
        <time>2014-07-12T13:04:57Z</time>
      </trkpt>
      <trkpt lat="37.135233" lon="-3.456633">
        <ele>2488.0</ele>
        <time>2014-07-12T13:05:00Z</time>
      </trkpt>
      <trkpt lat="37.135450" lon="-3.456483">
        <ele>2488.0</ele>
        <time>2014-07-12T13:05:03Z</time>
      </trkpt>
      <trkpt lat="37.135583" lon="-3.456000">
        <ele>2489.0</ele>
        <time>2014-07-12T13:05:06Z</time>
      </trkpt>
      <trkpt lat="37.135467" lon="-3.455433">
        <ele>2490.0</ele>
        <time>2014-07-12T13:05:09Z</time>
      </trkpt>
      <trkpt lat="37.135200" lon="-3.455100">
        <ele>2491.0</ele>
        <time>2014-07-12T13:05:12Z</time>
      </trkpt>
      <trkpt lat="37.135000" lon="-3.454983">
        <ele>2492.0</ele>
        <time>2014-07-12T13:05:15Z</time>
      </trkpt>
      <trkpt lat="37.134883" lon="-3.455000">
        <ele>2492.0</ele>
        <time>2014-07-12T13:05:18Z</time>
      </trkpt>
      <trkpt lat="37.134933" lon="-3.455067">
        <ele>2493.0</ele>
        <time>2014-07-12T13:05:21Z</time>
      </trkpt>
      <trkpt lat="37.135083" lon="-3.455083">
        <ele>2495.0</ele>
        <time>2014-07-12T13:05:24Z</time>
      </trkpt>
      <trkpt lat="37.135317" lon="-3.454883">
        <ele>2498.0</ele>
        <time>2014-07-12T13:05:27Z</time>
      </trkpt>
      <trkpt lat="37.135400" lon="-3.454333">
        <ele>2500.0</ele>
        <time>2014-07-12T13:05:30Z</time>
      </trkpt>
      <trkpt lat="37.135300" lon="-3.453850">
        <ele>2501.0</ele>
        <time>2014-07-12T13:05:33Z</time>
      </trkpt>
      <trkpt lat="37.135100" lon="-3.453633">
        <ele>2503.0</ele>
        <time>2014-07-12T13:05:36Z</time>
      </trkpt>
      <trkpt lat="37.134817" lon="-3.453250">
        <ele>2504.0</ele>
        <time>2014-07-12T13:05:39Z</time>
      </trkpt>
      <trkpt lat="37.134600" lon="-3.452717">
        <ele>2504.0</ele>
        <time>2014-07-12T13:05:42Z</time>
      </trkpt>
      <trkpt lat="37.134350" lon="-3.452250">
        <ele>2505.0</ele>
        <time>2014-07-12T13:05:45Z</time>
      </trkpt>
      <trkpt lat="37.134083" lon="-3.451833">
        <ele>2506.0</ele>
        <time>2014-07-12T13:05:48Z</time>
      </trkpt>
      <trkpt lat="37.133683" lon="-3.451400">
        <ele>2506.0</ele>
        <time>2014-07-12T13:05:51Z</time>
      </trkpt>
      <trkpt lat="37.133367" lon="-3.451217">
        <ele>2507.0</ele>
        <time>2014-07-12T13:05:54Z</time>
      </trkpt>
      <trkpt lat="37.133067" lon="-3.451050">
        <ele>2508.0</ele>
        <time>2014-07-12T13:05:57Z</time>
      </trkpt>
      <trkpt lat="37.132767" lon="-3.450850">
        <ele>2509.0</ele>
        <time>2014-07-12T13:06:00Z</time>
      </trkpt>
      <trkpt lat="37.132467" lon="-3.450650">
        <ele>2510.0</ele>
        <time>2014-07-12T13:06:04Z</time>
      </trkpt>
      <trkpt lat="37.132200" lon="-3.450517">
        <ele>2511.0</ele>
        <time>2014-07-12T13:06:07Z</time>
      </trkpt>
      <trkpt lat="37.132050" lon="-3.450567">
        <ele>2511.0</ele>
        <time>2014-07-12T13:06:10Z</time>
      </trkpt>
      <trkpt lat="37.132067" lon="-3.450633">
        <ele>2512.0</ele>
        <time>2014-07-12T13:06:13Z</time>
      </trkpt>
      <trkpt lat="37.132233" lon="-3.450633">
        <ele>2513.0</ele>
        <time>2014-07-12T13:06:16Z</time>
      </trkpt>
      <trkpt lat="37.132483" lon="-3.450400">
        <ele>2514.0</ele>
        <time>2014-07-12T13:06:19Z</time>
      </trkpt>
      <trkpt lat="37.132667" lon="-3.449950">
        <ele>2515.0</ele>
        <time>2014-07-12T13:06:22Z</time>
      </trkpt>
      <trkpt lat="37.132733" lon="-3.449367">
        <ele>2516.0</ele>
        <time>2014-07-12T13:06:25Z</time>
      </trkpt>
      <trkpt lat="37.132633" lon="-3.448817">
        <ele>2517.0</ele>
        <time>2014-07-12T13:06:28Z</time>
      </trkpt>
      <trkpt lat="37.132450" lon="-3.448317">
        <ele>2517.0</ele>
        <time>2014-07-12T13:06:31Z</time>
      </trkpt>
      <trkpt lat="37.132233" lon="-3.447783">
        <ele>2517.0</ele>
        <time>2014-07-12T13:06:34Z</time>
      </trkpt>
      <trkpt lat="37.132017" lon="-3.447317">
        <ele>2517.0</ele>
        <time>2014-07-12T13:06:37Z</time>
      </trkpt>
      <trkpt lat="37.131850" lon="-3.446950">
        <ele>2517.0</ele>
        <time>2014-07-12T13:06:40Z</time>
      </trkpt>
      <trkpt lat="37.131767" lon="-3.446900">
        <ele>2516.0</ele>
        <time>2014-07-12T13:06:43Z</time>
      </trkpt>
      <trkpt lat="37.131917" lon="-3.447000">
        <ele>2515.0</ele>
        <time>2014-07-12T13:06:46Z</time>
      </trkpt>
      <trkpt lat="37.132133" lon="-3.447017">
        <ele>2514.0</ele>
        <time>2014-07-12T13:06:49Z</time>
      </trkpt>
      <trkpt lat="37.132383" lon="-3.447050">
        <ele>2513.0</ele>
        <time>2014-07-12T13:06:52Z</time>
      </trkpt>
      <trkpt lat="37.132667" lon="-3.447050">
        <ele>2511.0</ele>
        <time>2014-07-12T13:06:55Z</time>
      </trkpt>
      <trkpt lat="37.132933" lon="-3.447033">
        <ele>2509.0</ele>
        <time>2014-07-12T13:06:58Z</time>
      </trkpt>
      <trkpt lat="37.133233" lon="-3.447017">
        <ele>2507.0</ele>
        <time>2014-07-12T13:07:01Z</time>
      </trkpt>
      <trkpt lat="37.133517" lon="-3.446950">
        <ele>2505.0</ele>
        <time>2014-07-12T13:07:04Z</time>
      </trkpt>
      <trkpt lat="37.133733" lon="-3.446917">
        <ele>2504.0</ele>
        <time>2014-07-12T13:07:07Z</time>
      </trkpt>
      <trkpt lat="37.133700" lon="-3.446983">
        <ele>2503.0</ele>
        <time>2014-07-12T13:07:10Z</time>
      </trkpt>
      <trkpt lat="37.133483" lon="-3.446950">
        <ele>2503.0</ele>
        <time>2014-07-12T13:07:13Z</time>
      </trkpt>
      <trkpt lat="37.133200" lon="-3.446733">
        <ele>2502.0</ele>
        <time>2014-07-12T13:07:16Z</time>
      </trkpt>
      <trkpt lat="37.132950" lon="-3.446300">
        <ele>2502.0</ele>
        <time>2014-07-12T13:07:19Z</time>
      </trkpt>
      <trkpt lat="37.132933" lon="-3.445750">
        <ele>2502.0</ele>
        <time>2014-07-12T13:07:22Z</time>
      </trkpt>
      <trkpt lat="37.133067" lon="-3.445167">
        <ele>2502.0</ele>
        <time>2014-07-12T13:07:25Z</time>
      </trkpt>
      <trkpt lat="37.133300" lon="-3.444667">
        <ele>2501.0</ele>
        <time>2014-07-12T13:07:28Z</time>
      </trkpt>
      <trkpt lat="37.133633" lon="-3.444417">
        <ele>2500.0</ele>
        <time>2014-07-12T13:07:31Z</time>
      </trkpt>
      <trkpt lat="37.133867" lon="-3.444400">
        <ele>2499.0</ele>
        <time>2014-07-12T13:07:34Z</time>
      </trkpt>
      <trkpt lat="37.133900" lon="-3.444500">
        <ele>2498.0</ele>
        <time>2014-07-12T13:07:37Z</time>
      </trkpt>
      <trkpt lat="37.133800" lon="-3.444600">
        <ele>2498.0</ele>
        <time>2014-07-12T13:07:40Z</time>
      </trkpt>
      <trkpt lat="37.133600" lon="-3.444633">
        <ele>2498.0</ele>
        <time>2014-07-12T13:07:43Z</time>
      </trkpt>
      <trkpt lat="37.133333" lon="-3.444500">
        <ele>2499.0</ele>
        <time>2014-07-12T13:07:46Z</time>
      </trkpt>
      <trkpt lat="37.133083" lon="-3.444183">
        <ele>2499.0</ele>
        <time>2014-07-12T13:07:49Z</time>
      </trkpt>
      <trkpt lat="37.132850" lon="-3.443850">
        <ele>2498.0</ele>
        <time>2014-07-12T13:07:52Z</time>
      </trkpt>
      <trkpt lat="37.132617" lon="-3.443483">
        <ele>2497.0</ele>
        <time>2014-07-12T13:07:55Z</time>
      </trkpt>
      <trkpt lat="37.132383" lon="-3.443183">
        <ele>2495.0</ele>
        <time>2014-07-12T13:07:58Z</time>
      </trkpt>
      <trkpt lat="37.132167" lon="-3.442917">
        <ele>2493.0</ele>
        <time>2014-07-12T13:08:01Z</time>
      </trkpt>
      <trkpt lat="37.131917" lon="-3.442683">
        <ele>2490.0</ele>
        <time>2014-07-12T13:08:04Z</time>
      </trkpt>
      <trkpt lat="37.131683" lon="-3.442483">
        <ele>2487.0</ele>
        <time>2014-07-12T13:08:07Z</time>
      </trkpt>
      <trkpt lat="37.131433" lon="-3.442267">
        <ele>2484.0</ele>
        <time>2014-07-12T13:08:10Z</time>
      </trkpt>
      <trkpt lat="37.131183" lon="-3.442083">
        <ele>2481.0</ele>
        <time>2014-07-12T13:08:13Z</time>
      </trkpt>
      <trkpt lat="37.130917" lon="-3.441933">
        <ele>2478.0</ele>
        <time>2014-07-12T13:08:16Z</time>
      </trkpt>
      <trkpt lat="37.130683" lon="-3.441750">
        <ele>2475.0</ele>
        <time>2014-07-12T13:08:19Z</time>
      </trkpt>
      <trkpt lat="37.130333" lon="-3.441533">
        <ele>2471.0</ele>
        <time>2014-07-12T13:08:22Z</time>
      </trkpt>
      <trkpt lat="37.130100" lon="-3.441350">
        <ele>2467.0</ele>
        <time>2014-07-12T13:08:25Z</time>
      </trkpt>
      <trkpt lat="37.129833" lon="-3.441167">
        <ele>2464.0</ele>
        <time>2014-07-12T13:08:28Z</time>
      </trkpt>
      <trkpt lat="37.129600" lon="-3.440983">
        <ele>2460.0</ele>
        <time>2014-07-12T13:08:31Z</time>
      </trkpt>
      <trkpt lat="37.129367" lon="-3.440900">
        <ele>2456.0</ele>
        <time>2014-07-12T13:08:35Z</time>
      </trkpt>
      <trkpt lat="37.129167" lon="-3.440833">
        <ele>2452.0</ele>
        <time>2014-07-12T13:08:38Z</time>
      </trkpt>
      <trkpt lat="37.128933" lon="-3.440783">
        <ele>2448.0</ele>
        <time>2014-07-12T13:08:41Z</time>
      </trkpt>
      <trkpt lat="37.128700" lon="-3.440733">
        <ele>2444.0</ele>
        <time>2014-07-12T13:08:44Z</time>
      </trkpt>
      <trkpt lat="37.128450" lon="-3.440650">
        <ele>2439.0</ele>
        <time>2014-07-12T13:08:47Z</time>
      </trkpt>
      <trkpt lat="37.128200" lon="-3.440600">
        <ele>2435.0</ele>
        <time>2014-07-12T13:08:50Z</time>
      </trkpt>
      <trkpt lat="37.127950" lon="-3.440550">
        <ele>2430.0</ele>
        <time>2014-07-12T13:08:53Z</time>
      </trkpt>
      <trkpt lat="37.127683" lon="-3.440500">
        <ele>2425.0</ele>
        <time>2014-07-12T13:08:56Z</time>
      </trkpt>
      <trkpt lat="37.127450" lon="-3.440533">
        <ele>2420.0</ele>
        <time>2014-07-12T13:08:59Z</time>
      </trkpt>
      <trkpt lat="37.127200" lon="-3.440517">
        <ele>2415.0</ele>
        <time>2014-07-12T13:09:02Z</time>
      </trkpt>
      <trkpt lat="37.126933" lon="-3.440467">
        <ele>2410.0</ele>
        <time>2014-07-12T13:09:05Z</time>
      </trkpt>
      <trkpt lat="37.126700" lon="-3.440433">
        <ele>2405.0</ele>
        <time>2014-07-12T13:09:08Z</time>
      </trkpt>
      <trkpt lat="37.126433" lon="-3.440350">
        <ele>2400.0</ele>
        <time>2014-07-12T13:09:11Z</time>
      </trkpt>
      <trkpt lat="37.126150" lon="-3.440233">
        <ele>2394.0</ele>
        <time>2014-07-12T13:09:14Z</time>
      </trkpt>
      <trkpt lat="37.125833" lon="-3.440050">
        <ele>2388.0</ele>
        <time>2014-07-12T13:09:17Z</time>
      </trkpt>
      <trkpt lat="37.125550" lon="-3.439867">
        <ele>2382.0</ele>
        <time>2014-07-12T13:09:20Z</time>
      </trkpt>
      <trkpt lat="37.125250" lon="-3.439750">
        <ele>2376.0</ele>
        <time>2014-07-12T13:09:23Z</time>
      </trkpt>
      <trkpt lat="37.124967" lon="-3.439683">
        <ele>2370.0</ele>
        <time>2014-07-12T13:09:26Z</time>
      </trkpt>
      <trkpt lat="37.124700" lon="-3.439617">
        <ele>2363.0</ele>
        <time>2014-07-12T13:09:29Z</time>
      </trkpt>
      <trkpt lat="37.124433" lon="-3.439617">
        <ele>2356.0</ele>
        <time>2014-07-12T13:09:32Z</time>
      </trkpt>
      <trkpt lat="37.124217" lon="-3.439650">
        <ele>2349.0</ele>
        <time>2014-07-12T13:09:35Z</time>
      </trkpt>
      <trkpt lat="37.124033" lon="-3.439733">
        <ele>2342.0</ele>
        <time>2014-07-12T13:09:38Z</time>
      </trkpt>
      <trkpt lat="37.123850" lon="-3.439850">
        <ele>2335.0</ele>
        <time>2014-07-12T13:09:41Z</time>
      </trkpt>
      <trkpt lat="37.123667" lon="-3.439867">
        <ele>2329.0</ele>
        <time>2014-07-12T13:09:44Z</time>
      </trkpt>
      <trkpt lat="37.123467" lon="-3.439833">
        <ele>2324.0</ele>
        <time>2014-07-12T13:09:47Z</time>
      </trkpt>
      <trkpt lat="37.123233" lon="-3.439683">
        <ele>2318.0</ele>
        <time>2014-07-12T13:09:50Z</time>
      </trkpt>
      <trkpt lat="37.122983" lon="-3.439417">
        <ele>2312.0</ele>
        <time>2014-07-12T13:09:53Z</time>
      </trkpt>
      <trkpt lat="37.122750" lon="-3.439217">
        <ele>2306.0</ele>
        <time>2014-07-12T13:09:56Z</time>
      </trkpt>
      <trkpt lat="37.122517" lon="-3.439117">
        <ele>2301.0</ele>
        <time>2014-07-12T13:09:59Z</time>
      </trkpt>
      <trkpt lat="37.122350" lon="-3.439133">
        <ele>2296.0</ele>
        <time>2014-07-12T13:10:02Z</time>
      </trkpt>
      <trkpt lat="37.122167" lon="-3.439200">
        <ele>2291.0</ele>
        <time>2014-07-12T13:10:05Z</time>
      </trkpt>
      <trkpt lat="37.121933" lon="-3.439200">
        <ele>2286.0</ele>
        <time>2014-07-12T13:10:08Z</time>
      </trkpt>
      <trkpt lat="37.121683" lon="-3.439017">
        <ele>2281.0</ele>
        <time>2014-07-12T13:10:11Z</time>
      </trkpt>
      <trkpt lat="37.121533" lon="-3.438550">
        <ele>2275.0</ele>
        <time>2014-07-12T13:10:14Z</time>
      </trkpt>
      <trkpt lat="37.121583" lon="-3.438050">
        <ele>2270.0</ele>
        <time>2014-07-12T13:10:17Z</time>
      </trkpt>
      <trkpt lat="37.121683" lon="-3.437550">
        <ele>2264.0</ele>
        <time>2014-07-12T13:10:20Z</time>
      </trkpt>
      <trkpt lat="37.121750" lon="-3.437033">
        <ele>2259.0</ele>
        <time>2014-07-12T13:10:23Z</time>
      </trkpt>
      <trkpt lat="37.121867" lon="-3.436550">
        <ele>2253.0</ele>
        <time>2014-07-12T13:10:26Z</time>
      </trkpt>
      <trkpt lat="37.122033" lon="-3.436083">
        <ele>2248.0</ele>
        <time>2014-07-12T13:10:29Z</time>
      </trkpt>
      <trkpt lat="37.122183" lon="-3.435583">
        <ele>2242.0</ele>
        <time>2014-07-12T13:10:32Z</time>
      </trkpt>
      <trkpt lat="37.122283" lon="-3.435033">
        <ele>2237.0</ele>
        <time>2014-07-12T13:10:35Z</time>
      </trkpt>
      <trkpt lat="37.122433" lon="-3.434467">
        <ele>2232.0</ele>
        <time>2014-07-12T13:10:38Z</time>
      </trkpt>
      <trkpt lat="37.122650" lon="-3.434133">
        <ele>2229.0</ele>
        <time>2014-07-12T13:10:41Z</time>
      </trkpt>
      <trkpt lat="37.122917" lon="-3.433933">
        <ele>2226.0</ele>
        <time>2014-07-12T13:10:44Z</time>
      </trkpt>
      <trkpt lat="37.123000" lon="-3.433850">
        <ele>2224.0</ele>
        <time>2014-07-12T13:10:47Z</time>
      </trkpt>
      <trkpt lat="37.122900" lon="-3.433450">
        <ele>2223.0</ele>
        <time>2014-07-12T13:10:50Z</time>
      </trkpt>
      <trkpt lat="37.123133" lon="-3.432950">
        <ele>2222.0</ele>
        <time>2014-07-12T13:10:53Z</time>
      </trkpt>
      <trkpt lat="37.123383" lon="-3.432917">
        <ele>2223.0</ele>
        <time>2014-07-12T13:10:56Z</time>
      </trkpt>
      <trkpt lat="37.123533" lon="-3.432967">
        <ele>2223.0</ele>
        <time>2014-07-12T13:10:59Z</time>
      </trkpt>
      <trkpt lat="37.123550" lon="-3.433050">
        <ele>2223.0</ele>
        <time>2014-07-12T13:11:02Z</time>
      </trkpt>
      <trkpt lat="37.123517" lon="-3.433150">
        <ele>2223.0</ele>
        <time>2014-07-12T13:11:06Z</time>
      </trkpt>
      <trkpt lat="37.123483" lon="-3.433200">
        <ele>2223.0</ele>
        <time>2014-07-12T13:11:09Z</time>
      </trkpt>
      <trkpt lat="37.123400" lon="-3.433267">
        <ele>2223.0</ele>
        <time>2014-07-12T13:11:12Z</time>
      </trkpt>
      <trkpt lat="37.123300" lon="-3.433383">
        <ele>2222.0</ele>
        <time>2014-07-12T13:11:15Z</time>
      </trkpt>
      <trkpt lat="37.123250" lon="-3.433567">
        <ele>2221.0</ele>
        <time>2014-07-12T13:11:18Z</time>
      </trkpt>
      <trkpt lat="37.123233" lon="-3.433750">
        <ele>2220.0</ele>
        <time>2014-07-12T13:11:21Z</time>
      </trkpt>
      <trkpt lat="37.123283" lon="-3.433817">
        <ele>2219.0</ele>
        <time>2014-07-12T13:11:24Z</time>
      </trkpt>
      <trkpt lat="37.123383" lon="-3.433950">
        <ele>2218.0</ele>
        <time>2014-07-12T13:11:27Z</time>
      </trkpt>
      <trkpt lat="37.123417" lon="-3.434167">
        <ele>2217.0</ele>
        <time>2014-07-12T13:11:30Z</time>
      </trkpt>
      <trkpt lat="37.123400" lon="-3.434400">
        <ele>2215.0</ele>
        <time>2014-07-12T13:11:33Z</time>
      </trkpt>
      <trkpt lat="37.123383" lon="-3.434617">
        <ele>2215.0</ele>
        <time>2014-07-12T13:11:36Z</time>
      </trkpt>
      <trkpt lat="37.123283" lon="-3.434850">
        <ele>2214.0</ele>
        <time>2014-07-12T13:11:39Z</time>
      </trkpt>
      <trkpt lat="37.123150" lon="-3.434983">
        <ele>2214.0</ele>
        <time>2014-07-12T13:11:42Z</time>
      </trkpt>
      <trkpt lat="37.122967" lon="-3.434767">
        <ele>2214.0</ele>
        <time>2014-07-12T13:11:45Z</time>
      </trkpt>
      <trkpt lat="37.123133" lon="-3.434333">
        <ele>2214.0</ele>
        <time>2014-07-12T13:11:48Z</time>
      </trkpt>
      <trkpt lat="37.123350" lon="-3.434383">
        <ele>2214.0</ele>
        <time>2014-07-12T13:11:51Z</time>
      </trkpt>
      <trkpt lat="37.123350" lon="-3.434617">
        <ele>2213.0</ele>
        <time>2014-07-12T13:11:54Z</time>
      </trkpt>
      <trkpt lat="37.123317" lon="-3.434833">
        <ele>2213.0</ele>
        <time>2014-07-12T13:11:57Z</time>
      </trkpt>
      <trkpt lat="37.123217" lon="-3.435083">
        <ele>2212.0</ele>
        <time>2014-07-12T13:12:00Z</time>
      </trkpt>
      <trkpt lat="37.123050" lon="-3.435333">
        <ele>2212.0</ele>
        <time>2014-07-12T13:12:03Z</time>
      </trkpt>
      <trkpt lat="37.122933" lon="-3.435600">
        <ele>2211.0</ele>
        <time>2014-07-12T13:12:06Z</time>
      </trkpt>
      <trkpt lat="37.122833" lon="-3.435850">
        <ele>2212.0</ele>
        <time>2014-07-12T13:12:09Z</time>
      </trkpt>
      <trkpt lat="37.122733" lon="-3.436100">
        <ele>2213.0</ele>
        <time>2014-07-12T13:12:12Z</time>
      </trkpt>
      <trkpt lat="37.122550" lon="-3.436200">
        <ele>2214.0</ele>
        <time>2014-07-12T13:12:15Z</time>
      </trkpt>
      <trkpt lat="37.122333" lon="-3.435900">
        <ele>2215.0</ele>
        <time>2014-07-12T13:12:18Z</time>
      </trkpt>
      <trkpt lat="37.122417" lon="-3.435500">
        <ele>2216.0</ele>
        <time>2014-07-12T13:12:21Z</time>
      </trkpt>
      <trkpt lat="37.122633" lon="-3.435533">
        <ele>2216.0</ele>
        <time>2014-07-12T13:12:24Z</time>
      </trkpt>
      <trkpt lat="37.122683" lon="-3.435750">
        <ele>2217.0</ele>
        <time>2014-07-12T13:12:27Z</time>
      </trkpt>
      <trkpt lat="37.122617" lon="-3.435983">
        <ele>2217.0</ele>
        <time>2014-07-12T13:12:30Z</time>
      </trkpt>
      <trkpt lat="37.122483" lon="-3.436167">
        <ele>2217.0</ele>
        <time>2014-07-12T13:12:33Z</time>
      </trkpt>
      <trkpt lat="37.122350" lon="-3.436333">
        <ele>2217.0</ele>
        <time>2014-07-12T13:12:36Z</time>
      </trkpt>
      <trkpt lat="37.122283" lon="-3.436533">
        <ele>2218.0</ele>
        <time>2014-07-12T13:12:39Z</time>
      </trkpt>
      <trkpt lat="37.122300" lon="-3.436733">
        <ele>2219.0</ele>
        <time>2014-07-12T13:12:42Z</time>
      </trkpt>
      <trkpt lat="37.122333" lon="-3.436933">
        <ele>2221.0</ele>
        <time>2014-07-12T13:12:45Z</time>
      </trkpt>
      <trkpt lat="37.122367" lon="-3.437167">
        <ele>2223.0</ele>
        <time>2014-07-12T13:12:48Z</time>
      </trkpt>
      <trkpt lat="37.122367" lon="-3.437367">
        <ele>2226.0</ele>
        <time>2014-07-12T13:12:51Z</time>
      </trkpt>
      <trkpt lat="37.122450" lon="-3.437583">
        <ele>2231.0</ele>
        <time>2014-07-12T13:12:54Z</time>
      </trkpt>
      <trkpt lat="37.122533" lon="-3.437817">
        <ele>2236.0</ele>
        <time>2014-07-12T13:12:57Z</time>
      </trkpt>
      <trkpt lat="37.122633" lon="-3.437950">
        <ele>2240.0</ele>
        <time>2014-07-12T13:13:00Z</time>
      </trkpt>
      <trkpt lat="37.122583" lon="-3.438067">
        <ele>2242.0</ele>
        <time>2014-07-12T13:13:03Z</time>
      </trkpt>
      <trkpt lat="37.122417" lon="-3.437883">
        <ele>2248.0</ele>
        <time>2014-07-12T13:13:06Z</time>
      </trkpt>
      <trkpt lat="37.122433" lon="-3.437450">
        <ele>2252.0</ele>
        <time>2014-07-12T13:13:09Z</time>
      </trkpt>
      <trkpt lat="37.122767" lon="-3.437167">
        <ele>2255.0</ele>
        <time>2014-07-12T13:13:12Z</time>
      </trkpt>
      <trkpt lat="37.122983" lon="-3.437183">
        <ele>2258.0</ele>
        <time>2014-07-12T13:13:15Z</time>
      </trkpt>
      <trkpt lat="37.122883" lon="-3.437183">
        <ele>2260.0</ele>
        <time>2014-07-12T13:13:18Z</time>
      </trkpt>
      <trkpt lat="37.122700" lon="-3.436917">
        <ele>2265.0</ele>
        <time>2014-07-12T13:13:21Z</time>
      </trkpt>
      <trkpt lat="37.122867" lon="-3.436383">
        <ele>2270.0</ele>
        <time>2014-07-12T13:13:24Z</time>
      </trkpt>
      <trkpt lat="37.123183" lon="-3.436217">
        <ele>2275.0</ele>
        <time>2014-07-12T13:13:27Z</time>
      </trkpt>
      <trkpt lat="37.123133" lon="-3.436250">
        <ele>2277.0</ele>
        <time>2014-07-12T13:13:30Z</time>
      </trkpt>
      <trkpt lat="37.123067" lon="-3.435917">
        <ele>2283.0</ele>
        <time>2014-07-12T13:13:34Z</time>
      </trkpt>
      <trkpt lat="37.123350" lon="-3.435600">
        <ele>2284.0</ele>
        <time>2014-07-12T13:13:37Z</time>
      </trkpt>
      <trkpt lat="37.123617" lon="-3.435733">
        <ele>2290.0</ele>
        <time>2014-07-12T13:13:40Z</time>
      </trkpt>
      <trkpt lat="37.123550" lon="-3.435767">
        <ele>2292.0</ele>
        <time>2014-07-12T13:13:43Z</time>
      </trkpt>
      <trkpt lat="37.123483" lon="-3.435450">
        <ele>2298.0</ele>
        <time>2014-07-12T13:13:46Z</time>
      </trkpt>
      <trkpt lat="37.123650" lon="-3.435067">
        <ele>2300.0</ele>
        <time>2014-07-12T13:13:49Z</time>
      </trkpt>
      <trkpt lat="37.124017" lon="-3.434933">
        <ele>2304.0</ele>
        <time>2014-07-12T13:13:52Z</time>
      </trkpt>
      <trkpt lat="37.124317" lon="-3.434950">
        <ele>2308.0</ele>
        <time>2014-07-12T13:13:55Z</time>
      </trkpt>
      <trkpt lat="37.124367" lon="-3.435017">
        <ele>2310.0</ele>
        <time>2014-07-12T13:13:58Z</time>
      </trkpt>
      <trkpt lat="37.124217" lon="-3.434850">
        <ele>2315.0</ele>
        <time>2014-07-12T13:14:01Z</time>
      </trkpt>
      <trkpt lat="37.124200" lon="-3.434417">
        <ele>2320.0</ele>
        <time>2014-07-12T13:14:04Z</time>
      </trkpt>
      <trkpt lat="37.124400" lon="-3.433983">
        <ele>2320.0</ele>
        <time>2014-07-12T13:14:07Z</time>
      </trkpt>
      <trkpt lat="37.124617" lon="-3.433950">
        <ele>2323.0</ele>
        <time>2014-07-12T13:14:10Z</time>
      </trkpt>
      <trkpt lat="37.124667" lon="-3.434083">
        <ele>2326.0</ele>
        <time>2014-07-12T13:14:13Z</time>
      </trkpt>
      <trkpt lat="37.124567" lon="-3.434033">
        <ele>2330.0</ele>
        <time>2014-07-12T13:14:16Z</time>
      </trkpt>
      <trkpt lat="37.124417" lon="-3.433850">
        <ele>2336.0</ele>
        <time>2014-07-12T13:14:19Z</time>
      </trkpt>
      <trkpt lat="37.124283" lon="-3.433683">
        <ele>2343.0</ele>
        <time>2014-07-12T13:14:22Z</time>
      </trkpt>
      <trkpt lat="37.124083" lon="-3.433633">
        <ele>2350.0</ele>
        <time>2014-07-12T13:14:25Z</time>
      </trkpt>
      <trkpt lat="37.123883" lon="-3.433550">
        <ele>2356.0</ele>
        <time>2014-07-12T13:14:28Z</time>
      </trkpt>
      <trkpt lat="37.123667" lon="-3.433400">
        <ele>2363.0</ele>
        <time>2014-07-12T13:14:31Z</time>
      </trkpt>
      <trkpt lat="37.123467" lon="-3.433133">
        <ele>2369.0</ele>
        <time>2014-07-12T13:14:34Z</time>
      </trkpt>
      <trkpt lat="37.123450" lon="-3.432750">
        <ele>2377.0</ele>
        <time>2014-07-12T13:14:37Z</time>
      </trkpt>
      <trkpt lat="37.123700" lon="-3.432400">
        <ele>2383.0</ele>
        <time>2014-07-12T13:14:40Z</time>
      </trkpt>
      <trkpt lat="37.124050" lon="-3.432450">
        <ele>2389.0</ele>
        <time>2014-07-12T13:14:43Z</time>
      </trkpt>
      <trkpt lat="37.124183" lon="-3.432617">
        <ele>2393.0</ele>
        <time>2014-07-12T13:14:46Z</time>
      </trkpt>
      <trkpt lat="37.124150" lon="-3.432750">
        <ele>2396.0</ele>
        <time>2014-07-12T13:14:49Z</time>
      </trkpt>
      <trkpt lat="37.124033" lon="-3.432800">
        <ele>2400.0</ele>
        <time>2014-07-12T13:14:52Z</time>
      </trkpt>
      <trkpt lat="37.123867" lon="-3.432567">
        <ele>2408.0</ele>
        <time>2014-07-12T13:14:55Z</time>
      </trkpt>
      <trkpt lat="37.123967" lon="-3.432083">
        <ele>2415.0</ele>
        <time>2014-07-12T13:14:58Z</time>
      </trkpt>
      <trkpt lat="37.124300" lon="-3.431783">
        <ele>2422.0</ele>
        <time>2014-07-12T13:15:01Z</time>
      </trkpt>
      <trkpt lat="37.124650" lon="-3.431633">
        <ele>2428.0</ele>
        <time>2014-07-12T13:15:04Z</time>
      </trkpt>
      <trkpt lat="37.124833" lon="-3.431650">
        <ele>2433.0</ele>
        <time>2014-07-12T13:15:07Z</time>
      </trkpt>
      <trkpt lat="37.124700" lon="-3.431667">
        <ele>2437.0</ele>
        <time>2014-07-12T13:15:10Z</time>
      </trkpt>
      <trkpt lat="37.124467" lon="-3.431533">
        <ele>2442.0</ele>
        <time>2014-07-12T13:15:13Z</time>
      </trkpt>
      <trkpt lat="37.124283" lon="-3.431217">
        <ele>2448.0</ele>
        <time>2014-07-12T13:15:16Z</time>
      </trkpt>
      <trkpt lat="37.124283" lon="-3.430733">
        <ele>2454.0</ele>
        <time>2014-07-12T13:15:19Z</time>
      </trkpt>
      <trkpt lat="37.124483" lon="-3.430300">
        <ele>2458.0</ele>
        <time>2014-07-12T13:15:22Z</time>
      </trkpt>
      <trkpt lat="37.124817" lon="-3.430000">
        <ele>2462.0</ele>
        <time>2014-07-12T13:15:25Z</time>
      </trkpt>
      <trkpt lat="37.125133" lon="-3.429983">
        <ele>2466.0</ele>
        <time>2014-07-12T13:15:28Z</time>
      </trkpt>
      <trkpt lat="37.125317" lon="-3.430067">
        <ele>2469.0</ele>
        <time>2014-07-12T13:15:31Z</time>
      </trkpt>
      <trkpt lat="37.125250" lon="-3.430183">
        <ele>2470.0</ele>
        <time>2014-07-12T13:15:34Z</time>
      </trkpt>
      <trkpt lat="37.125083" lon="-3.430250">
        <ele>2473.0</ele>
        <time>2014-07-12T13:15:37Z</time>
      </trkpt>
      <trkpt lat="37.124850" lon="-3.430183">
        <ele>2477.0</ele>
        <time>2014-07-12T13:15:40Z</time>
      </trkpt>
      <trkpt lat="37.124733" lon="-3.429817">
        <ele>2480.0</ele>
        <time>2014-07-12T13:15:43Z</time>
      </trkpt>
      <trkpt lat="37.124883" lon="-3.429367">
        <ele>2483.0</ele>
        <time>2014-07-12T13:15:46Z</time>
      </trkpt>
      <trkpt lat="37.125200" lon="-3.429100">
        <ele>2486.0</ele>
        <time>2014-07-12T13:15:49Z</time>
      </trkpt>
      <trkpt lat="37.125517" lon="-3.429000">
        <ele>2489.0</ele>
        <time>2014-07-12T13:15:52Z</time>
      </trkpt>
      <trkpt lat="37.125767" lon="-3.429117">
        <ele>2493.0</ele>
        <time>2014-07-12T13:15:55Z</time>
      </trkpt>
      <trkpt lat="37.125833" lon="-3.429267">
        <ele>2494.0</ele>
        <time>2014-07-12T13:15:58Z</time>
      </trkpt>
      <trkpt lat="37.125733" lon="-3.429383">
        <ele>2496.0</ele>
        <time>2014-07-12T13:16:01Z</time>
      </trkpt>
      <trkpt lat="37.125533" lon="-3.429417">
        <ele>2499.0</ele>
        <time>2014-07-12T13:16:05Z</time>
      </trkpt>
      <trkpt lat="37.125333" lon="-3.429417">
        <ele>2502.0</ele>
        <time>2014-07-12T13:16:08Z</time>
      </trkpt>
      <trkpt lat="37.125150" lon="-3.429517">
        <ele>2505.0</ele>
        <time>2014-07-12T13:16:11Z</time>
      </trkpt>
      <trkpt lat="37.125000" lon="-3.429617">
        <ele>2509.0</ele>
        <time>2014-07-12T13:16:14Z</time>
      </trkpt>
      <trkpt lat="37.124800" lon="-3.429683">
        <ele>2512.0</ele>
        <time>2014-07-12T13:16:17Z</time>
      </trkpt>
      <trkpt lat="37.124600" lon="-3.429733">
        <ele>2516.0</ele>
        <time>2014-07-12T13:16:20Z</time>
      </trkpt>
      <trkpt lat="37.124417" lon="-3.429650">
        <ele>2521.0</ele>
        <time>2014-07-12T13:16:23Z</time>
      </trkpt>
      <trkpt lat="37.124350" lon="-3.429250">
        <ele>2526.0</ele>
        <time>2014-07-12T13:16:26Z</time>
      </trkpt>
      <trkpt lat="37.124583" lon="-3.428867">
        <ele>2531.0</ele>
        <time>2014-07-12T13:16:29Z</time>
      </trkpt>
      <trkpt lat="37.124883" lon="-3.428750">
        <ele>2537.0</ele>
        <time>2014-07-12T13:16:32Z</time>
      </trkpt>
      <trkpt lat="37.125133" lon="-3.428833">
        <ele>2543.0</ele>
        <time>2014-07-12T13:16:35Z</time>
      </trkpt>
      <trkpt lat="37.125317" lon="-3.429033">
        <ele>2549.0</ele>
        <time>2014-07-12T13:16:38Z</time>
      </trkpt>
      <trkpt lat="37.125367" lon="-3.429233">
        <ele>2553.0</ele>
        <time>2014-07-12T13:16:41Z</time>
      </trkpt>
      <trkpt lat="37.125283" lon="-3.429450">
        <ele>2558.0</ele>
        <time>2014-07-12T13:16:44Z</time>
      </trkpt>
      <trkpt lat="37.125100" lon="-3.429583">
        <ele>2562.0</ele>
        <time>2014-07-12T13:16:47Z</time>
      </trkpt>
      <trkpt lat="37.124883" lon="-3.429717">
        <ele>2565.0</ele>
        <time>2014-07-12T13:16:50Z</time>
      </trkpt>
      <trkpt lat="37.124650" lon="-3.429733">
        <ele>2568.0</ele>
        <time>2014-07-12T13:16:53Z</time>
      </trkpt>
      <trkpt lat="37.124417" lon="-3.429733">
        <ele>2571.0</ele>
        <time>2014-07-12T13:16:56Z</time>
      </trkpt>
      <trkpt lat="37.124367" lon="-3.429833">
        <ele>2572.0</ele>
        <time>2014-07-12T13:16:59Z</time>
      </trkpt>
      <trkpt lat="37.124600" lon="-3.429683">
        <ele>2575.0</ele>
        <time>2014-07-12T13:17:02Z</time>
      </trkpt>
      <trkpt lat="37.124717" lon="-3.429200">
        <ele>2578.0</ele>
        <time>2014-07-12T13:17:05Z</time>
      </trkpt>
      <trkpt lat="37.124617" lon="-3.428750">
        <ele>2580.0</ele>
        <time>2014-07-12T13:17:08Z</time>
      </trkpt>
      <trkpt lat="37.124433" lon="-3.428417">
        <ele>2582.0</ele>
        <time>2014-07-12T13:17:11Z</time>
      </trkpt>
      <trkpt lat="37.124167" lon="-3.428367">
        <ele>2585.0</ele>
        <time>2014-07-12T13:17:14Z</time>
      </trkpt>
      <trkpt lat="37.123933" lon="-3.428400">
        <ele>2587.0</ele>
        <time>2014-07-12T13:17:17Z</time>
      </trkpt>
      <trkpt lat="37.123683" lon="-3.428417">
        <ele>2590.0</ele>
        <time>2014-07-12T13:17:20Z</time>
      </trkpt>
      <trkpt lat="37.123500" lon="-3.428450">
        <ele>2593.0</ele>
        <time>2014-07-12T13:17:23Z</time>
      </trkpt>
      <trkpt lat="37.123483" lon="-3.428600">
        <ele>2594.0</ele>
        <time>2014-07-12T13:17:26Z</time>
      </trkpt>
      <trkpt lat="37.123617" lon="-3.428700">
        <ele>2595.0</ele>
        <time>2014-07-12T13:17:29Z</time>
      </trkpt>
      <trkpt lat="37.123883" lon="-3.428633">
        <ele>2595.0</ele>
        <time>2014-07-12T13:17:32Z</time>
      </trkpt>
      <trkpt lat="37.124200" lon="-3.428433">
        <ele>2595.0</ele>
        <time>2014-07-12T13:17:35Z</time>
      </trkpt>
      <trkpt lat="37.124500" lon="-3.428183">
        <ele>2595.0</ele>
        <time>2014-07-12T13:17:38Z</time>
      </trkpt>
      <trkpt lat="37.124800" lon="-3.427883">
        <ele>2594.0</ele>
        <time>2014-07-12T13:17:41Z</time>
      </trkpt>
      <trkpt lat="37.125083" lon="-3.427617">
        <ele>2594.0</ele>
        <time>2014-07-12T13:17:44Z</time>
      </trkpt>
      <trkpt lat="37.125350" lon="-3.427300">
        <ele>2595.0</ele>
        <time>2014-07-12T13:17:47Z</time>
      </trkpt>
      <trkpt lat="37.125633" lon="-3.426950">
        <ele>2596.0</ele>
        <time>2014-07-12T13:17:50Z</time>
      </trkpt>
      <trkpt lat="37.125917" lon="-3.426750">
        <ele>2597.0</ele>
        <time>2014-07-12T13:17:53Z</time>
      </trkpt>
      <trkpt lat="37.126150" lon="-3.426850">
        <ele>2598.0</ele>
        <time>2014-07-12T13:17:56Z</time>
      </trkpt>
      <trkpt lat="37.126167" lon="-3.427017">
        <ele>2599.0</ele>
        <time>2014-07-12T13:17:59Z</time>
      </trkpt>
      <trkpt lat="37.126050" lon="-3.427083">
        <ele>2600.0</ele>
        <time>2014-07-12T13:18:02Z</time>
      </trkpt>
      <trkpt lat="37.125850" lon="-3.426950">
        <ele>2602.0</ele>
        <time>2014-07-12T13:18:05Z</time>
      </trkpt>
      <trkpt lat="37.125650" lon="-3.426817">
        <ele>2604.0</ele>
        <time>2014-07-12T13:18:08Z</time>
      </trkpt>
      <trkpt lat="37.125433" lon="-3.426683">
        <ele>2607.0</ele>
        <time>2014-07-12T13:18:11Z</time>
      </trkpt>
      <trkpt lat="37.125250" lon="-3.426633">
        <ele>2609.0</ele>
        <time>2014-07-12T13:18:14Z</time>
      </trkpt>
      <trkpt lat="37.125083" lon="-3.426683">
        <ele>2612.0</ele>
        <time>2014-07-12T13:18:17Z</time>
      </trkpt>
      <trkpt lat="37.124933" lon="-3.426717">
        <ele>2613.0</ele>
        <time>2014-07-12T13:18:20Z</time>
      </trkpt>
      <trkpt lat="37.124800" lon="-3.426700">
        <ele>2615.0</ele>
        <time>2014-07-12T13:18:23Z</time>
      </trkpt>
      <trkpt lat="37.124683" lon="-3.426750">
        <ele>2618.0</ele>
        <time>2014-07-12T13:18:26Z</time>
      </trkpt>
      <trkpt lat="37.124633" lon="-3.426867">
        <ele>2620.0</ele>
        <time>2014-07-12T13:18:29Z</time>
      </trkpt>
      <trkpt lat="37.124550" lon="-3.426950">
        <ele>2622.0</ele>
        <time>2014-07-12T13:18:32Z</time>
      </trkpt>
      <trkpt lat="37.124467" lon="-3.427000">
        <ele>2624.0</ele>
        <time>2014-07-12T13:18:36Z</time>
      </trkpt>
      <trkpt lat="37.124467" lon="-3.427100">
        <ele>2627.0</ele>
        <time>2014-07-12T13:18:39Z</time>
      </trkpt>
      <trkpt lat="37.124583" lon="-3.427250">
        <ele>2633.0</ele>
        <time>2014-07-12T13:18:42Z</time>
      </trkpt>
      <trkpt lat="37.124800" lon="-3.427317">
        <ele>2639.0</ele>
        <time>2014-07-12T13:18:45Z</time>
      </trkpt>
      <trkpt lat="37.125050" lon="-3.427250">
        <ele>2647.0</ele>
        <time>2014-07-12T13:18:48Z</time>
      </trkpt>
      <trkpt lat="37.125333" lon="-3.426983">
        <ele>2654.0</ele>
        <time>2014-07-12T13:18:51Z</time>
      </trkpt>
      <trkpt lat="37.125433" lon="-3.426467">
        <ele>2662.0</ele>
        <time>2014-07-12T13:18:54Z</time>
      </trkpt>
      <trkpt lat="37.125383" lon="-3.425983">
        <ele>2669.0</ele>
        <time>2014-07-12T13:18:57Z</time>
      </trkpt>
      <trkpt lat="37.125267" lon="-3.425600">
        <ele>2674.0</ele>
        <time>2014-07-12T13:19:00Z</time>
      </trkpt>
      <trkpt lat="37.125133" lon="-3.425300">
        <ele>2679.0</ele>
        <time>2014-07-12T13:19:03Z</time>
      </trkpt>
      <trkpt lat="37.124983" lon="-3.425117">
        <ele>2684.0</ele>
        <time>2014-07-12T13:19:06Z</time>
      </trkpt>
      <trkpt lat="37.124883" lon="-3.425117">
        <ele>2686.0</ele>
        <time>2014-07-12T13:19:09Z</time>
      </trkpt>
      <trkpt lat="37.124833" lon="-3.425333">
        <ele>2689.0</ele>
        <time>2014-07-12T13:19:12Z</time>
      </trkpt>
      <trkpt lat="37.124717" lon="-3.425433">
        <ele>2693.0</ele>
        <time>2014-07-12T13:19:15Z</time>
      </trkpt>
      <trkpt lat="37.124650" lon="-3.425483">
        <ele>2698.0</ele>
        <time>2014-07-12T13:19:18Z</time>
      </trkpt>
      <trkpt lat="37.124533" lon="-3.425550">
        <ele>2702.0</ele>
        <time>2014-07-12T13:19:21Z</time>
      </trkpt>
      <trkpt lat="37.124400" lon="-3.425633">
        <ele>2707.0</ele>
        <time>2014-07-12T13:19:24Z</time>
      </trkpt>
      <trkpt lat="37.124383" lon="-3.425767">
        <ele>2712.0</ele>
        <time>2014-07-12T13:19:27Z</time>
      </trkpt>
      <trkpt lat="37.124383" lon="-3.425967">
        <ele>2717.0</ele>
        <time>2014-07-12T13:19:30Z</time>
      </trkpt>
      <trkpt lat="37.124383" lon="-3.426183">
        <ele>2724.0</ele>
        <time>2014-07-12T13:19:33Z</time>
      </trkpt>
      <trkpt lat="37.124433" lon="-3.426450">
        <ele>2735.0</ele>
        <time>2014-07-12T13:19:36Z</time>
      </trkpt>
      <trkpt lat="37.124550" lon="-3.426617">
        <ele>2746.0</ele>
        <time>2014-07-12T13:19:39Z</time>
      </trkpt>
      <trkpt lat="37.124683" lon="-3.426800">
        <ele>2756.0</ele>
        <time>2014-07-12T13:19:42Z</time>
      </trkpt>
      <trkpt lat="37.124717" lon="-3.427000">
        <ele>2767.0</ele>
        <time>2014-07-12T13:19:45Z</time>
      </trkpt>
      <trkpt lat="37.124650" lon="-3.427217">
        <ele>2777.0</ele>
        <time>2014-07-12T13:19:48Z</time>
      </trkpt>
      <trkpt lat="37.124633" lon="-3.427433">
        <ele>2786.0</ele>
        <time>2014-07-12T13:19:51Z</time>
      </trkpt>
      <trkpt lat="37.124517" lon="-3.427567">
        <ele>2791.0</ele>
        <time>2014-07-12T13:19:54Z</time>
      </trkpt>
      <trkpt lat="37.124317" lon="-3.427617">
        <ele>2804.0</ele>
        <time>2014-07-12T13:19:57Z</time>
      </trkpt>
      <trkpt lat="37.124100" lon="-3.427517">
        <ele>2817.0</ele>
        <time>2014-07-12T13:20:00Z</time>
      </trkpt>
      <trkpt lat="37.123983" lon="-3.427183">
        <ele>2829.0</ele>
        <time>2014-07-12T13:20:03Z</time>
      </trkpt>
      <trkpt lat="37.124100" lon="-3.426850">
        <ele>2841.0</ele>
        <time>2014-07-12T13:20:06Z</time>
      </trkpt>
      <trkpt lat="37.124317" lon="-3.426733">
        <ele>2853.0</ele>
        <time>2014-07-12T13:20:09Z</time>
      </trkpt>
      <trkpt lat="37.124550" lon="-3.426833">
        <ele>2864.0</ele>
        <time>2014-07-12T13:20:12Z</time>
      </trkpt>
      <trkpt lat="37.124683" lon="-3.427033">
        <ele>2874.0</ele>
        <time>2014-07-12T13:20:15Z</time>
      </trkpt>
      <trkpt lat="37.124667" lon="-3.427283">
        <ele>2883.0</ele>
        <time>2014-07-12T13:20:18Z</time>
      </trkpt>
      <trkpt lat="37.124517" lon="-3.427400">
        <ele>2889.0</ele>
        <time>2014-07-12T13:20:21Z</time>
      </trkpt>
      <trkpt lat="37.124367" lon="-3.427433">
        <ele>2892.0</ele>
        <time>2014-07-12T13:20:24Z</time>
      </trkpt>
      <trkpt lat="37.124233" lon="-3.427183">
        <ele>2898.0</ele>
        <time>2014-07-12T13:20:27Z</time>
      </trkpt>
      <trkpt lat="37.124300" lon="-3.426867">
        <ele>2898.0</ele>
        <time>2014-07-12T13:20:30Z</time>
      </trkpt>
      <trkpt lat="37.124550" lon="-3.426700">
        <ele>2904.0</ele>
        <time>2014-07-12T13:20:33Z</time>
      </trkpt>
      <trkpt lat="37.124700" lon="-3.426917">
        <ele>2914.0</ele>
        <time>2014-07-12T13:20:36Z</time>
      </trkpt>
      <trkpt lat="37.124600" lon="-3.427200">
        <ele>2922.0</ele>
        <time>2014-07-12T13:20:39Z</time>
      </trkpt>
      <trkpt lat="37.124550" lon="-3.427283">
        <ele>0.0</ele>
        <time>2014-07-12T13:20:42Z</time>
      </trkpt>
      <trkpt lat="37.124417" lon="-3.427367">
        <ele>2922.0</ele>
        <time>2014-07-12T13:20:45Z</time>
      </trkpt>
      <trkpt lat="37.124683" lon="-3.427133">
        <ele>2926.0</ele>
        <time>2014-07-12T13:20:48Z</time>
      </trkpt>
      <trkpt lat="37.124967" lon="-3.427167">
        <ele>2935.0</ele>
        <time>2014-07-12T13:20:51Z</time>
      </trkpt>
      <trkpt lat="37.124967" lon="-3.427383">
        <ele>2950.0</ele>
        <time>2014-07-12T13:20:54Z</time>
      </trkpt>
      <trkpt lat="37.124650" lon="-3.427350">
        <ele>2972.0</ele>
        <time>2014-07-12T13:20:57Z</time>
      </trkpt>
      <trkpt lat="37.124500" lon="-3.427100">
        <ele>2982.0</ele>
        <time>2014-07-12T13:21:00Z</time>
      </trkpt>
      <trkpt lat="37.124550" lon="-3.426833">
        <ele>2982.0</ele>
        <time>2014-07-12T13:21:03Z</time>
      </trkpt>
      <trkpt lat="37.124850" lon="-3.426650">
        <ele>2987.0</ele>
        <time>2014-07-12T13:21:07Z</time>
      </trkpt>
      <trkpt lat="37.124967" lon="-3.426867">
        <ele>3002.0</ele>
        <time>2014-07-12T13:21:10Z</time>
      </trkpt>
      <trkpt lat="37.124817" lon="-3.427000">
        <ele>3016.0</ele>
        <time>2014-07-12T13:21:13Z</time>
      </trkpt>
      <trkpt lat="37.124550" lon="-3.426917">
        <ele>3031.0</ele>
        <time>2014-07-12T13:21:16Z</time>
      </trkpt>
      <trkpt lat="37.124300" lon="-3.426683">
        <ele>3045.0</ele>
        <time>2014-07-12T13:21:19Z</time>
      </trkpt>
      <trkpt lat="37.124100" lon="-3.426383">
        <ele>3058.0</ele>
        <time>2014-07-12T13:21:22Z</time>
      </trkpt>
      <trkpt lat="37.123933" lon="-3.426067">
        <ele>3071.0</ele>
        <time>2014-07-12T13:21:25Z</time>
      </trkpt>
      <trkpt lat="37.123833" lon="-3.425717">
        <ele>3083.0</ele>
        <time>2014-07-12T13:21:28Z</time>
      </trkpt>
      <trkpt lat="37.123800" lon="-3.425333">
        <ele>3094.0</ele>
        <time>2014-07-12T13:21:31Z</time>
      </trkpt>
      <trkpt lat="37.123833" lon="-3.424950">
        <ele>3103.0</ele>
        <time>2014-07-12T13:21:34Z</time>
      </trkpt>
      <trkpt lat="37.123933" lon="-3.424617">
        <ele>3113.0</ele>
        <time>2014-07-12T13:21:37Z</time>
      </trkpt>
      <trkpt lat="37.124017" lon="-3.424217">
        <ele>3123.0</ele>
        <time>2014-07-12T13:21:40Z</time>
      </trkpt>
      <trkpt lat="37.124333" lon="-3.423867">
        <ele>3128.0</ele>
        <time>2014-07-12T13:21:43Z</time>
      </trkpt>
      <trkpt lat="37.124650" lon="-3.423733">
        <ele>3137.0</ele>
        <time>2014-07-12T13:21:46Z</time>
      </trkpt>
      <trkpt lat="37.124800" lon="-3.423483">
        <ele>3148.0</ele>
        <time>2014-07-12T13:21:49Z</time>
      </trkpt>
      <trkpt lat="37.124750" lon="-3.423117">
        <ele>3161.0</ele>
        <time>2014-07-12T13:21:52Z</time>
      </trkpt>
      <trkpt lat="37.124583" lon="-3.422883">
        <ele>3173.0</ele>
        <time>2014-07-12T13:21:55Z</time>
      </trkpt>
      <trkpt lat="37.124317" lon="-3.422850">
        <ele>3185.0</ele>
        <time>2014-07-12T13:21:58Z</time>
      </trkpt>
      <trkpt lat="37.124183" lon="-3.423017">
        <ele>3193.0</ele>
        <time>2014-07-12T13:22:01Z</time>
      </trkpt>
      <trkpt lat="37.124167" lon="-3.423217">
        <ele>3204.0</ele>
        <time>2014-07-12T13:22:04Z</time>
      </trkpt>
      <trkpt lat="37.124250" lon="-3.423400">
        <ele>3207.0</ele>
        <time>2014-07-12T13:22:07Z</time>
      </trkpt>
      <trkpt lat="37.124467" lon="-3.423550">
        <ele>3214.0</ele>
        <time>2014-07-12T13:22:10Z</time>
      </trkpt>
      <trkpt lat="37.124750" lon="-3.423450">
        <ele>3225.0</ele>
        <time>2014-07-12T13:22:13Z</time>
      </trkpt>
      <trkpt lat="37.125000" lon="-3.423150">
        <ele>3235.0</ele>
        <time>2014-07-12T13:22:16Z</time>
      </trkpt>
      <trkpt lat="37.125100" lon="-3.422783">
        <ele>3247.0</ele>
        <time>2014-07-12T13:22:19Z</time>
      </trkpt>
      <trkpt lat="37.125017" lon="-3.422400">
        <ele>3258.0</ele>
        <time>2014-07-12T13:22:22Z</time>
      </trkpt>
      <trkpt lat="37.124800" lon="-3.422117">
        <ele>3268.0</ele>
        <time>2014-07-12T13:22:25Z</time>
      </trkpt>
      <trkpt lat="37.124583" lon="-3.422050">
        <ele>3278.0</ele>
        <time>2014-07-12T13:22:28Z</time>
      </trkpt>
      <trkpt lat="37.124417" lon="-3.422150">
        <ele>3287.0</ele>
        <time>2014-07-12T13:22:31Z</time>
      </trkpt>
      <trkpt lat="37.124383" lon="-3.422333">
        <ele>3293.0</ele>
        <time>2014-07-12T13:22:34Z</time>
      </trkpt>
      <trkpt lat="37.124583" lon="-3.422467">
        <ele>3304.0</ele>
        <time>2014-07-12T13:22:37Z</time>
      </trkpt>
      <trkpt lat="37.124850" lon="-3.422317">
        <ele>3313.0</ele>
        <time>2014-07-12T13:22:40Z</time>
      </trkpt>
      <trkpt lat="37.124933" lon="-3.421917">
        <ele>3322.0</ele>
        <time>2014-07-12T13:22:43Z</time>
      </trkpt>
      <trkpt lat="37.124783" lon="-3.421533">
        <ele>3328.0</ele>
        <time>2014-07-12T13:22:46Z</time>
      </trkpt>
      <trkpt lat="37.124600" lon="-3.421417">
        <ele>3333.0</ele>
        <time>2014-07-12T13:22:49Z</time>
      </trkpt>
      <trkpt lat="37.124417" lon="-3.421467">
        <ele>3338.0</ele>
        <time>2014-07-12T13:22:52Z</time>
      </trkpt>
      <trkpt lat="37.124333" lon="-3.421650">
        <ele>3341.0</ele>
        <time>2014-07-12T13:22:55Z</time>
      </trkpt>
      <trkpt lat="37.124433" lon="-3.421850">
        <ele>3345.0</ele>
        <time>2014-07-12T13:22:58Z</time>
      </trkpt>
      <trkpt lat="37.124700" lon="-3.421883">
        <ele>3350.0</ele>
        <time>2014-07-12T13:23:01Z</time>
      </trkpt>
      <trkpt lat="37.124933" lon="-3.421633">
        <ele>3355.0</ele>
        <time>2014-07-12T13:23:04Z</time>
      </trkpt>
      <trkpt lat="37.124917" lon="-3.421233">
        <ele>3360.0</ele>
        <time>2014-07-12T13:23:07Z</time>
      </trkpt>
      <trkpt lat="37.124783" lon="-3.420817">
        <ele>3364.0</ele>
        <time>2014-07-12T13:23:10Z</time>
      </trkpt>
      <trkpt lat="37.124600" lon="-3.420483">
        <ele>3367.0</ele>
        <time>2014-07-12T13:23:13Z</time>
      </trkpt>
      <trkpt lat="37.124367" lon="-3.420317">
        <ele>3369.0</ele>
        <time>2014-07-12T13:23:16Z</time>
      </trkpt>
      <trkpt lat="37.124150" lon="-3.420350">
        <ele>3372.0</ele>
        <time>2014-07-12T13:23:19Z</time>
      </trkpt>
      <trkpt lat="37.123967" lon="-3.420433">
        <ele>3375.0</ele>
        <time>2014-07-12T13:23:22Z</time>
      </trkpt>
      <trkpt lat="37.123800" lon="-3.420550">
        <ele>0.0</ele>
        <time>2014-07-12T13:23:25Z</time>
      </trkpt>
      <trkpt lat="37.123783" lon="-3.420750">
        <ele>3378.0</ele>
        <time>2014-07-12T13:23:28Z</time>
      </trkpt>
      <trkpt lat="37.123967" lon="-3.420783">
        <ele>3379.0</ele>
        <time>2014-07-12T13:23:31Z</time>
      </trkpt>
      <trkpt lat="37.124217" lon="-3.420700">
        <ele>3379.0</ele>
        <time>2014-07-12T13:23:34Z</time>
      </trkpt>
      <trkpt lat="37.124450" lon="-3.420417">
        <ele>3377.0</ele>
        <time>2014-07-12T13:23:38Z</time>
      </trkpt>
      <trkpt lat="37.124683" lon="-3.420000">
        <ele>3375.0</ele>
        <time>2014-07-12T13:23:41Z</time>
      </trkpt>
      <trkpt lat="37.124783" lon="-3.419550">
        <ele>3373.0</ele>
        <time>2014-07-12T13:23:44Z</time>
      </trkpt>
      <trkpt lat="37.124717" lon="-3.419050">
        <ele>3371.0</ele>
        <time>2014-07-12T13:23:47Z</time>
      </trkpt>
      <trkpt lat="37.124567" lon="-3.418600">
        <ele>3368.0</ele>
        <time>2014-07-12T13:23:50Z</time>
      </trkpt>
      <trkpt lat="37.124417" lon="-3.418200">
        <ele>3366.0</ele>
        <time>2014-07-12T13:23:53Z</time>
      </trkpt>
      <trkpt lat="37.124267" lon="-3.417767">
        <ele>3364.0</ele>
        <time>2014-07-12T13:23:56Z</time>
      </trkpt>
      <trkpt lat="37.124100" lon="-3.417350">
        <ele>3363.0</ele>
        <time>2014-07-12T13:23:59Z</time>
      </trkpt>
      <trkpt lat="37.123933" lon="-3.416950">
        <ele>3362.0</ele>
        <time>2014-07-12T13:24:02Z</time>
      </trkpt>
      <trkpt lat="37.123700" lon="-3.416650">
        <ele>3362.0</ele>
        <time>2014-07-12T13:24:05Z</time>
      </trkpt>
      <trkpt lat="37.123467" lon="-3.416417">
        <ele>3363.0</ele>
        <time>2014-07-12T13:24:08Z</time>
      </trkpt>
      <trkpt lat="37.123233" lon="-3.416333">
        <ele>3363.0</ele>
        <time>2014-07-12T13:24:11Z</time>
      </trkpt>
      <trkpt lat="37.122983" lon="-3.416250">
        <ele>3364.0</ele>
        <time>2014-07-12T13:24:14Z</time>
      </trkpt>
      <trkpt lat="37.122767" lon="-3.415967">
        <ele>3365.0</ele>
        <time>2014-07-12T13:24:17Z</time>
      </trkpt>
      <trkpt lat="37.122700" lon="-3.415717">
        <ele>0.0</ele>
        <time>2014-07-12T13:24:20Z</time>
      </trkpt>
      <trkpt lat="37.122700" lon="-3.415167">
        <ele>3367.0</ele>
        <time>2014-07-12T13:24:23Z</time>
      </trkpt>
      <trkpt lat="37.123033" lon="-3.414917">
        <ele>3368.0</ele>
        <time>2014-07-12T13:24:26Z</time>
      </trkpt>
      <trkpt lat="37.123400" lon="-3.414783">
        <ele>3369.0</ele>
        <time>2014-07-12T13:24:29Z</time>
      </trkpt>
      <trkpt lat="37.123717" lon="-3.414767">
        <ele>3370.0</ele>
        <time>2014-07-12T13:24:32Z</time>
      </trkpt>
      <trkpt lat="37.123850" lon="-3.414900">
        <ele>3371.0</ele>
        <time>2014-07-12T13:24:35Z</time>
      </trkpt>
      <trkpt lat="37.123767" lon="-3.415017">
        <ele>3371.0</ele>
        <time>2014-07-12T13:24:38Z</time>
      </trkpt>
      <trkpt lat="37.123567" lon="-3.415017">
        <ele>3372.0</ele>
        <time>2014-07-12T13:24:41Z</time>
      </trkpt>
      <trkpt lat="37.123333" lon="-3.414867">
        <ele>3373.0</ele>
        <time>2014-07-12T13:24:44Z</time>
      </trkpt>
      <trkpt lat="37.123133" lon="-3.414533">
        <ele>3374.0</ele>
        <time>2014-07-12T13:24:47Z</time>
      </trkpt>
      <trkpt lat="37.123050" lon="-3.414083">
        <ele>3375.0</ele>
        <time>2014-07-12T13:24:50Z</time>
      </trkpt>
      <trkpt lat="37.123100" lon="-3.413650">
        <ele>3375.0</ele>
        <time>2014-07-12T13:24:53Z</time>
      </trkpt>
      <trkpt lat="37.123450" lon="-3.413433">
        <ele>3375.0</ele>
        <time>2014-07-12T13:24:56Z</time>
      </trkpt>
      <trkpt lat="37.123783" lon="-3.413350">
        <ele>3376.0</ele>
        <time>2014-07-12T13:24:59Z</time>
      </trkpt>
      <trkpt lat="37.123983" lon="-3.413400">
        <ele>3377.0</ele>
        <time>2014-07-12T13:25:02Z</time>
      </trkpt>
      <trkpt lat="37.124067" lon="-3.413567">
        <ele>3379.0</ele>
        <time>2014-07-12T13:25:05Z</time>
      </trkpt>
      <trkpt lat="37.124000" lon="-3.413700">
        <ele>3379.0</ele>
        <time>2014-07-12T13:25:08Z</time>
      </trkpt>
      <trkpt lat="37.123833" lon="-3.413800">
        <ele>3382.0</ele>
        <time>2014-07-12T13:25:11Z</time>
      </trkpt>
      <trkpt lat="37.123667" lon="-3.413883">
        <ele>3384.0</ele>
        <time>2014-07-12T13:25:14Z</time>
      </trkpt>
      <trkpt lat="37.123450" lon="-3.413900">
        <ele>3386.0</ele>
        <time>2014-07-12T13:25:17Z</time>
      </trkpt>
      <trkpt lat="37.123217" lon="-3.413817">
        <ele>3388.0</ele>
        <time>2014-07-12T13:25:20Z</time>
      </trkpt>
      <trkpt lat="37.123033" lon="-3.413483">
        <ele>3390.0</ele>
        <time>2014-07-12T13:25:23Z</time>
      </trkpt>
      <trkpt lat="37.122967" lon="-3.413000">
        <ele>3390.0</ele>
        <time>2014-07-12T13:25:26Z</time>
      </trkpt>
      <trkpt lat="37.123100" lon="-3.412550">
        <ele>3392.0</ele>
        <time>2014-07-12T13:25:29Z</time>
      </trkpt>
      <trkpt lat="37.123417" lon="-3.412250">
        <ele>3394.0</ele>
        <time>2014-07-12T13:25:32Z</time>
      </trkpt>
      <trkpt lat="37.123767" lon="-3.412150">
        <ele>3395.0</ele>
        <time>2014-07-12T13:25:35Z</time>
      </trkpt>
      <trkpt lat="37.123967" lon="-3.412250">
        <ele>3397.0</ele>
        <time>2014-07-12T13:25:38Z</time>
      </trkpt>
      <trkpt lat="37.124000" lon="-3.412417">
        <ele>3398.0</ele>
        <time>2014-07-12T13:25:41Z</time>
      </trkpt>
      <trkpt lat="37.123850" lon="-3.412500">
        <ele>3399.0</ele>
        <time>2014-07-12T13:25:44Z</time>
      </trkpt>
      <trkpt lat="37.123567" lon="-3.412450">
        <ele>3400.0</ele>
        <time>2014-07-12T13:25:47Z</time>
      </trkpt>
      <trkpt lat="37.123300" lon="-3.412267">
        <ele>3400.0</ele>
        <time>2014-07-12T13:25:50Z</time>
      </trkpt>
      <trkpt lat="37.123033" lon="-3.411967">
        <ele>3401.0</ele>
        <time>2014-07-12T13:25:53Z</time>
      </trkpt>
      <trkpt lat="37.122733" lon="-3.411467">
        <ele>3400.0</ele>
        <time>2014-07-12T13:25:56Z</time>
      </trkpt>
      <trkpt lat="37.122600" lon="-3.411017">
        <ele>3400.0</ele>
        <time>2014-07-12T13:25:59Z</time>
      </trkpt>
      <trkpt lat="37.122633" lon="-3.410567">
        <ele>3400.0</ele>
        <time>2014-07-12T13:26:02Z</time>
      </trkpt>
      <trkpt lat="37.122867" lon="-3.410233">
        <ele>3400.0</ele>
        <time>2014-07-12T13:26:05Z</time>
      </trkpt>
      <trkpt lat="37.123167" lon="-3.410167">
        <ele>3399.0</ele>
        <time>2014-07-12T13:26:09Z</time>
      </trkpt>
      <trkpt lat="37.123450" lon="-3.410183">
        <ele>3399.0</ele>
        <time>2014-07-12T13:26:12Z</time>
      </trkpt>
      <trkpt lat="37.123617" lon="-3.410367">
        <ele>3398.0</ele>
        <time>2014-07-12T13:26:15Z</time>
      </trkpt>
      <trkpt lat="37.123633" lon="-3.410600">
        <ele>3396.0</ele>
        <time>2014-07-12T13:26:18Z</time>
      </trkpt>
      <trkpt lat="37.123483" lon="-3.410733">
        <ele>3395.0</ele>
        <time>2014-07-12T13:26:21Z</time>
      </trkpt>
      <trkpt lat="37.123233" lon="-3.410767">
        <ele>3393.0</ele>
        <time>2014-07-12T13:26:24Z</time>
      </trkpt>
      <trkpt lat="37.122933" lon="-3.410650">
        <ele>3391.0</ele>
        <time>2014-07-12T13:26:27Z</time>
      </trkpt>
      <trkpt lat="37.122617" lon="-3.410500">
        <ele>3389.0</ele>
        <time>2014-07-12T13:26:30Z</time>
      </trkpt>
      <trkpt lat="37.122350" lon="-3.410350">
        <ele>3386.0</ele>
        <time>2014-07-12T13:26:33Z</time>
      </trkpt>
      <trkpt lat="37.122033" lon="-3.410217">
        <ele>3383.0</ele>
        <time>2014-07-12T13:26:36Z</time>
      </trkpt>
      <trkpt lat="37.121700" lon="-3.410083">
        <ele>3379.0</ele>
        <time>2014-07-12T13:26:39Z</time>
      </trkpt>
      <trkpt lat="37.121383" lon="-3.409900">
        <ele>3376.0</ele>
        <time>2014-07-12T13:26:42Z</time>
      </trkpt>
      <trkpt lat="37.121050" lon="-3.409783">
        <ele>3372.0</ele>
        <time>2014-07-12T13:26:45Z</time>
      </trkpt>
      <trkpt lat="37.120733" lon="-3.409633">
        <ele>3368.0</ele>
        <time>2014-07-12T13:26:48Z</time>
      </trkpt>
      <trkpt lat="37.120400" lon="-3.409467">
        <ele>3364.0</ele>
        <time>2014-07-12T13:26:51Z</time>
      </trkpt>
      <trkpt lat="37.120033" lon="-3.409367">
        <ele>3360.0</ele>
        <time>2014-07-12T13:26:54Z</time>
      </trkpt>
      <trkpt lat="37.119717" lon="-3.409233">
        <ele>3357.0</ele>
        <time>2014-07-12T13:26:57Z</time>
      </trkpt>
      <trkpt lat="37.119400" lon="-3.409117">
        <ele>3353.0</ele>
        <time>2014-07-12T13:27:00Z</time>
      </trkpt>
      <trkpt lat="37.119117" lon="-3.408967">
        <ele>3350.0</ele>
        <time>2014-07-12T13:27:03Z</time>
      </trkpt>
      <trkpt lat="37.118833" lon="-3.408767">
        <ele>3347.0</ele>
        <time>2014-07-12T13:27:06Z</time>
      </trkpt>
      <trkpt lat="37.118533" lon="-3.408583">
        <ele>3345.0</ele>
        <time>2014-07-12T13:27:09Z</time>
      </trkpt>
      <trkpt lat="37.118250" lon="-3.408417">
        <ele>3342.0</ele>
        <time>2014-07-12T13:27:12Z</time>
      </trkpt>
      <trkpt lat="37.117967" lon="-3.408233">
        <ele>3339.0</ele>
        <time>2014-07-12T13:27:15Z</time>
      </trkpt>
      <trkpt lat="37.117700" lon="-3.408050">
        <ele>3337.0</ele>
        <time>2014-07-12T13:27:18Z</time>
      </trkpt>
      <trkpt lat="37.117450" lon="-3.407867">
        <ele>3335.0</ele>
        <time>2014-07-12T13:27:21Z</time>
      </trkpt>
      <trkpt lat="37.117167" lon="-3.407700">
        <ele>3334.0</ele>
        <time>2014-07-12T13:27:24Z</time>
      </trkpt>
      <trkpt lat="37.116900" lon="-3.407600">
        <ele>3333.0</ele>
        <time>2014-07-12T13:27:27Z</time>
      </trkpt>
      <trkpt lat="37.116617" lon="-3.407533">
        <ele>3332.0</ele>
        <time>2014-07-12T13:27:30Z</time>
      </trkpt>
      <trkpt lat="37.116383" lon="-3.407500">
        <ele>3331.0</ele>
        <time>2014-07-12T13:27:33Z</time>
      </trkpt>
      <trkpt lat="37.116150" lon="-3.407450">
        <ele>3330.0</ele>
        <time>2014-07-12T13:27:36Z</time>
      </trkpt>
      <trkpt lat="37.115883" lon="-3.407400">
        <ele>3330.0</ele>
        <time>2014-07-12T13:27:39Z</time>
      </trkpt>
      <trkpt lat="37.115600" lon="-3.407300">
        <ele>3329.0</ele>
        <time>2014-07-12T13:27:42Z</time>
      </trkpt>
      <trkpt lat="37.115283" lon="-3.407150">
        <ele>3329.0</ele>
        <time>2014-07-12T13:27:45Z</time>
      </trkpt>
      <trkpt lat="37.114983" lon="-3.406967">
        <ele>3329.0</ele>
        <time>2014-07-12T13:27:48Z</time>
      </trkpt>
      <trkpt lat="37.114683" lon="-3.406750">
        <ele>3329.0</ele>
        <time>2014-07-12T13:27:51Z</time>
      </trkpt>
      <trkpt lat="37.114383" lon="-3.406483">
        <ele>3329.0</ele>
        <time>2014-07-12T13:27:54Z</time>
      </trkpt>
      <trkpt lat="37.114083" lon="-3.406167">
        <ele>3329.0</ele>
        <time>2014-07-12T13:27:57Z</time>
      </trkpt>
      <trkpt lat="37.113800" lon="-3.405783">
        <ele>3329.0</ele>
        <time>2014-07-12T13:28:00Z</time>
      </trkpt>
      <trkpt lat="37.113617" lon="-3.405283">
        <ele>3330.0</ele>
        <time>2014-07-12T13:28:03Z</time>
      </trkpt>
      <trkpt lat="37.113633" lon="-3.404717">
        <ele>3330.0</ele>
        <time>2014-07-12T13:28:06Z</time>
      </trkpt>
      <trkpt lat="37.113850" lon="-3.404267">
        <ele>3331.0</ele>
        <time>2014-07-12T13:28:09Z</time>
      </trkpt>
      <trkpt lat="37.114117" lon="-3.404050">
        <ele>3332.0</ele>
        <time>2014-07-12T13:28:12Z</time>
      </trkpt>
      <trkpt lat="37.114350" lon="-3.404050">
        <ele>3333.0</ele>
        <time>2014-07-12T13:28:15Z</time>
      </trkpt>
      <trkpt lat="37.114500" lon="-3.404167">
        <ele>3334.0</ele>
        <time>2014-07-12T13:28:18Z</time>
      </trkpt>
      <trkpt lat="37.114583" lon="-3.404267">
        <ele>3335.0</ele>
        <time>2014-07-12T13:28:21Z</time>
      </trkpt>
      <trkpt lat="37.114433" lon="-3.404367">
        <ele>3336.0</ele>
        <time>2014-07-12T13:28:24Z</time>
      </trkpt>
      <trkpt lat="37.114150" lon="-3.404300">
        <ele>3337.0</ele>
        <time>2014-07-12T13:28:27Z</time>
      </trkpt>
      <trkpt lat="37.113850" lon="-3.404050">
        <ele>3338.0</ele>
        <time>2014-07-12T13:28:30Z</time>
      </trkpt>
      <trkpt lat="37.113600" lon="-3.403583">
        <ele>3339.0</ele>
        <time>2014-07-12T13:28:33Z</time>
      </trkpt>
      <trkpt lat="37.113500" lon="-3.402967">
        <ele>3340.0</ele>
        <time>2014-07-12T13:28:37Z</time>
      </trkpt>
      <trkpt lat="37.113533" lon="-3.402367">
        <ele>3340.0</ele>
        <time>2014-07-12T13:28:40Z</time>
      </trkpt>
      <trkpt lat="37.113733" lon="-3.401867">
        <ele>3341.0</ele>
        <time>2014-07-12T13:28:43Z</time>
      </trkpt>
      <trkpt lat="37.114033" lon="-3.401550">
        <ele>3341.0</ele>
        <time>2014-07-12T13:28:46Z</time>
      </trkpt>
      <trkpt lat="37.114333" lon="-3.401300">
        <ele>3341.0</ele>
        <time>2014-07-12T13:28:49Z</time>
      </trkpt>
      <trkpt lat="37.114617" lon="-3.401100">
        <ele>3341.0</ele>
        <time>2014-07-12T13:28:52Z</time>
      </trkpt>
      <trkpt lat="37.114883" lon="-3.401000">
        <ele>3342.0</ele>
        <time>2014-07-12T13:28:55Z</time>
      </trkpt>
      <trkpt lat="37.115067" lon="-3.401017">
        <ele>3342.0</ele>
        <time>2014-07-12T13:28:58Z</time>
      </trkpt>
      <trkpt lat="37.115183" lon="-3.401083">
        <ele>3342.0</ele>
        <time>2014-07-12T13:29:01Z</time>
      </trkpt>
      <trkpt lat="37.115217" lon="-3.401200">
        <ele>3342.0</ele>
        <time>2014-07-12T13:29:04Z</time>
      </trkpt>
      <trkpt lat="37.115183" lon="-3.401317">
        <ele>3342.0</ele>
        <time>2014-07-12T13:29:07Z</time>
      </trkpt>
      <trkpt lat="37.115067" lon="-3.401417">
        <ele>3343.0</ele>
        <time>2014-07-12T13:29:10Z</time>
      </trkpt>
      <trkpt lat="37.114850" lon="-3.401417">
        <ele>3344.0</ele>
        <time>2014-07-12T13:29:13Z</time>
      </trkpt>
      <trkpt lat="37.114567" lon="-3.401283">
        <ele>3345.0</ele>
        <time>2014-07-12T13:29:16Z</time>
      </trkpt>
      <trkpt lat="37.114300" lon="-3.400967">
        <ele>3346.0</ele>
        <time>2014-07-12T13:29:19Z</time>
      </trkpt>
      <trkpt lat="37.114150" lon="-3.400417">
        <ele>3347.0</ele>
        <time>2014-07-12T13:29:22Z</time>
      </trkpt>
      <trkpt lat="37.114250" lon="-3.399817">
        <ele>3348.0</ele>
        <time>2014-07-12T13:29:25Z</time>
      </trkpt>
      <trkpt lat="37.114500" lon="-3.399383">
        <ele>3349.0</ele>
        <time>2014-07-12T13:29:28Z</time>
      </trkpt>
      <trkpt lat="37.114750" lon="-3.399217">
        <ele>3351.0</ele>
        <time>2014-07-12T13:29:31Z</time>
      </trkpt>
      <trkpt lat="37.114833" lon="-3.399300">
        <ele>3352.0</ele>
        <time>2014-07-12T13:29:34Z</time>
      </trkpt>
      <trkpt lat="37.114750" lon="-3.399433">
        <ele>3353.0</ele>
        <time>2014-07-12T13:29:37Z</time>
      </trkpt>
      <trkpt lat="37.114617" lon="-3.399550">
        <ele>3355.0</ele>
        <time>2014-07-12T13:29:40Z</time>
      </trkpt>
      <trkpt lat="37.114433" lon="-3.399633">
        <ele>3358.0</ele>
        <time>2014-07-12T13:29:43Z</time>
      </trkpt>
      <trkpt lat="37.114167" lon="-3.399567">
        <ele>3361.0</ele>
        <time>2014-07-12T13:29:46Z</time>
      </trkpt>
      <trkpt lat="37.113867" lon="-3.399250">
        <ele>3363.0</ele>
        <time>2014-07-12T13:29:49Z</time>
      </trkpt>
      <trkpt lat="37.113683" lon="-3.398750">
        <ele>3365.0</ele>
        <time>2014-07-12T13:29:52Z</time>
      </trkpt>
      <trkpt lat="37.113717" lon="-3.398200">
        <ele>3365.0</ele>
        <time>2014-07-12T13:29:55Z</time>
      </trkpt>
      <trkpt lat="37.113933" lon="-3.397767">
        <ele>3366.0</ele>
        <time>2014-07-12T13:29:58Z</time>
      </trkpt>
      <trkpt lat="37.114217" lon="-3.397583">
        <ele>3367.0</ele>
        <time>2014-07-12T13:30:01Z</time>
      </trkpt>
      <trkpt lat="37.114450" lon="-3.397583">
        <ele>3368.0</ele>
        <time>2014-07-12T13:30:04Z</time>
      </trkpt>
      <trkpt lat="37.114617" lon="-3.397650">
        <ele>3369.0</ele>
        <time>2014-07-12T13:30:07Z</time>
      </trkpt>
      <trkpt lat="37.114733" lon="-3.397750">
        <ele>3369.0</ele>
        <time>2014-07-12T13:30:10Z</time>
      </trkpt>
      <trkpt lat="37.114850" lon="-3.397850">
        <ele>3370.0</ele>
        <time>2014-07-12T13:30:13Z</time>
      </trkpt>
      <trkpt lat="37.114950" lon="-3.397950">
        <ele>3371.0</ele>
        <time>2014-07-12T13:30:16Z</time>
      </trkpt>
      <trkpt lat="37.115050" lon="-3.398033">
        <ele>3372.0</ele>
        <time>2014-07-12T13:30:19Z</time>
      </trkpt>
      <trkpt lat="37.115117" lon="-3.398150">
        <ele>3373.0</ele>
        <time>2014-07-12T13:30:22Z</time>
      </trkpt>
      <trkpt lat="37.115283" lon="-3.398150">
        <ele>3376.0</ele>
        <time>2014-07-12T13:30:25Z</time>
      </trkpt>
      <trkpt lat="37.115533" lon="-3.397967">
        <ele>3378.0</ele>
        <time>2014-07-12T13:30:28Z</time>
      </trkpt>
      <trkpt lat="37.115700" lon="-3.397533">
        <ele>3381.0</ele>
        <time>2014-07-12T13:30:31Z</time>
      </trkpt>
      <trkpt lat="37.115633" lon="-3.396967">
        <ele>3383.0</ele>
        <time>2014-07-12T13:30:34Z</time>
      </trkpt>
      <trkpt lat="37.115383" lon="-3.396533">
        <ele>3385.0</ele>
        <time>2014-07-12T13:30:37Z</time>
      </trkpt>
      <trkpt lat="37.115133" lon="-3.396350">
        <ele>3387.0</ele>
        <time>2014-07-12T13:30:40Z</time>
      </trkpt>
      <trkpt lat="37.114933" lon="-3.396350">
        <ele>3389.0</ele>
        <time>2014-07-12T13:30:43Z</time>
      </trkpt>
      <trkpt lat="37.114850" lon="-3.396450">
        <ele>3391.0</ele>
        <time>2014-07-12T13:30:46Z</time>
      </trkpt>
      <trkpt lat="37.114800" lon="-3.396583">
        <ele>3392.0</ele>
        <time>2014-07-12T13:30:49Z</time>
      </trkpt>
      <trkpt lat="37.114800" lon="-3.396683">
        <ele>3394.0</ele>
        <time>2014-07-12T13:30:52Z</time>
      </trkpt>
      <trkpt lat="37.114850" lon="-3.396833">
        <ele>3397.0</ele>
        <time>2014-07-12T13:30:55Z</time>
      </trkpt>
      <trkpt lat="37.114933" lon="-3.396933">
        <ele>3399.0</ele>
        <time>2014-07-12T13:30:58Z</time>
      </trkpt>
      <trkpt lat="37.115067" lon="-3.397033">
        <ele>3402.0</ele>
        <time>2014-07-12T13:31:01Z</time>
      </trkpt>
      <trkpt lat="37.115283" lon="-3.396983">
        <ele>3405.0</ele>
        <time>2014-07-12T13:31:04Z</time>
      </trkpt>
      <trkpt lat="37.115583" lon="-3.396750">
        <ele>3408.0</ele>
        <time>2014-07-12T13:31:08Z</time>
      </trkpt>
      <trkpt lat="37.115833" lon="-3.396317">
        <ele>3410.0</ele>
        <time>2014-07-12T13:31:11Z</time>
      </trkpt>
      <trkpt lat="37.116017" lon="-3.395767">
        <ele>3412.0</ele>
        <time>2014-07-12T13:31:14Z</time>
      </trkpt>
      <trkpt lat="37.116117" lon="-3.395200">
        <ele>3413.0</ele>
        <time>2014-07-12T13:31:17Z</time>
      </trkpt>
      <trkpt lat="37.116050" lon="-3.394650">
        <ele>3415.0</ele>
        <time>2014-07-12T13:31:20Z</time>
      </trkpt>
      <trkpt lat="37.115850" lon="-3.394200">
        <ele>3416.0</ele>
        <time>2014-07-12T13:31:23Z</time>
      </trkpt>
      <trkpt lat="37.115583" lon="-3.393883">
        <ele>3417.0</ele>
        <time>2014-07-12T13:31:26Z</time>
      </trkpt>
      <trkpt lat="37.115283" lon="-3.393750">
        <ele>3417.0</ele>
        <time>2014-07-12T13:31:29Z</time>
      </trkpt>
      <trkpt lat="37.115067" lon="-3.393700">
        <ele>3419.0</ele>
        <time>2014-07-12T13:31:32Z</time>
      </trkpt>
      <trkpt lat="37.114917" lon="-3.393750">
        <ele>3421.0</ele>
        <time>2014-07-12T13:31:35Z</time>
      </trkpt>
      <trkpt lat="37.114883" lon="-3.393867">
        <ele>3422.0</ele>
        <time>2014-07-12T13:31:38Z</time>
      </trkpt>
      <trkpt lat="37.115000" lon="-3.393967">
        <ele>3422.0</ele>
        <time>2014-07-12T13:31:41Z</time>
      </trkpt>
      <trkpt lat="37.115233" lon="-3.393950">
        <ele>3423.0</ele>
        <time>2014-07-12T13:31:44Z</time>
      </trkpt>
      <trkpt lat="37.115533" lon="-3.393767">
        <ele>3424.0</ele>
        <time>2014-07-12T13:31:47Z</time>
      </trkpt>
      <trkpt lat="37.115833" lon="-3.393483">
        <ele>3424.0</ele>
        <time>2014-07-12T13:31:50Z</time>
      </trkpt>
      <trkpt lat="37.116083" lon="-3.393033">
        <ele>3425.0</ele>
        <time>2014-07-12T13:31:53Z</time>
      </trkpt>
      <trkpt lat="37.116250" lon="-3.392500">
        <ele>3425.0</ele>
        <time>2014-07-12T13:31:56Z</time>
      </trkpt>
      <trkpt lat="37.116300" lon="-3.391950">
        <ele>3426.0</ele>
        <time>2014-07-12T13:31:59Z</time>
      </trkpt>
      <trkpt lat="37.116200" lon="-3.391400">
        <ele>3426.0</ele>
        <time>2014-07-12T13:32:02Z</time>
      </trkpt>
      <trkpt lat="37.115983" lon="-3.390983">
        <ele>3425.0</ele>
        <time>2014-07-12T13:32:05Z</time>
      </trkpt>
      <trkpt lat="37.115683" lon="-3.390750">
        <ele>3424.0</ele>
        <time>2014-07-12T13:32:08Z</time>
      </trkpt>
      <trkpt lat="37.115417" lon="-3.390650">
        <ele>3422.0</ele>
        <time>2014-07-12T13:32:11Z</time>
      </trkpt>
      <trkpt lat="37.115150" lon="-3.390633">
        <ele>3420.0</ele>
        <time>2014-07-12T13:32:14Z</time>
      </trkpt>
      <trkpt lat="37.114933" lon="-3.390683">
        <ele>3418.0</ele>
        <time>2014-07-12T13:32:17Z</time>
      </trkpt>
      <trkpt lat="37.114800" lon="-3.390767">
        <ele>3417.0</ele>
        <time>2014-07-12T13:32:20Z</time>
      </trkpt>
      <trkpt lat="37.114700" lon="-3.390900">
        <ele>3416.0</ele>
        <time>2014-07-12T13:32:23Z</time>
      </trkpt>
      <trkpt lat="37.114650" lon="-3.391050">
        <ele>3415.0</ele>
        <time>2014-07-12T13:32:26Z</time>
      </trkpt>
      <trkpt lat="37.114650" lon="-3.391200">
        <ele>3413.0</ele>
        <time>2014-07-12T13:32:29Z</time>
      </trkpt>
      <trkpt lat="37.114650" lon="-3.391350">
        <ele>3413.0</ele>
        <time>2014-07-12T13:32:32Z</time>
      </trkpt>
      <trkpt lat="37.114700" lon="-3.391533">
        <ele>3411.0</ele>
        <time>2014-07-12T13:32:35Z</time>
      </trkpt>
      <trkpt lat="37.114850" lon="-3.391633">
        <ele>3409.0</ele>
        <time>2014-07-12T13:32:38Z</time>
      </trkpt>
      <trkpt lat="37.115067" lon="-3.391633">
        <ele>3406.0</ele>
        <time>2014-07-12T13:32:41Z</time>
      </trkpt>
      <trkpt lat="37.115367" lon="-3.391483">
        <ele>3403.0</ele>
        <time>2014-07-12T13:32:44Z</time>
      </trkpt>
      <trkpt lat="37.115633" lon="-3.391183">
        <ele>3400.0</ele>
        <time>2014-07-12T13:32:47Z</time>
      </trkpt>
      <trkpt lat="37.115900" lon="-3.390783">
        <ele>3397.0</ele>
        <time>2014-07-12T13:32:50Z</time>
      </trkpt>
      <trkpt lat="37.116150" lon="-3.390317">
        <ele>3395.0</ele>
        <time>2014-07-12T13:32:53Z</time>
      </trkpt>
      <trkpt lat="37.116383" lon="-3.389867">
        <ele>3394.0</ele>
        <time>2014-07-12T13:32:56Z</time>
      </trkpt>
      <trkpt lat="37.116583" lon="-3.389400">
        <ele>3392.0</ele>
        <time>2014-07-12T13:32:59Z</time>
      </trkpt>
      <trkpt lat="37.116783" lon="-3.388900">
        <ele>3391.0</ele>
        <time>2014-07-12T13:33:02Z</time>
      </trkpt>
      <trkpt lat="37.117000" lon="-3.388400">
        <ele>3389.0</ele>
        <time>2014-07-12T13:33:05Z</time>
      </trkpt>
      <trkpt lat="37.117167" lon="-3.387933">
        <ele>3388.0</ele>
        <time>2014-07-12T13:33:08Z</time>
      </trkpt>
      <trkpt lat="37.117367" lon="-3.387500">
        <ele>3386.0</ele>
        <time>2014-07-12T13:33:11Z</time>
      </trkpt>
      <trkpt lat="37.117667" lon="-3.387217">
        <ele>3385.0</ele>
        <time>2014-07-12T13:33:14Z</time>
      </trkpt>
      <trkpt lat="37.117983" lon="-3.387017">
        <ele>3383.0</ele>
        <time>2014-07-12T13:33:17Z</time>
      </trkpt>
      <trkpt lat="37.118283" lon="-3.386900">
        <ele>3381.0</ele>
        <time>2014-07-12T13:33:20Z</time>
      </trkpt>
      <trkpt lat="37.118550" lon="-3.386817">
        <ele>3379.0</ele>
        <time>2014-07-12T13:33:23Z</time>
      </trkpt>
      <trkpt lat="37.118933" lon="-3.386733">
        <ele>3377.0</ele>
        <time>2014-07-12T13:33:26Z</time>
      </trkpt>
      <trkpt lat="37.119183" lon="-3.386717">
        <ele>3375.0</ele>
        <time>2014-07-12T13:33:29Z</time>
      </trkpt>
      <trkpt lat="37.119433" lon="-3.386750">
        <ele>3373.0</ele>
        <time>2014-07-12T13:33:32Z</time>
      </trkpt>
      <trkpt lat="37.119633" lon="-3.386867">
        <ele>3370.0</ele>
        <time>2014-07-12T13:33:35Z</time>
      </trkpt>
      <trkpt lat="37.119783" lon="-3.387033">
        <ele>3368.0</ele>
        <time>2014-07-12T13:33:39Z</time>
      </trkpt>
      <trkpt lat="37.119817" lon="-3.387233">
        <ele>3366.0</ele>
        <time>2014-07-12T13:33:42Z</time>
      </trkpt>
      <trkpt lat="37.119767" lon="-3.387450">
        <ele>3364.0</ele>
        <time>2014-07-12T13:33:45Z</time>
      </trkpt>
      <trkpt lat="37.119650" lon="-3.387617">
        <ele>3362.0</ele>
        <time>2014-07-12T13:33:48Z</time>
      </trkpt>
      <trkpt lat="37.119417" lon="-3.387717">
        <ele>3360.0</ele>
        <time>2014-07-12T13:33:51Z</time>
      </trkpt>
      <trkpt lat="37.119167" lon="-3.387817">
        <ele>3358.0</ele>
        <time>2014-07-12T13:33:54Z</time>
      </trkpt>
      <trkpt lat="37.118933" lon="-3.387867">
        <ele>3356.0</ele>
        <time>2014-07-12T13:33:57Z</time>
      </trkpt>
      <trkpt lat="37.118667" lon="-3.387917">
        <ele>3353.0</ele>
        <time>2014-07-12T13:34:00Z</time>
      </trkpt>
      <trkpt lat="37.118450" lon="-3.388050">
        <ele>3351.0</ele>
        <time>2014-07-12T13:34:03Z</time>
      </trkpt>
      <trkpt lat="37.118300" lon="-3.388183">
        <ele>3348.0</ele>
        <time>2014-07-12T13:34:06Z</time>
      </trkpt>
      <trkpt lat="37.118083" lon="-3.388300">
        <ele>3345.0</ele>
        <time>2014-07-12T13:34:09Z</time>
      </trkpt>
      <trkpt lat="37.117883" lon="-3.388383">
        <ele>3341.0</ele>
        <time>2014-07-12T13:34:12Z</time>
      </trkpt>
      <trkpt lat="37.117683" lon="-3.388483">
        <ele>3337.0</ele>
        <time>2014-07-12T13:34:15Z</time>
      </trkpt>
      <trkpt lat="37.117483" lon="-3.388617">
        <ele>3332.0</ele>
        <time>2014-07-12T13:34:18Z</time>
      </trkpt>
      <trkpt lat="37.117233" lon="-3.388717">
        <ele>3328.0</ele>
        <time>2014-07-12T13:34:21Z</time>
      </trkpt>
      <trkpt lat="37.117017" lon="-3.388800">
        <ele>3323.0</ele>
        <time>2014-07-12T13:34:24Z</time>
      </trkpt>
      <trkpt lat="37.116817" lon="-3.388883">
        <ele>3318.0</ele>
        <time>2014-07-12T13:34:27Z</time>
      </trkpt>
      <trkpt lat="37.116633" lon="-3.388933">
        <ele>3314.0</ele>
        <time>2014-07-12T13:34:30Z</time>
      </trkpt>
      <trkpt lat="37.116433" lon="-3.388950">
        <ele>3311.0</ele>
        <time>2014-07-12T13:34:33Z</time>
      </trkpt>
      <trkpt lat="37.116283" lon="-3.389050">
        <ele>3308.0</ele>
        <time>2014-07-12T13:34:36Z</time>
      </trkpt>
      <trkpt lat="37.116250" lon="-3.389150">
        <ele>3307.0</ele>
        <time>2014-07-12T13:34:39Z</time>
      </trkpt>
      <trkpt lat="37.116167" lon="-3.389250">
        <ele>3306.0</ele>
        <time>2014-07-12T13:34:42Z</time>
      </trkpt>
      <trkpt lat="37.116033" lon="-3.389383">
        <ele>3304.0</ele>
        <time>2014-07-12T13:34:45Z</time>
      </trkpt>
      <trkpt lat="37.115883" lon="-3.389417">
        <ele>3304.0</ele>
        <time>2014-07-12T13:34:48Z</time>
      </trkpt>
      <trkpt lat="37.115650" lon="-3.389333">
        <ele>3305.0</ele>
        <time>2014-07-12T13:34:51Z</time>
      </trkpt>
      <trkpt lat="37.115417" lon="-3.388967">
        <ele>3306.0</ele>
        <time>2014-07-12T13:34:54Z</time>
      </trkpt>
      <trkpt lat="37.115533" lon="-3.388467">
        <ele>3307.0</ele>
        <time>2014-07-12T13:34:57Z</time>
      </trkpt>
      <trkpt lat="37.115733" lon="-3.388433">
        <ele>3307.0</ele>
        <time>2014-07-12T13:35:00Z</time>
      </trkpt>
      <trkpt lat="37.115633" lon="-3.388517">
        <ele>3309.0</ele>
        <time>2014-07-12T13:35:03Z</time>
      </trkpt>
      <trkpt lat="37.115417" lon="-3.388250">
        <ele>3311.0</ele>
        <time>2014-07-12T13:35:06Z</time>
      </trkpt>
      <trkpt lat="37.115350" lon="-3.387717">
        <ele>3312.0</ele>
        <time>2014-07-12T13:35:09Z</time>
      </trkpt>
      <trkpt lat="37.115550" lon="-3.387300">
        <ele>3314.0</ele>
        <time>2014-07-12T13:35:12Z</time>
      </trkpt>
      <trkpt lat="37.115733" lon="-3.387200">
        <ele>3316.0</ele>
        <time>2014-07-12T13:35:15Z</time>
      </trkpt>
      <trkpt lat="37.115783" lon="-3.387250">
        <ele>3317.0</ele>
        <time>2014-07-12T13:35:18Z</time>
      </trkpt>
      <trkpt lat="37.115783" lon="-3.387350">
        <ele>3319.0</ele>
        <time>2014-07-12T13:35:21Z</time>
      </trkpt>
      <trkpt lat="37.115767" lon="-3.387417">
        <ele>3322.0</ele>
        <time>2014-07-12T13:35:24Z</time>
      </trkpt>
      <trkpt lat="37.115750" lon="-3.387467">
        <ele>3325.0</ele>
        <time>2014-07-12T13:35:27Z</time>
      </trkpt>
      <trkpt lat="37.115567" lon="-3.387450">
        <ele>3330.0</ele>
        <time>2014-07-12T13:35:30Z</time>
      </trkpt>
      <trkpt lat="37.115267" lon="-3.387267">
        <ele>3337.0</ele>
        <time>2014-07-12T13:35:33Z</time>
      </trkpt>
      <trkpt lat="37.115033" lon="-3.386767">
        <ele>3342.0</ele>
        <time>2014-07-12T13:35:36Z</time>
      </trkpt>
      <trkpt lat="37.114967" lon="-3.386200">
        <ele>3346.0</ele>
        <time>2014-07-12T13:35:39Z</time>
      </trkpt>
      <trkpt lat="37.114967" lon="-3.385550">
        <ele>3351.0</ele>
        <time>2014-07-12T13:35:42Z</time>
      </trkpt>
      <trkpt lat="37.115033" lon="-3.384950">
        <ele>3355.0</ele>
        <time>2014-07-12T13:35:45Z</time>
      </trkpt>
      <trkpt lat="37.115217" lon="-3.384433">
        <ele>3360.0</ele>
        <time>2014-07-12T13:35:48Z</time>
      </trkpt>
      <trkpt lat="37.115450" lon="-3.384233">
        <ele>3364.0</ele>
        <time>2014-07-12T13:35:51Z</time>
      </trkpt>
      <trkpt lat="37.115600" lon="-3.384250">
        <ele>3367.0</ele>
        <time>2014-07-12T13:35:54Z</time>
      </trkpt>
      <trkpt lat="37.115833" lon="-3.384200">
        <ele>3374.0</ele>
        <time>2014-07-12T13:35:57Z</time>
      </trkpt>
      <trkpt lat="37.116000" lon="-3.384250">
        <ele>3378.0</ele>
        <time>2014-07-12T13:36:00Z</time>
      </trkpt>
      <trkpt lat="37.115983" lon="-3.384383">
        <ele>3381.0</ele>
        <time>2014-07-12T13:36:03Z</time>
      </trkpt>
      <trkpt lat="37.115833" lon="-3.384400">
        <ele>3385.0</ele>
        <time>2014-07-12T13:36:06Z</time>
      </trkpt>
      <trkpt lat="37.115583" lon="-3.384267">
        <ele>3392.0</ele>
        <time>2014-07-12T13:36:10Z</time>
      </trkpt>
      <trkpt lat="37.115433" lon="-3.383867">
        <ele>3394.0</ele>
        <time>2014-07-12T13:36:13Z</time>
      </trkpt>
      <trkpt lat="37.115550" lon="-3.383350">
        <ele>3398.0</ele>
        <time>2014-07-12T13:36:16Z</time>
      </trkpt>
      <trkpt lat="37.115733" lon="-3.383233">
        <ele>3403.0</ele>
        <time>2014-07-12T13:36:19Z</time>
      </trkpt>
      <trkpt lat="37.115667" lon="-3.383317">
        <ele>3407.0</ele>
        <time>2014-07-12T13:36:22Z</time>
      </trkpt>
      <trkpt lat="37.115417" lon="-3.383250">
        <ele>3414.0</ele>
        <time>2014-07-12T13:36:25Z</time>
      </trkpt>
      <trkpt lat="37.115133" lon="-3.382950">
        <ele>3422.0</ele>
        <time>2014-07-12T13:36:28Z</time>
      </trkpt>
      <trkpt lat="37.114950" lon="-3.382483">
        <ele>3430.0</ele>
        <time>2014-07-12T13:36:31Z</time>
      </trkpt>
      <trkpt lat="37.114833" lon="-3.381917">
        <ele>3438.0</ele>
        <time>2014-07-12T13:36:34Z</time>
      </trkpt>
      <trkpt lat="37.114833" lon="-3.381333">
        <ele>3445.0</ele>
        <time>2014-07-12T13:36:37Z</time>
      </trkpt>
      <trkpt lat="37.114983" lon="-3.380850">
        <ele>3451.0</ele>
        <time>2014-07-12T13:36:40Z</time>
      </trkpt>
      <trkpt lat="37.115200" lon="-3.380633">
        <ele>3457.0</ele>
        <time>2014-07-12T13:36:43Z</time>
      </trkpt>
      <trkpt lat="37.115400" lon="-3.380567">
        <ele>3463.0</ele>
        <time>2014-07-12T13:36:46Z</time>
      </trkpt>
      <trkpt lat="37.115467" lon="-3.380633">
        <ele>3466.0</ele>
        <time>2014-07-12T13:36:49Z</time>
      </trkpt>
      <trkpt lat="37.115333" lon="-3.380717">
        <ele>3470.0</ele>
        <time>2014-07-12T13:36:52Z</time>
      </trkpt>
      <trkpt lat="37.115167" lon="-3.380600">
        <ele>3476.0</ele>
        <time>2014-07-12T13:36:55Z</time>
      </trkpt>
      <trkpt lat="37.114933" lon="-3.380300">
        <ele>3484.0</ele>
        <time>2014-07-12T13:36:58Z</time>
      </trkpt>
      <trkpt lat="37.114783" lon="-3.379883">
        <ele>3487.0</ele>
        <time>2014-07-12T13:37:01Z</time>
      </trkpt>
      <trkpt lat="37.114900" lon="-3.379350">
        <ele>3493.0</ele>
        <time>2014-07-12T13:37:04Z</time>
      </trkpt>
      <trkpt lat="37.115133" lon="-3.378983">
        <ele>3499.0</ele>
        <time>2014-07-12T13:37:07Z</time>
      </trkpt>
      <trkpt lat="37.115350" lon="-3.378850">
        <ele>3506.0</ele>
        <time>2014-07-12T13:37:10Z</time>
      </trkpt>
      <trkpt lat="37.115483" lon="-3.378850">
        <ele>3510.0</ele>
        <time>2014-07-12T13:37:13Z</time>
      </trkpt>
      <trkpt lat="37.115400" lon="-3.378867">
        <ele>3514.0</ele>
        <time>2014-07-12T13:37:16Z</time>
      </trkpt>
      <trkpt lat="37.115217" lon="-3.378700">
        <ele>3522.0</ele>
        <time>2014-07-12T13:37:19Z</time>
      </trkpt>
      <trkpt lat="37.115083" lon="-3.378250">
        <ele>3526.0</ele>
        <time>2014-07-12T13:37:22Z</time>
      </trkpt>
      <trkpt lat="37.115183" lon="-3.377633">
        <ele>3531.0</ele>
        <time>2014-07-12T13:37:25Z</time>
      </trkpt>
      <trkpt lat="37.115417" lon="-3.377183">
        <ele>3538.0</ele>
        <time>2014-07-12T13:37:28Z</time>
      </trkpt>
      <trkpt lat="37.115633" lon="-3.376950">
        <ele>3544.0</ele>
        <time>2014-07-12T13:37:31Z</time>
      </trkpt>
      <trkpt lat="37.115833" lon="-3.376900">
        <ele>3550.0</ele>
        <time>2014-07-12T13:37:34Z</time>
      </trkpt>
      <trkpt lat="37.115850" lon="-3.376950">
        <ele>3553.0</ele>
        <time>2014-07-12T13:37:37Z</time>
      </trkpt>
      <trkpt lat="37.115700" lon="-3.376917">
        <ele>3558.0</ele>
        <time>2014-07-12T13:37:40Z</time>
      </trkpt>
      <trkpt lat="37.115533" lon="-3.376783">
        <ele>3564.0</ele>
        <time>2014-07-12T13:37:43Z</time>
      </trkpt>
      <trkpt lat="37.115283" lon="-3.376550">
        <ele>3569.0</ele>
        <time>2014-07-12T13:37:46Z</time>
      </trkpt>
      <trkpt lat="37.115117" lon="-3.376050">
        <ele>3574.0</ele>
        <time>2014-07-12T13:37:49Z</time>
      </trkpt>
      <trkpt lat="37.115117" lon="-3.375400">
        <ele>3579.0</ele>
        <time>2014-07-12T13:37:52Z</time>
      </trkpt>
      <trkpt lat="37.115317" lon="-3.374850">
        <ele>3584.0</ele>
        <time>2014-07-12T13:37:55Z</time>
      </trkpt>
      <trkpt lat="37.115567" lon="-3.374617">
        <ele>3589.0</ele>
        <time>2014-07-12T13:37:58Z</time>
      </trkpt>
      <trkpt lat="37.115617" lon="-3.374633">
        <ele>3592.0</ele>
        <time>2014-07-12T13:38:01Z</time>
      </trkpt>
      <trkpt lat="37.115400" lon="-3.374383">
        <ele>3597.0</ele>
        <time>2014-07-12T13:38:04Z</time>
      </trkpt>
      <trkpt lat="37.115350" lon="-3.373817">
        <ele>3601.0</ele>
        <time>2014-07-12T13:38:07Z</time>
      </trkpt>
      <trkpt lat="37.115583" lon="-3.373333">
        <ele>3606.0</ele>
        <time>2014-07-12T13:38:10Z</time>
      </trkpt>
      <trkpt lat="37.115817" lon="-3.373200">
        <ele>3609.0</ele>
        <time>2014-07-12T13:38:13Z</time>
      </trkpt>
      <trkpt lat="37.115833" lon="-3.373217">
        <ele>3611.0</ele>
        <time>2014-07-12T13:38:16Z</time>
      </trkpt>
      <trkpt lat="37.115650" lon="-3.373217">
        <ele>3613.0</ele>
        <time>2014-07-12T13:38:19Z</time>
      </trkpt>
      <trkpt lat="37.115400" lon="-3.373017">
        <ele>3615.0</ele>
        <time>2014-07-12T13:38:22Z</time>
      </trkpt>
      <trkpt lat="37.115117" lon="-3.372583">
        <ele>3617.0</ele>
        <time>2014-07-12T13:38:25Z</time>
      </trkpt>
      <trkpt lat="37.115050" lon="-3.371800">
        <ele>3619.0</ele>
        <time>2014-07-12T13:38:28Z</time>
      </trkpt>
      <trkpt lat="37.115233" lon="-3.371450">
        <ele>3622.0</ele>
        <time>2014-07-12T13:38:31Z</time>
      </trkpt>
      <trkpt lat="37.115433" lon="-3.371400">
        <ele>3623.0</ele>
        <time>2014-07-12T13:38:34Z</time>
      </trkpt>
      <trkpt lat="37.115333" lon="-3.371367">
        <ele>3624.0</ele>
        <time>2014-07-12T13:38:38Z</time>
      </trkpt>
      <trkpt lat="37.115067" lon="-3.371167">
        <ele>3625.0</ele>
        <time>2014-07-12T13:38:41Z</time>
      </trkpt>
      <trkpt lat="37.114883" lon="-3.370650">
        <ele>3626.0</ele>
        <time>2014-07-12T13:38:44Z</time>
      </trkpt>
      <trkpt lat="37.114867" lon="-3.370100">
        <ele>3626.0</ele>
        <time>2014-07-12T13:38:47Z</time>
      </trkpt>
      <trkpt lat="37.114967" lon="-3.369567">
        <ele>3626.0</ele>
        <time>2014-07-12T13:38:50Z</time>
      </trkpt>
      <trkpt lat="37.115217" lon="-3.369083">
        <ele>3625.0</ele>
        <time>2014-07-12T13:38:53Z</time>
      </trkpt>
      <trkpt lat="37.115550" lon="-3.368783">
        <ele>3623.0</ele>
        <time>2014-07-12T13:38:56Z</time>
      </trkpt>
      <trkpt lat="37.115900" lon="-3.368583">
        <ele>3621.0</ele>
        <time>2014-07-12T13:38:59Z</time>
      </trkpt>
      <trkpt lat="37.116133" lon="-3.368583">
        <ele>3619.0</ele>
        <time>2014-07-12T13:39:02Z</time>
      </trkpt>
      <trkpt lat="37.116050" lon="-3.368617">
        <ele>3616.0</ele>
        <time>2014-07-12T13:39:05Z</time>
      </trkpt>
      <trkpt lat="37.115733" lon="-3.368450">
        <ele>3613.0</ele>
        <time>2014-07-12T13:39:08Z</time>
      </trkpt>
      <trkpt lat="37.115533" lon="-3.368167">
        <ele>0.0</ele>
        <time>2014-07-12T13:39:11Z</time>
      </trkpt>
      <trkpt lat="37.115233" lon="-3.367483">
        <ele>3609.0</ele>
        <time>2014-07-12T13:39:14Z</time>
      </trkpt>
      <trkpt lat="37.115183" lon="-3.366817">
        <ele>3606.0</ele>
        <time>2014-07-12T13:39:17Z</time>
      </trkpt>
      <trkpt lat="37.115300" lon="-3.366167">
        <ele>3603.0</ele>
        <time>2014-07-12T13:39:20Z</time>
      </trkpt>
      <trkpt lat="37.115567" lon="-3.365667">
        <ele>3599.0</ele>
        <time>2014-07-12T13:39:23Z</time>
      </trkpt>
      <trkpt lat="37.115933" lon="-3.365333">
        <ele>3595.0</ele>
        <time>2014-07-12T13:39:26Z</time>
      </trkpt>
      <trkpt lat="37.116283" lon="-3.365050">
        <ele>3591.0</ele>
        <time>2014-07-12T13:39:29Z</time>
      </trkpt>
      <trkpt lat="37.116583" lon="-3.364783">
        <ele>3586.0</ele>
        <time>2014-07-12T13:39:32Z</time>
      </trkpt>
      <trkpt lat="37.116883" lon="-3.364700">
        <ele>3581.0</ele>
        <time>2014-07-12T13:39:35Z</time>
      </trkpt>
      <trkpt lat="37.116983" lon="-3.364750">
        <ele>3577.0</ele>
        <time>2014-07-12T13:39:38Z</time>
      </trkpt>
      <trkpt lat="37.116800" lon="-3.364667">
        <ele>3572.0</ele>
        <time>2014-07-12T13:39:41Z</time>
      </trkpt>
      <trkpt lat="37.116567" lon="-3.364267">
        <ele>3565.0</ele>
        <time>2014-07-12T13:39:44Z</time>
      </trkpt>
      <trkpt lat="37.116533" lon="-3.363650">
        <ele>3558.0</ele>
        <time>2014-07-12T13:39:47Z</time>
      </trkpt>
      <trkpt lat="37.116683" lon="-3.363050">
        <ele>3551.0</ele>
        <time>2014-07-12T13:39:50Z</time>
      </trkpt>
      <trkpt lat="37.116950" lon="-3.362483">
        <ele>3543.0</ele>
        <time>2014-07-12T13:39:53Z</time>
      </trkpt>
      <trkpt lat="37.117250" lon="-3.361950">
        <ele>3535.0</ele>
        <time>2014-07-12T13:39:56Z</time>
      </trkpt>
      <trkpt lat="37.117533" lon="-3.361400">
        <ele>3527.0</ele>
        <time>2014-07-12T13:39:59Z</time>
      </trkpt>
      <trkpt lat="37.117800" lon="-3.360833">
        <ele>3518.0</ele>
        <time>2014-07-12T13:40:02Z</time>
      </trkpt>
      <trkpt lat="37.118067" lon="-3.360267">
        <ele>3510.0</ele>
        <time>2014-07-12T13:40:05Z</time>
      </trkpt>
      <trkpt lat="37.118267" lon="-3.359683">
        <ele>3503.0</ele>
        <time>2014-07-12T13:40:08Z</time>
      </trkpt>
      <trkpt lat="37.118483" lon="-3.359067">
        <ele>3496.0</ele>
        <time>2014-07-12T13:40:11Z</time>
      </trkpt>
      <trkpt lat="37.118700" lon="-3.358467">
        <ele>3489.0</ele>
        <time>2014-07-12T13:40:14Z</time>
      </trkpt>
      <trkpt lat="37.118933" lon="-3.357867">
        <ele>3482.0</ele>
        <time>2014-07-12T13:40:17Z</time>
      </trkpt>
      <trkpt lat="37.119167" lon="-3.357250">
        <ele>3475.0</ele>
        <time>2014-07-12T13:40:20Z</time>
      </trkpt>
      <trkpt lat="37.119383" lon="-3.356650">
        <ele>3468.0</ele>
        <time>2014-07-12T13:40:23Z</time>
      </trkpt>
      <trkpt lat="37.119583" lon="-3.356067">
        <ele>3461.0</ele>
        <time>2014-07-12T13:40:26Z</time>
      </trkpt>
      <trkpt lat="37.119800" lon="-3.355483">
        <ele>3455.0</ele>
        <time>2014-07-12T13:40:29Z</time>
      </trkpt>
      <trkpt lat="37.120050" lon="-3.354900">
        <ele>3449.0</ele>
        <time>2014-07-12T13:40:32Z</time>
      </trkpt>
      <trkpt lat="37.120333" lon="-3.354333">
        <ele>3443.0</ele>
        <time>2014-07-12T13:40:35Z</time>
      </trkpt>
      <trkpt lat="37.120617" lon="-3.353850">
        <ele>3437.0</ele>
        <time>2014-07-12T13:40:38Z</time>
      </trkpt>
      <trkpt lat="37.120883" lon="-3.353450">
        <ele>3435.0</ele>
        <time>2014-07-12T13:40:41Z</time>
      </trkpt>
      <trkpt lat="37.121050" lon="-3.353150">
        <ele>0.0</ele>
        <time>2014-07-12T13:40:44Z</time>
      </trkpt>
      <trkpt lat="37.121400" lon="-3.352583">
        <ele>3431.0</ele>
        <time>2014-07-12T13:40:47Z</time>
      </trkpt>
      <trkpt lat="37.121617" lon="-3.352117">
        <ele>3425.0</ele>
        <time>2014-07-12T13:40:50Z</time>
      </trkpt>
      <trkpt lat="37.121800" lon="-3.351600">
        <ele>3421.0</ele>
        <time>2014-07-12T13:40:53Z</time>
      </trkpt>
      <trkpt lat="37.122000" lon="-3.350883">
        <ele>3413.0</ele>
        <time>2014-07-12T13:40:56Z</time>
      </trkpt>
      <trkpt lat="37.122133" lon="-3.350350">
        <ele>3406.0</ele>
        <time>2014-07-12T13:40:59Z</time>
      </trkpt>
      <trkpt lat="37.122300" lon="-3.349850">
        <ele>3399.0</ele>
        <time>2014-07-12T13:41:02Z</time>
      </trkpt>
      <trkpt lat="37.122483" lon="-3.349350">
        <ele>3392.0</ele>
        <time>2014-07-12T13:41:06Z</time>
      </trkpt>
      <trkpt lat="37.122683" lon="-3.348883">
        <ele>3384.0</ele>
        <time>2014-07-12T13:41:09Z</time>
      </trkpt>
      <trkpt lat="37.122883" lon="-3.348400">
        <ele>3377.0</ele>
        <time>2014-07-12T13:41:12Z</time>
      </trkpt>
      <trkpt lat="37.123067" lon="-3.347917">
        <ele>3371.0</ele>
        <time>2014-07-12T13:41:15Z</time>
      </trkpt>
      <trkpt lat="37.123250" lon="-3.347433">
        <ele>3364.0</ele>
        <time>2014-07-12T13:41:18Z</time>
      </trkpt>
      <trkpt lat="37.123433" lon="-3.346967">
        <ele>3357.0</ele>
        <time>2014-07-12T13:41:21Z</time>
      </trkpt>
      <trkpt lat="37.123633" lon="-3.346483">
        <ele>3350.0</ele>
        <time>2014-07-12T13:41:24Z</time>
      </trkpt>
      <trkpt lat="37.123800" lon="-3.346000">
        <ele>3344.0</ele>
        <time>2014-07-12T13:41:27Z</time>
      </trkpt>
      <trkpt lat="37.123950" lon="-3.345517">
        <ele>3338.0</ele>
        <time>2014-07-12T13:41:30Z</time>
      </trkpt>
      <trkpt lat="37.124100" lon="-3.345033">
        <ele>3332.0</ele>
        <time>2014-07-12T13:41:33Z</time>
      </trkpt>
      <trkpt lat="37.124250" lon="-3.344517">
        <ele>3326.0</ele>
        <time>2014-07-12T13:41:36Z</time>
      </trkpt>
      <trkpt lat="37.124400" lon="-3.344050">
        <ele>3321.0</ele>
        <time>2014-07-12T13:41:39Z</time>
      </trkpt>
      <trkpt lat="37.124550" lon="-3.343583">
        <ele>3316.0</ele>
        <time>2014-07-12T13:41:42Z</time>
      </trkpt>
      <trkpt lat="37.124717" lon="-3.343083">
        <ele>3311.0</ele>
        <time>2014-07-12T13:41:45Z</time>
      </trkpt>
      <trkpt lat="37.124817" lon="-3.342650">
        <ele>3307.0</ele>
        <time>2014-07-12T13:41:48Z</time>
      </trkpt>
      <trkpt lat="37.124900" lon="-3.342183">
        <ele>3302.0</ele>
        <time>2014-07-12T13:41:51Z</time>
      </trkpt>
      <trkpt lat="37.125000" lon="-3.341683">
        <ele>3298.0</ele>
        <time>2014-07-12T13:41:54Z</time>
      </trkpt>
      <trkpt lat="37.125117" lon="-3.341233">
        <ele>3295.0</ele>
        <time>2014-07-12T13:41:57Z</time>
      </trkpt>
      <trkpt lat="37.125250" lon="-3.340750">
        <ele>3291.0</ele>
        <time>2014-07-12T13:42:00Z</time>
      </trkpt>
      <trkpt lat="37.125400" lon="-3.340283">
        <ele>3288.0</ele>
        <time>2014-07-12T13:42:03Z</time>
      </trkpt>
      <trkpt lat="37.125567" lon="-3.339833">
        <ele>3285.0</ele>
        <time>2014-07-12T13:42:06Z</time>
      </trkpt>
      <trkpt lat="37.125733" lon="-3.339383">
        <ele>3282.0</ele>
        <time>2014-07-12T13:42:09Z</time>
      </trkpt>
      <trkpt lat="37.125917" lon="-3.338933">
        <ele>3279.0</ele>
        <time>2014-07-12T13:42:12Z</time>
      </trkpt>
      <trkpt lat="37.126067" lon="-3.338483">
        <ele>3276.0</ele>
        <time>2014-07-12T13:42:15Z</time>
      </trkpt>
      <trkpt lat="37.126233" lon="-3.337983">
        <ele>3272.0</ele>
        <time>2014-07-12T13:42:18Z</time>
      </trkpt>
      <trkpt lat="37.126367" lon="-3.337517">
        <ele>3269.0</ele>
        <time>2014-07-12T13:42:21Z</time>
      </trkpt>
      <trkpt lat="37.126500" lon="-3.337033">
        <ele>3265.0</ele>
        <time>2014-07-12T13:42:24Z</time>
      </trkpt>
      <trkpt lat="37.126633" lon="-3.336533">
        <ele>3262.0</ele>
        <time>2014-07-12T13:42:27Z</time>
      </trkpt>
      <trkpt lat="37.126733" lon="-3.336017">
        <ele>3258.0</ele>
        <time>2014-07-12T13:42:30Z</time>
      </trkpt>
      <trkpt lat="37.126850" lon="-3.335483">
        <ele>3254.0</ele>
        <time>2014-07-12T13:42:33Z</time>
      </trkpt>
      <trkpt lat="37.126917" lon="-3.334983">
        <ele>3251.0</ele>
        <time>2014-07-12T13:42:36Z</time>
      </trkpt>
      <trkpt lat="37.127017" lon="-3.334450">
        <ele>3247.0</ele>
        <time>2014-07-12T13:42:39Z</time>
      </trkpt>
      <trkpt lat="37.127133" lon="-3.333967">
        <ele>3243.0</ele>
        <time>2014-07-12T13:42:42Z</time>
      </trkpt>
      <trkpt lat="37.127250" lon="-3.333450">
        <ele>3239.0</ele>
        <time>2014-07-12T13:42:45Z</time>
      </trkpt>
      <trkpt lat="37.127350" lon="-3.332933">
        <ele>3235.0</ele>
        <time>2014-07-12T13:42:48Z</time>
      </trkpt>
      <trkpt lat="37.127450" lon="-3.332450">
        <ele>3231.0</ele>
        <time>2014-07-12T13:42:51Z</time>
      </trkpt>
      <trkpt lat="37.127550" lon="-3.331917">
        <ele>3228.0</ele>
        <time>2014-07-12T13:42:54Z</time>
      </trkpt>
      <trkpt lat="37.127667" lon="-3.331417">
        <ele>3224.0</ele>
        <time>2014-07-12T13:42:57Z</time>
      </trkpt>
      <trkpt lat="37.127817" lon="-3.330900">
        <ele>3221.0</ele>
        <time>2014-07-12T13:43:00Z</time>
      </trkpt>
      <trkpt lat="37.127950" lon="-3.330383">
        <ele>3218.0</ele>
        <time>2014-07-12T13:43:03Z</time>
      </trkpt>
      <trkpt lat="37.128067" lon="-3.329883">
        <ele>3215.0</ele>
        <time>2014-07-12T13:43:06Z</time>
      </trkpt>
      <trkpt lat="37.128200" lon="-3.329383">
        <ele>3212.0</ele>
        <time>2014-07-12T13:43:09Z</time>
      </trkpt>
      <trkpt lat="37.128367" lon="-3.328717">
        <ele>3208.0</ele>
        <time>2014-07-12T13:43:12Z</time>
      </trkpt>
      <trkpt lat="37.128467" lon="-3.328217">
        <ele>3205.0</ele>
        <time>2014-07-12T13:43:15Z</time>
      </trkpt>
      <trkpt lat="37.128617" lon="-3.327700">
        <ele>3202.0</ele>
        <time>2014-07-12T13:43:18Z</time>
      </trkpt>
      <trkpt lat="37.128750" lon="-3.327183">
        <ele>3199.0</ele>
        <time>2014-07-12T13:43:22Z</time>
      </trkpt>
      <trkpt lat="37.128883" lon="-3.326683">
        <ele>3196.0</ele>
        <time>2014-07-12T13:43:25Z</time>
      </trkpt>
      <trkpt lat="37.129033" lon="-3.326167">
        <ele>3193.0</ele>
        <time>2014-07-12T13:43:28Z</time>
      </trkpt>
      <trkpt lat="37.129167" lon="-3.325633">
        <ele>3191.0</ele>
        <time>2014-07-12T13:43:31Z</time>
      </trkpt>
      <trkpt lat="37.129333" lon="-3.325133">
        <ele>3188.0</ele>
        <time>2014-07-12T13:43:34Z</time>
      </trkpt>
      <trkpt lat="37.129500" lon="-3.324650">
        <ele>3186.0</ele>
        <time>2014-07-12T13:43:37Z</time>
      </trkpt>
      <trkpt lat="37.129683" lon="-3.324167">
        <ele>3184.0</ele>
        <time>2014-07-12T13:43:40Z</time>
      </trkpt>
      <trkpt lat="37.129833" lon="-3.323667">
        <ele>3182.0</ele>
        <time>2014-07-12T13:43:43Z</time>
      </trkpt>
      <trkpt lat="37.129967" lon="-3.323133">
        <ele>3181.0</ele>
        <time>2014-07-12T13:43:46Z</time>
      </trkpt>
      <trkpt lat="37.130067" lon="-3.322600">
        <ele>3180.0</ele>
        <time>2014-07-12T13:43:49Z</time>
      </trkpt>
      <trkpt lat="37.130200" lon="-3.322083">
        <ele>3179.0</ele>
        <time>2014-07-12T13:43:52Z</time>
      </trkpt>
      <trkpt lat="37.130367" lon="-3.321600">
        <ele>3178.0</ele>
        <time>2014-07-12T13:43:55Z</time>
      </trkpt>
      <trkpt lat="37.130533" lon="-3.321117">
        <ele>3177.0</ele>
        <time>2014-07-12T13:43:58Z</time>
      </trkpt>
      <trkpt lat="37.130683" lon="-3.320667">
        <ele>3177.0</ele>
        <time>2014-07-12T13:44:01Z</time>
      </trkpt>
      <trkpt lat="37.130833" lon="-3.320150">
        <ele>3176.0</ele>
        <time>2014-07-12T13:44:04Z</time>
      </trkpt>
      <trkpt lat="37.130967" lon="-3.319633">
        <ele>3175.0</ele>
        <time>2014-07-12T13:44:07Z</time>
      </trkpt>
      <trkpt lat="37.131083" lon="-3.319117">
        <ele>3174.0</ele>
        <time>2014-07-12T13:44:10Z</time>
      </trkpt>
      <trkpt lat="37.131233" lon="-3.318583">
        <ele>3172.0</ele>
        <time>2014-07-12T13:44:13Z</time>
      </trkpt>
      <trkpt lat="37.131383" lon="-3.318067">
        <ele>3170.0</ele>
        <time>2014-07-12T13:44:16Z</time>
      </trkpt>
      <trkpt lat="37.131550" lon="-3.317533">
        <ele>3168.0</ele>
        <time>2014-07-12T13:44:19Z</time>
      </trkpt>
      <trkpt lat="37.131700" lon="-3.317033">
        <ele>3166.0</ele>
        <time>2014-07-12T13:44:22Z</time>
      </trkpt>
      <trkpt lat="37.131783" lon="-3.316500">
        <ele>3164.0</ele>
        <time>2014-07-12T13:44:25Z</time>
      </trkpt>
      <trkpt lat="37.131867" lon="-3.315933">
        <ele>3162.0</ele>
        <time>2014-07-12T13:44:28Z</time>
      </trkpt>
      <trkpt lat="37.131917" lon="-3.315350">
        <ele>3160.0</ele>
        <time>2014-07-12T13:44:31Z</time>
      </trkpt>
      <trkpt lat="37.131967" lon="-3.314767">
        <ele>3158.0</ele>
        <time>2014-07-12T13:44:34Z</time>
      </trkpt>
      <trkpt lat="37.132017" lon="-3.314167">
        <ele>3156.0</ele>
        <time>2014-07-12T13:44:37Z</time>
      </trkpt>
      <trkpt lat="37.132050" lon="-3.313567">
        <ele>3154.0</ele>
        <time>2014-07-12T13:44:40Z</time>
      </trkpt>
      <trkpt lat="37.132083" lon="-3.313000">
        <ele>3153.0</ele>
        <time>2014-07-12T13:44:43Z</time>
      </trkpt>
      <trkpt lat="37.132100" lon="-3.312433">
        <ele>3152.0</ele>
        <time>2014-07-12T13:44:46Z</time>
      </trkpt>
      <trkpt lat="37.132133" lon="-3.311867">
        <ele>3151.0</ele>
        <time>2014-07-12T13:44:49Z</time>
      </trkpt>
      <trkpt lat="37.132150" lon="-3.311300">
        <ele>3150.0</ele>
        <time>2014-07-12T13:44:52Z</time>
      </trkpt>
      <trkpt lat="37.132183" lon="-3.310700">
        <ele>3149.0</ele>
        <time>2014-07-12T13:44:55Z</time>
      </trkpt>
      <trkpt lat="37.132217" lon="-3.310133">
        <ele>3148.0</ele>
        <time>2014-07-12T13:44:58Z</time>
      </trkpt>
      <trkpt lat="37.132233" lon="-3.309533">
        <ele>3146.0</ele>
        <time>2014-07-12T13:45:01Z</time>
      </trkpt>
      <trkpt lat="37.132217" lon="-3.308983">
        <ele>3145.0</ele>
        <time>2014-07-12T13:45:04Z</time>
      </trkpt>
      <trkpt lat="37.132183" lon="-3.308400">
        <ele>3143.0</ele>
        <time>2014-07-12T13:45:07Z</time>
      </trkpt>
      <trkpt lat="37.132183" lon="-3.307833">
        <ele>3141.0</ele>
        <time>2014-07-12T13:45:10Z</time>
      </trkpt>
      <trkpt lat="37.132183" lon="-3.307267">
        <ele>3139.0</ele>
        <time>2014-07-12T13:45:13Z</time>
      </trkpt>
      <trkpt lat="37.132167" lon="-3.306650">
        <ele>3137.0</ele>
        <time>2014-07-12T13:45:16Z</time>
      </trkpt>
      <trkpt lat="37.132150" lon="-3.306050">
        <ele>3135.0</ele>
        <time>2014-07-12T13:45:19Z</time>
      </trkpt>
      <trkpt lat="37.132133" lon="-3.305483">
        <ele>3133.0</ele>
        <time>2014-07-12T13:45:22Z</time>
      </trkpt>
      <trkpt lat="37.132150" lon="-3.304917">
        <ele>3131.0</ele>
        <time>2014-07-12T13:45:25Z</time>
      </trkpt>
      <trkpt lat="37.132150" lon="-3.304333">
        <ele>3129.0</ele>
        <time>2014-07-12T13:45:28Z</time>
      </trkpt>
      <trkpt lat="37.132117" lon="-3.303783">
        <ele>3127.0</ele>
        <time>2014-07-12T13:45:31Z</time>
      </trkpt>
      <trkpt lat="37.132033" lon="-3.303183">
        <ele>3124.0</ele>
        <time>2014-07-12T13:45:34Z</time>
      </trkpt>
      <trkpt lat="37.131950" lon="-3.302367">
        <ele>3121.0</ele>
        <time>2014-07-12T13:45:38Z</time>
      </trkpt>
      <trkpt lat="37.131933" lon="-3.301767">
        <ele>3118.0</ele>
        <time>2014-07-12T13:45:41Z</time>
      </trkpt>
      <trkpt lat="37.132033" lon="-3.301167">
        <ele>3114.0</ele>
        <time>2014-07-12T13:45:44Z</time>
      </trkpt>
      <trkpt lat="37.132217" lon="-3.300633">
        <ele>3110.0</ele>
        <time>2014-07-12T13:45:47Z</time>
      </trkpt>
      <trkpt lat="37.132483" lon="-3.300200">
        <ele>3106.0</ele>
        <time>2014-07-12T13:45:50Z</time>
      </trkpt>
      <trkpt lat="37.132783" lon="-3.299800">
        <ele>3101.0</ele>
        <time>2014-07-12T13:45:53Z</time>
      </trkpt>
      <trkpt lat="37.133083" lon="-3.299417">
        <ele>3097.0</ele>
        <time>2014-07-12T13:45:56Z</time>
      </trkpt>
      <trkpt lat="37.133400" lon="-3.299050">
        <ele>3092.0</ele>
        <time>2014-07-12T13:45:59Z</time>
      </trkpt>
      <trkpt lat="37.133700" lon="-3.298650">
        <ele>3087.0</ele>
        <time>2014-07-12T13:46:02Z</time>
      </trkpt>
      <trkpt lat="37.133983" lon="-3.298250">
        <ele>3083.0</ele>
        <time>2014-07-12T13:46:05Z</time>
      </trkpt>
      <trkpt lat="37.134283" lon="-3.297867">
        <ele>3078.0</ele>
        <time>2014-07-12T13:46:08Z</time>
      </trkpt>
      <trkpt lat="37.134667" lon="-3.297367">
        <ele>3072.0</ele>
        <time>2014-07-12T13:46:11Z</time>
      </trkpt>
      <trkpt lat="37.134967" lon="-3.296967">
        <ele>3067.0</ele>
        <time>2014-07-12T13:46:14Z</time>
      </trkpt>
      <trkpt lat="37.135233" lon="-3.296567">
        <ele>3062.0</ele>
        <time>2014-07-12T13:46:18Z</time>
      </trkpt>
      <trkpt lat="37.135517" lon="-3.296267">
        <ele>3057.0</ele>
        <time>2014-07-12T13:46:21Z</time>
      </trkpt>
      <trkpt lat="37.135850" lon="-3.295967">
        <ele>3052.0</ele>
        <time>2014-07-12T13:46:24Z</time>
      </trkpt>
      <trkpt lat="37.136117" lon="-3.295617">
        <ele>3048.0</ele>
        <time>2014-07-12T13:46:27Z</time>
      </trkpt>
      <trkpt lat="37.136433" lon="-3.295250">
        <ele>3045.0</ele>
        <time>2014-07-12T13:46:30Z</time>
      </trkpt>
      <trkpt lat="37.136800" lon="-3.294933">
        <ele>3040.0</ele>
        <time>2014-07-12T13:46:33Z</time>
      </trkpt>
      <trkpt lat="37.137167" lon="-3.294567">
        <ele>3035.0</ele>
        <time>2014-07-12T13:46:36Z</time>
      </trkpt>
      <trkpt lat="37.137533" lon="-3.294200">
        <ele>3032.0</ele>
        <time>2014-07-12T13:46:39Z</time>
      </trkpt>
      <trkpt lat="37.137933" lon="-3.293833">
        <ele>3028.0</ele>
        <time>2014-07-12T13:46:42Z</time>
      </trkpt>
      <trkpt lat="37.138333" lon="-3.293517">
        <ele>3025.0</ele>
        <time>2014-07-12T13:46:45Z</time>
      </trkpt>
      <trkpt lat="37.138733" lon="-3.293250">
        <ele>3022.0</ele>
        <time>2014-07-12T13:46:48Z</time>
      </trkpt>
      <trkpt lat="37.139050" lon="-3.293050">
        <ele>3021.0</ele>
        <time>2014-07-12T13:46:51Z</time>
      </trkpt>
      <trkpt lat="37.139350" lon="-3.292883">
        <ele>3019.0</ele>
        <time>2014-07-12T13:46:54Z</time>
      </trkpt>
      <trkpt lat="37.139417" lon="-3.292833">
        <ele>3019.0</ele>
        <time>2014-07-12T13:46:57Z</time>
      </trkpt>
      <trkpt lat="37.139333" lon="-3.292817">
        <ele>3018.0</ele>
        <time>2014-07-12T13:47:00Z</time>
      </trkpt>
      <trkpt lat="37.139483" lon="-3.292750">
        <ele>3017.0</ele>
        <time>2014-07-12T13:47:03Z</time>
      </trkpt>
      <trkpt lat="37.139717" lon="-3.292433">
        <ele>3016.0</ele>
        <time>2014-07-12T13:47:06Z</time>
      </trkpt>
      <trkpt lat="37.140000" lon="-3.291983">
        <ele>3015.0</ele>
        <time>2014-07-12T13:47:09Z</time>
      </trkpt>
      <trkpt lat="37.140300" lon="-3.291500">
        <ele>3014.0</ele>
        <time>2014-07-12T13:47:12Z</time>
      </trkpt>
      <trkpt lat="37.140650" lon="-3.291050">
        <ele>3013.0</ele>
        <time>2014-07-12T13:47:15Z</time>
      </trkpt>
      <trkpt lat="37.141050" lon="-3.290667">
        <ele>3013.0</ele>
        <time>2014-07-12T13:47:18Z</time>
      </trkpt>
      <trkpt lat="37.141367" lon="-3.290433">
        <ele>3014.0</ele>
        <time>2014-07-12T13:47:21Z</time>
      </trkpt>
      <trkpt lat="37.141667" lon="-3.290217">
        <ele>3015.0</ele>
        <time>2014-07-12T13:47:24Z</time>
      </trkpt>
      <trkpt lat="37.141950" lon="-3.290083">
        <ele>3016.0</ele>
        <time>2014-07-12T13:47:27Z</time>
      </trkpt>
      <trkpt lat="37.142117" lon="-3.290100">
        <ele>3016.0</ele>
        <time>2014-07-12T13:47:30Z</time>
      </trkpt>
      <trkpt lat="37.141983" lon="-3.290150">
        <ele>3016.0</ele>
        <time>2014-07-12T13:47:33Z</time>
      </trkpt>
      <trkpt lat="37.141717" lon="-3.289833">
        <ele>3015.0</ele>
        <time>2014-07-12T13:47:36Z</time>
      </trkpt>
      <trkpt lat="37.141667" lon="-3.289250">
        <ele>3014.0</ele>
        <time>2014-07-12T13:47:39Z</time>
      </trkpt>
      <trkpt lat="37.141783" lon="-3.288650">
        <ele>3013.0</ele>
        <time>2014-07-12T13:47:42Z</time>
      </trkpt>
      <trkpt lat="37.141967" lon="-3.288183">
        <ele>3012.0</ele>
        <time>2014-07-12T13:47:45Z</time>
      </trkpt>
      <trkpt lat="37.142233" lon="-3.287833">
        <ele>3011.0</ele>
        <time>2014-07-12T13:47:48Z</time>
      </trkpt>
      <trkpt lat="37.142567" lon="-3.287417">
        <ele>3009.0</ele>
        <time>2014-07-12T13:47:51Z</time>
      </trkpt>
      <trkpt lat="37.142900" lon="-3.286983">
        <ele>3007.0</ele>
        <time>2014-07-12T13:47:54Z</time>
      </trkpt>
      <trkpt lat="37.143183" lon="-3.286567">
        <ele>3005.0</ele>
        <time>2014-07-12T13:47:57Z</time>
      </trkpt>
      <trkpt lat="37.143433" lon="-3.286183">
        <ele>3003.0</ele>
        <time>2014-07-12T13:48:00Z</time>
      </trkpt>
      <trkpt lat="37.143700" lon="-3.285783">
        <ele>3001.0</ele>
        <time>2014-07-12T13:48:03Z</time>
      </trkpt>
      <trkpt lat="37.143967" lon="-3.285400">
        <ele>2998.0</ele>
        <time>2014-07-12T13:48:06Z</time>
      </trkpt>
      <trkpt lat="37.144183" lon="-3.285033">
        <ele>2996.0</ele>
        <time>2014-07-12T13:48:09Z</time>
      </trkpt>
      <trkpt lat="37.144417" lon="-3.284667">
        <ele>2994.0</ele>
        <time>2014-07-12T13:48:12Z</time>
      </trkpt>
      <trkpt lat="37.144700" lon="-3.284267">
        <ele>2992.0</ele>
        <time>2014-07-12T13:48:15Z</time>
      </trkpt>
      <trkpt lat="37.145000" lon="-3.283917">
        <ele>2991.0</ele>
        <time>2014-07-12T13:48:18Z</time>
      </trkpt>
      <trkpt lat="37.145267" lon="-3.283600">
        <ele>2990.0</ele>
        <time>2014-07-12T13:48:21Z</time>
      </trkpt>
      <trkpt lat="37.145533" lon="-3.283350">
        <ele>2990.0</ele>
        <time>2014-07-12T13:48:24Z</time>
      </trkpt>
      <trkpt lat="37.145817" lon="-3.283100">
        <ele>2989.0</ele>
        <time>2014-07-12T13:48:27Z</time>
      </trkpt>
      <trkpt lat="37.146100" lon="-3.282900">
        <ele>2988.0</ele>
        <time>2014-07-12T13:48:30Z</time>
      </trkpt>
      <trkpt lat="37.146467" lon="-3.282650">
        <ele>2988.0</ele>
        <time>2014-07-12T13:48:33Z</time>
      </trkpt>
      <trkpt lat="37.146733" lon="-3.282500">
        <ele>2989.0</ele>
        <time>2014-07-12T13:48:36Z</time>
      </trkpt>
      <trkpt lat="37.146950" lon="-3.282450">
        <ele>2989.0</ele>
        <time>2014-07-12T13:48:39Z</time>
      </trkpt>
      <trkpt lat="37.146883" lon="-3.282517">
        <ele>2990.0</ele>
        <time>2014-07-12T13:48:42Z</time>
      </trkpt>
      <trkpt lat="37.146633" lon="-3.282317">
        <ele>2990.0</ele>
        <time>2014-07-12T13:48:46Z</time>
      </trkpt>
      <trkpt lat="37.146467" lon="-3.281817">
        <ele>2991.0</ele>
        <time>2014-07-12T13:48:49Z</time>
      </trkpt>
      <trkpt lat="37.146517" lon="-3.281250">
        <ele>2992.0</ele>
        <time>2014-07-12T13:48:52Z</time>
      </trkpt>
      <trkpt lat="37.146767" lon="-3.280800">
        <ele>2993.0</ele>
        <time>2014-07-12T13:48:55Z</time>
      </trkpt>
      <trkpt lat="37.147017" lon="-3.280533">
        <ele>2995.0</ele>
        <time>2014-07-12T13:48:58Z</time>
      </trkpt>
      <trkpt lat="37.147150" lon="-3.280550">
        <ele>2996.0</ele>
        <time>2014-07-12T13:49:01Z</time>
      </trkpt>
      <trkpt lat="37.147033" lon="-3.280667">
        <ele>2997.0</ele>
        <time>2014-07-12T13:49:04Z</time>
      </trkpt>
      <trkpt lat="37.146800" lon="-3.280417">
        <ele>2997.0</ele>
        <time>2014-07-12T13:49:07Z</time>
      </trkpt>
      <trkpt lat="37.146683" lon="-3.279867">
        <ele>2997.0</ele>
        <time>2014-07-12T13:49:10Z</time>
      </trkpt>
      <trkpt lat="37.146717" lon="-3.279300">
        <ele>2998.0</ele>
        <time>2014-07-12T13:49:13Z</time>
      </trkpt>
      <trkpt lat="37.146900" lon="-3.278850">
        <ele>3000.0</ele>
        <time>2014-07-12T13:49:16Z</time>
      </trkpt>
      <trkpt lat="37.147133" lon="-3.278750">
        <ele>3001.0</ele>
        <time>2014-07-12T13:49:19Z</time>
      </trkpt>
      <trkpt lat="37.147133" lon="-3.278867">
        <ele>3002.0</ele>
        <time>2014-07-12T13:49:22Z</time>
      </trkpt>
      <trkpt lat="37.146900" lon="-3.278700">
        <ele>3003.0</ele>
        <time>2014-07-12T13:49:25Z</time>
      </trkpt>
      <trkpt lat="37.146783" lon="-3.278200">
        <ele>3003.0</ele>
        <time>2014-07-12T13:49:28Z</time>
      </trkpt>
      <trkpt lat="37.146967" lon="-3.277717">
        <ele>3005.0</ele>
        <time>2014-07-12T13:49:31Z</time>
      </trkpt>
      <trkpt lat="37.147217" lon="-3.277550">
        <ele>3006.0</ele>
        <time>2014-07-12T13:49:34Z</time>
      </trkpt>
      <trkpt lat="37.147267" lon="-3.277650">
        <ele>3007.0</ele>
        <time>2014-07-12T13:49:37Z</time>
      </trkpt>
      <trkpt lat="37.147083" lon="-3.277633">
        <ele>3009.0</ele>
        <time>2014-07-12T13:49:40Z</time>
      </trkpt>
      <trkpt lat="37.146883" lon="-3.277233">
        <ele>3009.0</ele>
        <time>2014-07-12T13:49:43Z</time>
      </trkpt>
      <trkpt lat="37.146917" lon="-3.276650">
        <ele>3011.0</ele>
        <time>2014-07-12T13:49:46Z</time>
      </trkpt>
      <trkpt lat="37.147183" lon="-3.276333">
        <ele>3013.0</ele>
        <time>2014-07-12T13:49:49Z</time>
      </trkpt>
      <trkpt lat="37.147383" lon="-3.276300">
        <ele>3015.0</ele>
        <time>2014-07-12T13:49:52Z</time>
      </trkpt>
      <trkpt lat="37.147333" lon="-3.276367">
        <ele>3016.0</ele>
        <time>2014-07-12T13:49:55Z</time>
      </trkpt>
      <trkpt lat="37.147100" lon="-3.276183">
        <ele>3017.0</ele>
        <time>2014-07-12T13:49:58Z</time>
      </trkpt>
      <trkpt lat="37.146933" lon="-3.275667">
        <ele>3018.0</ele>
        <time>2014-07-12T13:50:01Z</time>
      </trkpt>
      <trkpt lat="37.146967" lon="-3.275033">
        <ele>3019.0</ele>
        <time>2014-07-12T13:50:04Z</time>
      </trkpt>
      <trkpt lat="37.147167" lon="-3.274433">
        <ele>3020.0</ele>
        <time>2014-07-12T13:50:07Z</time>
      </trkpt>
      <trkpt lat="37.147433" lon="-3.274083">
        <ele>3021.0</ele>
        <time>2014-07-12T13:50:10Z</time>
      </trkpt>
      <trkpt lat="37.147583" lon="-3.274133">
        <ele>3021.0</ele>
        <time>2014-07-12T13:50:13Z</time>
      </trkpt>
      <trkpt lat="37.147400" lon="-3.274150">
        <ele>3022.0</ele>
        <time>2014-07-12T13:50:16Z</time>
      </trkpt>
      <trkpt lat="37.147150" lon="-3.273817">
        <ele>3022.0</ele>
        <time>2014-07-12T13:50:19Z</time>
      </trkpt>
      <trkpt lat="37.146983" lon="-3.273283">
        <ele>3022.0</ele>
        <time>2014-07-12T13:50:22Z</time>
      </trkpt>
      <trkpt lat="37.146917" lon="-3.272683">
        <ele>3023.0</ele>
        <time>2014-07-12T13:50:25Z</time>
      </trkpt>
      <trkpt lat="37.147033" lon="-3.272150">
        <ele>3024.0</ele>
        <time>2014-07-12T13:50:28Z</time>
      </trkpt>
      <trkpt lat="37.147267" lon="-3.272033">
        <ele>3025.0</ele>
        <time>2014-07-12T13:50:31Z</time>
      </trkpt>
      <trkpt lat="37.147200" lon="-3.272133">
        <ele>3026.0</ele>
        <time>2014-07-12T13:50:34Z</time>
      </trkpt>
      <trkpt lat="37.146967" lon="-3.271950">
        <ele>3026.0</ele>
        <time>2014-07-12T13:50:37Z</time>
      </trkpt>
      <trkpt lat="37.146800" lon="-3.271500">
        <ele>3027.0</ele>
        <time>2014-07-12T13:50:40Z</time>
      </trkpt>
      <trkpt lat="37.146867" lon="-3.270950">
        <ele>3028.0</ele>
        <time>2014-07-12T13:50:43Z</time>
      </trkpt>
      <trkpt lat="37.147167" lon="-3.270667">
        <ele>3030.0</ele>
        <time>2014-07-12T13:50:46Z</time>
      </trkpt>
      <trkpt lat="37.147350" lon="-3.270633">
        <ele>3032.0</ele>
        <time>2014-07-12T13:50:49Z</time>
      </trkpt>
      <trkpt lat="37.147183" lon="-3.270617">
        <ele>3034.0</ele>
        <time>2014-07-12T13:50:52Z</time>
      </trkpt>
      <trkpt lat="37.146933" lon="-3.270383">
        <ele>3037.0</ele>
        <time>2014-07-12T13:50:55Z</time>
      </trkpt>
      <trkpt lat="37.146717" lon="-3.269950">
        <ele>3040.0</ele>
        <time>2014-07-12T13:50:58Z</time>
      </trkpt>
      <trkpt lat="37.146683" lon="-3.269383">
        <ele>3043.0</ele>
        <time>2014-07-12T13:51:01Z</time>
      </trkpt>
      <trkpt lat="37.147050" lon="-3.268883">
        <ele>3046.0</ele>
        <time>2014-07-12T13:51:04Z</time>
      </trkpt>
      <trkpt lat="37.147350" lon="-3.268750">
        <ele>3048.0</ele>
        <time>2014-07-12T13:51:07Z</time>
      </trkpt>
      <trkpt lat="37.147533" lon="-3.268733">
        <ele>3049.0</ele>
        <time>2014-07-12T13:51:10Z</time>
      </trkpt>
      <trkpt lat="37.147483" lon="-3.268767">
        <ele>3050.0</ele>
        <time>2014-07-12T13:51:13Z</time>
      </trkpt>
      <trkpt lat="37.147217" lon="-3.268633">
        <ele>3052.0</ele>
        <time>2014-07-12T13:51:17Z</time>
      </trkpt>
      <trkpt lat="37.146950" lon="-3.268233">
        <ele>3054.0</ele>
        <time>2014-07-12T13:51:20Z</time>
      </trkpt>
      <trkpt lat="37.146833" lon="-3.267683">
        <ele>3057.0</ele>
        <time>2014-07-12T13:51:23Z</time>
      </trkpt>
      <trkpt lat="37.146883" lon="-3.267117">
        <ele>3059.0</ele>
        <time>2014-07-12T13:51:26Z</time>
      </trkpt>
      <trkpt lat="37.147133" lon="-3.266667">
        <ele>3061.0</ele>
        <time>2014-07-12T13:51:29Z</time>
      </trkpt>
      <trkpt lat="37.147433" lon="-3.266433">
        <ele>3062.0</ele>
        <time>2014-07-12T13:51:32Z</time>
      </trkpt>
      <trkpt lat="37.147633" lon="-3.266417">
        <ele>3064.0</ele>
        <time>2014-07-12T13:51:35Z</time>
      </trkpt>
      <trkpt lat="37.147583" lon="-3.266433">
        <ele>3064.0</ele>
        <time>2014-07-12T13:51:38Z</time>
      </trkpt>
      <trkpt lat="37.147367" lon="-3.266350">
        <ele>3066.0</ele>
        <time>2014-07-12T13:51:41Z</time>
      </trkpt>
      <trkpt lat="37.147083" lon="-3.266017">
        <ele>3066.0</ele>
        <time>2014-07-12T13:51:44Z</time>
      </trkpt>
      <trkpt lat="37.146883" lon="-3.265467">
        <ele>3067.0</ele>
        <time>2014-07-12T13:51:47Z</time>
      </trkpt>
      <trkpt lat="37.146817" lon="-3.264817">
        <ele>3067.0</ele>
        <time>2014-07-12T13:51:50Z</time>
      </trkpt>
      <trkpt lat="37.146850" lon="-3.264150">
        <ele>3067.0</ele>
        <time>2014-07-12T13:51:53Z</time>
      </trkpt>
      <trkpt lat="37.146967" lon="-3.263517">
        <ele>3068.0</ele>
        <time>2014-07-12T13:51:56Z</time>
      </trkpt>
      <trkpt lat="37.147167" lon="-3.262950">
        <ele>3068.0</ele>
        <time>2014-07-12T13:51:59Z</time>
      </trkpt>
      <trkpt lat="37.147433" lon="-3.262600">
        <ele>3068.0</ele>
        <time>2014-07-12T13:52:02Z</time>
      </trkpt>
      <trkpt lat="37.147683" lon="-3.262483">
        <ele>3067.0</ele>
        <time>2014-07-12T13:52:05Z</time>
      </trkpt>
      <trkpt lat="37.147833" lon="-3.262533">
        <ele>3067.0</ele>
        <time>2014-07-12T13:52:08Z</time>
      </trkpt>
      <trkpt lat="37.147917" lon="-3.262617">
        <ele>3067.0</ele>
        <time>2014-07-12T13:52:11Z</time>
      </trkpt>
      <trkpt lat="37.147933" lon="-3.262700">
        <ele>3066.0</ele>
        <time>2014-07-12T13:52:14Z</time>
      </trkpt>
      <trkpt lat="37.147883" lon="-3.262783">
        <ele>3065.0</ele>
        <time>2014-07-12T13:52:17Z</time>
      </trkpt>
      <trkpt lat="37.147700" lon="-3.262717">
        <ele>3063.0</ele>
        <time>2014-07-12T13:52:20Z</time>
      </trkpt>
      <trkpt lat="37.147417" lon="-3.262350">
        <ele>3062.0</ele>
        <time>2014-07-12T13:52:23Z</time>
      </trkpt>
      <trkpt lat="37.147217" lon="-3.261733">
        <ele>3061.0</ele>
        <time>2014-07-12T13:52:26Z</time>
      </trkpt>
      <trkpt lat="37.147167" lon="-3.261100">
        <ele>3059.0</ele>
        <time>2014-07-12T13:52:29Z</time>
      </trkpt>
      <trkpt lat="37.147300" lon="-3.260483">
        <ele>3058.0</ele>
        <time>2014-07-12T13:52:32Z</time>
      </trkpt>
      <trkpt lat="37.147567" lon="-3.259867">
        <ele>3056.0</ele>
        <time>2014-07-12T13:52:35Z</time>
      </trkpt>
      <trkpt lat="37.147817" lon="-3.259317">
        <ele>3053.0</ele>
        <time>2014-07-12T13:52:38Z</time>
      </trkpt>
      <trkpt lat="37.148100" lon="-3.258833">
        <ele>3051.0</ele>
        <time>2014-07-12T13:52:41Z</time>
      </trkpt>
      <trkpt lat="37.148350" lon="-3.258333">
        <ele>3049.0</ele>
        <time>2014-07-12T13:52:44Z</time>
      </trkpt>
      <trkpt lat="37.148533" lon="-3.257767">
        <ele>3046.0</ele>
        <time>2014-07-12T13:52:47Z</time>
      </trkpt>
      <trkpt lat="37.148650" lon="-3.257150">
        <ele>3044.0</ele>
        <time>2014-07-12T13:52:50Z</time>
      </trkpt>
      <trkpt lat="37.148767" lon="-3.256550">
        <ele>3041.0</ele>
        <time>2014-07-12T13:52:53Z</time>
      </trkpt>
      <trkpt lat="37.148883" lon="-3.255933">
        <ele>3038.0</ele>
        <time>2014-07-12T13:52:56Z</time>
      </trkpt>
      <trkpt lat="37.149050" lon="-3.255267">
        <ele>3034.0</ele>
        <time>2014-07-12T13:52:59Z</time>
      </trkpt>
      <trkpt lat="37.149217" lon="-3.254617">
        <ele>3030.0</ele>
        <time>2014-07-12T13:53:02Z</time>
      </trkpt>
      <trkpt lat="37.149317" lon="-3.254017">
        <ele>3026.0</ele>
        <time>2014-07-12T13:53:05Z</time>
      </trkpt>
      <trkpt lat="37.149417" lon="-3.253417">
        <ele>3022.0</ele>
        <time>2014-07-12T13:53:08Z</time>
      </trkpt>
      <trkpt lat="37.149567" lon="-3.252817">
        <ele>3018.0</ele>
        <time>2014-07-12T13:53:11Z</time>
      </trkpt>
      <trkpt lat="37.149700" lon="-3.252217">
        <ele>3013.0</ele>
        <time>2014-07-12T13:53:14Z</time>
      </trkpt>
      <trkpt lat="37.149817" lon="-3.251600">
        <ele>3008.0</ele>
        <time>2014-07-12T13:53:17Z</time>
      </trkpt>
      <trkpt lat="37.149983" lon="-3.250983">
        <ele>3002.0</ele>
        <time>2014-07-12T13:53:20Z</time>
      </trkpt>
      <trkpt lat="37.150150" lon="-3.250417">
        <ele>2996.0</ele>
        <time>2014-07-12T13:53:23Z</time>
      </trkpt>
      <trkpt lat="37.150383" lon="-3.249683">
        <ele>2987.0</ele>
        <time>2014-07-12T13:53:26Z</time>
      </trkpt>
      <trkpt lat="37.150533" lon="-3.249133">
        <ele>2981.0</ele>
        <time>2014-07-12T13:53:29Z</time>
      </trkpt>
      <trkpt lat="37.150700" lon="-3.248567">
        <ele>2975.0</ele>
        <time>2014-07-12T13:53:32Z</time>
      </trkpt>
      <trkpt lat="37.150867" lon="-3.248033">
        <ele>2970.0</ele>
        <time>2014-07-12T13:53:35Z</time>
      </trkpt>
      <trkpt lat="37.151033" lon="-3.247450">
        <ele>2964.0</ele>
        <time>2014-07-12T13:53:39Z</time>
      </trkpt>
      <trkpt lat="37.151183" lon="-3.246900">
        <ele>2959.0</ele>
        <time>2014-07-12T13:53:42Z</time>
      </trkpt>
      <trkpt lat="37.151350" lon="-3.246317">
        <ele>2954.0</ele>
        <time>2014-07-12T13:53:45Z</time>
      </trkpt>
      <trkpt lat="37.151500" lon="-3.245717">
        <ele>2948.0</ele>
        <time>2014-07-12T13:53:48Z</time>
      </trkpt>
      <trkpt lat="37.151683" lon="-3.245133">
        <ele>2944.0</ele>
        <time>2014-07-12T13:53:51Z</time>
      </trkpt>
      <trkpt lat="37.151867" lon="-3.244533">
        <ele>2939.0</ele>
        <time>2014-07-12T13:53:54Z</time>
      </trkpt>
      <trkpt lat="37.152050" lon="-3.243950">
        <ele>2934.0</ele>
        <time>2014-07-12T13:53:57Z</time>
      </trkpt>
      <trkpt lat="37.152250" lon="-3.243367">
        <ele>2930.0</ele>
        <time>2014-07-12T13:54:00Z</time>
      </trkpt>
      <trkpt lat="37.152450" lon="-3.242800">
        <ele>2926.0</ele>
        <time>2014-07-12T13:54:03Z</time>
      </trkpt>
      <trkpt lat="37.152683" lon="-3.242233">
        <ele>2922.0</ele>
        <time>2014-07-12T13:54:06Z</time>
      </trkpt>
      <trkpt lat="37.152900" lon="-3.241667">
        <ele>2918.0</ele>
        <time>2014-07-12T13:54:09Z</time>
      </trkpt>
      <trkpt lat="37.153117" lon="-3.241100">
        <ele>2914.0</ele>
        <time>2014-07-12T13:54:12Z</time>
      </trkpt>
      <trkpt lat="37.153317" lon="-3.240517">
        <ele>2911.0</ele>
        <time>2014-07-12T13:54:15Z</time>
      </trkpt>
      <trkpt lat="37.153500" lon="-3.239983">
        <ele>2907.0</ele>
        <time>2014-07-12T13:54:18Z</time>
      </trkpt>
      <trkpt lat="37.153717" lon="-3.239433">
        <ele>2904.0</ele>
        <time>2014-07-12T13:54:21Z</time>
      </trkpt>
      <trkpt lat="37.153900" lon="-3.238900">
        <ele>2900.0</ele>
        <time>2014-07-12T13:54:24Z</time>
      </trkpt>
      <trkpt lat="37.154083" lon="-3.238367">
        <ele>2897.0</ele>
        <time>2014-07-12T13:54:27Z</time>
      </trkpt>
      <trkpt lat="37.154250" lon="-3.237783">
        <ele>2895.0</ele>
        <time>2014-07-12T13:54:30Z</time>
      </trkpt>
      <trkpt lat="37.154417" lon="-3.237217">
        <ele>2892.0</ele>
        <time>2014-07-12T13:54:33Z</time>
      </trkpt>
      <trkpt lat="37.154583" lon="-3.236617">
        <ele>2888.0</ele>
        <time>2014-07-12T13:54:36Z</time>
      </trkpt>
      <trkpt lat="37.154733" lon="-3.236000">
        <ele>2886.0</ele>
        <time>2014-07-12T13:54:39Z</time>
      </trkpt>
      <trkpt lat="37.154900" lon="-3.235417">
        <ele>2882.0</ele>
        <time>2014-07-12T13:54:42Z</time>
      </trkpt>
      <trkpt lat="37.155050" lon="-3.234833">
        <ele>2878.0</ele>
        <time>2014-07-12T13:54:45Z</time>
      </trkpt>
      <trkpt lat="37.155200" lon="-3.234183">
        <ele>2878.0</ele>
        <time>2014-07-12T13:54:48Z</time>
      </trkpt>
      <trkpt lat="37.155350" lon="-3.233533">
        <ele>2878.0</ele>
        <time>2014-07-12T13:54:51Z</time>
      </trkpt>
      <trkpt lat="37.155517" lon="-3.232850">
        <ele>2878.0</ele>
        <time>2014-07-12T13:54:54Z</time>
      </trkpt>
      <trkpt lat="37.155667" lon="-3.232183">
        <ele>2878.0</ele>
        <time>2014-07-12T13:54:57Z</time>
      </trkpt>
      <trkpt lat="37.155817" lon="-3.231500">
        <ele>2878.0</ele>
        <time>2014-07-12T13:55:00Z</time>
      </trkpt>
      <trkpt lat="37.155967" lon="-3.230833">
        <ele>2878.0</ele>
        <time>2014-07-12T13:55:03Z</time>
      </trkpt>
      <trkpt lat="37.156117" lon="-3.230167">
        <ele>2878.0</ele>
        <time>2014-07-12T13:55:06Z</time>
      </trkpt>
      <trkpt lat="37.156250" lon="-3.229483">
        <ele>2878.0</ele>
        <time>2014-07-12T13:55:09Z</time>
      </trkpt>
      <trkpt lat="37.156400" lon="-3.228833">
        <ele>2878.0</ele>
        <time>2014-07-12T13:55:12Z</time>
      </trkpt>
      <trkpt lat="37.156600" lon="-3.228150">
        <ele>2878.0</ele>
        <time>2014-07-12T13:55:15Z</time>
      </trkpt>
      <trkpt lat="37.156817" lon="-3.227450">
        <ele>2878.0</ele>
        <time>2014-07-12T13:55:18Z</time>
      </trkpt>
      <trkpt lat="37.157017" lon="-3.226767">
        <ele>2878.0</ele>
        <time>2014-07-12T13:55:21Z</time>
      </trkpt>
      <trkpt lat="37.157167" lon="-3.226000">
        <ele>2878.0</ele>
        <time>2014-07-12T13:55:24Z</time>
      </trkpt>
      <trkpt lat="37.157317" lon="-3.225267">
        <ele>2878.0</ele>
        <time>2014-07-12T13:55:27Z</time>
      </trkpt>
      <trkpt lat="37.157467" lon="-3.224550">
        <ele>2878.0</ele>
        <time>2014-07-12T13:55:30Z</time>
      </trkpt>
      <trkpt lat="37.157600" lon="-3.223817">
        <ele>2878.0</ele>
        <time>2014-07-12T13:55:33Z</time>
      </trkpt>
      <trkpt lat="37.157750" lon="-3.223200">
        <ele>2875.0</ele>
        <time>2014-07-12T13:55:36Z</time>
      </trkpt>
      <trkpt lat="37.157983" lon="-3.222433">
        <ele>2861.0</ele>
        <time>2014-07-12T13:55:39Z</time>
      </trkpt>
      <trkpt lat="37.158167" lon="-3.221850">
        <ele>2847.0</ele>
        <time>2014-07-12T13:55:42Z</time>
      </trkpt>
      <trkpt lat="37.158333" lon="-3.221183">
        <ele>2842.0</ele>
        <time>2014-07-12T13:55:45Z</time>
      </trkpt>
      <trkpt lat="37.158517" lon="-3.220450">
        <ele>2842.0</ele>
        <time>2014-07-12T13:55:49Z</time>
      </trkpt>
      <trkpt lat="37.158683" lon="-3.219717">
        <ele>2842.0</ele>
        <time>2014-07-12T13:55:52Z</time>
      </trkpt>
      <trkpt lat="37.158850" lon="-3.219000">
        <ele>2842.0</ele>
        <time>2014-07-12T13:55:55Z</time>
      </trkpt>
      <trkpt lat="37.159000" lon="-3.218417">
        <ele>2829.0</ele>
        <time>2014-07-12T13:55:58Z</time>
      </trkpt>
      <trkpt lat="37.159183" lon="-3.217850">
        <ele>2814.0</ele>
        <time>2014-07-12T13:56:01Z</time>
      </trkpt>
      <trkpt lat="37.159383" lon="-3.217250">
        <ele>2796.0</ele>
        <time>2014-07-12T13:56:04Z</time>
      </trkpt>
      <trkpt lat="37.159583" lon="-3.216617">
        <ele>2783.0</ele>
        <time>2014-07-12T13:56:07Z</time>
      </trkpt>
      <trkpt lat="37.159800" lon="-3.216000">
        <ele>2764.0</ele>
        <time>2014-07-12T13:56:10Z</time>
      </trkpt>
      <trkpt lat="37.159983" lon="-3.215350">
        <ele>2751.0</ele>
        <time>2014-07-12T13:56:13Z</time>
      </trkpt>
      <trkpt lat="37.160133" lon="-3.214700">
        <ele>2738.0</ele>
        <time>2014-07-12T13:56:16Z</time>
      </trkpt>
      <trkpt lat="37.160300" lon="-3.214100">
        <ele>2717.0</ele>
        <time>2014-07-12T13:56:19Z</time>
      </trkpt>
      <trkpt lat="37.160450" lon="-3.213467">
        <ele>2697.0</ele>
        <time>2014-07-12T13:56:22Z</time>
      </trkpt>
      <trkpt lat="37.160617" lon="-3.212867">
        <ele>2677.0</ele>
        <time>2014-07-12T13:56:25Z</time>
      </trkpt>
      <trkpt lat="37.160717" lon="-3.212400">
        <ele>0.0</ele>
        <time>2014-07-12T13:56:28Z</time>
      </trkpt>
      <trkpt lat="37.160950" lon="-3.211617">
        <ele>2663.0</ele>
        <time>2014-07-12T13:56:31Z</time>
      </trkpt>
      <trkpt lat="37.161167" lon="-3.211067">
        <ele>2644.0</ele>
        <time>2014-07-12T13:56:34Z</time>
      </trkpt>
      <trkpt lat="37.161350" lon="-3.210483">
        <ele>2625.0</ele>
        <time>2014-07-12T13:56:37Z</time>
      </trkpt>
      <trkpt lat="37.161500" lon="-3.209867">
        <ele>2613.0</ele>
        <time>2014-07-12T13:56:40Z</time>
      </trkpt>
      <trkpt lat="37.161633" lon="-3.209250">
        <ele>2607.0</ele>
        <time>2014-07-12T13:56:43Z</time>
      </trkpt>
      <trkpt lat="37.161750" lon="-3.208617">
        <ele>2602.0</ele>
        <time>2014-07-12T13:56:46Z</time>
      </trkpt>
      <trkpt lat="37.161833" lon="-3.208000">
        <ele>2587.0</ele>
        <time>2014-07-12T13:56:49Z</time>
      </trkpt>
      <trkpt lat="37.161950" lon="-3.207400">
        <ele>2572.0</ele>
        <time>2014-07-12T13:56:52Z</time>
      </trkpt>
      <trkpt lat="37.162067" lon="-3.206817">
        <ele>2557.0</ele>
        <time>2014-07-12T13:56:55Z</time>
      </trkpt>
      <trkpt lat="37.162217" lon="-3.206233">
        <ele>2542.0</ele>
        <time>2014-07-12T13:56:58Z</time>
      </trkpt>
      <trkpt lat="37.162367" lon="-3.205633">
        <ele>2527.0</ele>
        <time>2014-07-12T13:57:01Z</time>
      </trkpt>
      <trkpt lat="37.162500" lon="-3.205083">
        <ele>2512.0</ele>
        <time>2014-07-12T13:57:04Z</time>
      </trkpt>
      <trkpt lat="37.162650" lon="-3.204450">
        <ele>2502.0</ele>
        <time>2014-07-12T13:57:07Z</time>
      </trkpt>
      <trkpt lat="37.162783" lon="-3.203850">
        <ele>2488.0</ele>
        <time>2014-07-12T13:57:10Z</time>
      </trkpt>
      <trkpt lat="37.162950" lon="-3.203283">
        <ele>2473.0</ele>
        <time>2014-07-12T13:57:13Z</time>
      </trkpt>
      <trkpt lat="37.163167" lon="-3.202717">
        <ele>2458.0</ele>
        <time>2014-07-12T13:57:16Z</time>
      </trkpt>
      <trkpt lat="37.163367" lon="-3.202183">
        <ele>2444.0</ele>
        <time>2014-07-12T13:57:19Z</time>
      </trkpt>
      <trkpt lat="37.163583" lon="-3.201683">
        <ele>2430.0</ele>
        <time>2014-07-12T13:57:22Z</time>
      </trkpt>
      <trkpt lat="37.163833" lon="-3.201217">
        <ele>2417.0</ele>
        <time>2014-07-12T13:57:25Z</time>
      </trkpt>
      <trkpt lat="37.164100" lon="-3.200817">
        <ele>2404.0</ele>
        <time>2014-07-12T13:57:28Z</time>
      </trkpt>
      <trkpt lat="37.164383" lon="-3.200383">
        <ele>2395.0</ele>
        <time>2014-07-12T13:57:31Z</time>
      </trkpt>
      <trkpt lat="37.164667" lon="-3.199983">
        <ele>2382.0</ele>
        <time>2014-07-12T13:57:34Z</time>
      </trkpt>
      <trkpt lat="37.164967" lon="-3.199533">
        <ele>2368.0</ele>
        <time>2014-07-12T13:57:37Z</time>
      </trkpt>
      <trkpt lat="37.165217" lon="-3.199050">
        <ele>2356.0</ele>
        <time>2014-07-12T13:57:40Z</time>
      </trkpt>
      <trkpt lat="37.165433" lon="-3.198550">
        <ele>2344.0</ele>
        <time>2014-07-12T13:57:43Z</time>
      </trkpt>
      <trkpt lat="37.165633" lon="-3.198017">
        <ele>2332.0</ele>
        <time>2014-07-12T13:57:46Z</time>
      </trkpt>
      <trkpt lat="37.165800" lon="-3.197517">
        <ele>2321.0</ele>
        <time>2014-07-12T13:57:49Z</time>
      </trkpt>
      <trkpt lat="37.166000" lon="-3.196967">
        <ele>2311.0</ele>
        <time>2014-07-12T13:57:52Z</time>
      </trkpt>
      <trkpt lat="37.166233" lon="-3.196250">
        <ele>2297.0</ele>
        <time>2014-07-12T13:57:55Z</time>
      </trkpt>
      <trkpt lat="37.166383" lon="-3.195683">
        <ele>2286.0</ele>
        <time>2014-07-12T13:57:58Z</time>
      </trkpt>
      <trkpt lat="37.166517" lon="-3.195050">
        <ele>2276.0</ele>
        <time>2014-07-12T13:58:01Z</time>
      </trkpt>
      <trkpt lat="37.166667" lon="-3.194483">
        <ele>2266.0</ele>
        <time>2014-07-12T13:58:04Z</time>
      </trkpt>
      <trkpt lat="37.166867" lon="-3.193883">
        <ele>2256.0</ele>
        <time>2014-07-12T13:58:08Z</time>
      </trkpt>
      <trkpt lat="37.167050" lon="-3.193350">
        <ele>2245.0</ele>
        <time>2014-07-12T13:58:11Z</time>
      </trkpt>
      <trkpt lat="37.167233" lon="-3.192867">
        <ele>2234.0</ele>
        <time>2014-07-12T13:58:14Z</time>
      </trkpt>
      <trkpt lat="37.167417" lon="-3.192317">
        <ele>2223.0</ele>
        <time>2014-07-12T13:58:17Z</time>
      </trkpt>
      <trkpt lat="37.167567" lon="-3.191750">
        <ele>2212.0</ele>
        <time>2014-07-12T13:58:20Z</time>
      </trkpt>
      <trkpt lat="37.167750" lon="-3.191133">
        <ele>2201.0</ele>
        <time>2014-07-12T13:58:23Z</time>
      </trkpt>
      <trkpt lat="37.167917" lon="-3.190500">
        <ele>2193.0</ele>
        <time>2014-07-12T13:58:26Z</time>
      </trkpt>
      <trkpt lat="37.168067" lon="-3.189867">
        <ele>2182.0</ele>
        <time>2014-07-12T13:58:29Z</time>
      </trkpt>
      <trkpt lat="37.168233" lon="-3.189200">
        <ele>2171.0</ele>
        <time>2014-07-12T13:58:32Z</time>
      </trkpt>
      <trkpt lat="37.168367" lon="-3.188517">
        <ele>2164.0</ele>
        <time>2014-07-12T13:58:35Z</time>
      </trkpt>
      <trkpt lat="37.168500" lon="-3.187867">
        <ele>2157.0</ele>
        <time>2014-07-12T13:58:38Z</time>
      </trkpt>
      <trkpt lat="37.168650" lon="-3.187167">
        <ele>2154.0</ele>
        <time>2014-07-12T13:58:41Z</time>
      </trkpt>
      <trkpt lat="37.168833" lon="-3.186600">
        <ele>2144.0</ele>
        <time>2014-07-12T13:58:44Z</time>
      </trkpt>
      <trkpt lat="37.169000" lon="-3.185983">
        <ele>2144.0</ele>
        <time>2014-07-12T13:58:47Z</time>
      </trkpt>
      <trkpt lat="37.169217" lon="-3.185383">
        <ele>2138.0</ele>
        <time>2014-07-12T13:58:50Z</time>
      </trkpt>
      <trkpt lat="37.169400" lon="-3.184850">
        <ele>2129.0</ele>
        <time>2014-07-12T13:58:53Z</time>
      </trkpt>
      <trkpt lat="37.169583" lon="-3.184267">
        <ele>2120.0</ele>
        <time>2014-07-12T13:58:56Z</time>
      </trkpt>
      <trkpt lat="37.169783" lon="-3.183650">
        <ele>2117.0</ele>
        <time>2014-07-12T13:58:59Z</time>
      </trkpt>
      <trkpt lat="37.170000" lon="-3.183017">
        <ele>2117.0</ele>
        <time>2014-07-12T13:59:02Z</time>
      </trkpt>
      <trkpt lat="37.170217" lon="-3.182417">
        <ele>2115.0</ele>
        <time>2014-07-12T13:59:05Z</time>
      </trkpt>
      <trkpt lat="37.170417" lon="-3.181900">
        <ele>2109.0</ele>
        <time>2014-07-12T13:59:08Z</time>
      </trkpt>
      <trkpt lat="37.170667" lon="-3.181467">
        <ele>2103.0</ele>
        <time>2014-07-12T13:59:11Z</time>
      </trkpt>
      <trkpt lat="37.170933" lon="-3.181217">
        <ele>2097.0</ele>
        <time>2014-07-12T13:59:14Z</time>
      </trkpt>
      <trkpt lat="37.171050" lon="-3.181250">
        <ele>2094.0</ele>
        <time>2014-07-12T13:59:17Z</time>
      </trkpt>
      <trkpt lat="37.170933" lon="-3.181250">
        <ele>2094.0</ele>
        <time>2014-07-12T13:59:20Z</time>
      </trkpt>
      <trkpt lat="37.170700" lon="-3.180917">
        <ele>2091.0</ele>
        <time>2014-07-12T13:59:23Z</time>
      </trkpt>
      <trkpt lat="37.170633" lon="-3.180383">
        <ele>2088.0</ele>
        <time>2014-07-12T13:59:26Z</time>
      </trkpt>
      <trkpt lat="37.170800" lon="-3.179983">
        <ele>2086.0</ele>
        <time>2014-07-12T13:59:29Z</time>
      </trkpt>
      <trkpt lat="37.170950" lon="-3.179867">
        <ele>2084.0</ele>
        <time>2014-07-12T13:59:32Z</time>
      </trkpt>
      <trkpt lat="37.171067" lon="-3.179850">
        <ele>2084.0</ele>
        <time>2014-07-12T13:59:35Z</time>
      </trkpt>
      <trkpt lat="37.171150" lon="-3.179850">
        <ele>2083.0</ele>
        <time>2014-07-12T13:59:38Z</time>
      </trkpt>
      <trkpt lat="37.171017" lon="-3.179817">
        <ele>2083.0</ele>
        <time>2014-07-12T13:59:41Z</time>
      </trkpt>
      <trkpt lat="37.170783" lon="-3.179483">
        <ele>2083.0</ele>
        <time>2014-07-12T13:59:44Z</time>
      </trkpt>
      <trkpt lat="37.170717" lon="-3.178883">
        <ele>2082.0</ele>
        <time>2014-07-12T13:59:47Z</time>
      </trkpt>
      <trkpt lat="37.170767" lon="-3.178283">
        <ele>2082.0</ele>
        <time>2014-07-12T13:59:50Z</time>
      </trkpt>
      <trkpt lat="37.170917" lon="-3.177750">
        <ele>2082.0</ele>
        <time>2014-07-12T13:59:53Z</time>
      </trkpt>
      <trkpt lat="37.171133" lon="-3.177350">
        <ele>2083.0</ele>
        <time>2014-07-12T13:59:56Z</time>
      </trkpt>
      <trkpt lat="37.171367" lon="-3.177150">
        <ele>2084.0</ele>
        <time>2014-07-12T13:59:59Z</time>
      </trkpt>
      <trkpt lat="37.171500" lon="-3.177117">
        <ele>2085.0</ele>
        <time>2014-07-12T14:00:02Z</time>
      </trkpt>
      <trkpt lat="37.171433" lon="-3.177233">
        <ele>2086.0</ele>
        <time>2014-07-12T14:00:05Z</time>
      </trkpt>
      <trkpt lat="37.171167" lon="-3.177050">
        <ele>2086.0</ele>
        <time>2014-07-12T14:00:08Z</time>
      </trkpt>
      <trkpt lat="37.171117" lon="-3.176517">
        <ele>2089.0</ele>
        <time>2014-07-12T14:00:11Z</time>
      </trkpt>
      <trkpt lat="37.171367" lon="-3.176117">
        <ele>2092.0</ele>
        <time>2014-07-12T14:00:14Z</time>
      </trkpt>
      <trkpt lat="37.171450" lon="-3.176100">
        <ele>2096.0</ele>
        <time>2014-07-12T14:00:17Z</time>
      </trkpt>
      <trkpt lat="37.171233" lon="-3.176283">
        <ele>2096.0</ele>
        <time>2014-07-12T14:00:20Z</time>
      </trkpt>
      <trkpt lat="37.170967" lon="-3.176000">
        <ele>2096.0</ele>
        <time>2014-07-12T14:00:23Z</time>
      </trkpt>
      <trkpt lat="37.170833" lon="-3.175450">
        <ele>2096.0</ele>
        <time>2014-07-12T14:00:26Z</time>
      </trkpt>
      <trkpt lat="37.170950" lon="-3.174900">
        <ele>2100.0</ele>
        <time>2014-07-12T14:00:29Z</time>
      </trkpt>
      <trkpt lat="37.171133" lon="-3.174567">
        <ele>2105.0</ele>
        <time>2014-07-12T14:00:33Z</time>
      </trkpt>
      <trkpt lat="37.171317" lon="-3.174367">
        <ele>2111.0</ele>
        <time>2014-07-12T14:00:36Z</time>
      </trkpt>
      <trkpt lat="37.171483" lon="-3.174383">
        <ele>2116.0</ele>
        <time>2014-07-12T14:00:39Z</time>
      </trkpt>
      <trkpt lat="37.171367" lon="-3.174533">
        <ele>2116.0</ele>
        <time>2014-07-12T14:00:42Z</time>
      </trkpt>
      <trkpt lat="37.171100" lon="-3.174333">
        <ele>2116.0</ele>
        <time>2014-07-12T14:00:45Z</time>
      </trkpt>
      <trkpt lat="37.171050" lon="-3.173767">
        <ele>2122.0</ele>
        <time>2014-07-12T14:00:48Z</time>
      </trkpt>
      <trkpt lat="37.171250" lon="-3.173467">
        <ele>2128.0</ele>
        <time>2014-07-12T14:00:51Z</time>
      </trkpt>
      <trkpt lat="37.171317" lon="-3.173583">
        <ele>2132.0</ele>
        <time>2014-07-12T14:00:54Z</time>
      </trkpt>
      <trkpt lat="37.171100" lon="-3.173600">
        <ele>2132.0</ele>
        <time>2014-07-12T14:00:57Z</time>
      </trkpt>
      <trkpt lat="37.170967" lon="-3.173100">
        <ele>2134.0</ele>
        <time>2014-07-12T14:01:00Z</time>
      </trkpt>
      <trkpt lat="37.171083" lon="-3.172600">
        <ele>2141.0</ele>
        <time>2014-07-12T14:01:03Z</time>
      </trkpt>
      <trkpt lat="37.171283" lon="-3.172450">
        <ele>2148.0</ele>
        <time>2014-07-12T14:01:06Z</time>
      </trkpt>
      <trkpt lat="37.171417" lon="-3.172517">
        <ele>2155.0</ele>
        <time>2014-07-12T14:01:09Z</time>
      </trkpt>
      <trkpt lat="37.171283" lon="-3.172683">
        <ele>2155.0</ele>
        <time>2014-07-12T14:01:12Z</time>
      </trkpt>
      <trkpt lat="37.171000" lon="-3.172533">
        <ele>2160.0</ele>
        <time>2014-07-12T14:01:15Z</time>
      </trkpt>
      <trkpt lat="37.170867" lon="-3.172050">
        <ele>2167.0</ele>
        <time>2014-07-12T14:01:18Z</time>
      </trkpt>
      <trkpt lat="37.170983" lon="-3.171533">
        <ele>2175.0</ele>
        <time>2014-07-12T14:01:21Z</time>
      </trkpt>
      <trkpt lat="37.171233" lon="-3.171417">
        <ele>2184.0</ele>
        <time>2014-07-12T14:01:24Z</time>
      </trkpt>
      <trkpt lat="37.171250" lon="-3.171583">
        <ele>2186.0</ele>
        <time>2014-07-12T14:01:27Z</time>
      </trkpt>
      <trkpt lat="37.171000" lon="-3.171550">
        <ele>2186.0</ele>
        <time>2014-07-12T14:01:30Z</time>
      </trkpt>
      <trkpt lat="37.170850" lon="-3.171117">
        <ele>2188.0</ele>
        <time>2014-07-12T14:01:33Z</time>
      </trkpt>
      <trkpt lat="37.170967" lon="-3.170633">
        <ele>2196.0</ele>
        <time>2014-07-12T14:01:36Z</time>
      </trkpt>
      <trkpt lat="37.171183" lon="-3.170483">
        <ele>2204.0</ele>
        <time>2014-07-12T14:01:39Z</time>
      </trkpt>
      <trkpt lat="37.171233" lon="-3.170600">
        <ele>2207.0</ele>
        <time>2014-07-12T14:01:42Z</time>
      </trkpt>
      <trkpt lat="37.171000" lon="-3.170650">
        <ele>2207.0</ele>
        <time>2014-07-12T14:01:45Z</time>
      </trkpt>
      <trkpt lat="37.170767" lon="-3.170317">
        <ele>2212.0</ele>
        <time>2014-07-12T14:01:48Z</time>
      </trkpt>
      <trkpt lat="37.170817" lon="-3.169783">
        <ele>2220.0</ele>
        <time>2014-07-12T14:01:51Z</time>
      </trkpt>
      <trkpt lat="37.171050" lon="-3.169550">
        <ele>2228.0</ele>
        <time>2014-07-12T14:01:54Z</time>
      </trkpt>
      <trkpt lat="37.171100" lon="-3.169650">
        <ele>2231.0</ele>
        <time>2014-07-12T14:01:57Z</time>
      </trkpt>
      <trkpt lat="37.170883" lon="-3.169700">
        <ele>2231.0</ele>
        <time>2014-07-12T14:02:00Z</time>
      </trkpt>
      <trkpt lat="37.170617" lon="-3.169383">
        <ele>2236.0</ele>
        <time>2014-07-12T14:02:03Z</time>
      </trkpt>
      <trkpt lat="37.170567" lon="-3.168867">
        <ele>2245.0</ele>
        <time>2014-07-12T14:02:06Z</time>
      </trkpt>
      <trkpt lat="37.170783" lon="-3.168500">
        <ele>2253.0</ele>
        <time>2014-07-12T14:02:09Z</time>
      </trkpt>
      <trkpt lat="37.170950" lon="-3.168583">
        <ele>2259.0</ele>
        <time>2014-07-12T14:02:12Z</time>
      </trkpt>
      <trkpt lat="37.170850" lon="-3.168717">
        <ele>2259.0</ele>
        <time>2014-07-12T14:02:15Z</time>
      </trkpt>
      <trkpt lat="37.170567" lon="-3.168567">
        <ele>2259.0</ele>
        <time>2014-07-12T14:02:18Z</time>
      </trkpt>
      <trkpt lat="37.170517" lon="-3.168100">
        <ele>2262.0</ele>
        <time>2014-07-12T14:02:21Z</time>
      </trkpt>
      <trkpt lat="37.170733" lon="-3.167717">
        <ele>2269.0</ele>
        <time>2014-07-12T14:02:24Z</time>
      </trkpt>
      <trkpt lat="37.170917" lon="-3.167700">
        <ele>2276.0</ele>
        <time>2014-07-12T14:02:27Z</time>
      </trkpt>
      <trkpt lat="37.170850" lon="-3.167850">
        <ele>2278.0</ele>
        <time>2014-07-12T14:02:30Z</time>
      </trkpt>
      <trkpt lat="37.170583" lon="-3.167817">
        <ele>2281.0</ele>
        <time>2014-07-12T14:02:33Z</time>
      </trkpt>
      <trkpt lat="37.170350" lon="-3.167383">
        <ele>2289.0</ele>
        <time>2014-07-12T14:02:36Z</time>
      </trkpt>
      <trkpt lat="37.170483" lon="-3.166900">
        <ele>2299.0</ele>
        <time>2014-07-12T14:02:39Z</time>
      </trkpt>
      <trkpt lat="37.170683" lon="-3.166783">
        <ele>2307.0</ele>
        <time>2014-07-12T14:02:42Z</time>
      </trkpt>
      <trkpt lat="37.170667" lon="-3.166933">
        <ele>2308.0</ele>
        <time>2014-07-12T14:02:45Z</time>
      </trkpt>
      <trkpt lat="37.170417" lon="-3.166883">
        <ele>2311.0</ele>
        <time>2014-07-12T14:02:48Z</time>
      </trkpt>
      <trkpt lat="37.170083" lon="-3.166367">
        <ele>2324.0</ele>
        <time>2014-07-12T14:02:51Z</time>
      </trkpt>
      <trkpt lat="37.170100" lon="-3.165900">
        <ele>2335.0</ele>
        <time>2014-07-12T14:02:54Z</time>
      </trkpt>
      <trkpt lat="37.170300" lon="-3.165700">
        <ele>2345.0</ele>
        <time>2014-07-12T14:02:57Z</time>
      </trkpt>
      <trkpt lat="37.170317" lon="-3.165867">
        <ele>2347.0</ele>
        <time>2014-07-12T14:03:00Z</time>
      </trkpt>
      <trkpt lat="37.170033" lon="-3.165783">
        <ele>2350.0</ele>
        <time>2014-07-12T14:03:04Z</time>
      </trkpt>
      <trkpt lat="37.169883" lon="-3.165250">
        <ele>2361.0</ele>
        <time>2014-07-12T14:03:07Z</time>
      </trkpt>
      <trkpt lat="37.170067" lon="-3.164867">
        <ele>2373.0</ele>
        <time>2014-07-12T14:03:10Z</time>
      </trkpt>
      <trkpt lat="37.170250" lon="-3.164850">
        <ele>2383.0</ele>
        <time>2014-07-12T14:03:13Z</time>
      </trkpt>
      <trkpt lat="37.170133" lon="-3.165017">
        <ele>2383.0</ele>
        <time>2014-07-12T14:03:16Z</time>
      </trkpt>
      <trkpt lat="37.169917" lon="-3.164733">
        <ele>2383.0</ele>
        <time>2014-07-12T14:03:19Z</time>
      </trkpt>
      <trkpt lat="37.169983" lon="-3.164183">
        <ele>2393.0</ele>
        <time>2014-07-12T14:03:22Z</time>
      </trkpt>
      <trkpt lat="37.170200" lon="-3.163983">
        <ele>2404.0</ele>
        <time>2014-07-12T14:03:25Z</time>
      </trkpt>
      <trkpt lat="37.170300" lon="-3.164017">
        <ele>2410.0</ele>
        <time>2014-07-12T14:03:28Z</time>
      </trkpt>
      <trkpt lat="37.170167" lon="-3.164100">
        <ele>2410.0</ele>
        <time>2014-07-12T14:03:31Z</time>
      </trkpt>
      <trkpt lat="37.169867" lon="-3.163817">
        <ele>2418.0</ele>
        <time>2014-07-12T14:03:34Z</time>
      </trkpt>
      <trkpt lat="37.169750" lon="-3.163233">
        <ele>2429.0</ele>
        <time>2014-07-12T14:03:37Z</time>
      </trkpt>
      <trkpt lat="37.169867" lon="-3.162750">
        <ele>2440.0</ele>
        <time>2014-07-12T14:03:40Z</time>
      </trkpt>
      <trkpt lat="37.170067" lon="-3.162450">
        <ele>2452.0</ele>
        <time>2014-07-12T14:03:43Z</time>
      </trkpt>
      <trkpt lat="37.170300" lon="-3.162300">
        <ele>2463.0</ele>
        <time>2014-07-12T14:03:46Z</time>
      </trkpt>
      <trkpt lat="37.170317" lon="-3.162400">
        <ele>2465.0</ele>
        <time>2014-07-12T14:03:49Z</time>
      </trkpt>
      <trkpt lat="37.170100" lon="-3.162333">
        <ele>2465.0</ele>
        <time>2014-07-12T14:03:52Z</time>
      </trkpt>
      <trkpt lat="37.169883" lon="-3.161833">
        <ele>2474.0</ele>
        <time>2014-07-12T14:03:55Z</time>
      </trkpt>
      <trkpt lat="37.169933" lon="-3.161250">
        <ele>2484.0</ele>
        <time>2014-07-12T14:03:58Z</time>
      </trkpt>
      <trkpt lat="37.170150" lon="-3.160867">
        <ele>2493.0</ele>
        <time>2014-07-12T14:04:01Z</time>
      </trkpt>
      <trkpt lat="37.170317" lon="-3.160750">
        <ele>2501.0</ele>
        <time>2014-07-12T14:04:04Z</time>
      </trkpt>
      <trkpt lat="37.170300" lon="-3.160783">
        <ele>2505.0</ele>
        <time>2014-07-12T14:04:07Z</time>
      </trkpt>
      <trkpt lat="37.170083" lon="-3.160717">
        <ele>2505.0</ele>
        <time>2014-07-12T14:04:10Z</time>
      </trkpt>
      <trkpt lat="37.169850" lon="-3.160333">
        <ele>2508.0</ele>
        <time>2014-07-12T14:04:13Z</time>
      </trkpt>
      <trkpt lat="37.169817" lon="-3.159667">
        <ele>2517.0</ele>
        <time>2014-07-12T14:04:16Z</time>
      </trkpt>
      <trkpt lat="37.169967" lon="-3.159167">
        <ele>2524.0</ele>
        <time>2014-07-12T14:04:19Z</time>
      </trkpt>
      <trkpt lat="37.170083" lon="-3.159067">
        <ele>2531.0</ele>
        <time>2014-07-12T14:04:22Z</time>
      </trkpt>
      <trkpt lat="37.169983" lon="-3.159083">
        <ele>2537.0</ele>
        <time>2014-07-12T14:04:25Z</time>
      </trkpt>
      <trkpt lat="37.169717" lon="-3.158817">
        <ele>2548.0</ele>
        <time>2014-07-12T14:04:28Z</time>
      </trkpt>
      <trkpt lat="37.169567" lon="-3.158267">
        <ele>2560.0</ele>
        <time>2014-07-12T14:04:31Z</time>
      </trkpt>
      <trkpt lat="37.169617" lon="-3.157633">
        <ele>2571.0</ele>
        <time>2014-07-12T14:04:34Z</time>
      </trkpt>
      <trkpt lat="37.169800" lon="-3.157250">
        <ele>2578.0</ele>
        <time>2014-07-12T14:04:37Z</time>
      </trkpt>
      <trkpt lat="37.169917" lon="-3.157200">
        <ele>2585.0</ele>
        <time>2014-07-12T14:04:40Z</time>
      </trkpt>
      <trkpt lat="37.169817" lon="-3.157250">
        <ele>2585.0</ele>
        <time>2014-07-12T14:04:43Z</time>
      </trkpt>
      <trkpt lat="37.169567" lon="-3.157050">
        <ele>2589.0</ele>
        <time>2014-07-12T14:04:46Z</time>
      </trkpt>
      <trkpt lat="37.169367" lon="-3.156533">
        <ele>2599.0</ele>
        <time>2014-07-12T14:04:49Z</time>
      </trkpt>
      <trkpt lat="37.169383" lon="-3.155900">
        <ele>2609.0</ele>
        <time>2014-07-12T14:04:52Z</time>
      </trkpt>
      <trkpt lat="37.169567" lon="-3.155483">
        <ele>2620.0</ele>
        <time>2014-07-12T14:04:55Z</time>
      </trkpt>
      <trkpt lat="37.169717" lon="-3.155433">
        <ele>2627.0</ele>
        <time>2014-07-12T14:04:58Z</time>
      </trkpt>
      <trkpt lat="37.169683" lon="-3.155533">
        <ele>2629.0</ele>
        <time>2014-07-12T14:05:01Z</time>
      </trkpt>
      <trkpt lat="37.169433" lon="-3.155383">
        <ele>2632.0</ele>
        <time>2014-07-12T14:05:04Z</time>
      </trkpt>
      <trkpt lat="37.169167" lon="-3.154933">
        <ele>2641.0</ele>
        <time>2014-07-12T14:05:07Z</time>
      </trkpt>
      <trkpt lat="37.169150" lon="-3.154333">
        <ele>2650.0</ele>
        <time>2014-07-12T14:05:10Z</time>
      </trkpt>
      <trkpt lat="37.169333" lon="-3.153933">
        <ele>2660.0</ele>
        <time>2014-07-12T14:05:13Z</time>
      </trkpt>
      <trkpt lat="37.169517" lon="-3.153917">
        <ele>2667.0</ele>
        <time>2014-07-12T14:05:16Z</time>
      </trkpt>
      <trkpt lat="37.169533" lon="-3.154000">
        <ele>2672.0</ele>
        <time>2014-07-12T14:05:19Z</time>
      </trkpt>
      <trkpt lat="37.169283" lon="-3.154117">
        <ele>2673.0</ele>
        <time>2014-07-12T14:05:22Z</time>
      </trkpt>
      <trkpt lat="37.169067" lon="-3.153833">
        <ele>2673.0</ele>
        <time>2014-07-12T14:05:25Z</time>
      </trkpt>
      <trkpt lat="37.169050" lon="-3.153267">
        <ele>2682.0</ele>
        <time>2014-07-12T14:05:28Z</time>
      </trkpt>
      <trkpt lat="37.169267" lon="-3.152917">
        <ele>2690.0</ele>
        <time>2014-07-12T14:05:32Z</time>
      </trkpt>
      <trkpt lat="37.169417" lon="-3.152883">
        <ele>2696.0</ele>
        <time>2014-07-12T14:05:35Z</time>
      </trkpt>
      <trkpt lat="37.169350" lon="-3.152967">
        <ele>2696.0</ele>
        <time>2014-07-12T14:05:38Z</time>
      </trkpt>
      <trkpt lat="37.169133" lon="-3.152800">
        <ele>2698.0</ele>
        <time>2014-07-12T14:05:41Z</time>
      </trkpt>
      <trkpt lat="37.169033" lon="-3.152267">
        <ele>2703.0</ele>
        <time>2014-07-12T14:05:44Z</time>
      </trkpt>
      <trkpt lat="37.169233" lon="-3.151783">
        <ele>2710.0</ele>
        <time>2014-07-12T14:05:47Z</time>
      </trkpt>
      <trkpt lat="37.169483" lon="-3.151650">
        <ele>2718.0</ele>
        <time>2014-07-12T14:05:50Z</time>
      </trkpt>
      <trkpt lat="37.169600" lon="-3.151700">
        <ele>2723.0</ele>
        <time>2014-07-12T14:05:53Z</time>
      </trkpt>
      <trkpt lat="37.169550" lon="-3.151833">
        <ele>2725.0</ele>
        <time>2014-07-12T14:05:56Z</time>
      </trkpt>
      <trkpt lat="37.169400" lon="-3.151950">
        <ele>2725.0</ele>
        <time>2014-07-12T14:05:59Z</time>
      </trkpt>
      <trkpt lat="37.169200" lon="-3.151850">
        <ele>2729.0</ele>
        <time>2014-07-12T14:06:02Z</time>
      </trkpt>
      <trkpt lat="37.169000" lon="-3.151450">
        <ele>2738.0</ele>
        <time>2014-07-12T14:06:05Z</time>
      </trkpt>
      <trkpt lat="37.169017" lon="-3.150900">
        <ele>2747.0</ele>
        <time>2014-07-12T14:06:08Z</time>
      </trkpt>
      <trkpt lat="37.169283" lon="-3.150500">
        <ele>2756.0</ele>
        <time>2014-07-12T14:06:11Z</time>
      </trkpt>
      <trkpt lat="37.169583" lon="-3.150400">
        <ele>2765.0</ele>
        <time>2014-07-12T14:06:14Z</time>
      </trkpt>
      <trkpt lat="37.169683" lon="-3.150483">
        <ele>2771.0</ele>
        <time>2014-07-12T14:06:17Z</time>
      </trkpt>
      <trkpt lat="37.169617" lon="-3.150550">
        <ele>2776.0</ele>
        <time>2014-07-12T14:06:20Z</time>
      </trkpt>
      <trkpt lat="37.169483" lon="-3.150600">
        <ele>2783.0</ele>
        <time>2014-07-12T14:06:23Z</time>
      </trkpt>
      <trkpt lat="37.169267" lon="-3.150533">
        <ele>2786.0</ele>
        <time>2014-07-12T14:06:26Z</time>
      </trkpt>
      <trkpt lat="37.169083" lon="-3.150083">
        <ele>2795.0</ele>
        <time>2014-07-12T14:06:29Z</time>
      </trkpt>
      <trkpt lat="37.169133" lon="-3.149500">
        <ele>2805.0</ele>
        <time>2014-07-12T14:06:32Z</time>
      </trkpt>
      <trkpt lat="37.169417" lon="-3.149167">
        <ele>2815.0</ele>
        <time>2014-07-12T14:06:35Z</time>
      </trkpt>
      <trkpt lat="37.169600" lon="-3.149183">
        <ele>2823.0</ele>
        <time>2014-07-12T14:06:38Z</time>
      </trkpt>
      <trkpt lat="37.169483" lon="-3.149183">
        <ele>2830.0</ele>
        <time>2014-07-12T14:06:41Z</time>
      </trkpt>
      <trkpt lat="37.169233" lon="-3.149067">
        <ele>2830.0</ele>
        <time>2014-07-12T14:06:44Z</time>
      </trkpt>
      <trkpt lat="37.169033" lon="-3.148667">
        <ele>2833.0</ele>
        <time>2014-07-12T14:06:47Z</time>
      </trkpt>
      <trkpt lat="37.168983" lon="-3.148067">
        <ele>2843.0</ele>
        <time>2014-07-12T14:06:50Z</time>
      </trkpt>
      <trkpt lat="37.169250" lon="-3.147683">
        <ele>2853.0</ele>
        <time>2014-07-12T14:06:53Z</time>
      </trkpt>
      <trkpt lat="37.169467" lon="-3.147650">
        <ele>2861.0</ele>
        <time>2014-07-12T14:06:56Z</time>
      </trkpt>
      <trkpt lat="37.169400" lon="-3.147783">
        <ele>2866.0</ele>
        <time>2014-07-12T14:06:59Z</time>
      </trkpt>
      <trkpt lat="37.169167" lon="-3.147650">
        <ele>2866.0</ele>
        <time>2014-07-12T14:07:02Z</time>
      </trkpt>
      <trkpt lat="37.169033" lon="-3.147133">
        <ele>2875.0</ele>
        <time>2014-07-12T14:07:05Z</time>
      </trkpt>
      <trkpt lat="37.169250" lon="-3.146750">
        <ele>2885.0</ele>
        <time>2014-07-12T14:07:08Z</time>
      </trkpt>
      <trkpt lat="37.169517" lon="-3.146750">
        <ele>2895.0</ele>
        <time>2014-07-12T14:07:11Z</time>
      </trkpt>
      <trkpt lat="37.169483" lon="-3.146850">
        <ele>2899.0</ele>
        <time>2014-07-12T14:07:14Z</time>
      </trkpt>
      <trkpt lat="37.169250" lon="-3.146750">
        <ele>2906.0</ele>
        <time>2014-07-12T14:07:17Z</time>
      </trkpt>
      <trkpt lat="37.169033" lon="-3.146333">
        <ele>2917.0</ele>
        <time>2014-07-12T14:07:20Z</time>
      </trkpt>
      <trkpt lat="37.169050" lon="-3.145783">
        <ele>2928.0</ele>
        <time>2014-07-12T14:07:23Z</time>
      </trkpt>
      <trkpt lat="37.169300" lon="-3.145417">
        <ele>2939.0</ele>
        <time>2014-07-12T14:07:26Z</time>
      </trkpt>
      <trkpt lat="37.169517" lon="-3.145417">
        <ele>2947.0</ele>
        <time>2014-07-12T14:07:29Z</time>
      </trkpt>
      <trkpt lat="37.169467" lon="-3.145533">
        <ele>2952.0</ele>
        <time>2014-07-12T14:07:32Z</time>
      </trkpt>
      <trkpt lat="37.169250" lon="-3.145483">
        <ele>2963.0</ele>
        <time>2014-07-12T14:07:35Z</time>
      </trkpt>
      <trkpt lat="37.168933" lon="-3.145267">
        <ele>2973.0</ele>
        <time>2014-07-12T14:07:38Z</time>
      </trkpt>
      <trkpt lat="37.168700" lon="-3.144817">
        <ele>2982.0</ele>
        <time>2014-07-12T14:07:41Z</time>
      </trkpt>
      <trkpt lat="37.168800" lon="-3.144317">
        <ele>2991.0</ele>
        <time>2014-07-12T14:07:44Z</time>
      </trkpt>
      <trkpt lat="37.169067" lon="-3.144050">
        <ele>2998.0</ele>
        <time>2014-07-12T14:07:47Z</time>
      </trkpt>
      <trkpt lat="37.169183" lon="-3.144067">
        <ele>3003.0</ele>
        <time>2014-07-12T14:07:50Z</time>
      </trkpt>
      <trkpt lat="37.168983" lon="-3.144133">
        <ele>3011.0</ele>
        <time>2014-07-12T14:07:53Z</time>
      </trkpt>
      <trkpt lat="37.168683" lon="-3.143983">
        <ele>3016.0</ele>
        <time>2014-07-12T14:07:56Z</time>
      </trkpt>
      <trkpt lat="37.168450" lon="-3.143583">
        <ele>3020.0</ele>
        <time>2014-07-12T14:07:59Z</time>
      </trkpt>
      <trkpt lat="37.168417" lon="-3.143067">
        <ele>3025.0</ele>
        <time>2014-07-12T14:08:03Z</time>
      </trkpt>
      <trkpt lat="37.168583" lon="-3.142583">
        <ele>3029.0</ele>
        <time>2014-07-12T14:08:06Z</time>
      </trkpt>
      <trkpt lat="37.168850" lon="-3.142367">
        <ele>3034.0</ele>
        <time>2014-07-12T14:08:09Z</time>
      </trkpt>
      <trkpt lat="37.169050" lon="-3.142383">
        <ele>3038.0</ele>
        <time>2014-07-12T14:08:12Z</time>
      </trkpt>
      <trkpt lat="37.169067" lon="-3.142533">
        <ele>3041.0</ele>
        <time>2014-07-12T14:08:15Z</time>
      </trkpt>
      <trkpt lat="37.168850" lon="-3.142617">
        <ele>3045.0</ele>
        <time>2014-07-12T14:08:18Z</time>
      </trkpt>
      <trkpt lat="37.168533" lon="-3.142417">
        <ele>3051.0</ele>
        <time>2014-07-12T14:08:21Z</time>
      </trkpt>
      <trkpt lat="37.168267" lon="-3.142033">
        <ele>3058.0</ele>
        <time>2014-07-12T14:08:24Z</time>
      </trkpt>
      <trkpt lat="37.168067" lon="-3.141533">
        <ele>3063.0</ele>
        <time>2014-07-12T14:08:27Z</time>
      </trkpt>
      <trkpt lat="37.168033" lon="-3.140950">
        <ele>3068.0</ele>
        <time>2014-07-12T14:08:30Z</time>
      </trkpt>
      <trkpt lat="37.168167" lon="-3.140433">
        <ele>3073.0</ele>
        <time>2014-07-12T14:08:33Z</time>
      </trkpt>
      <trkpt lat="37.168350" lon="-3.140050">
        <ele>3078.0</ele>
        <time>2014-07-12T14:08:36Z</time>
      </trkpt>
      <trkpt lat="37.168617" lon="-3.139817">
        <ele>3083.0</ele>
        <time>2014-07-12T14:08:39Z</time>
      </trkpt>
      <trkpt lat="37.168867" lon="-3.139767">
        <ele>3088.0</ele>
        <time>2014-07-12T14:08:42Z</time>
      </trkpt>
      <trkpt lat="37.168900" lon="-3.139883">
        <ele>3091.0</ele>
        <time>2014-07-12T14:08:45Z</time>
      </trkpt>
      <trkpt lat="37.168700" lon="-3.139917">
        <ele>3094.0</ele>
        <time>2014-07-12T14:08:48Z</time>
      </trkpt>
      <trkpt lat="37.168367" lon="-3.139717">
        <ele>3097.0</ele>
        <time>2014-07-12T14:08:51Z</time>
      </trkpt>
      <trkpt lat="37.168100" lon="-3.139283">
        <ele>3101.0</ele>
        <time>2014-07-12T14:08:54Z</time>
      </trkpt>
      <trkpt lat="37.167950" lon="-3.138900">
        <ele>0.0</ele>
        <time>2014-07-12T14:08:57Z</time>
      </trkpt>
      <trkpt lat="37.167867" lon="-3.138117">
        <ele>3106.0</ele>
        <time>2014-07-12T14:09:00Z</time>
      </trkpt>
      <trkpt lat="37.168067" lon="-3.137667">
        <ele>3112.0</ele>
        <time>2014-07-12T14:09:03Z</time>
      </trkpt>
      <trkpt lat="37.168300" lon="-3.137517">
        <ele>3118.0</ele>
        <time>2014-07-12T14:09:06Z</time>
      </trkpt>
      <trkpt lat="37.168383" lon="-3.137583">
        <ele>3121.0</ele>
        <time>2014-07-12T14:09:09Z</time>
      </trkpt>
      <trkpt lat="37.168200" lon="-3.137633">
        <ele>3124.0</ele>
        <time>2014-07-12T14:09:12Z</time>
      </trkpt>
      <trkpt lat="37.167833" lon="-3.137350">
        <ele>3128.0</ele>
        <time>2014-07-12T14:09:15Z</time>
      </trkpt>
      <trkpt lat="37.167550" lon="-3.136867">
        <ele>3132.0</ele>
        <time>2014-07-12T14:09:18Z</time>
      </trkpt>
      <trkpt lat="37.167417" lon="-3.136317">
        <ele>3138.0</ele>
        <time>2014-07-12T14:09:21Z</time>
      </trkpt>
      <trkpt lat="37.167467" lon="-3.135750">
        <ele>3144.0</ele>
        <time>2014-07-12T14:09:24Z</time>
      </trkpt>
      <trkpt lat="37.167700" lon="-3.135417">
        <ele>3150.0</ele>
        <time>2014-07-12T14:09:27Z</time>
      </trkpt>
      <trkpt lat="37.167883" lon="-3.135400">
        <ele>3155.0</ele>
        <time>2014-07-12T14:09:30Z</time>
      </trkpt>
      <trkpt lat="37.167850" lon="-3.135517">
        <ele>3158.0</ele>
        <time>2014-07-12T14:09:33Z</time>
      </trkpt>
      <trkpt lat="37.167600" lon="-3.135533">
        <ele>3160.0</ele>
        <time>2014-07-12T14:09:36Z</time>
      </trkpt>
      <trkpt lat="37.167300" lon="-3.135200">
        <ele>3165.0</ele>
        <time>2014-07-12T14:09:39Z</time>
      </trkpt>
      <trkpt lat="37.167167" lon="-3.134650">
        <ele>3170.0</ele>
        <time>2014-07-12T14:09:42Z</time>
      </trkpt>
      <trkpt lat="37.167233" lon="-3.134083">
        <ele>3175.0</ele>
        <time>2014-07-12T14:09:45Z</time>
      </trkpt>
      <trkpt lat="37.167400" lon="-3.133600">
        <ele>3180.0</ele>
        <time>2014-07-12T14:09:48Z</time>
      </trkpt>
      <trkpt lat="37.167650" lon="-3.133417">
        <ele>3185.0</ele>
        <time>2014-07-12T14:09:51Z</time>
      </trkpt>
      <trkpt lat="37.167733" lon="-3.133517">
        <ele>3188.0</ele>
        <time>2014-07-12T14:09:54Z</time>
      </trkpt>
      <trkpt lat="37.167600" lon="-3.133650">
        <ele>3193.0</ele>
        <time>2014-07-12T14:09:57Z</time>
      </trkpt>
      <trkpt lat="37.167300" lon="-3.133533">
        <ele>3196.0</ele>
        <time>2014-07-12T14:10:00Z</time>
      </trkpt>
      <trkpt lat="37.167017" lon="-3.133083">
        <ele>3199.0</ele>
        <time>2014-07-12T14:10:03Z</time>
      </trkpt>
      <trkpt lat="37.166883" lon="-3.132517">
        <ele>3202.0</ele>
        <time>2014-07-12T14:10:06Z</time>
      </trkpt>
      <trkpt lat="37.166950" lon="-3.131900">
        <ele>3204.0</ele>
        <time>2014-07-12T14:10:09Z</time>
      </trkpt>
      <trkpt lat="37.167167" lon="-3.131483">
        <ele>3206.0</ele>
        <time>2014-07-12T14:10:12Z</time>
      </trkpt>
      <trkpt lat="37.167383" lon="-3.131417">
        <ele>3208.0</ele>
        <time>2014-07-12T14:10:15Z</time>
      </trkpt>
      <trkpt lat="37.167367" lon="-3.131533">
        <ele>3209.0</ele>
        <time>2014-07-12T14:10:18Z</time>
      </trkpt>
      <trkpt lat="37.167117" lon="-3.131533">
        <ele>3210.0</ele>
        <time>2014-07-12T14:10:21Z</time>
      </trkpt>
      <trkpt lat="37.166750" lon="-3.130933">
        <ele>3212.0</ele>
        <time>2014-07-12T14:10:24Z</time>
      </trkpt>
      <trkpt lat="37.166783" lon="-3.130317">
        <ele>3214.0</ele>
        <time>2014-07-12T14:10:27Z</time>
      </trkpt>
      <trkpt lat="37.166983" lon="-3.129867">
        <ele>3216.0</ele>
        <time>2014-07-12T14:10:30Z</time>
      </trkpt>
      <trkpt lat="37.167250" lon="-3.129600">
        <ele>3218.0</ele>
        <time>2014-07-12T14:10:34Z</time>
      </trkpt>
      <trkpt lat="37.167450" lon="-3.129583">
        <ele>3220.0</ele>
        <time>2014-07-12T14:10:37Z</time>
      </trkpt>
      <trkpt lat="37.167467" lon="-3.129733">
        <ele>3222.0</ele>
        <time>2014-07-12T14:10:40Z</time>
      </trkpt>
      <trkpt lat="37.167217" lon="-3.129800">
        <ele>3223.0</ele>
        <time>2014-07-12T14:10:43Z</time>
      </trkpt>
      <trkpt lat="37.166917" lon="-3.129617">
        <ele>3226.0</ele>
        <time>2014-07-12T14:10:46Z</time>
      </trkpt>
      <trkpt lat="37.166650" lon="-3.129150">
        <ele>3228.0</ele>
        <time>2014-07-12T14:10:49Z</time>
      </trkpt>
      <trkpt lat="37.166600" lon="-3.128517">
        <ele>3230.0</ele>
        <time>2014-07-12T14:10:52Z</time>
      </trkpt>
      <trkpt lat="37.166767" lon="-3.128050">
        <ele>3232.0</ele>
        <time>2014-07-12T14:10:55Z</time>
      </trkpt>
      <trkpt lat="37.166983" lon="-3.127783">
        <ele>3234.0</ele>
        <time>2014-07-12T14:10:58Z</time>
      </trkpt>
      <trkpt lat="37.167200" lon="-3.127767">
        <ele>3237.0</ele>
        <time>2014-07-12T14:11:01Z</time>
      </trkpt>
      <trkpt lat="37.167267" lon="-3.127933">
        <ele>3239.0</ele>
        <time>2014-07-12T14:11:04Z</time>
      </trkpt>
      <trkpt lat="37.167083" lon="-3.128067">
        <ele>3243.0</ele>
        <time>2014-07-12T14:11:07Z</time>
      </trkpt>
      <trkpt lat="37.166767" lon="-3.127950">
        <ele>3244.0</ele>
        <time>2014-07-12T14:11:10Z</time>
      </trkpt>
      <trkpt lat="37.166467" lon="-3.127517">
        <ele>3247.0</ele>
        <time>2014-07-12T14:11:13Z</time>
      </trkpt>
      <trkpt lat="37.166350" lon="-3.126967">
        <ele>3250.0</ele>
        <time>2014-07-12T14:11:16Z</time>
      </trkpt>
      <trkpt lat="37.166467" lon="-3.126483">
        <ele>3252.0</ele>
        <time>2014-07-12T14:11:19Z</time>
      </trkpt>
      <trkpt lat="37.166717" lon="-3.126283">
        <ele>3255.0</ele>
        <time>2014-07-12T14:11:22Z</time>
      </trkpt>
      <trkpt lat="37.166850" lon="-3.126367">
        <ele>3257.0</ele>
        <time>2014-07-12T14:11:25Z</time>
      </trkpt>
      <trkpt lat="37.166783" lon="-3.126517">
        <ele>3259.0</ele>
        <time>2014-07-12T14:11:28Z</time>
      </trkpt>
      <trkpt lat="37.166500" lon="-3.126550">
        <ele>3261.0</ele>
        <time>2014-07-12T14:11:31Z</time>
      </trkpt>
      <trkpt lat="37.166183" lon="-3.126300">
        <ele>3263.0</ele>
        <time>2014-07-12T14:11:34Z</time>
      </trkpt>
      <trkpt lat="37.165950" lon="-3.125817">
        <ele>3264.0</ele>
        <time>2014-07-12T14:11:37Z</time>
      </trkpt>
      <trkpt lat="37.165933" lon="-3.125267">
        <ele>3266.0</ele>
        <time>2014-07-12T14:11:40Z</time>
      </trkpt>
      <trkpt lat="37.166100" lon="-3.124850">
        <ele>3268.0</ele>
        <time>2014-07-12T14:11:43Z</time>
      </trkpt>
      <trkpt lat="37.166333" lon="-3.124750">
        <ele>3269.0</ele>
        <time>2014-07-12T14:11:46Z</time>
      </trkpt>
      <trkpt lat="37.166400" lon="-3.124883">
        <ele>3270.0</ele>
        <time>2014-07-12T14:11:49Z</time>
      </trkpt>
      <trkpt lat="37.166217" lon="-3.125017">
        <ele>3271.0</ele>
        <time>2014-07-12T14:11:52Z</time>
      </trkpt>
      <trkpt lat="37.165900" lon="-3.124817">
        <ele>3272.0</ele>
        <time>2014-07-12T14:11:55Z</time>
      </trkpt>
      <trkpt lat="37.165600" lon="-3.124383">
        <ele>3273.0</ele>
        <time>2014-07-12T14:11:58Z</time>
      </trkpt>
      <trkpt lat="37.165367" lon="-3.123817">
        <ele>3274.0</ele>
        <time>2014-07-12T14:12:01Z</time>
      </trkpt>
      <trkpt lat="37.165350" lon="-3.123200">
        <ele>3276.0</ele>
        <time>2014-07-12T14:12:04Z</time>
      </trkpt>
      <trkpt lat="37.165483" lon="-3.122650">
        <ele>3277.0</ele>
        <time>2014-07-12T14:12:07Z</time>
      </trkpt>
      <trkpt lat="37.165683" lon="-3.122333">
        <ele>3280.0</ele>
        <time>2014-07-12T14:12:10Z</time>
      </trkpt>
      <trkpt lat="37.165833" lon="-3.122400">
        <ele>3282.0</ele>
        <time>2014-07-12T14:12:13Z</time>
      </trkpt>
      <trkpt lat="37.165600" lon="-3.122517">
        <ele>3284.0</ele>
        <time>2014-07-12T14:12:16Z</time>
      </trkpt>
      <trkpt lat="37.165367" lon="-3.122100">
        <ele>3285.0</ele>
        <time>2014-07-12T14:12:19Z</time>
      </trkpt>
      <trkpt lat="37.165533" lon="-3.121700">
        <ele>3287.0</ele>
        <time>2014-07-12T14:12:22Z</time>
      </trkpt>
      <trkpt lat="37.165717" lon="-3.121567">
        <ele>3287.0</ele>
        <time>2014-07-12T14:12:25Z</time>
      </trkpt>
      <trkpt lat="37.165633" lon="-3.121733">
        <ele>3290.0</ele>
        <time>2014-07-12T14:12:28Z</time>
      </trkpt>
      <trkpt lat="37.165333" lon="-3.121767">
        <ele>3291.0</ele>
        <time>2014-07-12T14:12:31Z</time>
      </trkpt>
      <trkpt lat="37.165033" lon="-3.121383">
        <ele>3292.0</ele>
        <time>2014-07-12T14:12:34Z</time>
      </trkpt>
      <trkpt lat="37.165050" lon="-3.120867">
        <ele>3295.0</ele>
        <time>2014-07-12T14:12:37Z</time>
      </trkpt>
      <trkpt lat="37.165217" lon="-3.120617">
        <ele>3299.0</ele>
        <time>2014-07-12T14:12:40Z</time>
      </trkpt>
      <trkpt lat="37.165450" lon="-3.120550">
        <ele>3302.0</ele>
        <time>2014-07-12T14:12:43Z</time>
      </trkpt>
      <trkpt lat="37.165600" lon="-3.120650">
        <ele>3306.0</ele>
        <time>2014-07-12T14:12:46Z</time>
      </trkpt>
      <trkpt lat="37.165433" lon="-3.120817">
        <ele>3308.0</ele>
        <time>2014-07-12T14:12:49Z</time>
      </trkpt>
      <trkpt lat="37.165000" lon="-3.120517">
        <ele>3308.0</ele>
        <time>2014-07-12T14:12:52Z</time>
      </trkpt>
      <trkpt lat="37.164800" lon="-3.120000">
        <ele>3311.0</ele>
        <time>2014-07-12T14:12:55Z</time>
      </trkpt>
      <trkpt lat="37.164750" lon="-3.119483">
        <ele>3314.0</ele>
        <time>2014-07-12T14:12:58Z</time>
      </trkpt>
      <trkpt lat="37.164817" lon="-3.119067">
        <ele>3318.0</ele>
        <time>2014-07-12T14:13:01Z</time>
      </trkpt>
      <trkpt lat="37.165017" lon="-3.118900">
        <ele>3322.0</ele>
        <time>2014-07-12T14:13:05Z</time>
      </trkpt>
      <trkpt lat="37.165100" lon="-3.118983">
        <ele>3324.0</ele>
        <time>2014-07-12T14:13:08Z</time>
      </trkpt>
      <trkpt lat="37.165050" lon="-3.119117">
        <ele>3326.0</ele>
        <time>2014-07-12T14:13:11Z</time>
      </trkpt>
      <trkpt lat="37.164817" lon="-3.119200">
        <ele>3330.0</ele>
        <time>2014-07-12T14:13:14Z</time>
      </trkpt>
      <trkpt lat="37.164450" lon="-3.119050">
        <ele>3334.0</ele>
        <time>2014-07-12T14:13:17Z</time>
      </trkpt>
      <trkpt lat="37.164100" lon="-3.118733">
        <ele>3337.0</ele>
        <time>2014-07-12T14:13:20Z</time>
      </trkpt>
      <trkpt lat="37.163833" lon="-3.118300">
        <ele>3341.0</ele>
        <time>2014-07-12T14:13:23Z</time>
      </trkpt>
      <trkpt lat="37.163817" lon="-3.117783">
        <ele>3345.0</ele>
        <time>2014-07-12T14:13:26Z</time>
      </trkpt>
      <trkpt lat="37.164000" lon="-3.117567">
        <ele>3349.0</ele>
        <time>2014-07-12T14:13:29Z</time>
      </trkpt>
      <trkpt lat="37.164117" lon="-3.117650">
        <ele>3351.0</ele>
        <time>2014-07-12T14:13:32Z</time>
      </trkpt>
      <trkpt lat="37.164083" lon="-3.117800">
        <ele>3354.0</ele>
        <time>2014-07-12T14:13:35Z</time>
      </trkpt>
      <trkpt lat="37.163867" lon="-3.117883">
        <ele>3354.0</ele>
        <time>2014-07-12T14:13:38Z</time>
      </trkpt>
      <trkpt lat="37.163567" lon="-3.117650">
        <ele>3354.0</ele>
        <time>2014-07-12T14:13:41Z</time>
      </trkpt>
      <trkpt lat="37.163300" lon="-3.117133">
        <ele>3356.0</ele>
        <time>2014-07-12T14:13:44Z</time>
      </trkpt>
      <trkpt lat="37.163233" lon="-3.116567">
        <ele>3359.0</ele>
        <time>2014-07-12T14:13:47Z</time>
      </trkpt>
      <trkpt lat="37.163333" lon="-3.116133">
        <ele>3362.0</ele>
        <time>2014-07-12T14:13:50Z</time>
      </trkpt>
      <trkpt lat="37.163533" lon="-3.115867">
        <ele>3364.0</ele>
        <time>2014-07-12T14:13:53Z</time>
      </trkpt>
      <trkpt lat="37.163717" lon="-3.115783">
        <ele>3365.0</ele>
        <time>2014-07-12T14:13:56Z</time>
      </trkpt>
      <trkpt lat="37.163800" lon="-3.115917">
        <ele>3366.0</ele>
        <time>2014-07-12T14:13:59Z</time>
      </trkpt>
      <trkpt lat="37.163650" lon="-3.116017">
        <ele>3368.0</ele>
        <time>2014-07-12T14:14:02Z</time>
      </trkpt>
      <trkpt lat="37.163317" lon="-3.115850">
        <ele>3369.0</ele>
        <time>2014-07-12T14:14:05Z</time>
      </trkpt>
      <trkpt lat="37.163017" lon="-3.115433">
        <ele>3372.0</ele>
        <time>2014-07-12T14:14:08Z</time>
      </trkpt>
      <trkpt lat="37.162867" lon="-3.114850">
        <ele>3375.0</ele>
        <time>2014-07-12T14:14:11Z</time>
      </trkpt>
      <trkpt lat="37.162933" lon="-3.114383">
        <ele>3378.0</ele>
        <time>2014-07-12T14:14:14Z</time>
      </trkpt>
      <trkpt lat="37.163150" lon="-3.114150">
        <ele>3381.0</ele>
        <time>2014-07-12T14:14:17Z</time>
      </trkpt>
      <trkpt lat="37.163367" lon="-3.114100">
        <ele>3385.0</ele>
        <time>2014-07-12T14:14:20Z</time>
      </trkpt>
      <trkpt lat="37.163400" lon="-3.114200">
        <ele>3386.0</ele>
        <time>2014-07-12T14:14:23Z</time>
      </trkpt>
      <trkpt lat="37.163233" lon="-3.114317">
        <ele>3390.0</ele>
        <time>2014-07-12T14:14:26Z</time>
      </trkpt>
      <trkpt lat="37.162950" lon="-3.114267">
        <ele>3393.0</ele>
        <time>2014-07-12T14:14:29Z</time>
      </trkpt>
      <trkpt lat="37.162617" lon="-3.113950">
        <ele>3396.0</ele>
        <time>2014-07-12T14:14:32Z</time>
      </trkpt>
      <trkpt lat="37.162467" lon="-3.113383">
        <ele>3399.0</ele>
        <time>2014-07-12T14:14:35Z</time>
      </trkpt>
      <trkpt lat="37.162550" lon="-3.112917">
        <ele>3401.0</ele>
        <time>2014-07-12T14:14:38Z</time>
      </trkpt>
      <trkpt lat="37.162700" lon="-3.112700">
        <ele>0.0</ele>
        <time>2014-07-12T14:14:41Z</time>
      </trkpt>
      <trkpt lat="37.163017" lon="-3.112500">
        <ele>3404.0</ele>
        <time>2014-07-12T14:14:44Z</time>
      </trkpt>
      <trkpt lat="37.163200" lon="-3.112533">
        <ele>3406.0</ele>
        <time>2014-07-12T14:14:47Z</time>
      </trkpt>
      <trkpt lat="37.163250" lon="-3.112667">
        <ele>3406.0</ele>
        <time>2014-07-12T14:14:50Z</time>
      </trkpt>
      <trkpt lat="37.163133" lon="-3.112800">
        <ele>3407.0</ele>
        <time>2014-07-12T14:14:53Z</time>
      </trkpt>
      <trkpt lat="37.162867" lon="-3.112867">
        <ele>3407.0</ele>
        <time>2014-07-12T14:14:56Z</time>
      </trkpt>
      <trkpt lat="37.162517" lon="-3.112600">
        <ele>3407.0</ele>
        <time>2014-07-12T14:14:59Z</time>
      </trkpt>
      <trkpt lat="37.162283" lon="-3.112050">
        <ele>3407.0</ele>
        <time>2014-07-12T14:15:02Z</time>
      </trkpt>
      <trkpt lat="37.162250" lon="-3.111450">
        <ele>3407.0</ele>
        <time>2014-07-12T14:15:05Z</time>
      </trkpt>
      <trkpt lat="37.162400" lon="-3.110950">
        <ele>3406.0</ele>
        <time>2014-07-12T14:15:08Z</time>
      </trkpt>
      <trkpt lat="37.162583" lon="-3.110550">
        <ele>3406.0</ele>
        <time>2014-07-12T14:15:11Z</time>
      </trkpt>
      <trkpt lat="37.162800" lon="-3.110217">
        <ele>3406.0</ele>
        <time>2014-07-12T14:15:14Z</time>
      </trkpt>
      <trkpt lat="37.163000" lon="-3.109983">
        <ele>3406.0</ele>
        <time>2014-07-12T14:15:17Z</time>
      </trkpt>
      <trkpt lat="37.163300" lon="-3.109667">
        <ele>3405.0</ele>
        <time>2014-07-12T14:15:20Z</time>
      </trkpt>
      <trkpt lat="37.163483" lon="-3.109450">
        <ele>3405.0</ele>
        <time>2014-07-12T14:15:23Z</time>
      </trkpt>
      <trkpt lat="37.163700" lon="-3.109267">
        <ele>3405.0</ele>
        <time>2014-07-12T14:15:26Z</time>
      </trkpt>
      <trkpt lat="37.163900" lon="-3.109067">
        <ele>3404.0</ele>
        <time>2014-07-12T14:15:29Z</time>
      </trkpt>
      <trkpt lat="37.164117" lon="-3.108883">
        <ele>3403.0</ele>
        <time>2014-07-12T14:15:32Z</time>
      </trkpt>
      <trkpt lat="37.164183" lon="-3.108817">
        <ele>0.0</ele>
        <time>2014-07-12T14:15:36Z</time>
      </trkpt>
      <trkpt lat="37.164517" lon="-3.108467">
        <ele>3401.0</ele>
        <time>2014-07-12T14:15:39Z</time>
      </trkpt>
      <trkpt lat="37.164750" lon="-3.108200">
        <ele>3399.0</ele>
        <time>2014-07-12T14:15:42Z</time>
      </trkpt>
      <trkpt lat="37.164967" lon="-3.107983">
        <ele>3397.0</ele>
        <time>2014-07-12T14:15:45Z</time>
      </trkpt>
      <trkpt lat="37.165133" lon="-3.107800">
        <ele>3394.0</ele>
        <time>2014-07-12T14:15:48Z</time>
      </trkpt>
      <trkpt lat="37.165333" lon="-3.107583">
        <ele>3391.0</ele>
        <time>2014-07-12T14:15:51Z</time>
      </trkpt>
      <trkpt lat="37.165517" lon="-3.107333">
        <ele>3388.0</ele>
        <time>2014-07-12T14:15:54Z</time>
      </trkpt>
      <trkpt lat="37.165750" lon="-3.107100">
        <ele>3385.0</ele>
        <time>2014-07-12T14:15:57Z</time>
      </trkpt>
      <trkpt lat="37.165967" lon="-3.106867">
        <ele>3383.0</ele>
        <time>2014-07-12T14:16:00Z</time>
      </trkpt>
      <trkpt lat="37.166167" lon="-3.106567">
        <ele>3381.0</ele>
        <time>2014-07-12T14:16:03Z</time>
      </trkpt>
      <trkpt lat="37.166350" lon="-3.106333">
        <ele>3379.0</ele>
        <time>2014-07-12T14:16:06Z</time>
      </trkpt>
      <trkpt lat="37.166567" lon="-3.106083">
        <ele>3377.0</ele>
        <time>2014-07-12T14:16:09Z</time>
      </trkpt>
      <trkpt lat="37.166800" lon="-3.105850">
        <ele>3376.0</ele>
        <time>2014-07-12T14:16:12Z</time>
      </trkpt>
      <trkpt lat="37.167017" lon="-3.105550">
        <ele>3374.0</ele>
        <time>2014-07-12T14:16:15Z</time>
      </trkpt>
      <trkpt lat="37.167217" lon="-3.105217">
        <ele>3372.0</ele>
        <time>2014-07-12T14:16:18Z</time>
      </trkpt>
      <trkpt lat="37.167383" lon="-3.104917">
        <ele>3369.0</ele>
        <time>2014-07-12T14:16:21Z</time>
      </trkpt>
      <trkpt lat="37.167583" lon="-3.104600">
        <ele>3366.0</ele>
        <time>2014-07-12T14:16:24Z</time>
      </trkpt>
      <trkpt lat="37.167783" lon="-3.104283">
        <ele>3363.0</ele>
        <time>2014-07-12T14:16:27Z</time>
      </trkpt>
      <trkpt lat="37.167983" lon="-3.103933">
        <ele>3360.0</ele>
        <time>2014-07-12T14:16:30Z</time>
      </trkpt>
      <trkpt lat="37.168133" lon="-3.103683">
        <ele>0.0</ele>
        <time>2014-07-12T14:16:33Z</time>
      </trkpt>
      <trkpt lat="37.168417" lon="-3.103217">
        <ele>3354.0</ele>
        <time>2014-07-12T14:16:36Z</time>
      </trkpt>
      <trkpt lat="37.168600" lon="-3.102833">
        <ele>3352.0</ele>
        <time>2014-07-12T14:16:39Z</time>
      </trkpt>
      <trkpt lat="37.168733" lon="-3.102350">
        <ele>3349.0</ele>
        <time>2014-07-12T14:16:42Z</time>
      </trkpt>
      <trkpt lat="37.168867" lon="-3.101800">
        <ele>3347.0</ele>
        <time>2014-07-12T14:16:45Z</time>
      </trkpt>
      <trkpt lat="37.169017" lon="-3.101217">
        <ele>3345.0</ele>
        <time>2014-07-12T14:16:48Z</time>
      </trkpt>
      <trkpt lat="37.169183" lon="-3.100633">
        <ele>3343.0</ele>
        <time>2014-07-12T14:16:51Z</time>
      </trkpt>
      <trkpt lat="37.169383" lon="-3.100083">
        <ele>3342.0</ele>
        <time>2014-07-12T14:16:54Z</time>
      </trkpt>
      <trkpt lat="37.169567" lon="-3.099600">
        <ele>3342.0</ele>
        <time>2014-07-12T14:16:57Z</time>
      </trkpt>
      <trkpt lat="37.169783" lon="-3.099117">
        <ele>3341.0</ele>
        <time>2014-07-12T14:17:00Z</time>
      </trkpt>
      <trkpt lat="37.169983" lon="-3.098683">
        <ele>3341.0</ele>
        <time>2014-07-12T14:17:03Z</time>
      </trkpt>
      <trkpt lat="37.170183" lon="-3.098200">
        <ele>3341.0</ele>
        <time>2014-07-12T14:17:06Z</time>
      </trkpt>
      <trkpt lat="37.170433" lon="-3.097867">
        <ele>3340.0</ele>
        <time>2014-07-12T14:17:09Z</time>
      </trkpt>
      <trkpt lat="37.170650" lon="-3.097767">
        <ele>3339.0</ele>
        <time>2014-07-12T14:17:12Z</time>
      </trkpt>
      <trkpt lat="37.170783" lon="-3.097850">
        <ele>3337.0</ele>
        <time>2014-07-12T14:17:15Z</time>
      </trkpt>
      <trkpt lat="37.170850" lon="-3.098067">
        <ele>3335.0</ele>
        <time>2014-07-12T14:17:18Z</time>
      </trkpt>
      <trkpt lat="37.170850" lon="-3.098267">
        <ele>3334.0</ele>
        <time>2014-07-12T14:17:21Z</time>
      </trkpt>
      <trkpt lat="37.170800" lon="-3.098483">
        <ele>3333.0</ele>
        <time>2014-07-12T14:17:24Z</time>
      </trkpt>
      <trkpt lat="37.170717" lon="-3.098667">
        <ele>3332.0</ele>
        <time>2014-07-12T14:17:27Z</time>
      </trkpt>
      <trkpt lat="37.170583" lon="-3.098817">
        <ele>3330.0</ele>
        <time>2014-07-12T14:17:30Z</time>
      </trkpt>
      <trkpt lat="37.170417" lon="-3.098967">
        <ele>3329.0</ele>
        <time>2014-07-12T14:17:33Z</time>
      </trkpt>
      <trkpt lat="37.170183" lon="-3.099033">
        <ele>3328.0</ele>
        <time>2014-07-12T14:17:36Z</time>
      </trkpt>
      <trkpt lat="37.169917" lon="-3.098883">
        <ele>3327.0</ele>
        <time>2014-07-12T14:17:39Z</time>
      </trkpt>
      <trkpt lat="37.169583" lon="-3.098367">
        <ele>3326.0</ele>
        <time>2014-07-12T14:17:42Z</time>
      </trkpt>
      <trkpt lat="37.169450" lon="-3.097800">
        <ele>3325.0</ele>
        <time>2014-07-12T14:17:45Z</time>
      </trkpt>
      <trkpt lat="37.169500" lon="-3.097217">
        <ele>3324.0</ele>
        <time>2014-07-12T14:17:48Z</time>
      </trkpt>
      <trkpt lat="37.169750" lon="-3.096833">
        <ele>3323.0</ele>
        <time>2014-07-12T14:17:51Z</time>
      </trkpt>
      <trkpt lat="37.169967" lon="-3.096733">
        <ele>3323.0</ele>
        <time>2014-07-12T14:17:54Z</time>
      </trkpt>
      <trkpt lat="37.170050" lon="-3.096900">
        <ele>3322.0</ele>
        <time>2014-07-12T14:17:58Z</time>
      </trkpt>
      <trkpt lat="37.169983" lon="-3.097067">
        <ele>3321.0</ele>
        <time>2014-07-12T14:18:01Z</time>
      </trkpt>
      <trkpt lat="37.169817" lon="-3.097200">
        <ele>3320.0</ele>
        <time>2014-07-12T14:18:04Z</time>
      </trkpt>
      <trkpt lat="37.169550" lon="-3.097350">
        <ele>3318.0</ele>
        <time>2014-07-12T14:18:07Z</time>
      </trkpt>
      <trkpt lat="37.169267" lon="-3.097483">
        <ele>3316.0</ele>
        <time>2014-07-12T14:18:10Z</time>
      </trkpt>
      <trkpt lat="37.168983" lon="-3.097633">
        <ele>3314.0</ele>
        <time>2014-07-12T14:18:13Z</time>
      </trkpt>
      <trkpt lat="37.168650" lon="-3.097783">
        <ele>3313.0</ele>
        <time>2014-07-12T14:18:16Z</time>
      </trkpt>
      <trkpt lat="37.168283" lon="-3.097883">
        <ele>3312.0</ele>
        <time>2014-07-12T14:18:19Z</time>
      </trkpt>
      <trkpt lat="37.167900" lon="-3.097917">
        <ele>3311.0</ele>
        <time>2014-07-12T14:18:22Z</time>
      </trkpt>
      <trkpt lat="37.167500" lon="-3.097967">
        <ele>3310.0</ele>
        <time>2014-07-12T14:18:25Z</time>
      </trkpt>
      <trkpt lat="37.167133" lon="-3.097900">
        <ele>3310.0</ele>
        <time>2014-07-12T14:18:28Z</time>
      </trkpt>
      <trkpt lat="37.166850" lon="-3.097767">
        <ele>3311.0</ele>
        <time>2014-07-12T14:18:31Z</time>
      </trkpt>
      <trkpt lat="37.166567" lon="-3.097617">
        <ele>3312.0</ele>
        <time>2014-07-12T14:18:34Z</time>
      </trkpt>
      <trkpt lat="37.166300" lon="-3.097233">
        <ele>3313.0</ele>
        <time>2014-07-12T14:18:37Z</time>
      </trkpt>
      <trkpt lat="37.166033" lon="-3.096800">
        <ele>3314.0</ele>
        <time>2014-07-12T14:18:40Z</time>
      </trkpt>
      <trkpt lat="37.165783" lon="-3.096283">
        <ele>3314.0</ele>
        <time>2014-07-12T14:18:43Z</time>
      </trkpt>
      <trkpt lat="37.165683" lon="-3.095683">
        <ele>3315.0</ele>
        <time>2014-07-12T14:18:46Z</time>
      </trkpt>
      <trkpt lat="37.165767" lon="-3.095117">
        <ele>3316.0</ele>
        <time>2014-07-12T14:18:49Z</time>
      </trkpt>
      <trkpt lat="37.165967" lon="-3.094817">
        <ele>3317.0</ele>
        <time>2014-07-12T14:18:52Z</time>
      </trkpt>
      <trkpt lat="37.166017" lon="-3.094817">
        <ele>3318.0</ele>
        <time>2014-07-12T14:18:55Z</time>
      </trkpt>
      <trkpt lat="37.165733" lon="-3.094817">
        <ele>3318.0</ele>
        <time>2014-07-12T14:18:58Z</time>
      </trkpt>
      <trkpt lat="37.165417" lon="-3.094467">
        <ele>3318.0</ele>
        <time>2014-07-12T14:19:01Z</time>
      </trkpt>
      <trkpt lat="37.165317" lon="-3.093917">
        <ele>3320.0</ele>
        <time>2014-07-12T14:19:04Z</time>
      </trkpt>
      <trkpt lat="37.165467" lon="-3.093450">
        <ele>3323.0</ele>
        <time>2014-07-12T14:19:07Z</time>
      </trkpt>
      <trkpt lat="37.165700" lon="-3.093183">
        <ele>3326.0</ele>
        <time>2014-07-12T14:19:10Z</time>
      </trkpt>
      <trkpt lat="37.165833" lon="-3.093117">
        <ele>3329.0</ele>
        <time>2014-07-12T14:19:13Z</time>
      </trkpt>
      <trkpt lat="37.165800" lon="-3.093183">
        <ele>3331.0</ele>
        <time>2014-07-12T14:19:16Z</time>
      </trkpt>
      <trkpt lat="37.165533" lon="-3.093183">
        <ele>3334.0</ele>
        <time>2014-07-12T14:19:19Z</time>
      </trkpt>
      <trkpt lat="37.165150" lon="-3.092983">
        <ele>3338.0</ele>
        <time>2014-07-12T14:19:22Z</time>
      </trkpt>
      <trkpt lat="37.164783" lon="-3.092583">
        <ele>3343.0</ele>
        <time>2014-07-12T14:19:25Z</time>
      </trkpt>
      <trkpt lat="37.164550" lon="-3.092067">
        <ele>3347.0</ele>
        <time>2014-07-12T14:19:28Z</time>
      </trkpt>
      <trkpt lat="37.164483" lon="-3.091500">
        <ele>3350.0</ele>
        <time>2014-07-12T14:19:31Z</time>
      </trkpt>
      <trkpt lat="37.164617" lon="-3.090983">
        <ele>3353.0</ele>
        <time>2014-07-12T14:19:34Z</time>
      </trkpt>
      <trkpt lat="37.164850" lon="-3.090767">
        <ele>3356.0</ele>
        <time>2014-07-12T14:19:37Z</time>
      </trkpt>
      <trkpt lat="37.164917" lon="-3.090767">
        <ele>3358.0</ele>
        <time>2014-07-12T14:19:40Z</time>
      </trkpt>
      <trkpt lat="37.164783" lon="-3.090817">
        <ele>3360.0</ele>
        <time>2014-07-12T14:19:43Z</time>
      </trkpt>
      <trkpt lat="37.164467" lon="-3.090767">
        <ele>3363.0</ele>
        <time>2014-07-12T14:19:46Z</time>
      </trkpt>
      <trkpt lat="37.164100" lon="-3.090400">
        <ele>3365.0</ele>
        <time>2014-07-12T14:19:49Z</time>
      </trkpt>
      <trkpt lat="37.163900" lon="-3.089850">
        <ele>3367.0</ele>
        <time>2014-07-12T14:19:52Z</time>
      </trkpt>
      <trkpt lat="37.163800" lon="-3.089283">
        <ele>3368.0</ele>
        <time>2014-07-12T14:19:55Z</time>
      </trkpt>
      <trkpt lat="37.163900" lon="-3.088733">
        <ele>3370.0</ele>
        <time>2014-07-12T14:19:58Z</time>
      </trkpt>
      <trkpt lat="37.164133" lon="-3.088367">
        <ele>3373.0</ele>
        <time>2014-07-12T14:20:01Z</time>
      </trkpt>
      <trkpt lat="37.164383" lon="-3.088167">
        <ele>3375.0</ele>
        <time>2014-07-12T14:20:04Z</time>
      </trkpt>
      <trkpt lat="37.164567" lon="-3.087800">
        <ele>3376.0</ele>
        <time>2014-07-12T14:20:07Z</time>
      </trkpt>
      <trkpt lat="37.164700" lon="-3.087233">
        <ele>3377.0</ele>
        <time>2014-07-12T14:20:10Z</time>
      </trkpt>
      <trkpt lat="37.164933" lon="-3.086533">
        <ele>3379.0</ele>
        <time>2014-07-12T14:20:13Z</time>
      </trkpt>
      <trkpt lat="37.165167" lon="-3.086000">
        <ele>3380.0</ele>
        <time>2014-07-12T14:20:16Z</time>
      </trkpt>
      <trkpt lat="37.165350" lon="-3.085517">
        <ele>3380.0</ele>
        <time>2014-07-12T14:20:19Z</time>
      </trkpt>
      <trkpt lat="37.165633" lon="-3.085283">
        <ele>3381.0</ele>
        <time>2014-07-12T14:20:22Z</time>
      </trkpt>
      <trkpt lat="37.165883" lon="-3.085250">
        <ele>3380.0</ele>
        <time>2014-07-12T14:20:25Z</time>
      </trkpt>
      <trkpt lat="37.165967" lon="-3.085383">
        <ele>3380.0</ele>
        <time>2014-07-12T14:20:29Z</time>
      </trkpt>
      <trkpt lat="37.165917" lon="-3.085550">
        <ele>3380.0</ele>
        <time>2014-07-12T14:20:32Z</time>
      </trkpt>
      <trkpt lat="37.165700" lon="-3.085583">
        <ele>3378.0</ele>
        <time>2014-07-12T14:20:35Z</time>
      </trkpt>
      <trkpt lat="37.165433" lon="-3.085283">
        <ele>3376.0</ele>
        <time>2014-07-12T14:20:38Z</time>
      </trkpt>
      <trkpt lat="37.165400" lon="-3.084717">
        <ele>3374.0</ele>
        <time>2014-07-12T14:20:41Z</time>
      </trkpt>
      <trkpt lat="37.165583" lon="-3.084233">
        <ele>3372.0</ele>
        <time>2014-07-12T14:20:44Z</time>
      </trkpt>
      <trkpt lat="37.165767" lon="-3.083850">
        <ele>3370.0</ele>
        <time>2014-07-12T14:20:47Z</time>
      </trkpt>
      <trkpt lat="37.166017" lon="-3.083450">
        <ele>3367.0</ele>
        <time>2014-07-12T14:20:50Z</time>
      </trkpt>
      <trkpt lat="37.166250" lon="-3.083033">
        <ele>3365.0</ele>
        <time>2014-07-12T14:20:53Z</time>
      </trkpt>
      <trkpt lat="37.166533" lon="-3.082617">
        <ele>3362.0</ele>
        <time>2014-07-12T14:20:56Z</time>
      </trkpt>
      <trkpt lat="37.166817" lon="-3.082267">
        <ele>3359.0</ele>
        <time>2014-07-12T14:20:59Z</time>
      </trkpt>
      <trkpt lat="37.167017" lon="-3.081950">
        <ele>3356.0</ele>
        <time>2014-07-12T14:21:02Z</time>
      </trkpt>
      <trkpt lat="37.167267" lon="-3.081633">
        <ele>3353.0</ele>
        <time>2014-07-12T14:21:05Z</time>
      </trkpt>
      <trkpt lat="37.167517" lon="-3.081317">
        <ele>3349.0</ele>
        <time>2014-07-12T14:21:08Z</time>
      </trkpt>
      <trkpt lat="37.167783" lon="-3.081033">
        <ele>3346.0</ele>
        <time>2014-07-12T14:21:11Z</time>
      </trkpt>
      <trkpt lat="37.168067" lon="-3.080750">
        <ele>3342.0</ele>
        <time>2014-07-12T14:21:14Z</time>
      </trkpt>
      <trkpt lat="37.168317" lon="-3.080483">
        <ele>3337.0</ele>
        <time>2014-07-12T14:21:17Z</time>
      </trkpt>
      <trkpt lat="37.168567" lon="-3.080183">
        <ele>3332.0</ele>
        <time>2014-07-12T14:21:20Z</time>
      </trkpt>
      <trkpt lat="37.168783" lon="-3.079900">
        <ele>3326.0</ele>
        <time>2014-07-12T14:21:23Z</time>
      </trkpt>
      <trkpt lat="37.169000" lon="-3.079583">
        <ele>3320.0</ele>
        <time>2014-07-12T14:21:26Z</time>
      </trkpt>
      <trkpt lat="37.169233" lon="-3.079250">
        <ele>3314.0</ele>
        <time>2014-07-12T14:21:29Z</time>
      </trkpt>
      <trkpt lat="37.169400" lon="-3.079017">
        <ele>3312.0</ele>
        <time>2014-07-12T14:21:31Z</time>
      </trkpt>
      <trkpt lat="37.169467" lon="-3.078900">
        <ele>3310.0</ele>
        <time>2014-07-12T14:21:32Z</time>
      </trkpt>
      <trkpt lat="37.169733" lon="-3.078533">
        <ele>3303.0</ele>
        <time>2014-07-12T14:21:35Z</time>
      </trkpt>
      <trkpt lat="37.169967" lon="-3.078200">
        <ele>3296.0</ele>
        <time>2014-07-12T14:21:38Z</time>
      </trkpt>
      <trkpt lat="37.170183" lon="-3.077850">
        <ele>3290.0</ele>
        <time>2014-07-12T14:21:41Z</time>
      </trkpt>
      <trkpt lat="37.170183" lon="-3.077850">
        <ele>0.0</ele>
        <time>2014-07-12T14:21:44Z</time>
      </trkpt>
      <trkpt lat="37.170600" lon="-3.077100">
        <ele>3284.0</ele>
        <time>2014-07-12T14:21:47Z</time>
      </trkpt>
      <trkpt lat="37.170767" lon="-3.076650">
        <ele>3278.0</ele>
        <time>2014-07-12T14:21:50Z</time>
      </trkpt>
      <trkpt lat="37.170917" lon="-3.076167">
        <ele>3272.0</ele>
        <time>2014-07-12T14:21:53Z</time>
      </trkpt>
      <trkpt lat="37.171067" lon="-3.075700">
        <ele>3266.0</ele>
        <time>2014-07-12T14:21:56Z</time>
      </trkpt>
      <trkpt lat="37.171250" lon="-3.075300">
        <ele>3261.0</ele>
        <time>2014-07-12T14:21:59Z</time>
      </trkpt>
      <trkpt lat="37.171450" lon="-3.074967">
        <ele>3256.0</ele>
        <time>2014-07-12T14:22:02Z</time>
      </trkpt>
      <trkpt lat="37.171633" lon="-3.074683">
        <ele>3252.0</ele>
        <time>2014-07-12T14:22:05Z</time>
      </trkpt>
      <trkpt lat="37.171833" lon="-3.074350">
        <ele>3248.0</ele>
        <time>2014-07-12T14:22:08Z</time>
      </trkpt>
      <trkpt lat="37.172050" lon="-3.074050">
        <ele>3244.0</ele>
        <time>2014-07-12T14:22:11Z</time>
      </trkpt>
      <trkpt lat="37.172283" lon="-3.073783">
        <ele>3241.0</ele>
        <time>2014-07-12T14:22:14Z</time>
      </trkpt>
      <trkpt lat="37.172500" lon="-3.073550">
        <ele>3238.0</ele>
        <time>2014-07-12T14:22:17Z</time>
      </trkpt>
      <trkpt lat="37.172733" lon="-3.073317">
        <ele>3235.0</ele>
        <time>2014-07-12T14:22:20Z</time>
      </trkpt>
      <trkpt lat="37.172983" lon="-3.073050">
        <ele>3232.0</ele>
        <time>2014-07-12T14:22:23Z</time>
      </trkpt>
      <trkpt lat="37.173200" lon="-3.072783">
        <ele>3230.0</ele>
        <time>2014-07-12T14:22:26Z</time>
      </trkpt>
      <trkpt lat="37.173433" lon="-3.072533">
        <ele>3228.0</ele>
        <time>2014-07-12T14:22:29Z</time>
      </trkpt>
      <trkpt lat="37.173700" lon="-3.072250">
        <ele>3225.0</ele>
        <time>2014-07-12T14:22:32Z</time>
      </trkpt>
      <trkpt lat="37.173900" lon="-3.072050">
        <ele>3223.0</ele>
        <time>2014-07-12T14:22:35Z</time>
      </trkpt>
      <trkpt lat="37.174100" lon="-3.071900">
        <ele>3220.0</ele>
        <time>2014-07-12T14:22:38Z</time>
      </trkpt>
      <trkpt lat="37.174267" lon="-3.071733">
        <ele>3220.0</ele>
        <time>2014-07-12T14:22:41Z</time>
      </trkpt>
      <trkpt lat="37.174467" lon="-3.071533">
        <ele>3220.0</ele>
        <time>2014-07-12T14:22:44Z</time>
      </trkpt>
      <trkpt lat="37.174650" lon="-3.071233">
        <ele>3217.0</ele>
        <time>2014-07-12T14:22:48Z</time>
      </trkpt>
      <trkpt lat="37.174867" lon="-3.070933">
        <ele>3215.0</ele>
        <time>2014-07-12T14:22:51Z</time>
      </trkpt>
      <trkpt lat="37.175000" lon="-3.070750">
        <ele>0.0</ele>
        <time>2014-07-12T14:22:54Z</time>
      </trkpt>
      <trkpt lat="37.175283" lon="-3.070383">
        <ele>3212.0</ele>
        <time>2014-07-12T14:22:57Z</time>
      </trkpt>
      <trkpt lat="37.175433" lon="-3.070233">
        <ele>3211.0</ele>
        <time>2014-07-12T14:22:59Z</time>
      </trkpt>
      <trkpt lat="37.175500" lon="-3.070167">
        <ele>3210.0</ele>
        <time>2014-07-12T14:23:00Z</time>
      </trkpt>
      <trkpt lat="37.175700" lon="-3.069933">
        <ele>3209.0</ele>
        <time>2014-07-12T14:23:03Z</time>
      </trkpt>
      <trkpt lat="37.175917" lon="-3.069767">
        <ele>3207.0</ele>
        <time>2014-07-12T14:23:06Z</time>
      </trkpt>
      <trkpt lat="37.176117" lon="-3.069633">
        <ele>3206.0</ele>
        <time>2014-07-12T14:23:09Z</time>
      </trkpt>
      <trkpt lat="37.176333" lon="-3.069467">
        <ele>3204.0</ele>
        <time>2014-07-12T14:23:12Z</time>
      </trkpt>
      <trkpt lat="37.176550" lon="-3.069300">
        <ele>3202.0</ele>
        <time>2014-07-12T14:23:15Z</time>
      </trkpt>
      <trkpt lat="37.176800" lon="-3.069167">
        <ele>3199.0</ele>
        <time>2014-07-12T14:23:18Z</time>
      </trkpt>
      <trkpt lat="37.177067" lon="-3.069067">
        <ele>3196.0</ele>
        <time>2014-07-12T14:23:21Z</time>
      </trkpt>
      <trkpt lat="37.177317" lon="-3.068933">
        <ele>3194.0</ele>
        <time>2014-07-12T14:23:24Z</time>
      </trkpt>
      <trkpt lat="37.177617" lon="-3.068767">
        <ele>3191.0</ele>
        <time>2014-07-12T14:23:27Z</time>
      </trkpt>
      <trkpt lat="37.177867" lon="-3.068567">
        <ele>3188.0</ele>
        <time>2014-07-12T14:23:30Z</time>
      </trkpt>
      <trkpt lat="37.178133" lon="-3.068383">
        <ele>3185.0</ele>
        <time>2014-07-12T14:23:33Z</time>
      </trkpt>
      <trkpt lat="37.178400" lon="-3.068183">
        <ele>3182.0</ele>
        <time>2014-07-12T14:23:36Z</time>
      </trkpt>
      <trkpt lat="37.178667" lon="-3.067983">
        <ele>3179.0</ele>
        <time>2014-07-12T14:23:39Z</time>
      </trkpt>
      <trkpt lat="37.178950" lon="-3.067800">
        <ele>3176.0</ele>
        <time>2014-07-12T14:23:42Z</time>
      </trkpt>
      <trkpt lat="37.179217" lon="-3.067633">
        <ele>3173.0</ele>
        <time>2014-07-12T14:23:45Z</time>
      </trkpt>
      <trkpt lat="37.179483" lon="-3.067433">
        <ele>3171.0</ele>
        <time>2014-07-12T14:23:48Z</time>
      </trkpt>
      <trkpt lat="37.179733" lon="-3.067217">
        <ele>3168.0</ele>
        <time>2014-07-12T14:23:51Z</time>
      </trkpt>
      <trkpt lat="37.180000" lon="-3.067017">
        <ele>3166.0</ele>
        <time>2014-07-12T14:23:54Z</time>
      </trkpt>
      <trkpt lat="37.180283" lon="-3.066833">
        <ele>3163.0</ele>
        <time>2014-07-12T14:23:57Z</time>
      </trkpt>
      <trkpt lat="37.180550" lon="-3.066717">
        <ele>3161.0</ele>
        <time>2014-07-12T14:24:00Z</time>
      </trkpt>
      <trkpt lat="37.180850" lon="-3.066600">
        <ele>3158.0</ele>
        <time>2014-07-12T14:24:03Z</time>
      </trkpt>
      <trkpt lat="37.181117" lon="-3.066467">
        <ele>3155.0</ele>
        <time>2014-07-12T14:24:06Z</time>
      </trkpt>
      <trkpt lat="37.181400" lon="-3.066333">
        <ele>3153.0</ele>
        <time>2014-07-12T14:24:09Z</time>
      </trkpt>
      <trkpt lat="37.181633" lon="-3.066133">
        <ele>3153.0</ele>
        <time>2014-07-12T14:24:12Z</time>
      </trkpt>
      <trkpt lat="37.181867" lon="-3.065883">
        <ele>3152.0</ele>
        <time>2014-07-12T14:24:15Z</time>
      </trkpt>
      <trkpt lat="37.182117" lon="-3.065617">
        <ele>3149.0</ele>
        <time>2014-07-12T14:24:18Z</time>
      </trkpt>
      <trkpt lat="37.182367" lon="-3.065350">
        <ele>3146.0</ele>
        <time>2014-07-12T14:24:21Z</time>
      </trkpt>
      <trkpt lat="37.182583" lon="-3.065133">
        <ele>3143.0</ele>
        <time>2014-07-12T14:24:24Z</time>
      </trkpt>
      <trkpt lat="37.182800" lon="-3.064917">
        <ele>3140.0</ele>
        <time>2014-07-12T14:24:27Z</time>
      </trkpt>
      <trkpt lat="37.183017" lon="-3.064717">
        <ele>3137.0</ele>
        <time>2014-07-12T14:24:30Z</time>
      </trkpt>
      <trkpt lat="37.183250" lon="-3.064500">
        <ele>3134.0</ele>
        <time>2014-07-12T14:24:33Z</time>
      </trkpt>
      <trkpt lat="37.183467" lon="-3.064250">
        <ele>3131.0</ele>
        <time>2014-07-12T14:24:36Z</time>
      </trkpt>
      <trkpt lat="37.183667" lon="-3.064100">
        <ele>3128.0</ele>
        <time>2014-07-12T14:24:39Z</time>
      </trkpt>
      <trkpt lat="37.183867" lon="-3.063917">
        <ele>3125.0</ele>
        <time>2014-07-12T14:24:42Z</time>
      </trkpt>
      <trkpt lat="37.184033" lon="-3.063750">
        <ele>3121.0</ele>
        <time>2014-07-12T14:24:45Z</time>
      </trkpt>
      <trkpt lat="37.184233" lon="-3.063650">
        <ele>3117.0</ele>
        <time>2014-07-12T14:24:48Z</time>
      </trkpt>
      <trkpt lat="37.184433" lon="-3.063533">
        <ele>3112.0</ele>
        <time>2014-07-12T14:24:51Z</time>
      </trkpt>
      <trkpt lat="37.184650" lon="-3.063433">
        <ele>3107.0</ele>
        <time>2014-07-12T14:24:54Z</time>
      </trkpt>
      <trkpt lat="37.184883" lon="-3.063350">
        <ele>3102.0</ele>
        <time>2014-07-12T14:24:57Z</time>
      </trkpt>
      <trkpt lat="37.185200" lon="-3.063200">
        <ele>3095.0</ele>
        <time>2014-07-12T14:25:00Z</time>
      </trkpt>
      <trkpt lat="37.185450" lon="-3.063133">
        <ele>3091.0</ele>
        <time>2014-07-12T14:25:03Z</time>
      </trkpt>
      <trkpt lat="37.185633" lon="-3.063067">
        <ele>3086.0</ele>
        <time>2014-07-12T14:25:06Z</time>
      </trkpt>
      <trkpt lat="37.185867" lon="-3.063033">
        <ele>3082.0</ele>
        <time>2014-07-12T14:25:09Z</time>
      </trkpt>
      <trkpt lat="37.186050" lon="-3.062950">
        <ele>3077.0</ele>
        <time>2014-07-12T14:25:12Z</time>
      </trkpt>
      <trkpt lat="37.186233" lon="-3.062850">
        <ele>3073.0</ele>
        <time>2014-07-12T14:25:16Z</time>
      </trkpt>
      <trkpt lat="37.186450" lon="-3.062733">
        <ele>3069.0</ele>
        <time>2014-07-12T14:25:19Z</time>
      </trkpt>
      <trkpt lat="37.186633" lon="-3.062600">
        <ele>3065.0</ele>
        <time>2014-07-12T14:25:22Z</time>
      </trkpt>
      <trkpt lat="37.186867" lon="-3.062483">
        <ele>3061.0</ele>
        <time>2014-07-12T14:25:25Z</time>
      </trkpt>
      <trkpt lat="37.187033" lon="-3.062400">
        <ele>3058.0</ele>
        <time>2014-07-12T14:25:28Z</time>
      </trkpt>
      <trkpt lat="37.187217" lon="-3.062283">
        <ele>3054.0</ele>
        <time>2014-07-12T14:25:31Z</time>
      </trkpt>
      <trkpt lat="37.187400" lon="-3.062150">
        <ele>3051.0</ele>
        <time>2014-07-12T14:25:34Z</time>
      </trkpt>
      <trkpt lat="37.187533" lon="-3.061983">
        <ele>3048.0</ele>
        <time>2014-07-12T14:25:37Z</time>
      </trkpt>
      <trkpt lat="37.187733" lon="-3.061817">
        <ele>3045.0</ele>
        <time>2014-07-12T14:25:40Z</time>
      </trkpt>
      <trkpt lat="37.187917" lon="-3.061600">
        <ele>3042.0</ele>
        <time>2014-07-12T14:25:43Z</time>
      </trkpt>
      <trkpt lat="37.188117" lon="-3.061400">
        <ele>3039.0</ele>
        <time>2014-07-12T14:25:46Z</time>
      </trkpt>
      <trkpt lat="37.188317" lon="-3.061200">
        <ele>3036.0</ele>
        <time>2014-07-12T14:25:49Z</time>
      </trkpt>
      <trkpt lat="37.188517" lon="-3.060967">
        <ele>3034.0</ele>
        <time>2014-07-12T14:25:52Z</time>
      </trkpt>
      <trkpt lat="37.188733" lon="-3.060783">
        <ele>3031.0</ele>
        <time>2014-07-12T14:25:55Z</time>
      </trkpt>
      <trkpt lat="37.188950" lon="-3.060583">
        <ele>3028.0</ele>
        <time>2014-07-12T14:25:58Z</time>
      </trkpt>
      <trkpt lat="37.189133" lon="-3.060417">
        <ele>3025.0</ele>
        <time>2014-07-12T14:26:01Z</time>
      </trkpt>
      <trkpt lat="37.189317" lon="-3.060250">
        <ele>3021.0</ele>
        <time>2014-07-12T14:26:04Z</time>
      </trkpt>
      <trkpt lat="37.189517" lon="-3.060083">
        <ele>3018.0</ele>
        <time>2014-07-12T14:26:07Z</time>
      </trkpt>
      <trkpt lat="37.189700" lon="-3.059883">
        <ele>3013.0</ele>
        <time>2014-07-12T14:26:10Z</time>
      </trkpt>
      <trkpt lat="37.189883" lon="-3.059717">
        <ele>3009.0</ele>
        <time>2014-07-12T14:26:13Z</time>
      </trkpt>
      <trkpt lat="37.190083" lon="-3.059567">
        <ele>3004.0</ele>
        <time>2014-07-12T14:26:16Z</time>
      </trkpt>
      <trkpt lat="37.190283" lon="-3.059433">
        <ele>2998.0</ele>
        <time>2014-07-12T14:26:19Z</time>
      </trkpt>
      <trkpt lat="37.190483" lon="-3.059333">
        <ele>2992.0</ele>
        <time>2014-07-12T14:26:22Z</time>
      </trkpt>
      <trkpt lat="37.190700" lon="-3.059283">
        <ele>2987.0</ele>
        <time>2014-07-12T14:26:25Z</time>
      </trkpt>
      <trkpt lat="37.190817" lon="-3.059200">
        <ele>2983.0</ele>
        <time>2014-07-12T14:26:28Z</time>
      </trkpt>
      <trkpt lat="37.190900" lon="-3.059117">
        <ele>2981.0</ele>
        <time>2014-07-12T14:26:31Z</time>
      </trkpt>
      <trkpt lat="37.191033" lon="-3.059033">
        <ele>2976.0</ele>
        <time>2014-07-12T14:26:34Z</time>
      </trkpt>
      <trkpt lat="37.191150" lon="-3.058967">
        <ele>2973.0</ele>
        <time>2014-07-12T14:26:37Z</time>
      </trkpt>
      <trkpt lat="37.191267" lon="-3.058883">
        <ele>2971.0</ele>
        <time>2014-07-12T14:26:40Z</time>
      </trkpt>
      <trkpt lat="37.191383" lon="-3.058733">
        <ele>2966.0</ele>
        <time>2014-07-12T14:26:43Z</time>
      </trkpt>
      <trkpt lat="37.191467" lon="-3.058683">
        <ele>2964.0</ele>
        <time>2014-07-12T14:26:46Z</time>
      </trkpt>
      <trkpt lat="37.191383" lon="-3.058800">
        <ele>2962.0</ele>
        <time>2014-07-12T14:26:49Z</time>
      </trkpt>
      <trkpt lat="37.191350" lon="-3.058867">
        <ele>2960.0</ele>
        <time>2014-07-12T14:26:52Z</time>
      </trkpt>
      <trkpt lat="37.191433" lon="-3.058633">
        <ele>2960.0</ele>
        <time>2014-07-12T14:26:55Z</time>
      </trkpt>
      <trkpt lat="37.191283" lon="-3.058133">
        <ele>2958.0</ele>
        <time>2014-07-12T14:26:58Z</time>
      </trkpt>
      <trkpt lat="37.190850" lon="-3.057900">
        <ele>2957.0</ele>
        <time>2014-07-12T14:27:01Z</time>
      </trkpt>
      <trkpt lat="37.190600" lon="-3.058033">
        <ele>2957.0</ele>
        <time>2014-07-12T14:27:04Z</time>
      </trkpt>
      <trkpt lat="37.190567" lon="-3.058117">
        <ele>2957.0</ele>
        <time>2014-07-12T14:27:07Z</time>
      </trkpt>
      <trkpt lat="37.190650" lon="-3.058167">
        <ele>2957.0</ele>
        <time>2014-07-12T14:27:10Z</time>
      </trkpt>
      <trkpt lat="37.190767" lon="-3.058033">
        <ele>2957.0</ele>
        <time>2014-07-12T14:27:13Z</time>
      </trkpt>
      <trkpt lat="37.190800" lon="-3.057633">
        <ele>2957.0</ele>
        <time>2014-07-12T14:27:16Z</time>
      </trkpt>
      <trkpt lat="37.190517" lon="-3.057183">
        <ele>2959.0</ele>
        <time>2014-07-12T14:27:19Z</time>
      </trkpt>
      <trkpt lat="37.190117" lon="-3.057083">
        <ele>2960.0</ele>
        <time>2014-07-12T14:27:22Z</time>
      </trkpt>
      <trkpt lat="37.189967" lon="-3.057233">
        <ele>2961.0</ele>
        <time>2014-07-12T14:27:25Z</time>
      </trkpt>
      <trkpt lat="37.190033" lon="-3.057267">
        <ele>2962.0</ele>
        <time>2014-07-12T14:27:28Z</time>
      </trkpt>
      <trkpt lat="37.190167" lon="-3.057183">
        <ele>2963.0</ele>
        <time>2014-07-12T14:27:31Z</time>
      </trkpt>
      <trkpt lat="37.190200" lon="-3.056683">
        <ele>2965.0</ele>
        <time>2014-07-12T14:27:34Z</time>
      </trkpt>
      <trkpt lat="37.189767" lon="-3.056433">
        <ele>2967.0</ele>
        <time>2014-07-12T14:27:37Z</time>
      </trkpt>
      <trkpt lat="37.189533" lon="-3.056567">
        <ele>2969.0</ele>
        <time>2014-07-12T14:27:40Z</time>
      </trkpt>
      <trkpt lat="37.189567" lon="-3.056617">
        <ele>2970.0</ele>
        <time>2014-07-12T14:27:43Z</time>
      </trkpt>
      <trkpt lat="37.189683" lon="-3.056433">
        <ele>2971.0</ele>
        <time>2014-07-12T14:27:47Z</time>
      </trkpt>
      <trkpt lat="37.189783" lon="-3.056150">
        <ele>2973.0</ele>
        <time>2014-07-12T14:27:50Z</time>
      </trkpt>
      <trkpt lat="37.189900" lon="-3.055850">
        <ele>2974.0</ele>
        <time>2014-07-12T14:27:53Z</time>
      </trkpt>
      <trkpt lat="37.190033" lon="-3.055550">
        <ele>2977.0</ele>
        <time>2014-07-12T14:27:56Z</time>
      </trkpt>
      <trkpt lat="37.190117" lon="-3.055300">
        <ele>2980.0</ele>
        <time>2014-07-12T14:27:59Z</time>
      </trkpt>
      <trkpt lat="37.190183" lon="-3.055250">
        <ele>2982.0</ele>
        <time>2014-07-12T14:28:02Z</time>
      </trkpt>
      <trkpt lat="37.190050" lon="-3.055433">
        <ele>2985.0</ele>
        <time>2014-07-12T14:28:05Z</time>
      </trkpt>
      <trkpt lat="37.189667" lon="-3.055400">
        <ele>2987.0</ele>
        <time>2014-07-12T14:28:08Z</time>
      </trkpt>
      <trkpt lat="37.189333" lon="-3.055050">
        <ele>2991.0</ele>
        <time>2014-07-12T14:28:11Z</time>
      </trkpt>
      <trkpt lat="37.189233" lon="-3.054550">
        <ele>2995.0</ele>
        <time>2014-07-12T14:28:14Z</time>
      </trkpt>
      <trkpt lat="37.189333" lon="-3.054233">
        <ele>2999.0</ele>
        <time>2014-07-12T14:28:17Z</time>
      </trkpt>
      <trkpt lat="37.189433" lon="-3.054183">
        <ele>3002.0</ele>
        <time>2014-07-12T14:28:20Z</time>
      </trkpt>
      <trkpt lat="37.189367" lon="-3.054333">
        <ele>3005.0</ele>
        <time>2014-07-12T14:28:23Z</time>
      </trkpt>
      <trkpt lat="37.189133" lon="-3.054483">
        <ele>3011.0</ele>
        <time>2014-07-12T14:28:26Z</time>
      </trkpt>
      <trkpt lat="37.188767" lon="-3.054367">
        <ele>3012.0</ele>
        <time>2014-07-12T14:28:29Z</time>
      </trkpt>
      <trkpt lat="37.188483" lon="-3.053900">
        <ele>3016.0</ele>
        <time>2014-07-12T14:28:32Z</time>
      </trkpt>
      <trkpt lat="37.188400" lon="-3.053467">
        <ele>3020.0</ele>
        <time>2014-07-12T14:28:35Z</time>
      </trkpt>
      <trkpt lat="37.188433" lon="-3.053083">
        <ele>3024.0</ele>
        <time>2014-07-12T14:28:38Z</time>
      </trkpt>
      <trkpt lat="37.188533" lon="-3.052850">
        <ele>3028.0</ele>
        <time>2014-07-12T14:28:41Z</time>
      </trkpt>
      <trkpt lat="37.188633" lon="-3.052883">
        <ele>3029.0</ele>
        <time>2014-07-12T14:28:44Z</time>
      </trkpt>
      <trkpt lat="37.188600" lon="-3.053017">
        <ele>3031.0</ele>
        <time>2014-07-12T14:28:47Z</time>
      </trkpt>
      <trkpt lat="37.188367" lon="-3.053133">
        <ele>3035.0</ele>
        <time>2014-07-12T14:28:50Z</time>
      </trkpt>
      <trkpt lat="37.187983" lon="-3.053067">
        <ele>3037.0</ele>
        <time>2014-07-12T14:28:53Z</time>
      </trkpt>
      <trkpt lat="37.187617" lon="-3.052750">
        <ele>3040.0</ele>
        <time>2014-07-12T14:28:56Z</time>
      </trkpt>
      <trkpt lat="37.187367" lon="-3.052283">
        <ele>3043.0</ele>
        <time>2014-07-12T14:28:59Z</time>
      </trkpt>
      <trkpt lat="37.187350" lon="-3.051850">
        <ele>3046.0</ele>
        <time>2014-07-12T14:29:02Z</time>
      </trkpt>
      <trkpt lat="37.187433" lon="-3.051567">
        <ele>3048.0</ele>
        <time>2014-07-12T14:29:05Z</time>
      </trkpt>
      <trkpt lat="37.187483" lon="-3.051517">
        <ele>3050.0</ele>
        <time>2014-07-12T14:29:08Z</time>
      </trkpt>
      <trkpt lat="37.187467" lon="-3.051650">
        <ele>3051.0</ele>
        <time>2014-07-12T14:29:11Z</time>
      </trkpt>
      <trkpt lat="37.187450" lon="-3.051783">
        <ele>3053.0</ele>
        <time>2014-07-12T14:29:14Z</time>
      </trkpt>
      <trkpt lat="37.187550" lon="-3.051817">
        <ele>3054.0</ele>
        <time>2014-07-12T14:29:17Z</time>
      </trkpt>
      <trkpt lat="37.187700" lon="-3.051833">
        <ele>3056.0</ele>
        <time>2014-07-12T14:29:20Z</time>
      </trkpt>
      <trkpt lat="37.187850" lon="-3.051850">
        <ele>3057.0</ele>
        <time>2014-07-12T14:29:23Z</time>
      </trkpt>
      <trkpt lat="37.187983" lon="-3.051900">
        <ele>3058.0</ele>
        <time>2014-07-12T14:29:26Z</time>
      </trkpt>
      <trkpt lat="37.188100" lon="-3.051933">
        <ele>3059.0</ele>
        <time>2014-07-12T14:29:29Z</time>
      </trkpt>
      <trkpt lat="37.188233" lon="-3.051917">
        <ele>3059.0</ele>
        <time>2014-07-12T14:29:32Z</time>
      </trkpt>
      <trkpt lat="37.188350" lon="-3.051983">
        <ele>3059.0</ele>
        <time>2014-07-12T14:29:35Z</time>
      </trkpt>
      <trkpt lat="37.188500" lon="-3.052017">
        <ele>3058.0</ele>
        <time>2014-07-12T14:29:38Z</time>
      </trkpt>
      <trkpt lat="37.188700" lon="-3.051900">
        <ele>3057.0</ele>
        <time>2014-07-12T14:29:41Z</time>
      </trkpt>
      <trkpt lat="37.188933" lon="-3.051750">
        <ele>3054.0</ele>
        <time>2014-07-12T14:29:44Z</time>
      </trkpt>
      <trkpt lat="37.189133" lon="-3.051600">
        <ele>3051.0</ele>
        <time>2014-07-12T14:29:47Z</time>
      </trkpt>
      <trkpt lat="37.189333" lon="-3.051433">
        <ele>3049.0</ele>
        <time>2014-07-12T14:29:50Z</time>
      </trkpt>
      <trkpt lat="37.189500" lon="-3.051267">
        <ele>3046.0</ele>
        <time>2014-07-12T14:29:53Z</time>
      </trkpt>
      <trkpt lat="37.189717" lon="-3.051117">
        <ele>3044.0</ele>
        <time>2014-07-12T14:29:56Z</time>
      </trkpt>
      <trkpt lat="37.189933" lon="-3.050900">
        <ele>3043.0</ele>
        <time>2014-07-12T14:29:59Z</time>
      </trkpt>
      <trkpt lat="37.190150" lon="-3.050650">
        <ele>3042.0</ele>
        <time>2014-07-12T14:30:02Z</time>
      </trkpt>
      <trkpt lat="37.190417" lon="-3.050283">
        <ele>3040.0</ele>
        <time>2014-07-12T14:30:05Z</time>
      </trkpt>
      <trkpt lat="37.190600" lon="-3.050067">
        <ele>3039.0</ele>
        <time>2014-07-12T14:30:08Z</time>
      </trkpt>
      <trkpt lat="37.190850" lon="-3.049867">
        <ele>3039.0</ele>
        <time>2014-07-12T14:30:11Z</time>
      </trkpt>
      <trkpt lat="37.191050" lon="-3.049617">
        <ele>3039.0</ele>
        <time>2014-07-12T14:30:15Z</time>
      </trkpt>
      <trkpt lat="37.191283" lon="-3.049383">
        <ele>3039.0</ele>
        <time>2014-07-12T14:30:18Z</time>
      </trkpt>
      <trkpt lat="37.191533" lon="-3.049283">
        <ele>3040.0</ele>
        <time>2014-07-12T14:30:21Z</time>
      </trkpt>
      <trkpt lat="37.191667" lon="-3.049250">
        <ele>3042.0</ele>
        <time>2014-07-12T14:30:24Z</time>
      </trkpt>
      <trkpt lat="37.191683" lon="-3.049250">
        <ele>3044.0</ele>
        <time>2014-07-12T14:30:27Z</time>
      </trkpt>
      <trkpt lat="37.191783" lon="-3.049300">
        <ele>3047.0</ele>
        <time>2014-07-12T14:30:30Z</time>
      </trkpt>
      <trkpt lat="37.191783" lon="-3.049417">
        <ele>3051.0</ele>
        <time>2014-07-12T14:30:33Z</time>
      </trkpt>
      <trkpt lat="37.191583" lon="-3.049567">
        <ele>3059.0</ele>
        <time>2014-07-12T14:30:36Z</time>
      </trkpt>
      <trkpt lat="37.191217" lon="-3.049467">
        <ele>3067.0</ele>
        <time>2014-07-12T14:30:39Z</time>
      </trkpt>
      <trkpt lat="37.191000" lon="-3.049000">
        <ele>3075.0</ele>
        <time>2014-07-12T14:30:42Z</time>
      </trkpt>
      <trkpt lat="37.191067" lon="-3.048650">
        <ele>3083.0</ele>
        <time>2014-07-12T14:30:45Z</time>
      </trkpt>
      <trkpt lat="37.191083" lon="-3.048650">
        <ele>3087.0</ele>
        <time>2014-07-12T14:30:48Z</time>
      </trkpt>
      <trkpt lat="37.190883" lon="-3.048783">
        <ele>3095.0</ele>
        <time>2014-07-12T14:30:51Z</time>
      </trkpt>
      <trkpt lat="37.190517" lon="-3.048700">
        <ele>3103.0</ele>
        <time>2014-07-12T14:30:54Z</time>
      </trkpt>
      <trkpt lat="37.190233" lon="-3.048250">
        <ele>3111.0</ele>
        <time>2014-07-12T14:30:57Z</time>
      </trkpt>
      <trkpt lat="37.190283" lon="-3.047817">
        <ele>3118.0</ele>
        <time>2014-07-12T14:31:00Z</time>
      </trkpt>
      <trkpt lat="37.190417" lon="-3.047700">
        <ele>3124.0</ele>
        <time>2014-07-12T14:31:03Z</time>
      </trkpt>
      <trkpt lat="37.190467" lon="-3.047783">
        <ele>3128.0</ele>
        <time>2014-07-12T14:31:06Z</time>
      </trkpt>
      <trkpt lat="37.190500" lon="-3.047850">
        <ele>3133.0</ele>
        <time>2014-07-12T14:31:09Z</time>
      </trkpt>
      <trkpt lat="37.190667" lon="-3.047717">
        <ele>3141.0</ele>
        <time>2014-07-12T14:31:12Z</time>
      </trkpt>
      <trkpt lat="37.190667" lon="-3.047367">
        <ele>3151.0</ele>
        <time>2014-07-12T14:31:15Z</time>
      </trkpt>
      <trkpt lat="37.190333" lon="-3.047100">
        <ele>3161.0</ele>
        <time>2014-07-12T14:31:18Z</time>
      </trkpt>
      <trkpt lat="37.190083" lon="-3.047217">
        <ele>3170.0</ele>
        <time>2014-07-12T14:31:21Z</time>
      </trkpt>
      <trkpt lat="37.190183" lon="-3.047233">
        <ele>3176.0</ele>
        <time>2014-07-12T14:31:24Z</time>
      </trkpt>
      <trkpt lat="37.190217" lon="-3.046850">
        <ele>3186.0</ele>
        <time>2014-07-12T14:31:27Z</time>
      </trkpt>
      <trkpt lat="37.189867" lon="-3.046550">
        <ele>3195.0</ele>
        <time>2014-07-12T14:31:30Z</time>
      </trkpt>
      <trkpt lat="37.189633" lon="-3.046683">
        <ele>3205.0</ele>
        <time>2014-07-12T14:31:33Z</time>
      </trkpt>
      <trkpt lat="37.189650" lon="-3.046783">
        <ele>3210.0</ele>
        <time>2014-07-12T14:31:36Z</time>
      </trkpt>
      <trkpt lat="37.189767" lon="-3.046650">
        <ele>3219.0</ele>
        <time>2014-07-12T14:31:39Z</time>
      </trkpt>
      <trkpt lat="37.189800" lon="-3.046283">
        <ele>3231.0</ele>
        <time>2014-07-12T14:31:42Z</time>
      </trkpt>
      <trkpt lat="37.189567" lon="-3.045850">
        <ele>3243.0</ele>
        <time>2014-07-12T14:31:45Z</time>
      </trkpt>
      <trkpt lat="37.189133" lon="-3.045717">
        <ele>3247.0</ele>
        <time>2014-07-12T14:31:48Z</time>
      </trkpt>
      <trkpt lat="37.188983" lon="-3.045883">
        <ele>3255.0</ele>
        <time>2014-07-12T14:31:51Z</time>
      </trkpt>
      <trkpt lat="37.189050" lon="-3.045917">
        <ele>3260.0</ele>
        <time>2014-07-12T14:31:54Z</time>
      </trkpt>
      <trkpt lat="37.189150" lon="-3.045767">
        <ele>3269.0</ele>
        <time>2014-07-12T14:31:57Z</time>
      </trkpt>
      <trkpt lat="37.189233" lon="-3.045400">
        <ele>3281.0</ele>
        <time>2014-07-12T14:32:00Z</time>
      </trkpt>
      <trkpt lat="37.189017" lon="-3.044967">
        <ele>3293.0</ele>
        <time>2014-07-12T14:32:03Z</time>
      </trkpt>
      <trkpt lat="37.188583" lon="-3.044833">
        <ele>3304.0</ele>
        <time>2014-07-12T14:32:06Z</time>
      </trkpt>
      <trkpt lat="37.188350" lon="-3.044967">
        <ele>3311.0</ele>
        <time>2014-07-12T14:32:09Z</time>
      </trkpt>
      <trkpt lat="37.188350" lon="-3.045033">
        <ele>3315.0</ele>
        <time>2014-07-12T14:32:12Z</time>
      </trkpt>
      <trkpt lat="37.188450" lon="-3.044850">
        <ele>3324.0</ele>
        <time>2014-07-12T14:32:15Z</time>
      </trkpt>
      <trkpt lat="37.188350" lon="-3.044400">
        <ele>3335.0</ele>
        <time>2014-07-12T14:32:18Z</time>
      </trkpt>
      <trkpt lat="37.187967" lon="-3.044150">
        <ele>3345.0</ele>
        <time>2014-07-12T14:32:21Z</time>
      </trkpt>
      <trkpt lat="37.187667" lon="-3.044233">
        <ele>3355.0</ele>
        <time>2014-07-12T14:32:24Z</time>
      </trkpt>
      <trkpt lat="37.187633" lon="-3.044400">
        <ele>3361.0</ele>
        <time>2014-07-12T14:32:27Z</time>
      </trkpt>
      <trkpt lat="37.187750" lon="-3.044267">
        <ele>3368.0</ele>
        <time>2014-07-12T14:32:30Z</time>
      </trkpt>
      <trkpt lat="37.187700" lon="-3.043833">
        <ele>3378.0</ele>
        <time>2014-07-12T14:32:33Z</time>
      </trkpt>
      <trkpt lat="37.187267" lon="-3.043383">
        <ele>3392.0</ele>
        <time>2014-07-12T14:32:36Z</time>
      </trkpt>
      <trkpt lat="37.186883" lon="-3.043433">
        <ele>3402.0</ele>
        <time>2014-07-12T14:32:39Z</time>
      </trkpt>
      <trkpt lat="37.186800" lon="-3.043583">
        <ele>3409.0</ele>
        <time>2014-07-12T14:32:42Z</time>
      </trkpt>
      <trkpt lat="37.186900" lon="-3.043583">
        <ele>3415.0</ele>
        <time>2014-07-12T14:32:46Z</time>
      </trkpt>
      <trkpt lat="37.187050" lon="-3.043333">
        <ele>3426.0</ele>
        <time>2014-07-12T14:32:49Z</time>
      </trkpt>
      <trkpt lat="37.187017" lon="-3.042883">
        <ele>3437.0</ele>
        <time>2014-07-12T14:32:52Z</time>
      </trkpt>
      <trkpt lat="37.186767" lon="-3.042433">
        <ele>3447.0</ele>
        <time>2014-07-12T14:32:55Z</time>
      </trkpt>
      <trkpt lat="37.186383" lon="-3.042167">
        <ele>3457.0</ele>
        <time>2014-07-12T14:32:58Z</time>
      </trkpt>
      <trkpt lat="37.186033" lon="-3.042267">
        <ele>3466.0</ele>
        <time>2014-07-12T14:33:01Z</time>
      </trkpt>
      <trkpt lat="37.185933" lon="-3.042450">
        <ele>3473.0</ele>
        <time>2014-07-12T14:33:04Z</time>
      </trkpt>
      <trkpt lat="37.186033" lon="-3.042500">
        <ele>3478.0</ele>
        <time>2014-07-12T14:33:07Z</time>
      </trkpt>
      <trkpt lat="37.186167" lon="-3.042317">
        <ele>3487.0</ele>
        <time>2014-07-12T14:33:10Z</time>
      </trkpt>
      <trkpt lat="37.186167" lon="-3.041900">
        <ele>3496.0</ele>
        <time>2014-07-12T14:33:13Z</time>
      </trkpt>
      <trkpt lat="37.185950" lon="-3.041450">
        <ele>3505.0</ele>
        <time>2014-07-12T14:33:16Z</time>
      </trkpt>
      <trkpt lat="37.185583" lon="-3.041250">
        <ele>3512.0</ele>
        <time>2014-07-12T14:33:19Z</time>
      </trkpt>
      <trkpt lat="37.185250" lon="-3.041333">
        <ele>3520.0</ele>
        <time>2014-07-12T14:33:22Z</time>
      </trkpt>
      <trkpt lat="37.185083" lon="-3.041550">
        <ele>3526.0</ele>
        <time>2014-07-12T14:33:25Z</time>
      </trkpt>
      <trkpt lat="37.185050" lon="-3.041717">
        <ele>3530.0</ele>
        <time>2014-07-12T14:33:28Z</time>
      </trkpt>
      <trkpt lat="37.185100" lon="-3.041817">
        <ele>3534.0</ele>
        <time>2014-07-12T14:33:31Z</time>
      </trkpt>
      <trkpt lat="37.185200" lon="-3.041850">
        <ele>3537.0</ele>
        <time>2014-07-12T14:33:34Z</time>
      </trkpt>
      <trkpt lat="37.185317" lon="-3.041783">
        <ele>3542.0</ele>
        <time>2014-07-12T14:33:37Z</time>
      </trkpt>
      <trkpt lat="37.185383" lon="-3.041733">
        <ele>3546.0</ele>
        <time>2014-07-12T14:33:40Z</time>
      </trkpt>
      <trkpt lat="37.185367" lon="-3.041917">
        <ele>3552.0</ele>
        <time>2014-07-12T14:33:43Z</time>
      </trkpt>
      <trkpt lat="37.185200" lon="-3.042150">
        <ele>3560.0</ele>
        <time>2014-07-12T14:33:46Z</time>
      </trkpt>
      <trkpt lat="37.184933" lon="-3.042333">
        <ele>3567.0</ele>
        <time>2014-07-12T14:33:49Z</time>
      </trkpt>
      <trkpt lat="37.184533" lon="-3.042350">
        <ele>3574.0</ele>
        <time>2014-07-12T14:33:52Z</time>
      </trkpt>
      <trkpt lat="37.184167" lon="-3.042117">
        <ele>3581.0</ele>
        <time>2014-07-12T14:33:55Z</time>
      </trkpt>
      <trkpt lat="37.183783" lon="-3.041767">
        <ele>3588.0</ele>
        <time>2014-07-12T14:33:58Z</time>
      </trkpt>
      <trkpt lat="37.183500" lon="-3.041300">
        <ele>3594.0</ele>
        <time>2014-07-12T14:34:01Z</time>
      </trkpt>
      <trkpt lat="37.183450" lon="-3.040767">
        <ele>3600.0</ele>
        <time>2014-07-12T14:34:04Z</time>
      </trkpt>
      <trkpt lat="37.183533" lon="-3.040483">
        <ele>3605.0</ele>
        <time>2014-07-12T14:34:07Z</time>
      </trkpt>
      <trkpt lat="37.183617" lon="-3.040483">
        <ele>3608.0</ele>
        <time>2014-07-12T14:34:10Z</time>
      </trkpt>
      <trkpt lat="37.183567" lon="-3.040767">
        <ele>3612.0</ele>
        <time>2014-07-12T14:34:13Z</time>
      </trkpt>
      <trkpt lat="37.183383" lon="-3.041050">
        <ele>3617.0</ele>
        <time>2014-07-12T14:34:16Z</time>
      </trkpt>
      <trkpt lat="37.183200" lon="-3.041267">
        <ele>3621.0</ele>
        <time>2014-07-12T14:34:19Z</time>
      </trkpt>
      <trkpt lat="37.183150" lon="-3.041467">
        <ele>3625.0</ele>
        <time>2014-07-12T14:34:22Z</time>
      </trkpt>
      <trkpt lat="37.183183" lon="-3.041633">
        <ele>3627.0</ele>
        <time>2014-07-12T14:34:25Z</time>
      </trkpt>
      <trkpt lat="37.183267" lon="-3.041733">
        <ele>3629.0</ele>
        <time>2014-07-12T14:34:28Z</time>
      </trkpt>
      <trkpt lat="37.183433" lon="-3.041800">
        <ele>3634.0</ele>
        <time>2014-07-12T14:34:31Z</time>
      </trkpt>
      <trkpt lat="37.183583" lon="-3.041767">
        <ele>3636.0</ele>
        <time>2014-07-12T14:34:34Z</time>
      </trkpt>
      <trkpt lat="37.183733" lon="-3.041783">
        <ele>3639.0</ele>
        <time>2014-07-12T14:34:37Z</time>
      </trkpt>
      <trkpt lat="37.183883" lon="-3.041833">
        <ele>3641.0</ele>
        <time>2014-07-12T14:34:40Z</time>
      </trkpt>
      <trkpt lat="37.184017" lon="-3.041800">
        <ele>3643.0</ele>
        <time>2014-07-12T14:34:43Z</time>
      </trkpt>
      <trkpt lat="37.184200" lon="-3.041733">
        <ele>3645.0</ele>
        <time>2014-07-12T14:34:46Z</time>
      </trkpt>
      <trkpt lat="37.184383" lon="-3.041650">
        <ele>3646.0</ele>
        <time>2014-07-12T14:34:49Z</time>
      </trkpt>
      <trkpt lat="37.184533" lon="-3.041533">
        <ele>3647.0</ele>
        <time>2014-07-12T14:34:52Z</time>
      </trkpt>
      <trkpt lat="37.184717" lon="-3.041383">
        <ele>3646.0</ele>
        <time>2014-07-12T14:34:55Z</time>
      </trkpt>
      <trkpt lat="37.184917" lon="-3.041250">
        <ele>3645.0</ele>
        <time>2014-07-12T14:34:58Z</time>
      </trkpt>
      <trkpt lat="37.185150" lon="-3.041067">
        <ele>3644.0</ele>
        <time>2014-07-12T14:35:01Z</time>
      </trkpt>
      <trkpt lat="37.185383" lon="-3.040900">
        <ele>3641.0</ele>
        <time>2014-07-12T14:35:04Z</time>
      </trkpt>
      <trkpt lat="37.185650" lon="-3.040733">
        <ele>3638.0</ele>
        <time>2014-07-12T14:35:07Z</time>
      </trkpt>
      <trkpt lat="37.185833" lon="-3.040717">
        <ele>3636.0</ele>
        <time>2014-07-12T14:35:10Z</time>
      </trkpt>
      <trkpt lat="37.185967" lon="-3.040683">
        <ele>3634.0</ele>
        <time>2014-07-12T14:35:13Z</time>
      </trkpt>
      <trkpt lat="37.186133" lon="-3.040617">
        <ele>3631.0</ele>
        <time>2014-07-12T14:35:17Z</time>
      </trkpt>
      <trkpt lat="37.186267" lon="-3.040500">
        <ele>3628.0</ele>
        <time>2014-07-12T14:35:20Z</time>
      </trkpt>
      <trkpt lat="37.186383" lon="-3.040350">
        <ele>3625.0</ele>
        <time>2014-07-12T14:35:23Z</time>
      </trkpt>
      <trkpt lat="37.186517" lon="-3.040167">
        <ele>3621.0</ele>
        <time>2014-07-12T14:35:26Z</time>
      </trkpt>
      <trkpt lat="37.186667" lon="-3.040017">
        <ele>3618.0</ele>
        <time>2014-07-12T14:35:29Z</time>
      </trkpt>
      <trkpt lat="37.186883" lon="-3.039950">
        <ele>3614.0</ele>
        <time>2014-07-12T14:35:32Z</time>
      </trkpt>
      <trkpt lat="37.187033" lon="-3.040067">
        <ele>3611.0</ele>
        <time>2014-07-12T14:35:35Z</time>
      </trkpt>
      <trkpt lat="37.187150" lon="-3.040217">
        <ele>3609.0</ele>
        <time>2014-07-12T14:35:38Z</time>
      </trkpt>
      <trkpt lat="37.187300" lon="-3.040250">
        <ele>3606.0</ele>
        <time>2014-07-12T14:35:41Z</time>
      </trkpt>
      <trkpt lat="37.187483" lon="-3.040183">
        <ele>3602.0</ele>
        <time>2014-07-12T14:35:44Z</time>
      </trkpt>
      <trkpt lat="37.187667" lon="-3.040083">
        <ele>3599.0</ele>
        <time>2014-07-12T14:35:47Z</time>
      </trkpt>
      <trkpt lat="37.187850" lon="-3.039950">
        <ele>3596.0</ele>
        <time>2014-07-12T14:35:50Z</time>
      </trkpt>
      <trkpt lat="37.188050" lon="-3.039717">
        <ele>3590.0</ele>
        <time>2014-07-12T14:35:53Z</time>
      </trkpt>
      <trkpt lat="37.188233" lon="-3.039433">
        <ele>3585.0</ele>
        <time>2014-07-12T14:35:56Z</time>
      </trkpt>
      <trkpt lat="37.188367" lon="-3.039017">
        <ele>3578.0</ele>
        <time>2014-07-12T14:35:59Z</time>
      </trkpt>
      <trkpt lat="37.188417" lon="-3.038450">
        <ele>3572.0</ele>
        <time>2014-07-12T14:36:02Z</time>
      </trkpt>
      <trkpt lat="37.188400" lon="-3.037933">
        <ele>3565.0</ele>
        <time>2014-07-12T14:36:05Z</time>
      </trkpt>
      <trkpt lat="37.188383" lon="-3.037417">
        <ele>3558.0</ele>
        <time>2014-07-12T14:36:08Z</time>
      </trkpt>
      <trkpt lat="37.188383" lon="-3.036900">
        <ele>3550.0</ele>
        <time>2014-07-12T14:36:11Z</time>
      </trkpt>
      <trkpt lat="37.188417" lon="-3.036467">
        <ele>3542.0</ele>
        <time>2014-07-12T14:36:14Z</time>
      </trkpt>
      <trkpt lat="37.188450" lon="-3.035967">
        <ele>3534.0</ele>
        <time>2014-07-12T14:36:17Z</time>
      </trkpt>
      <trkpt lat="37.188483" lon="-3.035483">
        <ele>3525.0</ele>
        <time>2014-07-12T14:36:20Z</time>
      </trkpt>
      <trkpt lat="37.188533" lon="-3.034983">
        <ele>3515.0</ele>
        <time>2014-07-12T14:36:23Z</time>
      </trkpt>
      <trkpt lat="37.188517" lon="-3.034450">
        <ele>3506.0</ele>
        <time>2014-07-12T14:36:26Z</time>
      </trkpt>
      <trkpt lat="37.188533" lon="-3.033933">
        <ele>3497.0</ele>
        <time>2014-07-12T14:36:29Z</time>
      </trkpt>
      <trkpt lat="37.188617" lon="-3.033467">
        <ele>3489.0</ele>
        <time>2014-07-12T14:36:32Z</time>
      </trkpt>
      <trkpt lat="37.188750" lon="-3.033100">
        <ele>3481.0</ele>
        <time>2014-07-12T14:36:35Z</time>
      </trkpt>
      <trkpt lat="37.188883" lon="-3.032767">
        <ele>3475.0</ele>
        <time>2014-07-12T14:36:38Z</time>
      </trkpt>
      <trkpt lat="37.189000" lon="-3.032350">
        <ele>3470.0</ele>
        <time>2014-07-12T14:36:41Z</time>
      </trkpt>
      <trkpt lat="37.189067" lon="-3.031967">
        <ele>3468.0</ele>
        <time>2014-07-12T14:36:44Z</time>
      </trkpt>
      <trkpt lat="37.189167" lon="-3.031667">
        <ele>3466.0</ele>
        <time>2014-07-12T14:36:47Z</time>
      </trkpt>
      <trkpt lat="37.189217" lon="-3.031567">
        <ele>3466.0</ele>
        <time>2014-07-12T14:36:50Z</time>
      </trkpt>
      <trkpt lat="37.189067" lon="-3.031717">
        <ele>3466.0</ele>
        <time>2014-07-12T14:36:53Z</time>
      </trkpt>
      <trkpt lat="37.188700" lon="-3.031717">
        <ele>3468.0</ele>
        <time>2014-07-12T14:36:56Z</time>
      </trkpt>
      <trkpt lat="37.188300" lon="-3.031383">
        <ele>3471.0</ele>
        <time>2014-07-12T14:36:59Z</time>
      </trkpt>
      <trkpt lat="37.188050" lon="-3.030883">
        <ele>3475.0</ele>
        <time>2014-07-12T14:37:02Z</time>
      </trkpt>
      <trkpt lat="37.187983" lon="-3.030350">
        <ele>3479.0</ele>
        <time>2014-07-12T14:37:05Z</time>
      </trkpt>
      <trkpt lat="37.188083" lon="-3.030067">
        <ele>3483.0</ele>
        <time>2014-07-12T14:37:08Z</time>
      </trkpt>
      <trkpt lat="37.188150" lon="-3.030033">
        <ele>3486.0</ele>
        <time>2014-07-12T14:37:11Z</time>
      </trkpt>
      <trkpt lat="37.188117" lon="-3.030083">
        <ele>3489.0</ele>
        <time>2014-07-12T14:37:14Z</time>
      </trkpt>
      <trkpt lat="37.188100" lon="-3.030283">
        <ele>3492.0</ele>
        <time>2014-07-12T14:37:17Z</time>
      </trkpt>
      <trkpt lat="37.187933" lon="-3.030400">
        <ele>3499.0</ele>
        <time>2014-07-12T14:37:20Z</time>
      </trkpt>
      <trkpt lat="37.187700" lon="-3.030583">
        <ele>3507.0</ele>
        <time>2014-07-12T14:37:23Z</time>
      </trkpt>
      <trkpt lat="37.187633" lon="-3.030700">
        <ele>3512.0</ele>
        <time>2014-07-12T14:37:26Z</time>
      </trkpt>
      <trkpt lat="37.187700" lon="-3.030533">
        <ele>3519.0</ele>
        <time>2014-07-12T14:37:29Z</time>
      </trkpt>
      <trkpt lat="37.187817" lon="-3.030383">
        <ele>3526.0</ele>
        <time>2014-07-12T14:37:32Z</time>
      </trkpt>
      <trkpt lat="37.188017" lon="-3.030083">
        <ele>3534.0</ele>
        <time>2014-07-12T14:37:35Z</time>
      </trkpt>
      <trkpt lat="37.188033" lon="-3.029600">
        <ele>3540.0</ele>
        <time>2014-07-12T14:37:38Z</time>
      </trkpt>
      <trkpt lat="37.187817" lon="-3.029100">
        <ele>3547.0</ele>
        <time>2014-07-12T14:37:41Z</time>
      </trkpt>
      <trkpt lat="37.187383" lon="-3.028867">
        <ele>3553.0</ele>
        <time>2014-07-12T14:37:44Z</time>
      </trkpt>
      <trkpt lat="37.187050" lon="-3.028917">
        <ele>3558.0</ele>
        <time>2014-07-12T14:37:48Z</time>
      </trkpt>
      <trkpt lat="37.186967" lon="-3.029017">
        <ele>3562.0</ele>
        <time>2014-07-12T14:37:51Z</time>
      </trkpt>
      <trkpt lat="37.187017" lon="-3.029000">
        <ele>3565.0</ele>
        <time>2014-07-12T14:37:54Z</time>
      </trkpt>
      <trkpt lat="37.187117" lon="-3.028933">
        <ele>3569.0</ele>
        <time>2014-07-12T14:37:57Z</time>
      </trkpt>
      <trkpt lat="37.187217" lon="-3.028800">
        <ele>3573.0</ele>
        <time>2014-07-12T14:38:00Z</time>
      </trkpt>
      <trkpt lat="37.187350" lon="-3.028767">
        <ele>3578.0</ele>
        <time>2014-07-12T14:38:03Z</time>
      </trkpt>
      <trkpt lat="37.187417" lon="-3.028833">
        <ele>3582.0</ele>
        <time>2014-07-12T14:38:06Z</time>
      </trkpt>
      <trkpt lat="37.187383" lon="-3.028850">
        <ele>3587.0</ele>
        <time>2014-07-12T14:38:09Z</time>
      </trkpt>
      <trkpt lat="37.187367" lon="-3.028883">
        <ele>3588.0</ele>
        <time>2014-07-12T14:38:12Z</time>
      </trkpt>
      <trkpt lat="37.187350" lon="-3.028967">
        <ele>3591.0</ele>
        <time>2014-07-12T14:38:15Z</time>
      </trkpt>
      <trkpt lat="37.187333" lon="-3.029067">
        <ele>3593.0</ele>
        <time>2014-07-12T14:38:18Z</time>
      </trkpt>
      <trkpt lat="37.187350" lon="-3.029150">
        <ele>3595.0</ele>
        <time>2014-07-12T14:38:21Z</time>
      </trkpt>
      <trkpt lat="37.187367" lon="-3.029233">
        <ele>3596.0</ele>
        <time>2014-07-12T14:38:24Z</time>
      </trkpt>
      <trkpt lat="37.187417" lon="-3.029367">
        <ele>3595.0</ele>
        <time>2014-07-12T14:38:27Z</time>
      </trkpt>
      <trkpt lat="37.187500" lon="-3.029450">
        <ele>3594.0</ele>
        <time>2014-07-12T14:38:30Z</time>
      </trkpt>
      <trkpt lat="37.187617" lon="-3.029567">
        <ele>3592.0</ele>
        <time>2014-07-12T14:38:33Z</time>
      </trkpt>
      <trkpt lat="37.187733" lon="-3.029617">
        <ele>3590.0</ele>
        <time>2014-07-12T14:38:36Z</time>
      </trkpt>
      <trkpt lat="37.187867" lon="-3.029633">
        <ele>3588.0</ele>
        <time>2014-07-12T14:38:39Z</time>
      </trkpt>
      <trkpt lat="37.187967" lon="-3.029650">
        <ele>3586.0</ele>
        <time>2014-07-12T14:38:42Z</time>
      </trkpt>
      <trkpt lat="37.188117" lon="-3.029617">
        <ele>3582.0</ele>
        <time>2014-07-12T14:38:45Z</time>
      </trkpt>
      <trkpt lat="37.188317" lon="-3.029583">
        <ele>3576.0</ele>
        <time>2014-07-12T14:38:48Z</time>
      </trkpt>
      <trkpt lat="37.188533" lon="-3.029567">
        <ele>3570.0</ele>
        <time>2014-07-12T14:38:51Z</time>
      </trkpt>
      <trkpt lat="37.188767" lon="-3.029533">
        <ele>3566.0</ele>
        <time>2014-07-12T14:38:54Z</time>
      </trkpt>
      <trkpt lat="37.188983" lon="-3.029533">
        <ele>3564.0</ele>
        <time>2014-07-12T14:38:57Z</time>
      </trkpt>
      <trkpt lat="37.189167" lon="-3.029600">
        <ele>3558.0</ele>
        <time>2014-07-12T14:39:00Z</time>
      </trkpt>
      <trkpt lat="37.189350" lon="-3.029600">
        <ele>3553.0</ele>
        <time>2014-07-12T14:39:03Z</time>
      </trkpt>
      <trkpt lat="37.189500" lon="-3.029567">
        <ele>3549.0</ele>
        <time>2014-07-12T14:39:06Z</time>
      </trkpt>
      <trkpt lat="37.189700" lon="-3.029567">
        <ele>3544.0</ele>
        <time>2014-07-12T14:39:09Z</time>
      </trkpt>
      <trkpt lat="37.189883" lon="-3.029567">
        <ele>3539.0</ele>
        <time>2014-07-12T14:39:12Z</time>
      </trkpt>
      <trkpt lat="37.190067" lon="-3.029583">
        <ele>3534.0</ele>
        <time>2014-07-12T14:39:15Z</time>
      </trkpt>
      <trkpt lat="37.190250" lon="-3.029533">
        <ele>3530.0</ele>
        <time>2014-07-12T14:39:18Z</time>
      </trkpt>
      <trkpt lat="37.190450" lon="-3.029483">
        <ele>3525.0</ele>
        <time>2014-07-12T14:39:21Z</time>
      </trkpt>
      <trkpt lat="37.190650" lon="-3.029417">
        <ele>3520.0</ele>
        <time>2014-07-12T14:39:24Z</time>
      </trkpt>
      <trkpt lat="37.190900" lon="-3.029367">
        <ele>3515.0</ele>
        <time>2014-07-12T14:39:27Z</time>
      </trkpt>
      <trkpt lat="37.191133" lon="-3.029283">
        <ele>3510.0</ele>
        <time>2014-07-12T14:39:30Z</time>
      </trkpt>
      <trkpt lat="37.191383" lon="-3.029217">
        <ele>3506.0</ele>
        <time>2014-07-12T14:39:33Z</time>
      </trkpt>
      <trkpt lat="37.191600" lon="-3.029083">
        <ele>3501.0</ele>
        <time>2014-07-12T14:39:36Z</time>
      </trkpt>
      <trkpt lat="37.191850" lon="-3.028917">
        <ele>3498.0</ele>
        <time>2014-07-12T14:39:39Z</time>
      </trkpt>
      <trkpt lat="37.192083" lon="-3.028700">
        <ele>3494.0</ele>
        <time>2014-07-12T14:39:42Z</time>
      </trkpt>
      <trkpt lat="37.192333" lon="-3.028517">
        <ele>3491.0</ele>
        <time>2014-07-12T14:39:45Z</time>
      </trkpt>
      <trkpt lat="37.192583" lon="-3.028317">
        <ele>3487.0</ele>
        <time>2014-07-12T14:39:48Z</time>
      </trkpt>
      <trkpt lat="37.192833" lon="-3.028133">
        <ele>3484.0</ele>
        <time>2014-07-12T14:39:51Z</time>
      </trkpt>
      <trkpt lat="37.193067" lon="-3.027950">
        <ele>3482.0</ele>
        <time>2014-07-12T14:39:54Z</time>
      </trkpt>
      <trkpt lat="37.193283" lon="-3.027717">
        <ele>3480.0</ele>
        <time>2014-07-12T14:39:57Z</time>
      </trkpt>
      <trkpt lat="37.193450" lon="-3.027483">
        <ele>3478.0</ele>
        <time>2014-07-12T14:40:00Z</time>
      </trkpt>
      <trkpt lat="37.193650" lon="-3.027250">
        <ele>3476.0</ele>
        <time>2014-07-12T14:40:03Z</time>
      </trkpt>
      <trkpt lat="37.193917" lon="-3.026967">
        <ele>3474.0</ele>
        <time>2014-07-12T14:40:06Z</time>
      </trkpt>
      <trkpt lat="37.194100" lon="-3.026767">
        <ele>3472.0</ele>
        <time>2014-07-12T14:40:09Z</time>
      </trkpt>
      <trkpt lat="37.194233" lon="-3.026483">
        <ele>3470.0</ele>
        <time>2014-07-12T14:40:12Z</time>
      </trkpt>
      <trkpt lat="37.194417" lon="-3.026233">
        <ele>3468.0</ele>
        <time>2014-07-12T14:40:15Z</time>
      </trkpt>
      <trkpt lat="37.194600" lon="-3.025983">
        <ele>3467.0</ele>
        <time>2014-07-12T14:40:19Z</time>
      </trkpt>
      <trkpt lat="37.194767" lon="-3.025733">
        <ele>3464.0</ele>
        <time>2014-07-12T14:40:22Z</time>
      </trkpt>
      <trkpt lat="37.194983" lon="-3.025517">
        <ele>3462.0</ele>
        <time>2014-07-12T14:40:25Z</time>
      </trkpt>
      <trkpt lat="37.195183" lon="-3.025283">
        <ele>3459.0</ele>
        <time>2014-07-12T14:40:28Z</time>
      </trkpt>
      <trkpt lat="37.195300" lon="-3.025067">
        <ele>3456.0</ele>
        <time>2014-07-12T14:40:31Z</time>
      </trkpt>
      <trkpt lat="37.195433" lon="-3.024867">
        <ele>3454.0</ele>
        <time>2014-07-12T14:40:34Z</time>
      </trkpt>
      <trkpt lat="37.195583" lon="-3.024700">
        <ele>3451.0</ele>
        <time>2014-07-12T14:40:37Z</time>
      </trkpt>
      <trkpt lat="37.195717" lon="-3.024550">
        <ele>3448.0</ele>
        <time>2014-07-12T14:40:40Z</time>
      </trkpt>
      <trkpt lat="37.195867" lon="-3.024333">
        <ele>3446.0</ele>
        <time>2014-07-12T14:40:43Z</time>
      </trkpt>
      <trkpt lat="37.196033" lon="-3.024083">
        <ele>3444.0</ele>
        <time>2014-07-12T14:40:46Z</time>
      </trkpt>
      <trkpt lat="37.196217" lon="-3.023867">
        <ele>3442.0</ele>
        <time>2014-07-12T14:40:49Z</time>
      </trkpt>
      <trkpt lat="37.196417" lon="-3.023633">
        <ele>3441.0</ele>
        <time>2014-07-12T14:40:52Z</time>
      </trkpt>
      <trkpt lat="37.196633" lon="-3.023417">
        <ele>3441.0</ele>
        <time>2014-07-12T14:40:55Z</time>
      </trkpt>
      <trkpt lat="37.196817" lon="-3.023250">
        <ele>3442.0</ele>
        <time>2014-07-12T14:40:58Z</time>
      </trkpt>
      <trkpt lat="37.197017" lon="-3.022967">
        <ele>3443.0</ele>
        <time>2014-07-12T14:41:01Z</time>
      </trkpt>
      <trkpt lat="37.197017" lon="-3.022367">
        <ele>3445.0</ele>
        <time>2014-07-12T14:41:04Z</time>
      </trkpt>
      <trkpt lat="37.196700" lon="-3.021933">
        <ele>3447.0</ele>
        <time>2014-07-12T14:41:07Z</time>
      </trkpt>
      <trkpt lat="37.196433" lon="-3.021867">
        <ele>3450.0</ele>
        <time>2014-07-12T14:41:10Z</time>
      </trkpt>
      <trkpt lat="37.196433" lon="-3.021883">
        <ele>3451.0</ele>
        <time>2014-07-12T14:41:13Z</time>
      </trkpt>
      <trkpt lat="37.196617" lon="-3.021767">
        <ele>3454.0</ele>
        <time>2014-07-12T14:41:16Z</time>
      </trkpt>
      <trkpt lat="37.196767" lon="-3.021317">
        <ele>3457.0</ele>
        <time>2014-07-12T14:41:19Z</time>
      </trkpt>
      <trkpt lat="37.196667" lon="-3.020717">
        <ele>3461.0</ele>
        <time>2014-07-12T14:41:22Z</time>
      </trkpt>
      <trkpt lat="37.196350" lon="-3.020300">
        <ele>3465.0</ele>
        <time>2014-07-12T14:41:25Z</time>
      </trkpt>
      <trkpt lat="37.196050" lon="-3.020183">
        <ele>3470.0</ele>
        <time>2014-07-12T14:41:28Z</time>
      </trkpt>
      <trkpt lat="37.195900" lon="-3.020200">
        <ele>3472.0</ele>
        <time>2014-07-12T14:41:31Z</time>
      </trkpt>
      <trkpt lat="37.195883" lon="-3.020267">
        <ele>3475.0</ele>
        <time>2014-07-12T14:41:34Z</time>
      </trkpt>
      <trkpt lat="37.195983" lon="-3.020283">
        <ele>3478.0</ele>
        <time>2014-07-12T14:41:37Z</time>
      </trkpt>
      <trkpt lat="37.196167" lon="-3.020067">
        <ele>3484.0</ele>
        <time>2014-07-12T14:41:40Z</time>
      </trkpt>
      <trkpt lat="37.196317" lon="-3.019583">
        <ele>3487.0</ele>
        <time>2014-07-12T14:41:43Z</time>
      </trkpt>
      <trkpt lat="37.196233" lon="-3.019017">
        <ele>3491.0</ele>
        <time>2014-07-12T14:41:46Z</time>
      </trkpt>
      <trkpt lat="37.195933" lon="-3.018517">
        <ele>3496.0</ele>
        <time>2014-07-12T14:41:49Z</time>
      </trkpt>
      <trkpt lat="37.195583" lon="-3.018333">
        <ele>3501.0</ele>
        <time>2014-07-12T14:41:52Z</time>
      </trkpt>
      <trkpt lat="37.195383" lon="-3.018367">
        <ele>3505.0</ele>
        <time>2014-07-12T14:41:55Z</time>
      </trkpt>
      <trkpt lat="37.195367" lon="-3.018400">
        <ele>3508.0</ele>
        <time>2014-07-12T14:41:58Z</time>
      </trkpt>
      <trkpt lat="37.195533" lon="-3.018333">
        <ele>3513.0</ele>
        <time>2014-07-12T14:42:01Z</time>
      </trkpt>
      <trkpt lat="37.195733" lon="-3.018033">
        <ele>3518.0</ele>
        <time>2014-07-12T14:42:04Z</time>
      </trkpt>
      <trkpt lat="37.195833" lon="-3.017500">
        <ele>3524.0</ele>
        <time>2014-07-12T14:42:07Z</time>
      </trkpt>
      <trkpt lat="37.195817" lon="-3.016867">
        <ele>3529.0</ele>
        <time>2014-07-12T14:42:10Z</time>
      </trkpt>
      <trkpt lat="37.195567" lon="-3.016300">
        <ele>3534.0</ele>
        <time>2014-07-12T14:42:13Z</time>
      </trkpt>
      <trkpt lat="37.195217" lon="-3.016050">
        <ele>3538.0</ele>
        <time>2014-07-12T14:42:16Z</time>
      </trkpt>
      <trkpt lat="37.195017" lon="-3.016100">
        <ele>3542.0</ele>
        <time>2014-07-12T14:42:19Z</time>
      </trkpt>
      <trkpt lat="37.195050" lon="-3.016150">
        <ele>3544.0</ele>
        <time>2014-07-12T14:42:22Z</time>
      </trkpt>
      <trkpt lat="37.195250" lon="-3.016000">
        <ele>3549.0</ele>
        <time>2014-07-12T14:42:25Z</time>
      </trkpt>
      <trkpt lat="37.195417" lon="-3.015567">
        <ele>3553.0</ele>
        <time>2014-07-12T14:42:28Z</time>
      </trkpt>
      <trkpt lat="37.195417" lon="-3.014967">
        <ele>3557.0</ele>
        <time>2014-07-12T14:42:31Z</time>
      </trkpt>
      <trkpt lat="37.195067" lon="-3.014317">
        <ele>3562.0</ele>
        <time>2014-07-12T14:42:34Z</time>
      </trkpt>
      <trkpt lat="37.194750" lon="-3.014200">
        <ele>3566.0</ele>
        <time>2014-07-12T14:42:37Z</time>
      </trkpt>
      <trkpt lat="37.194600" lon="-3.014300">
        <ele>3568.0</ele>
        <time>2014-07-12T14:42:40Z</time>
      </trkpt>
      <trkpt lat="37.194600" lon="-3.014383">
        <ele>3570.0</ele>
        <time>2014-07-12T14:42:43Z</time>
      </trkpt>
      <trkpt lat="37.194750" lon="-3.014383">
        <ele>3573.0</ele>
        <time>2014-07-12T14:42:46Z</time>
      </trkpt>
      <trkpt lat="37.195000" lon="-3.014150">
        <ele>3577.0</ele>
        <time>2014-07-12T14:42:50Z</time>
      </trkpt>
      <trkpt lat="37.195117" lon="-3.013617">
        <ele>3581.0</ele>
        <time>2014-07-12T14:42:53Z</time>
      </trkpt>
      <trkpt lat="37.195050" lon="-3.013033">
        <ele>3585.0</ele>
        <time>2014-07-12T14:42:56Z</time>
      </trkpt>
      <trkpt lat="37.194767" lon="-3.012583">
        <ele>3588.0</ele>
        <time>2014-07-12T14:42:59Z</time>
      </trkpt>
      <trkpt lat="37.194450" lon="-3.012467">
        <ele>3592.0</ele>
        <time>2014-07-12T14:43:02Z</time>
      </trkpt>
      <trkpt lat="37.194300" lon="-3.012550">
        <ele>3594.0</ele>
        <time>2014-07-12T14:43:05Z</time>
      </trkpt>
      <trkpt lat="37.194367" lon="-3.012633">
        <ele>3596.0</ele>
        <time>2014-07-12T14:43:08Z</time>
      </trkpt>
      <trkpt lat="37.194583" lon="-3.012550">
        <ele>3599.0</ele>
        <time>2014-07-12T14:43:11Z</time>
      </trkpt>
      <trkpt lat="37.194800" lon="-3.012167">
        <ele>3602.0</ele>
        <time>2014-07-12T14:43:14Z</time>
      </trkpt>
      <trkpt lat="37.194850" lon="-3.011583">
        <ele>3605.0</ele>
        <time>2014-07-12T14:43:17Z</time>
      </trkpt>
      <trkpt lat="37.194683" lon="-3.011017">
        <ele>3608.0</ele>
        <time>2014-07-12T14:43:20Z</time>
      </trkpt>
      <trkpt lat="37.194383" lon="-3.010567">
        <ele>3610.0</ele>
        <time>2014-07-12T14:43:23Z</time>
      </trkpt>
      <trkpt lat="37.194083" lon="-3.010367">
        <ele>3613.0</ele>
        <time>2014-07-12T14:43:26Z</time>
      </trkpt>
      <trkpt lat="37.193933" lon="-3.010417">
        <ele>3614.0</ele>
        <time>2014-07-12T14:43:29Z</time>
      </trkpt>
      <trkpt lat="37.194017" lon="-3.010450">
        <ele>3615.0</ele>
        <time>2014-07-12T14:43:32Z</time>
      </trkpt>
      <trkpt lat="37.194233" lon="-3.010267">
        <ele>3618.0</ele>
        <time>2014-07-12T14:43:35Z</time>
      </trkpt>
      <trkpt lat="37.194467" lon="-3.009867">
        <ele>3620.0</ele>
        <time>2014-07-12T14:43:38Z</time>
      </trkpt>
      <trkpt lat="37.194633" lon="-3.009350">
        <ele>3622.0</ele>
        <time>2014-07-12T14:43:41Z</time>
      </trkpt>
      <trkpt lat="37.194617" lon="-3.008700">
        <ele>3623.0</ele>
        <time>2014-07-12T14:43:44Z</time>
      </trkpt>
      <trkpt lat="37.194333" lon="-3.008217">
        <ele>3625.0</ele>
        <time>2014-07-12T14:43:47Z</time>
      </trkpt>
      <trkpt lat="37.194050" lon="-3.008017">
        <ele>3626.0</ele>
        <time>2014-07-12T14:43:50Z</time>
      </trkpt>
      <trkpt lat="37.193833" lon="-3.007983">
        <ele>3628.0</ele>
        <time>2014-07-12T14:43:53Z</time>
      </trkpt>
      <trkpt lat="37.193667" lon="-3.008017">
        <ele>3629.0</ele>
        <time>2014-07-12T14:43:56Z</time>
      </trkpt>
      <trkpt lat="37.193617" lon="-3.008083">
        <ele>3630.0</ele>
        <time>2014-07-12T14:43:59Z</time>
      </trkpt>
      <trkpt lat="37.193750" lon="-3.008050">
        <ele>3631.0</ele>
        <time>2014-07-12T14:44:02Z</time>
      </trkpt>
      <trkpt lat="37.194000" lon="-3.007800">
        <ele>3633.0</ele>
        <time>2014-07-12T14:44:05Z</time>
      </trkpt>
      <trkpt lat="37.194217" lon="-3.007317">
        <ele>3634.0</ele>
        <time>2014-07-12T14:44:08Z</time>
      </trkpt>
      <trkpt lat="37.194267" lon="-3.006733">
        <ele>3635.0</ele>
        <time>2014-07-12T14:44:11Z</time>
      </trkpt>
      <trkpt lat="37.194100" lon="-3.006150">
        <ele>3636.0</ele>
        <time>2014-07-12T14:44:14Z</time>
      </trkpt>
      <trkpt lat="37.193817" lon="-3.005700">
        <ele>3637.0</ele>
        <time>2014-07-12T14:44:17Z</time>
      </trkpt>
      <trkpt lat="37.193500" lon="-3.005467">
        <ele>3638.0</ele>
        <time>2014-07-12T14:44:20Z</time>
      </trkpt>
      <trkpt lat="37.193317" lon="-3.005433">
        <ele>3639.0</ele>
        <time>2014-07-12T14:44:23Z</time>
      </trkpt>
      <trkpt lat="37.193317" lon="-3.005483">
        <ele>3639.0</ele>
        <time>2014-07-12T14:44:26Z</time>
      </trkpt>
      <trkpt lat="37.193450" lon="-3.005467">
        <ele>3639.0</ele>
        <time>2014-07-12T14:44:29Z</time>
      </trkpt>
      <trkpt lat="37.193633" lon="-3.005433">
        <ele>3638.0</ele>
        <time>2014-07-12T14:44:32Z</time>
      </trkpt>
      <trkpt lat="37.193817" lon="-3.005417">
        <ele>3636.0</ele>
        <time>2014-07-12T14:44:35Z</time>
      </trkpt>
      <trkpt lat="37.194083" lon="-3.005367">
        <ele>3635.0</ele>
        <time>2014-07-12T14:44:38Z</time>
      </trkpt>
      <trkpt lat="37.194317" lon="-3.005267">
        <ele>3634.0</ele>
        <time>2014-07-12T14:44:41Z</time>
      </trkpt>
      <trkpt lat="37.194550" lon="-3.005183">
        <ele>3634.0</ele>
        <time>2014-07-12T14:44:44Z</time>
      </trkpt>
      <trkpt lat="37.194783" lon="-3.005033">
        <ele>3633.0</ele>
        <time>2014-07-12T14:44:47Z</time>
      </trkpt>
      <trkpt lat="37.195033" lon="-3.004950">
        <ele>3632.0</ele>
        <time>2014-07-12T14:44:50Z</time>
      </trkpt>
      <trkpt lat="37.195267" lon="-3.004883">
        <ele>3631.0</ele>
        <time>2014-07-12T14:44:53Z</time>
      </trkpt>
      <trkpt lat="37.195533" lon="-3.004783">
        <ele>3630.0</ele>
        <time>2014-07-12T14:44:56Z</time>
      </trkpt>
      <trkpt lat="37.195750" lon="-3.004717">
        <ele>3629.0</ele>
        <time>2014-07-12T14:44:59Z</time>
      </trkpt>
      <trkpt lat="37.195967" lon="-3.004700">
        <ele>3627.0</ele>
        <time>2014-07-12T14:45:02Z</time>
      </trkpt>
      <trkpt lat="37.196283" lon="-3.004633">
        <ele>3626.0</ele>
        <time>2014-07-12T14:45:05Z</time>
      </trkpt>
      <trkpt lat="37.196533" lon="-3.004583">
        <ele>3624.0</ele>
        <time>2014-07-12T14:45:08Z</time>
      </trkpt>
      <trkpt lat="37.196800" lon="-3.004567">
        <ele>3622.0</ele>
        <time>2014-07-12T14:45:11Z</time>
      </trkpt>
      <trkpt lat="37.196983" lon="-3.004467">
        <ele>3620.0</ele>
        <time>2014-07-12T14:45:14Z</time>
      </trkpt>
      <trkpt lat="37.197217" lon="-3.004417">
        <ele>3618.0</ele>
        <time>2014-07-12T14:45:17Z</time>
      </trkpt>
      <trkpt lat="37.197467" lon="-3.004400">
        <ele>3615.0</ele>
        <time>2014-07-12T14:45:21Z</time>
      </trkpt>
      <trkpt lat="37.197683" lon="-3.004383">
        <ele>3612.0</ele>
        <time>2014-07-12T14:45:24Z</time>
      </trkpt>
      <trkpt lat="37.197933" lon="-3.004350">
        <ele>3609.0</ele>
        <time>2014-07-12T14:45:27Z</time>
      </trkpt>
      <trkpt lat="37.198183" lon="-3.004317">
        <ele>3606.0</ele>
        <time>2014-07-12T14:45:30Z</time>
      </trkpt>
      <trkpt lat="37.198450" lon="-3.004283">
        <ele>3604.0</ele>
        <time>2014-07-12T14:45:33Z</time>
      </trkpt>
      <trkpt lat="37.198700" lon="-3.004283">
        <ele>3601.0</ele>
        <time>2014-07-12T14:45:36Z</time>
      </trkpt>
      <trkpt lat="37.198950" lon="-3.004250">
        <ele>3599.0</ele>
        <time>2014-07-12T14:45:39Z</time>
      </trkpt>
      <trkpt lat="37.199250" lon="-3.004200">
        <ele>3597.0</ele>
        <time>2014-07-12T14:45:42Z</time>
      </trkpt>
      <trkpt lat="37.199533" lon="-3.004100">
        <ele>3595.0</ele>
        <time>2014-07-12T14:45:45Z</time>
      </trkpt>
      <trkpt lat="37.199800" lon="-3.003967">
        <ele>3594.0</ele>
        <time>2014-07-12T14:45:48Z</time>
      </trkpt>
      <trkpt lat="37.200100" lon="-3.003900">
        <ele>3593.0</ele>
        <time>2014-07-12T14:45:51Z</time>
      </trkpt>
      <trkpt lat="37.200367" lon="-3.003917">
        <ele>3593.0</ele>
        <time>2014-07-12T14:45:54Z</time>
      </trkpt>
      <trkpt lat="37.200567" lon="-3.003950">
        <ele>3592.0</ele>
        <time>2014-07-12T14:45:57Z</time>
      </trkpt>
      <trkpt lat="37.200817" lon="-3.003933">
        <ele>3592.0</ele>
        <time>2014-07-12T14:46:00Z</time>
      </trkpt>
      <trkpt lat="37.201017" lon="-3.003967">
        <ele>3592.0</ele>
        <time>2014-07-12T14:46:03Z</time>
      </trkpt>
      <trkpt lat="37.201200" lon="-3.004050">
        <ele>3593.0</ele>
        <time>2014-07-12T14:46:06Z</time>
      </trkpt>
      <trkpt lat="37.201433" lon="-3.004150">
        <ele>3593.0</ele>
        <time>2014-07-12T14:46:09Z</time>
      </trkpt>
      <trkpt lat="37.201683" lon="-3.004167">
        <ele>3595.0</ele>
        <time>2014-07-12T14:46:12Z</time>
      </trkpt>
      <trkpt lat="37.201967" lon="-3.004100">
        <ele>3596.0</ele>
        <time>2014-07-12T14:46:15Z</time>
      </trkpt>
      <trkpt lat="37.202317" lon="-3.004033">
        <ele>3596.0</ele>
        <time>2014-07-12T14:46:18Z</time>
      </trkpt>
      <trkpt lat="37.202633" lon="-3.004000">
        <ele>3596.0</ele>
        <time>2014-07-12T14:46:21Z</time>
      </trkpt>
      <trkpt lat="37.202933" lon="-3.004017">
        <ele>3595.0</ele>
        <time>2014-07-12T14:46:24Z</time>
      </trkpt>
      <trkpt lat="37.203217" lon="-3.004033">
        <ele>3594.0</ele>
        <time>2014-07-12T14:46:27Z</time>
      </trkpt>
      <trkpt lat="37.203483" lon="-3.004017">
        <ele>3591.0</ele>
        <time>2014-07-12T14:46:30Z</time>
      </trkpt>
      <trkpt lat="37.203767" lon="-3.003983">
        <ele>3589.0</ele>
        <time>2014-07-12T14:46:33Z</time>
      </trkpt>
      <trkpt lat="37.204100" lon="-3.003917">
        <ele>3585.0</ele>
        <time>2014-07-12T14:46:36Z</time>
      </trkpt>
      <trkpt lat="37.204400" lon="-3.003867">
        <ele>3581.0</ele>
        <time>2014-07-12T14:46:39Z</time>
      </trkpt>
      <trkpt lat="37.204733" lon="-3.003800">
        <ele>3576.0</ele>
        <time>2014-07-12T14:46:42Z</time>
      </trkpt>
      <trkpt lat="37.205067" lon="-3.003700">
        <ele>3572.0</ele>
        <time>2014-07-12T14:46:45Z</time>
      </trkpt>
      <trkpt lat="37.205400" lon="-3.003600">
        <ele>3567.0</ele>
        <time>2014-07-12T14:46:48Z</time>
      </trkpt>
      <trkpt lat="37.205683" lon="-3.003500">
        <ele>3563.0</ele>
        <time>2014-07-12T14:46:51Z</time>
      </trkpt>
      <trkpt lat="37.205950" lon="-3.003383">
        <ele>3558.0</ele>
        <time>2014-07-12T14:46:54Z</time>
      </trkpt>
      <trkpt lat="37.206250" lon="-3.003317">
        <ele>3553.0</ele>
        <time>2014-07-12T14:46:57Z</time>
      </trkpt>
      <trkpt lat="37.206500" lon="-3.003267">
        <ele>3548.0</ele>
        <time>2014-07-12T14:47:00Z</time>
      </trkpt>
      <trkpt lat="37.206767" lon="-3.003250">
        <ele>3543.0</ele>
        <time>2014-07-12T14:47:03Z</time>
      </trkpt>
      <trkpt lat="37.207000" lon="-3.003200">
        <ele>3538.0</ele>
        <time>2014-07-12T14:47:06Z</time>
      </trkpt>
      <trkpt lat="37.207283" lon="-3.003183">
        <ele>3533.0</ele>
        <time>2014-07-12T14:47:09Z</time>
      </trkpt>
      <trkpt lat="37.207533" lon="-3.003183">
        <ele>3528.0</ele>
        <time>2014-07-12T14:47:12Z</time>
      </trkpt>
      <trkpt lat="37.207783" lon="-3.003133">
        <ele>3523.0</ele>
        <time>2014-07-12T14:47:15Z</time>
      </trkpt>
      <trkpt lat="37.208033" lon="-3.003017">
        <ele>3518.0</ele>
        <time>2014-07-12T14:47:18Z</time>
      </trkpt>
      <trkpt lat="37.208267" lon="-3.002867">
        <ele>3513.0</ele>
        <time>2014-07-12T14:47:21Z</time>
      </trkpt>
      <trkpt lat="37.208517" lon="-3.002783">
        <ele>3509.0</ele>
        <time>2014-07-12T14:47:24Z</time>
      </trkpt>
      <trkpt lat="37.208633" lon="-3.002700">
        <ele>3507.0</ele>
        <time>2014-07-12T14:47:27Z</time>
      </trkpt>
      <trkpt lat="37.208767" lon="-3.002650">
        <ele>3506.0</ele>
        <time>2014-07-12T14:47:30Z</time>
      </trkpt>
      <trkpt lat="37.208917" lon="-3.002617">
        <ele>3504.0</ele>
        <time>2014-07-12T14:47:33Z</time>
      </trkpt>
      <trkpt lat="37.209133" lon="-3.002550">
        <ele>3502.0</ele>
        <time>2014-07-12T14:47:36Z</time>
      </trkpt>
      <trkpt lat="37.209400" lon="-3.002550">
        <ele>3501.0</ele>
        <time>2014-07-12T14:47:39Z</time>
      </trkpt>
      <trkpt lat="37.209650" lon="-3.002567">
        <ele>3500.0</ele>
        <time>2014-07-12T14:47:42Z</time>
      </trkpt>
      <trkpt lat="37.209867" lon="-3.002567">
        <ele>3500.0</ele>
        <time>2014-07-12T14:47:45Z</time>
      </trkpt>
      <trkpt lat="37.210167" lon="-3.002533">
        <ele>3499.0</ele>
        <time>2014-07-12T14:47:48Z</time>
      </trkpt>
      <trkpt lat="37.210467" lon="-3.002433">
        <ele>3497.0</ele>
        <time>2014-07-12T14:47:52Z</time>
      </trkpt>
      <trkpt lat="37.210783" lon="-3.002367">
        <ele>3495.0</ele>
        <time>2014-07-12T14:47:55Z</time>
      </trkpt>
      <trkpt lat="37.211067" lon="-3.002367">
        <ele>3493.0</ele>
        <time>2014-07-12T14:47:58Z</time>
      </trkpt>
      <trkpt lat="37.211333" lon="-3.002333">
        <ele>3490.0</ele>
        <time>2014-07-12T14:48:01Z</time>
      </trkpt>
      <trkpt lat="37.211583" lon="-3.002283">
        <ele>3487.0</ele>
        <time>2014-07-12T14:48:04Z</time>
      </trkpt>
      <trkpt lat="37.211850" lon="-3.002200">
        <ele>3483.0</ele>
        <time>2014-07-12T14:48:07Z</time>
      </trkpt>
      <trkpt lat="37.212100" lon="-3.002100">
        <ele>3478.0</ele>
        <time>2014-07-12T14:48:10Z</time>
      </trkpt>
      <trkpt lat="37.212317" lon="-3.001983">
        <ele>3474.0</ele>
        <time>2014-07-12T14:48:13Z</time>
      </trkpt>
      <trkpt lat="37.212567" lon="-3.001850">
        <ele>3469.0</ele>
        <time>2014-07-12T14:48:16Z</time>
      </trkpt>
      <trkpt lat="37.212833" lon="-3.001683">
        <ele>3464.0</ele>
        <time>2014-07-12T14:48:19Z</time>
      </trkpt>
      <trkpt lat="37.213117" lon="-3.001550">
        <ele>3458.0</ele>
        <time>2014-07-12T14:48:22Z</time>
      </trkpt>
      <trkpt lat="37.213350" lon="-3.001400">
        <ele>3453.0</ele>
        <time>2014-07-12T14:48:25Z</time>
      </trkpt>
      <trkpt lat="37.213550" lon="-3.001233">
        <ele>3447.0</ele>
        <time>2014-07-12T14:48:28Z</time>
      </trkpt>
      <trkpt lat="37.213717" lon="-3.001117">
        <ele>3442.0</ele>
        <time>2014-07-12T14:48:31Z</time>
      </trkpt>
      <trkpt lat="37.213900" lon="-3.000983">
        <ele>3437.0</ele>
        <time>2014-07-12T14:48:34Z</time>
      </trkpt>
      <trkpt lat="37.214100" lon="-3.000867">
        <ele>3433.0</ele>
        <time>2014-07-12T14:48:37Z</time>
      </trkpt>
      <trkpt lat="37.214300" lon="-3.000750">
        <ele>3428.0</ele>
        <time>2014-07-12T14:48:40Z</time>
      </trkpt>
      <trkpt lat="37.214500" lon="-3.000650">
        <ele>3423.0</ele>
        <time>2014-07-12T14:48:43Z</time>
      </trkpt>
      <trkpt lat="37.214733" lon="-3.000567">
        <ele>3419.0</ele>
        <time>2014-07-12T14:48:46Z</time>
      </trkpt>
      <trkpt lat="37.214933" lon="-3.000483">
        <ele>3415.0</ele>
        <time>2014-07-12T14:48:49Z</time>
      </trkpt>
      <trkpt lat="37.215183" lon="-3.000383">
        <ele>3411.0</ele>
        <time>2014-07-12T14:48:52Z</time>
      </trkpt>
      <trkpt lat="37.215433" lon="-3.000317">
        <ele>3407.0</ele>
        <time>2014-07-12T14:48:55Z</time>
      </trkpt>
      <trkpt lat="37.215667" lon="-3.000300">
        <ele>3403.0</ele>
        <time>2014-07-12T14:48:58Z</time>
      </trkpt>
      <trkpt lat="37.215900" lon="-3.000217">
        <ele>3399.0</ele>
        <time>2014-07-12T14:49:01Z</time>
      </trkpt>
      <trkpt lat="37.216100" lon="-3.000183">
        <ele>3396.0</ele>
        <time>2014-07-12T14:49:04Z</time>
      </trkpt>
      <trkpt lat="37.216317" lon="-3.000183">
        <ele>3392.0</ele>
        <time>2014-07-12T14:49:07Z</time>
      </trkpt>
      <trkpt lat="37.216533" lon="-3.000167">
        <ele>3390.0</ele>
        <time>2014-07-12T14:49:10Z</time>
      </trkpt>
      <trkpt lat="37.216767" lon="-3.000133">
        <ele>3388.0</ele>
        <time>2014-07-12T14:49:13Z</time>
      </trkpt>
      <trkpt lat="37.216967" lon="-3.000133">
        <ele>3386.0</ele>
        <time>2014-07-12T14:49:16Z</time>
      </trkpt>
      <trkpt lat="37.217217" lon="-3.000067">
        <ele>3384.0</ele>
        <time>2014-07-12T14:49:19Z</time>
      </trkpt>
      <trkpt lat="37.217483" lon="-3.000033">
        <ele>3382.0</ele>
        <time>2014-07-12T14:49:22Z</time>
      </trkpt>
      <trkpt lat="37.217733" lon="-2.999983">
        <ele>3380.0</ele>
        <time>2014-07-12T14:49:25Z</time>
      </trkpt>
      <trkpt lat="37.218000" lon="-2.999900">
        <ele>3379.0</ele>
        <time>2014-07-12T14:49:28Z</time>
      </trkpt>
      <trkpt lat="37.218283" lon="-2.999817">
        <ele>3378.0</ele>
        <time>2014-07-12T14:49:31Z</time>
      </trkpt>
      <trkpt lat="37.218583" lon="-2.999733">
        <ele>3377.0</ele>
        <time>2014-07-12T14:49:34Z</time>
      </trkpt>
      <trkpt lat="37.218867" lon="-2.999650">
        <ele>3376.0</ele>
        <time>2014-07-12T14:49:37Z</time>
      </trkpt>
      <trkpt lat="37.219117" lon="-2.999550">
        <ele>3377.0</ele>
        <time>2014-07-12T14:49:40Z</time>
      </trkpt>
      <trkpt lat="37.219317" lon="-2.999417">
        <ele>3378.0</ele>
        <time>2014-07-12T14:49:43Z</time>
      </trkpt>
      <trkpt lat="37.219550" lon="-2.999317">
        <ele>3378.0</ele>
        <time>2014-07-12T14:49:46Z</time>
      </trkpt>
      <trkpt lat="37.219800" lon="-2.999217">
        <ele>3378.0</ele>
        <time>2014-07-12T14:49:49Z</time>
      </trkpt>
      <trkpt lat="37.220083" lon="-2.999083">
        <ele>3378.0</ele>
        <time>2014-07-12T14:49:52Z</time>
      </trkpt>
      <trkpt lat="37.220367" lon="-2.998967">
        <ele>3377.0</ele>
        <time>2014-07-12T14:49:55Z</time>
      </trkpt>
      <trkpt lat="37.220600" lon="-2.998850">
        <ele>3376.0</ele>
        <time>2014-07-12T14:49:58Z</time>
      </trkpt>
      <trkpt lat="37.220850" lon="-2.998700">
        <ele>3375.0</ele>
        <time>2014-07-12T14:50:01Z</time>
      </trkpt>
      <trkpt lat="37.221167" lon="-2.998550">
        <ele>3373.0</ele>
        <time>2014-07-12T14:50:04Z</time>
      </trkpt>
      <trkpt lat="37.221500" lon="-2.998450">
        <ele>3370.0</ele>
        <time>2014-07-12T14:50:07Z</time>
      </trkpt>
      <trkpt lat="37.221750" lon="-2.998333">
        <ele>3369.0</ele>
        <time>2014-07-12T14:50:10Z</time>
      </trkpt>
      <trkpt lat="37.222050" lon="-2.998133">
        <ele>3366.0</ele>
        <time>2014-07-12T14:50:13Z</time>
      </trkpt>
      <trkpt lat="37.222350" lon="-2.998033">
        <ele>3363.0</ele>
        <time>2014-07-12T14:50:16Z</time>
      </trkpt>
      <trkpt lat="37.222600" lon="-2.997950">
        <ele>3360.0</ele>
        <time>2014-07-12T14:50:19Z</time>
      </trkpt>
      <trkpt lat="37.222850" lon="-2.997900">
        <ele>3357.0</ele>
        <time>2014-07-12T14:50:23Z</time>
      </trkpt>
      <trkpt lat="37.223117" lon="-2.997800">
        <ele>3354.0</ele>
        <time>2014-07-12T14:50:26Z</time>
      </trkpt>
      <trkpt lat="37.223367" lon="-2.997717">
        <ele>3351.0</ele>
        <time>2014-07-12T14:50:29Z</time>
      </trkpt>
      <trkpt lat="37.223633" lon="-2.997617">
        <ele>3347.0</ele>
        <time>2014-07-12T14:50:32Z</time>
      </trkpt>
      <trkpt lat="37.223783" lon="-2.997533">
        <ele>0.0</ele>
        <time>2014-07-12T14:50:35Z</time>
      </trkpt>
      <trkpt lat="37.224100" lon="-2.997433">
        <ele>3344.0</ele>
        <time>2014-07-12T14:50:38Z</time>
      </trkpt>
      <trkpt lat="37.224350" lon="-2.997350">
        <ele>3340.0</ele>
        <time>2014-07-12T14:50:41Z</time>
      </trkpt>
      <trkpt lat="37.224567" lon="-2.997250">
        <ele>3336.0</ele>
        <time>2014-07-12T14:50:44Z</time>
      </trkpt>
      <trkpt lat="37.224817" lon="-2.997150">
        <ele>3331.0</ele>
        <time>2014-07-12T14:50:47Z</time>
      </trkpt>
      <trkpt lat="37.225017" lon="-2.997067">
        <ele>3327.0</ele>
        <time>2014-07-12T14:50:50Z</time>
      </trkpt>
      <trkpt lat="37.225233" lon="-2.997000">
        <ele>3323.0</ele>
        <time>2014-07-12T14:50:53Z</time>
      </trkpt>
      <trkpt lat="37.225450" lon="-2.996917">
        <ele>3318.0</ele>
        <time>2014-07-12T14:50:56Z</time>
      </trkpt>
      <trkpt lat="37.225667" lon="-2.996900">
        <ele>3313.0</ele>
        <time>2014-07-12T14:50:59Z</time>
      </trkpt>
      <trkpt lat="37.225883" lon="-2.996850">
        <ele>3308.0</ele>
        <time>2014-07-12T14:51:02Z</time>
      </trkpt>
      <trkpt lat="37.226067" lon="-2.996850">
        <ele>3305.0</ele>
        <time>2014-07-12T14:51:05Z</time>
      </trkpt>
      <trkpt lat="37.226250" lon="-2.996850">
        <ele>3299.0</ele>
        <time>2014-07-12T14:51:08Z</time>
      </trkpt>
      <trkpt lat="37.226450" lon="-2.996817">
        <ele>3294.0</ele>
        <time>2014-07-12T14:51:11Z</time>
      </trkpt>
      <trkpt lat="37.226633" lon="-2.996717">
        <ele>3289.0</ele>
        <time>2014-07-12T14:51:14Z</time>
      </trkpt>
      <trkpt lat="37.226817" lon="-2.996700">
        <ele>3283.0</ele>
        <time>2014-07-12T14:51:17Z</time>
      </trkpt>
      <trkpt lat="37.227000" lon="-2.996667">
        <ele>3277.0</ele>
        <time>2014-07-12T14:51:20Z</time>
      </trkpt>
      <trkpt lat="37.227233" lon="-2.996650">
        <ele>3271.0</ele>
        <time>2014-07-12T14:51:23Z</time>
      </trkpt>
      <trkpt lat="37.227483" lon="-2.996617">
        <ele>3266.0</ele>
        <time>2014-07-12T14:51:26Z</time>
      </trkpt>
      <trkpt lat="37.227667" lon="-2.996567">
        <ele>3261.0</ele>
        <time>2014-07-12T14:51:29Z</time>
      </trkpt>
      <trkpt lat="37.227867" lon="-2.996517">
        <ele>3256.0</ele>
        <time>2014-07-12T14:51:32Z</time>
      </trkpt>
      <trkpt lat="37.228000" lon="-2.996483">
        <ele>3253.0</ele>
        <time>2014-07-12T14:51:35Z</time>
      </trkpt>
      <trkpt lat="37.228150" lon="-2.996500">
        <ele>3249.0</ele>
        <time>2014-07-12T14:51:38Z</time>
      </trkpt>
      <trkpt lat="37.228350" lon="-2.996450">
        <ele>3245.0</ele>
        <time>2014-07-12T14:51:41Z</time>
      </trkpt>
      <trkpt lat="37.228550" lon="-2.996400">
        <ele>3241.0</ele>
        <time>2014-07-12T14:51:44Z</time>
      </trkpt>
      <trkpt lat="37.228833" lon="-2.996350">
        <ele>3238.0</ele>
        <time>2014-07-12T14:51:47Z</time>
      </trkpt>
      <trkpt lat="37.229050" lon="-2.996283">
        <ele>3236.0</ele>
        <time>2014-07-12T14:51:50Z</time>
      </trkpt>
      <trkpt lat="37.229217" lon="-2.996283">
        <ele>3234.0</ele>
        <time>2014-07-12T14:51:53Z</time>
      </trkpt>
      <trkpt lat="37.229417" lon="-2.996317">
        <ele>3233.0</ele>
        <time>2014-07-12T14:51:56Z</time>
      </trkpt>
      <trkpt lat="37.229550" lon="-2.996283">
        <ele>3232.0</ele>
        <time>2014-07-12T14:51:59Z</time>
      </trkpt>
      <trkpt lat="37.229700" lon="-2.996267">
        <ele>3231.0</ele>
        <time>2014-07-12T14:52:02Z</time>
      </trkpt>
      <trkpt lat="37.229850" lon="-2.996250">
        <ele>3231.0</ele>
        <time>2014-07-12T14:52:05Z</time>
      </trkpt>
      <trkpt lat="37.230017" lon="-2.996217">
        <ele>3230.0</ele>
        <time>2014-07-12T14:52:08Z</time>
      </trkpt>
      <trkpt lat="37.230217" lon="-2.996200">
        <ele>3230.0</ele>
        <time>2014-07-12T14:52:11Z</time>
      </trkpt>
      <trkpt lat="37.230417" lon="-2.996100">
        <ele>3229.0</ele>
        <time>2014-07-12T14:52:14Z</time>
      </trkpt>
      <trkpt lat="37.230667" lon="-2.996050">
        <ele>3228.0</ele>
        <time>2014-07-12T14:52:17Z</time>
      </trkpt>
      <trkpt lat="37.230950" lon="-2.996033">
        <ele>3226.0</ele>
        <time>2014-07-12T14:52:20Z</time>
      </trkpt>
      <trkpt lat="37.231200" lon="-2.996017">
        <ele>3224.0</ele>
        <time>2014-07-12T14:52:23Z</time>
      </trkpt>
      <trkpt lat="37.231500" lon="-2.995967">
        <ele>3223.0</ele>
        <time>2014-07-12T14:52:26Z</time>
      </trkpt>
      <trkpt lat="37.231733" lon="-2.995933">
        <ele>3221.0</ele>
        <time>2014-07-12T14:52:29Z</time>
      </trkpt>
      <trkpt lat="37.231900" lon="-2.996000">
        <ele>3219.0</ele>
        <time>2014-07-12T14:52:32Z</time>
      </trkpt>
      <trkpt lat="37.232067" lon="-2.996067">
        <ele>3217.0</ele>
        <time>2014-07-12T14:52:35Z</time>
      </trkpt>
      <trkpt lat="37.232333" lon="-2.996083">
        <ele>3216.0</ele>
        <time>2014-07-12T14:52:38Z</time>
      </trkpt>
      <trkpt lat="37.232550" lon="-2.996133">
        <ele>3215.0</ele>
        <time>2014-07-12T14:52:41Z</time>
      </trkpt>
      <trkpt lat="37.232750" lon="-2.996167">
        <ele>3215.0</ele>
        <time>2014-07-12T14:52:44Z</time>
      </trkpt>
      <trkpt lat="37.232967" lon="-2.996150">
        <ele>3215.0</ele>
        <time>2014-07-12T14:52:47Z</time>
      </trkpt>
      <trkpt lat="37.233100" lon="-2.996167">
        <ele>3214.0</ele>
        <time>2014-07-12T14:52:50Z</time>
      </trkpt>
      <trkpt lat="37.233233" lon="-2.996167">
        <ele>3214.0</ele>
        <time>2014-07-12T14:52:54Z</time>
      </trkpt>
      <trkpt lat="37.233383" lon="-2.996150">
        <ele>3213.0</ele>
        <time>2014-07-12T14:52:57Z</time>
      </trkpt>
      <trkpt lat="37.233550" lon="-2.996150">
        <ele>3212.0</ele>
        <time>2014-07-12T14:53:00Z</time>
      </trkpt>
      <trkpt lat="37.233783" lon="-2.996183">
        <ele>3210.0</ele>
        <time>2014-07-12T14:53:03Z</time>
      </trkpt>
      <trkpt lat="37.233983" lon="-2.996233">
        <ele>3209.0</ele>
        <time>2014-07-12T14:53:06Z</time>
      </trkpt>
      <trkpt lat="37.234183" lon="-2.996317">
        <ele>3208.0</ele>
        <time>2014-07-12T14:53:09Z</time>
      </trkpt>
      <trkpt lat="37.234333" lon="-2.996400">
        <ele>3206.0</ele>
        <time>2014-07-12T14:53:12Z</time>
      </trkpt>
      <trkpt lat="37.234483" lon="-2.996500">
        <ele>3205.0</ele>
        <time>2014-07-12T14:53:15Z</time>
      </trkpt>
      <trkpt lat="37.234633" lon="-2.996633">
        <ele>3204.0</ele>
        <time>2014-07-12T14:53:18Z</time>
      </trkpt>
      <trkpt lat="37.234783" lon="-2.996733">
        <ele>3203.0</ele>
        <time>2014-07-12T14:53:21Z</time>
      </trkpt>
      <trkpt lat="37.234900" lon="-2.996817">
        <ele>3202.0</ele>
        <time>2014-07-12T14:53:24Z</time>
      </trkpt>
      <trkpt lat="37.235067" lon="-2.996883">
        <ele>3201.0</ele>
        <time>2014-07-12T14:53:27Z</time>
      </trkpt>
      <trkpt lat="37.235217" lon="-2.996967">
        <ele>3200.0</ele>
        <time>2014-07-12T14:53:30Z</time>
      </trkpt>
      <trkpt lat="37.235383" lon="-2.997067">
        <ele>3199.0</ele>
        <time>2014-07-12T14:53:33Z</time>
      </trkpt>
      <trkpt lat="37.235550" lon="-2.997117">
        <ele>3198.0</ele>
        <time>2014-07-12T14:53:36Z</time>
      </trkpt>
      <trkpt lat="37.235700" lon="-2.997133">
        <ele>3197.0</ele>
        <time>2014-07-12T14:53:39Z</time>
      </trkpt>
      <trkpt lat="37.235800" lon="-2.997150">
        <ele>3198.0</ele>
        <time>2014-07-12T14:53:42Z</time>
      </trkpt>
      <trkpt lat="37.235917" lon="-2.997183">
        <ele>3198.0</ele>
        <time>2014-07-12T14:53:45Z</time>
      </trkpt>
      <trkpt lat="37.236050" lon="-2.997150">
        <ele>3199.0</ele>
        <time>2014-07-12T14:53:48Z</time>
      </trkpt>
      <trkpt lat="37.236117" lon="-2.997033">
        <ele>3200.0</ele>
        <time>2014-07-12T14:53:51Z</time>
      </trkpt>
      <trkpt lat="37.236300" lon="-2.996983">
        <ele>3202.0</ele>
        <time>2014-07-12T14:53:54Z</time>
      </trkpt>
      <trkpt lat="37.236417" lon="-2.997033">
        <ele>3203.0</ele>
        <time>2014-07-12T14:53:57Z</time>
      </trkpt>
      <trkpt lat="37.236483" lon="-2.997050">
        <ele>0.0</ele>
        <time>2014-07-12T14:54:00Z</time>
      </trkpt>
      <trkpt lat="37.236633" lon="-2.997083">
        <ele>3206.0</ele>
        <time>2014-07-12T14:54:03Z</time>
      </trkpt>
      <trkpt lat="37.236767" lon="-2.997083">
        <ele>3207.0</ele>
        <time>2014-07-12T14:54:06Z</time>
      </trkpt>
      <trkpt lat="37.236883" lon="-2.997150">
        <ele>3209.0</ele>
        <time>2014-07-12T14:54:09Z</time>
      </trkpt>
      <trkpt lat="37.237000" lon="-2.997217">
        <ele>3212.0</ele>
        <time>2014-07-12T14:54:12Z</time>
      </trkpt>
      <trkpt lat="37.237117" lon="-2.997250">
        <ele>3214.0</ele>
        <time>2014-07-12T14:54:15Z</time>
      </trkpt>
      <trkpt lat="37.237233" lon="-2.997300">
        <ele>3216.0</ele>
        <time>2014-07-12T14:54:18Z</time>
      </trkpt>
      <trkpt lat="37.237367" lon="-2.997350">
        <ele>3217.0</ele>
        <time>2014-07-12T14:54:21Z</time>
      </trkpt>
      <trkpt lat="37.237483" lon="-2.997383">
        <ele>3219.0</ele>
        <time>2014-07-12T14:54:24Z</time>
      </trkpt>
      <trkpt lat="37.237617" lon="-2.997417">
        <ele>3221.0</ele>
        <time>2014-07-12T14:54:27Z</time>
      </trkpt>
      <trkpt lat="37.237767" lon="-2.997433">
        <ele>3223.0</ele>
        <time>2014-07-12T14:54:30Z</time>
      </trkpt>
      <trkpt lat="37.237917" lon="-2.997433">
        <ele>3225.0</ele>
        <time>2014-07-12T14:54:33Z</time>
      </trkpt>
      <trkpt lat="37.238100" lon="-2.997433">
        <ele>3226.0</ele>
        <time>2014-07-12T14:54:36Z</time>
      </trkpt>
      <trkpt lat="37.238283" lon="-2.997500">
        <ele>3227.0</ele>
        <time>2014-07-12T14:54:39Z</time>
      </trkpt>
      <trkpt lat="37.238483" lon="-2.997500">
        <ele>3228.0</ele>
        <time>2014-07-12T14:54:42Z</time>
      </trkpt>
      <trkpt lat="37.238650" lon="-2.997467">
        <ele>3229.0</ele>
        <time>2014-07-12T14:54:45Z</time>
      </trkpt>
      <trkpt lat="37.238833" lon="-2.997483">
        <ele>3229.0</ele>
        <time>2014-07-12T14:54:48Z</time>
      </trkpt>
      <trkpt lat="37.239017" lon="-2.997533">
        <ele>3228.0</ele>
        <time>2014-07-12T14:54:51Z</time>
      </trkpt>
      <trkpt lat="37.239217" lon="-2.997617">
        <ele>3226.0</ele>
        <time>2014-07-12T14:54:54Z</time>
      </trkpt>
      <trkpt lat="37.239400" lon="-2.997683">
        <ele>3223.0</ele>
        <time>2014-07-12T14:54:57Z</time>
      </trkpt>
      <trkpt lat="37.239567" lon="-2.997783">
        <ele>3220.0</ele>
        <time>2014-07-12T14:55:00Z</time>
      </trkpt>
      <trkpt lat="37.239767" lon="-2.997917">
        <ele>3216.0</ele>
        <time>2014-07-12T14:55:03Z</time>
      </trkpt>
      <trkpt lat="37.239950" lon="-2.998067">
        <ele>3211.0</ele>
        <time>2014-07-12T14:55:06Z</time>
      </trkpt>
      <trkpt lat="37.240183" lon="-2.998133">
        <ele>3205.0</ele>
        <time>2014-07-12T14:55:09Z</time>
      </trkpt>
      <trkpt lat="37.240383" lon="-2.998217">
        <ele>3200.0</ele>
        <time>2014-07-12T14:55:12Z</time>
      </trkpt>
      <trkpt lat="37.240617" lon="-2.998300">
        <ele>3196.0</ele>
        <time>2014-07-12T14:55:15Z</time>
      </trkpt>
      <trkpt lat="37.240800" lon="-2.998383">
        <ele>3191.0</ele>
        <time>2014-07-12T14:55:18Z</time>
      </trkpt>
      <trkpt lat="37.241000" lon="-2.998550">
        <ele>3186.0</ele>
        <time>2014-07-12T14:55:21Z</time>
      </trkpt>
      <trkpt lat="37.241200" lon="-2.998700">
        <ele>3180.0</ele>
        <time>2014-07-12T14:55:25Z</time>
      </trkpt>
      <trkpt lat="37.241433" lon="-2.998850">
        <ele>3175.0</ele>
        <time>2014-07-12T14:55:28Z</time>
      </trkpt>
      <trkpt lat="37.241667" lon="-2.999050">
        <ele>3170.0</ele>
        <time>2014-07-12T14:55:31Z</time>
      </trkpt>
      <trkpt lat="37.241883" lon="-2.999233">
        <ele>3165.0</ele>
        <time>2014-07-12T14:55:34Z</time>
      </trkpt>
      <trkpt lat="37.242067" lon="-2.999417">
        <ele>3160.0</ele>
        <time>2014-07-12T14:55:37Z</time>
      </trkpt>
      <trkpt lat="37.242250" lon="-2.999650">
        <ele>3156.0</ele>
        <time>2014-07-12T14:55:40Z</time>
      </trkpt>
      <trkpt lat="37.242450" lon="-2.999767">
        <ele>3152.0</ele>
        <time>2014-07-12T14:55:43Z</time>
      </trkpt>
      <trkpt lat="37.242700" lon="-2.999867">
        <ele>3149.0</ele>
        <time>2014-07-12T14:55:46Z</time>
      </trkpt>
      <trkpt lat="37.242917" lon="-2.999933">
        <ele>3146.0</ele>
        <time>2014-07-12T14:55:49Z</time>
      </trkpt>
      <trkpt lat="37.243133" lon="-2.999967">
        <ele>3142.0</ele>
        <time>2014-07-12T14:55:52Z</time>
      </trkpt>
      <trkpt lat="37.243333" lon="-2.999983">
        <ele>3140.0</ele>
        <time>2014-07-12T14:55:55Z</time>
      </trkpt>
      <trkpt lat="37.243533" lon="-3.000017">
        <ele>3137.0</ele>
        <time>2014-07-12T14:55:58Z</time>
      </trkpt>
      <trkpt lat="37.243750" lon="-3.000083">
        <ele>3134.0</ele>
        <time>2014-07-12T14:56:01Z</time>
      </trkpt>
      <trkpt lat="37.243917" lon="-3.000150">
        <ele>3131.0</ele>
        <time>2014-07-12T14:56:04Z</time>
      </trkpt>
      <trkpt lat="37.244067" lon="-3.000250">
        <ele>3128.0</ele>
        <time>2014-07-12T14:56:07Z</time>
      </trkpt>
      <trkpt lat="37.244233" lon="-3.000383">
        <ele>3124.0</ele>
        <time>2014-07-12T14:56:10Z</time>
      </trkpt>
      <trkpt lat="37.244400" lon="-3.000467">
        <ele>3119.0</ele>
        <time>2014-07-12T14:56:13Z</time>
      </trkpt>
      <trkpt lat="37.244567" lon="-3.000550">
        <ele>3114.0</ele>
        <time>2014-07-12T14:56:16Z</time>
      </trkpt>
      <trkpt lat="37.244733" lon="-3.000717">
        <ele>3109.0</ele>
        <time>2014-07-12T14:56:19Z</time>
      </trkpt>
      <trkpt lat="37.244867" lon="-3.000817">
        <ele>3105.0</ele>
        <time>2014-07-12T14:56:22Z</time>
      </trkpt>
      <trkpt lat="37.245017" lon="-3.000950">
        <ele>3100.0</ele>
        <time>2014-07-12T14:56:25Z</time>
      </trkpt>
      <trkpt lat="37.245183" lon="-3.001133">
        <ele>3095.0</ele>
        <time>2014-07-12T14:56:28Z</time>
      </trkpt>
      <trkpt lat="37.245300" lon="-3.001250">
        <ele>3091.0</ele>
        <time>2014-07-12T14:56:31Z</time>
      </trkpt>
      <trkpt lat="37.245417" lon="-3.001367">
        <ele>3088.0</ele>
        <time>2014-07-12T14:56:34Z</time>
      </trkpt>
      <trkpt lat="37.245583" lon="-3.001567">
        <ele>3083.0</ele>
        <time>2014-07-12T14:56:37Z</time>
      </trkpt>
      <trkpt lat="37.245733" lon="-3.001717">
        <ele>3077.0</ele>
        <time>2014-07-12T14:56:40Z</time>
      </trkpt>
      <trkpt lat="37.245883" lon="-3.001917">
        <ele>3072.0</ele>
        <time>2014-07-12T14:56:43Z</time>
      </trkpt>
      <trkpt lat="37.246017" lon="-3.002050">
        <ele>3067.0</ele>
        <time>2014-07-12T14:56:46Z</time>
      </trkpt>
      <trkpt lat="37.246167" lon="-3.002167">
        <ele>3063.0</ele>
        <time>2014-07-12T14:56:49Z</time>
      </trkpt>
      <trkpt lat="37.246333" lon="-3.002233">
        <ele>3060.0</ele>
        <time>2014-07-12T14:56:52Z</time>
      </trkpt>
      <trkpt lat="37.246517" lon="-3.002300">
        <ele>3057.0</ele>
        <time>2014-07-12T14:56:55Z</time>
      </trkpt>
      <trkpt lat="37.246717" lon="-3.002450">
        <ele>3055.0</ele>
        <time>2014-07-12T14:56:58Z</time>
      </trkpt>
      <trkpt lat="37.246883" lon="-3.002650">
        <ele>3053.0</ele>
        <time>2014-07-12T14:57:01Z</time>
      </trkpt>
      <trkpt lat="37.247117" lon="-3.002733">
        <ele>3052.0</ele>
        <time>2014-07-12T14:57:04Z</time>
      </trkpt>
      <trkpt lat="37.247417" lon="-3.002800">
        <ele>3051.0</ele>
        <time>2014-07-12T14:57:07Z</time>
      </trkpt>
      <trkpt lat="37.247700" lon="-3.002817">
        <ele>3051.0</ele>
        <time>2014-07-12T14:57:10Z</time>
      </trkpt>
      <trkpt lat="37.247900" lon="-3.002833">
        <ele>3052.0</ele>
        <time>2014-07-12T14:57:13Z</time>
      </trkpt>
      <trkpt lat="37.247967" lon="-3.002933">
        <ele>3052.0</ele>
        <time>2014-07-12T14:57:16Z</time>
      </trkpt>
      <trkpt lat="37.247833" lon="-3.003067">
        <ele>3052.0</ele>
        <time>2014-07-12T14:57:19Z</time>
      </trkpt>
      <trkpt lat="37.247717" lon="-3.003183">
        <ele>3052.0</ele>
        <time>2014-07-12T14:57:22Z</time>
      </trkpt>
      <trkpt lat="37.247850" lon="-3.003200">
        <ele>3052.0</ele>
        <time>2014-07-12T14:57:25Z</time>
      </trkpt>
      <trkpt lat="37.248050" lon="-3.003100">
        <ele>3052.0</ele>
        <time>2014-07-12T14:57:28Z</time>
      </trkpt>
      <trkpt lat="37.248233" lon="-3.003000">
        <ele>3052.0</ele>
        <time>2014-07-12T14:57:31Z</time>
      </trkpt>
      <trkpt lat="37.248433" lon="-3.002900">
        <ele>3050.0</ele>
        <time>2014-07-12T14:57:34Z</time>
      </trkpt>
      <trkpt lat="37.248633" lon="-3.002783">
        <ele>3049.0</ele>
        <time>2014-07-12T14:57:37Z</time>
      </trkpt>
      <trkpt lat="37.248883" lon="-3.002583">
        <ele>3047.0</ele>
        <time>2014-07-12T14:57:40Z</time>
      </trkpt>
      <trkpt lat="37.249083" lon="-3.002417">
        <ele>3045.0</ele>
        <time>2014-07-12T14:57:43Z</time>
      </trkpt>
      <trkpt lat="37.249267" lon="-3.002267">
        <ele>3042.0</ele>
        <time>2014-07-12T14:57:46Z</time>
      </trkpt>
      <trkpt lat="37.249483" lon="-3.002117">
        <ele>3038.0</ele>
        <time>2014-07-12T14:57:49Z</time>
      </trkpt>
      <trkpt lat="37.249717" lon="-3.001967">
        <ele>3033.0</ele>
        <time>2014-07-12T14:57:52Z</time>
      </trkpt>
      <trkpt lat="37.249967" lon="-3.001900">
        <ele>3027.0</ele>
        <time>2014-07-12T14:57:56Z</time>
      </trkpt>
      <trkpt lat="37.250150" lon="-3.001867">
        <ele>3021.0</ele>
        <time>2014-07-12T14:57:59Z</time>
      </trkpt>
      <trkpt lat="37.250333" lon="-3.001883">
        <ele>3015.0</ele>
        <time>2014-07-12T14:58:02Z</time>
      </trkpt>
      <trkpt lat="37.250550" lon="-3.001917">
        <ele>3007.0</ele>
        <time>2014-07-12T14:58:05Z</time>
      </trkpt>
      <trkpt lat="37.250717" lon="-3.001917">
        <ele>2999.0</ele>
        <time>2014-07-12T14:58:08Z</time>
      </trkpt>
      <trkpt lat="37.250950" lon="-3.001900">
        <ele>2991.0</ele>
        <time>2014-07-12T14:58:11Z</time>
      </trkpt>
      <trkpt lat="37.251183" lon="-3.001883">
        <ele>2982.0</ele>
        <time>2014-07-12T14:58:14Z</time>
      </trkpt>
      <trkpt lat="37.251383" lon="-3.001933">
        <ele>2974.0</ele>
        <time>2014-07-12T14:58:17Z</time>
      </trkpt>
      <trkpt lat="37.251533" lon="-3.001967">
        <ele>2967.0</ele>
        <time>2014-07-12T14:58:20Z</time>
      </trkpt>
      <trkpt lat="37.251683" lon="-3.002050">
        <ele>2960.0</ele>
        <time>2014-07-12T14:58:23Z</time>
      </trkpt>
      <trkpt lat="37.251833" lon="-3.002150">
        <ele>2954.0</ele>
        <time>2014-07-12T14:58:26Z</time>
      </trkpt>
      <trkpt lat="37.251933" lon="-3.002233">
        <ele>2950.0</ele>
        <time>2014-07-12T14:58:29Z</time>
      </trkpt>
      <trkpt lat="37.252017" lon="-3.002317">
        <ele>2946.0</ele>
        <time>2014-07-12T14:58:32Z</time>
      </trkpt>
      <trkpt lat="37.252150" lon="-3.002383">
        <ele>2941.0</ele>
        <time>2014-07-12T14:58:35Z</time>
      </trkpt>
      <trkpt lat="37.252283" lon="-3.002483">
        <ele>2933.0</ele>
        <time>2014-07-12T14:58:38Z</time>
      </trkpt>
      <trkpt lat="37.252417" lon="-3.002567">
        <ele>2929.0</ele>
        <time>2014-07-12T14:58:41Z</time>
      </trkpt>
      <trkpt lat="37.252567" lon="-3.002683">
        <ele>2921.0</ele>
        <time>2014-07-12T14:58:44Z</time>
      </trkpt>
      <trkpt lat="37.252700" lon="-3.002817">
        <ele>2913.0</ele>
        <time>2014-07-12T14:58:47Z</time>
      </trkpt>
      <trkpt lat="37.252817" lon="-3.002933">
        <ele>2908.0</ele>
        <time>2014-07-12T14:58:50Z</time>
      </trkpt>
      <trkpt lat="37.252950" lon="-3.003083">
        <ele>2900.0</ele>
        <time>2014-07-12T14:58:53Z</time>
      </trkpt>
      <trkpt lat="37.253100" lon="-3.003217">
        <ele>2892.0</ele>
        <time>2014-07-12T14:58:56Z</time>
      </trkpt>
      <trkpt lat="37.253283" lon="-3.003317">
        <ele>2885.0</ele>
        <time>2014-07-12T14:58:59Z</time>
      </trkpt>
      <trkpt lat="37.253467" lon="-3.003383">
        <ele>2878.0</ele>
        <time>2014-07-12T14:59:02Z</time>
      </trkpt>
      <trkpt lat="37.253600" lon="-3.003483">
        <ele>2870.0</ele>
        <time>2014-07-12T14:59:05Z</time>
      </trkpt>
      <trkpt lat="37.253717" lon="-3.003617">
        <ele>2863.0</ele>
        <time>2014-07-12T14:59:08Z</time>
      </trkpt>
      <trkpt lat="37.253850" lon="-3.003750">
        <ele>2855.0</ele>
        <time>2014-07-12T14:59:11Z</time>
      </trkpt>
      <trkpt lat="37.253950" lon="-3.003883">
        <ele>2849.0</ele>
        <time>2014-07-12T14:59:14Z</time>
      </trkpt>
      <trkpt lat="37.254050" lon="-3.004017">
        <ele>2842.0</ele>
        <time>2014-07-12T14:59:17Z</time>
      </trkpt>
      <trkpt lat="37.254167" lon="-3.004150">
        <ele>2834.0</ele>
        <time>2014-07-12T14:59:20Z</time>
      </trkpt>
      <trkpt lat="37.254300" lon="-3.004283">
        <ele>2825.0</ele>
        <time>2014-07-12T14:59:23Z</time>
      </trkpt>
      <trkpt lat="37.254433" lon="-3.004417">
        <ele>2817.0</ele>
        <time>2014-07-12T14:59:26Z</time>
      </trkpt>
      <trkpt lat="37.254550" lon="-3.004583">
        <ele>2809.0</ele>
        <time>2014-07-12T14:59:29Z</time>
      </trkpt>
      <trkpt lat="37.254667" lon="-3.004717">
        <ele>2802.0</ele>
        <time>2014-07-12T14:59:32Z</time>
      </trkpt>
      <trkpt lat="37.254783" lon="-3.004833">
        <ele>2795.0</ele>
        <time>2014-07-12T14:59:35Z</time>
      </trkpt>
      <trkpt lat="37.254867" lon="-3.005017">
        <ele>2786.0</ele>
        <time>2014-07-12T14:59:38Z</time>
      </trkpt>
      <trkpt lat="37.254933" lon="-3.005167">
        <ele>2781.0</ele>
        <time>2014-07-12T14:59:41Z</time>
      </trkpt>
      <trkpt lat="37.255000" lon="-3.005300">
        <ele>2774.0</ele>
        <time>2014-07-12T14:59:44Z</time>
      </trkpt>
      <trkpt lat="37.255083" lon="-3.005500">
        <ele>2764.0</ele>
        <time>2014-07-12T14:59:47Z</time>
      </trkpt>
      <trkpt lat="37.255117" lon="-3.005633">
        <ele>2759.0</ele>
        <time>2014-07-12T14:59:50Z</time>
      </trkpt>
      <trkpt lat="37.255183" lon="-3.005783">
        <ele>2752.0</ele>
        <time>2014-07-12T14:59:53Z</time>
      </trkpt>
      <trkpt lat="37.255233" lon="-3.005950">
        <ele>2743.0</ele>
        <time>2014-07-12T14:59:56Z</time>
      </trkpt>
      <trkpt lat="37.255250" lon="-3.006117">
        <ele>2738.0</ele>
        <time>2014-07-12T14:59:59Z</time>
      </trkpt>
      <trkpt lat="37.255267" lon="-3.006333">
        <ele>2727.0</ele>
        <time>2014-07-12T15:00:02Z</time>
      </trkpt>
      <trkpt lat="37.255300" lon="-3.006550">
        <ele>2717.0</ele>
        <time>2014-07-12T15:00:05Z</time>
      </trkpt>
      <trkpt lat="37.255333" lon="-3.006767">
        <ele>2710.0</ele>
        <time>2014-07-12T15:00:08Z</time>
      </trkpt>
      <trkpt lat="37.255383" lon="-3.006917">
        <ele>2705.0</ele>
        <time>2014-07-12T15:00:11Z</time>
      </trkpt>
      <trkpt lat="37.255433" lon="-3.007100">
        <ele>2695.0</ele>
        <time>2014-07-12T15:00:14Z</time>
      </trkpt>
      <trkpt lat="37.255500" lon="-3.007267">
        <ele>2688.0</ele>
        <time>2014-07-12T15:00:17Z</time>
      </trkpt>
      <trkpt lat="37.255583" lon="-3.007467">
        <ele>2678.0</ele>
        <time>2014-07-12T15:00:20Z</time>
      </trkpt>
      <trkpt lat="37.255667" lon="-3.007733">
        <ele>2669.0</ele>
        <time>2014-07-12T15:00:24Z</time>
      </trkpt>
      <trkpt lat="37.255750" lon="-3.007983">
        <ele>2660.0</ele>
        <time>2014-07-12T15:00:27Z</time>
      </trkpt>
      <trkpt lat="37.255833" lon="-3.008233">
        <ele>2652.0</ele>
        <time>2014-07-12T15:00:30Z</time>
      </trkpt>
      <trkpt lat="37.255917" lon="-3.008483">
        <ele>2644.0</ele>
        <time>2014-07-12T15:00:33Z</time>
      </trkpt>
      <trkpt lat="37.256000" lon="-3.008717">
        <ele>2636.0</ele>
        <time>2014-07-12T15:00:36Z</time>
      </trkpt>
      <trkpt lat="37.256100" lon="-3.008967">
        <ele>2629.0</ele>
        <time>2014-07-12T15:00:39Z</time>
      </trkpt>
      <trkpt lat="37.256183" lon="-3.009233">
        <ele>2621.0</ele>
        <time>2014-07-12T15:00:42Z</time>
      </trkpt>
      <trkpt lat="37.256250" lon="-3.009467">
        <ele>2614.0</ele>
        <time>2014-07-12T15:00:45Z</time>
      </trkpt>
      <trkpt lat="37.256300" lon="-3.009700">
        <ele>2607.0</ele>
        <time>2014-07-12T15:00:48Z</time>
      </trkpt>
      <trkpt lat="37.256367" lon="-3.009950">
        <ele>2600.0</ele>
        <time>2014-07-12T15:00:51Z</time>
      </trkpt>
      <trkpt lat="37.256450" lon="-3.010183">
        <ele>2592.0</ele>
        <time>2014-07-12T15:00:54Z</time>
      </trkpt>
      <trkpt lat="37.256533" lon="-3.010417">
        <ele>2584.0</ele>
        <time>2014-07-12T15:00:57Z</time>
      </trkpt>
      <trkpt lat="37.256600" lon="-3.010667">
        <ele>2576.0</ele>
        <time>2014-07-12T15:01:00Z</time>
      </trkpt>
      <trkpt lat="37.256650" lon="-3.010883">
        <ele>2567.0</ele>
        <time>2014-07-12T15:01:03Z</time>
      </trkpt>
      <trkpt lat="37.256717" lon="-3.011083">
        <ele>2558.0</ele>
        <time>2014-07-12T15:01:06Z</time>
      </trkpt>
      <trkpt lat="37.256833" lon="-3.011250">
        <ele>2549.0</ele>
        <time>2014-07-12T15:01:09Z</time>
      </trkpt>
      <trkpt lat="37.256933" lon="-3.011450">
        <ele>2540.0</ele>
        <time>2014-07-12T15:01:12Z</time>
      </trkpt>
      <trkpt lat="37.257083" lon="-3.011617">
        <ele>2530.0</ele>
        <time>2014-07-12T15:01:15Z</time>
      </trkpt>
      <trkpt lat="37.257217" lon="-3.011750">
        <ele>2522.0</ele>
        <time>2014-07-12T15:01:18Z</time>
      </trkpt>
      <trkpt lat="37.257317" lon="-3.011917">
        <ele>2513.0</ele>
        <time>2014-07-12T15:01:21Z</time>
      </trkpt>
      <trkpt lat="37.257450" lon="-3.012100">
        <ele>2501.0</ele>
        <time>2014-07-12T15:01:24Z</time>
      </trkpt>
      <trkpt lat="37.257550" lon="-3.012283">
        <ele>2490.0</ele>
        <time>2014-07-12T15:01:27Z</time>
      </trkpt>
      <trkpt lat="37.257633" lon="-3.012483">
        <ele>2478.0</ele>
        <time>2014-07-12T15:01:30Z</time>
      </trkpt>
      <trkpt lat="37.257717" lon="-3.012717">
        <ele>2467.0</ele>
        <time>2014-07-12T15:01:33Z</time>
      </trkpt>
      <trkpt lat="37.257767" lon="-3.012933">
        <ele>2455.0</ele>
        <time>2014-07-12T15:01:36Z</time>
      </trkpt>
      <trkpt lat="37.257817" lon="-3.013167">
        <ele>2444.0</ele>
        <time>2014-07-12T15:01:39Z</time>
      </trkpt>
      <trkpt lat="37.257850" lon="-3.013400">
        <ele>2434.0</ele>
        <time>2014-07-12T15:01:42Z</time>
      </trkpt>
      <trkpt lat="37.257883" lon="-3.013650">
        <ele>2423.0</ele>
        <time>2014-07-12T15:01:45Z</time>
      </trkpt>
      <trkpt lat="37.257933" lon="-3.013900">
        <ele>2413.0</ele>
        <time>2014-07-12T15:01:48Z</time>
      </trkpt>
      <trkpt lat="37.257950" lon="-3.014083">
        <ele>2407.0</ele>
        <time>2014-07-12T15:01:51Z</time>
      </trkpt>
      <trkpt lat="37.257983" lon="-3.014250">
        <ele>2402.0</ele>
        <time>2014-07-12T15:01:54Z</time>
      </trkpt>
      <trkpt lat="37.257983" lon="-3.014417">
        <ele>2396.0</ele>
        <time>2014-07-12T15:01:57Z</time>
      </trkpt>
      <trkpt lat="37.257983" lon="-3.014583">
        <ele>2387.0</ele>
        <time>2014-07-12T15:02:00Z</time>
      </trkpt>
      <trkpt lat="37.257983" lon="-3.014800">
        <ele>2374.0</ele>
        <time>2014-07-12T15:02:03Z</time>
      </trkpt>
      <trkpt lat="37.257967" lon="-3.014950">
        <ele>2368.0</ele>
        <time>2014-07-12T15:02:06Z</time>
      </trkpt>
      <trkpt lat="37.257950" lon="-3.015117">
        <ele>2358.0</ele>
        <time>2014-07-12T15:02:09Z</time>
      </trkpt>
      <trkpt lat="37.257967" lon="-3.015283">
        <ele>2349.0</ele>
        <time>2014-07-12T15:02:12Z</time>
      </trkpt>
      <trkpt lat="37.257900" lon="-3.015433">
        <ele>2342.0</ele>
        <time>2014-07-12T15:02:15Z</time>
      </trkpt>
      <trkpt lat="37.257817" lon="-3.015567">
        <ele>2334.0</ele>
        <time>2014-07-12T15:02:18Z</time>
      </trkpt>
      <trkpt lat="37.257767" lon="-3.015700">
        <ele>2326.0</ele>
        <time>2014-07-12T15:02:21Z</time>
      </trkpt>
      <trkpt lat="37.257750" lon="-3.015800">
        <ele>2318.0</ele>
        <time>2014-07-12T15:02:24Z</time>
      </trkpt>
      <trkpt lat="37.257767" lon="-3.015867">
        <ele>2309.0</ele>
        <time>2014-07-12T15:02:27Z</time>
      </trkpt>
      <trkpt lat="37.257817" lon="-3.016000">
        <ele>2300.0</ele>
        <time>2014-07-12T15:02:30Z</time>
      </trkpt>
      <trkpt lat="37.257817" lon="-3.016083">
        <ele>2291.0</ele>
        <time>2014-07-12T15:02:33Z</time>
      </trkpt>
      <trkpt lat="37.257833" lon="-3.016183">
        <ele>2281.0</ele>
        <time>2014-07-12T15:02:36Z</time>
      </trkpt>
      <trkpt lat="37.257883" lon="-3.016383">
        <ele>2269.0</ele>
        <time>2014-07-12T15:02:39Z</time>
      </trkpt>
      <trkpt lat="37.257883" lon="-3.016483">
        <ele>2260.0</ele>
        <time>2014-07-12T15:02:42Z</time>
      </trkpt>
      <trkpt lat="37.257900" lon="-3.016667">
        <ele>2245.0</ele>
        <time>2014-07-12T15:02:45Z</time>
      </trkpt>
      <trkpt lat="37.257900" lon="-3.016850">
        <ele>2235.0</ele>
        <time>2014-07-12T15:02:48Z</time>
      </trkpt>
      <trkpt lat="37.257900" lon="-3.017033">
        <ele>2225.0</ele>
        <time>2014-07-12T15:02:51Z</time>
      </trkpt>
      <trkpt lat="37.257883" lon="-3.017250">
        <ele>2213.0</ele>
        <time>2014-07-12T15:02:55Z</time>
      </trkpt>
      <trkpt lat="37.257850" lon="-3.017467">
        <ele>2202.0</ele>
        <time>2014-07-12T15:02:58Z</time>
      </trkpt>
      <trkpt lat="37.257817" lon="-3.017683">
        <ele>2194.0</ele>
        <time>2014-07-12T15:03:01Z</time>
      </trkpt>
      <trkpt lat="37.257833" lon="-3.017933">
        <ele>2186.0</ele>
        <time>2014-07-12T15:03:04Z</time>
      </trkpt>
      <trkpt lat="37.257867" lon="-3.018150">
        <ele>2179.0</ele>
        <time>2014-07-12T15:03:07Z</time>
      </trkpt>
      <trkpt lat="37.257883" lon="-3.018383">
        <ele>2174.0</ele>
        <time>2014-07-12T15:03:10Z</time>
      </trkpt>
      <trkpt lat="37.257867" lon="-3.018633">
        <ele>2169.0</ele>
        <time>2014-07-12T15:03:13Z</time>
      </trkpt>
      <trkpt lat="37.257850" lon="-3.018867">
        <ele>2164.0</ele>
        <time>2014-07-12T15:03:16Z</time>
      </trkpt>
      <trkpt lat="37.257833" lon="-3.019150">
        <ele>2161.0</ele>
        <time>2014-07-12T15:03:19Z</time>
      </trkpt>
      <trkpt lat="37.257833" lon="-3.019400">
        <ele>2157.0</ele>
        <time>2014-07-12T15:03:22Z</time>
      </trkpt>
      <trkpt lat="37.257800" lon="-3.019650">
        <ele>2152.0</ele>
        <time>2014-07-12T15:03:25Z</time>
      </trkpt>
      <trkpt lat="37.257800" lon="-3.019867">
        <ele>2148.0</ele>
        <time>2014-07-12T15:03:28Z</time>
      </trkpt>
      <trkpt lat="37.257800" lon="-3.020017">
        <ele>2146.0</ele>
        <time>2014-07-12T15:03:31Z</time>
      </trkpt>
      <trkpt lat="37.257800" lon="-3.020200">
        <ele>2141.0</ele>
        <time>2014-07-12T15:03:34Z</time>
      </trkpt>
      <trkpt lat="37.257850" lon="-3.020367">
        <ele>2138.0</ele>
        <time>2014-07-12T15:03:37Z</time>
      </trkpt>
      <trkpt lat="37.257867" lon="-3.020517">
        <ele>2135.0</ele>
        <time>2014-07-12T15:03:40Z</time>
      </trkpt>
      <trkpt lat="37.257900" lon="-3.020750">
        <ele>2129.0</ele>
        <time>2014-07-12T15:03:43Z</time>
      </trkpt>
      <trkpt lat="37.257917" lon="-3.020967">
        <ele>2124.0</ele>
        <time>2014-07-12T15:03:46Z</time>
      </trkpt>
      <trkpt lat="37.257900" lon="-3.021183">
        <ele>2119.0</ele>
        <time>2014-07-12T15:03:49Z</time>
      </trkpt>
      <trkpt lat="37.257933" lon="-3.021433">
        <ele>2114.0</ele>
        <time>2014-07-12T15:03:52Z</time>
      </trkpt>
      <trkpt lat="37.257933" lon="-3.021617">
        <ele>2109.0</ele>
        <time>2014-07-12T15:03:55Z</time>
      </trkpt>
      <trkpt lat="37.257933" lon="-3.021817">
        <ele>2104.0</ele>
        <time>2014-07-12T15:03:58Z</time>
      </trkpt>
      <trkpt lat="37.257967" lon="-3.022017">
        <ele>2098.0</ele>
        <time>2014-07-12T15:04:01Z</time>
      </trkpt>
      <trkpt lat="37.257983" lon="-3.022250">
        <ele>2092.0</ele>
        <time>2014-07-12T15:04:04Z</time>
      </trkpt>
      <trkpt lat="37.258017" lon="-3.022500">
        <ele>2086.0</ele>
        <time>2014-07-12T15:04:07Z</time>
      </trkpt>
      <trkpt lat="37.258017" lon="-3.022733">
        <ele>2081.0</ele>
        <time>2014-07-12T15:04:10Z</time>
      </trkpt>
      <trkpt lat="37.258050" lon="-3.022967">
        <ele>2075.0</ele>
        <time>2014-07-12T15:04:13Z</time>
      </trkpt>
      <trkpt lat="37.258033" lon="-3.023183">
        <ele>2070.0</ele>
        <time>2014-07-12T15:04:16Z</time>
      </trkpt>
      <trkpt lat="37.258033" lon="-3.023417">
        <ele>2065.0</ele>
        <time>2014-07-12T15:04:19Z</time>
      </trkpt>
      <trkpt lat="37.258050" lon="-3.023683">
        <ele>2060.0</ele>
        <time>2014-07-12T15:04:22Z</time>
      </trkpt>
      <trkpt lat="37.258050" lon="-3.023883">
        <ele>2055.0</ele>
        <time>2014-07-12T15:04:25Z</time>
      </trkpt>
      <trkpt lat="37.258033" lon="-3.024083">
        <ele>2051.0</ele>
        <time>2014-07-12T15:04:28Z</time>
      </trkpt>
      <trkpt lat="37.258033" lon="-3.024300">
        <ele>2047.0</ele>
        <time>2014-07-12T15:04:31Z</time>
      </trkpt>
      <trkpt lat="37.258033" lon="-3.024483">
        <ele>2043.0</ele>
        <time>2014-07-12T15:04:34Z</time>
      </trkpt>
      <trkpt lat="37.258033" lon="-3.024717">
        <ele>2040.0</ele>
        <time>2014-07-12T15:04:37Z</time>
      </trkpt>
      <trkpt lat="37.258033" lon="-3.024883">
        <ele>2038.0</ele>
        <time>2014-07-12T15:04:40Z</time>
      </trkpt>
      <trkpt lat="37.258033" lon="-3.025033">
        <ele>2036.0</ele>
        <time>2014-07-12T15:04:43Z</time>
      </trkpt>
      <trkpt lat="37.258067" lon="-3.025183">
        <ele>2034.0</ele>
        <time>2014-07-12T15:04:46Z</time>
      </trkpt>
      <trkpt lat="37.258117" lon="-3.025333">
        <ele>2032.0</ele>
        <time>2014-07-12T15:04:49Z</time>
      </trkpt>
      <trkpt lat="37.258183" lon="-3.025483">
        <ele>2030.0</ele>
        <time>2014-07-12T15:04:52Z</time>
      </trkpt>
      <trkpt lat="37.258217" lon="-3.025650">
        <ele>2028.0</ele>
        <time>2014-07-12T15:04:55Z</time>
      </trkpt>
      <trkpt lat="37.258233" lon="-3.025817">
        <ele>2025.0</ele>
        <time>2014-07-12T15:04:58Z</time>
      </trkpt>
      <trkpt lat="37.258250" lon="-3.026017">
        <ele>2019.0</ele>
        <time>2014-07-12T15:05:01Z</time>
      </trkpt>
      <trkpt lat="37.258267" lon="-3.026167">
        <ele>2016.0</ele>
        <time>2014-07-12T15:05:04Z</time>
      </trkpt>
      <trkpt lat="37.258300" lon="-3.026300">
        <ele>2014.0</ele>
        <time>2014-07-12T15:05:07Z</time>
      </trkpt>
      <trkpt lat="37.258400" lon="-3.026467">
        <ele>2009.0</ele>
        <time>2014-07-12T15:05:10Z</time>
      </trkpt>
      <trkpt lat="37.258500" lon="-3.026600">
        <ele>2005.0</ele>
        <time>2014-07-12T15:05:13Z</time>
      </trkpt>
      <trkpt lat="37.258617" lon="-3.026700">
        <ele>2001.0</ele>
        <time>2014-07-12T15:05:16Z</time>
      </trkpt>
      <trkpt lat="37.258717" lon="-3.026817">
        <ele>1997.0</ele>
        <time>2014-07-12T15:05:19Z</time>
      </trkpt>
      <trkpt lat="37.258733" lon="-3.026950">
        <ele>1993.0</ele>
        <time>2014-07-12T15:05:22Z</time>
      </trkpt>
      <trkpt lat="37.258733" lon="-3.027133">
        <ele>1986.0</ele>
        <time>2014-07-12T15:05:26Z</time>
      </trkpt>
      <trkpt lat="37.258717" lon="-3.027333">
        <ele>1977.0</ele>
        <time>2014-07-12T15:05:29Z</time>
      </trkpt>
      <trkpt lat="37.258717" lon="-3.027467">
        <ele>1973.0</ele>
        <time>2014-07-12T15:05:32Z</time>
      </trkpt>
      <trkpt lat="37.258733" lon="-3.027583">
        <ele>1968.0</ele>
        <time>2014-07-12T15:05:35Z</time>
      </trkpt>
      <trkpt lat="37.258800" lon="-3.027683">
        <ele>1963.0</ele>
        <time>2014-07-12T15:05:38Z</time>
      </trkpt>
      <trkpt lat="37.258850" lon="-3.027783">
        <ele>1958.0</ele>
        <time>2014-07-12T15:05:41Z</time>
      </trkpt>
      <trkpt lat="37.258883" lon="-3.027883">
        <ele>1952.0</ele>
        <time>2014-07-12T15:05:44Z</time>
      </trkpt>
      <trkpt lat="37.258967" lon="-3.028000">
        <ele>1947.0</ele>
        <time>2014-07-12T15:05:47Z</time>
      </trkpt>
      <trkpt lat="37.259033" lon="-3.028117">
        <ele>1941.0</ele>
        <time>2014-07-12T15:05:50Z</time>
      </trkpt>
      <trkpt lat="37.259117" lon="-3.028217">
        <ele>1935.0</ele>
        <time>2014-07-12T15:05:53Z</time>
      </trkpt>
      <trkpt lat="37.259200" lon="-3.028367">
        <ele>1929.0</ele>
        <time>2014-07-12T15:05:56Z</time>
      </trkpt>
      <trkpt lat="37.259250" lon="-3.028517">
        <ele>1923.0</ele>
        <time>2014-07-12T15:05:59Z</time>
      </trkpt>
      <trkpt lat="37.259250" lon="-3.028667">
        <ele>1917.0</ele>
        <time>2014-07-12T15:06:02Z</time>
      </trkpt>
      <trkpt lat="37.259283" lon="-3.028833">
        <ele>1908.0</ele>
        <time>2014-07-12T15:06:05Z</time>
      </trkpt>
      <trkpt lat="37.259300" lon="-3.029033">
        <ele>1898.0</ele>
        <time>2014-07-12T15:06:08Z</time>
      </trkpt>
      <trkpt lat="37.259250" lon="-3.029217">
        <ele>1888.0</ele>
        <time>2014-07-12T15:06:11Z</time>
      </trkpt>
      <trkpt lat="37.259150" lon="-3.029400">
        <ele>1879.0</ele>
        <time>2014-07-12T15:06:14Z</time>
      </trkpt>
      <trkpt lat="37.259117" lon="-3.029567">
        <ele>1873.0</ele>
        <time>2014-07-12T15:06:17Z</time>
      </trkpt>
      <trkpt lat="37.259017" lon="-3.029800">
        <ele>1862.0</ele>
        <time>2014-07-12T15:06:20Z</time>
      </trkpt>
      <trkpt lat="37.258950" lon="-3.030050">
        <ele>1852.0</ele>
        <time>2014-07-12T15:06:23Z</time>
      </trkpt>
      <trkpt lat="37.258933" lon="-3.030233">
        <ele>1845.0</ele>
        <time>2014-07-12T15:06:26Z</time>
      </trkpt>
      <trkpt lat="37.258933" lon="-3.030400">
        <ele>1840.0</ele>
        <time>2014-07-12T15:06:29Z</time>
      </trkpt>
      <trkpt lat="37.258917" lon="-3.030617">
        <ele>1831.0</ele>
        <time>2014-07-12T15:06:32Z</time>
      </trkpt>
      <trkpt lat="37.258783" lon="-3.030883">
        <ele>1824.0</ele>
        <time>2014-07-12T15:06:35Z</time>
      </trkpt>
      <trkpt lat="37.258700" lon="-3.031033">
        <ele>1818.0</ele>
        <time>2014-07-12T15:06:38Z</time>
      </trkpt>
      <trkpt lat="37.258583" lon="-3.031183">
        <ele>1810.0</ele>
        <time>2014-07-12T15:06:41Z</time>
      </trkpt>
      <trkpt lat="37.258467" lon="-3.031383">
        <ele>1800.0</ele>
        <time>2014-07-12T15:06:44Z</time>
      </trkpt>
      <trkpt lat="37.258400" lon="-3.031550">
        <ele>1793.0</ele>
        <time>2014-07-12T15:06:47Z</time>
      </trkpt>
      <trkpt lat="37.258150" lon="-3.031633">
        <ele>1783.0</ele>
        <time>2014-07-12T15:06:50Z</time>
      </trkpt>
      <trkpt lat="37.257883" lon="-3.031667">
        <ele>1773.0</ele>
        <time>2014-07-12T15:06:53Z</time>
      </trkpt>
      <trkpt lat="37.257750" lon="-3.031683">
        <ele>1767.0</ele>
        <time>2014-07-12T15:06:56Z</time>
      </trkpt>
      <trkpt lat="37.257617" lon="-3.031767">
        <ele>1760.0</ele>
        <time>2014-07-12T15:06:59Z</time>
      </trkpt>
      <trkpt lat="37.257517" lon="-3.031867">
        <ele>1753.0</ele>
        <time>2014-07-12T15:07:02Z</time>
      </trkpt>
      <trkpt lat="37.257433" lon="-3.031950">
        <ele>1748.0</ele>
        <time>2014-07-12T15:07:05Z</time>
      </trkpt>
      <trkpt lat="37.257250" lon="-3.031950">
        <ele>1737.0</ele>
        <time>2014-07-12T15:07:08Z</time>
      </trkpt>
      <trkpt lat="37.257150" lon="-3.031983">
        <ele>1732.0</ele>
        <time>2014-07-12T15:07:11Z</time>
      </trkpt>
      <trkpt lat="37.257067" lon="-3.032050">
        <ele>1726.0</ele>
        <time>2014-07-12T15:07:14Z</time>
      </trkpt>
      <trkpt lat="37.256950" lon="-3.032100">
        <ele>1720.0</ele>
        <time>2014-07-12T15:07:17Z</time>
      </trkpt>
      <trkpt lat="37.256833" lon="-3.032100">
        <ele>1715.0</ele>
        <time>2014-07-12T15:07:20Z</time>
      </trkpt>
      <trkpt lat="37.256733" lon="-3.032100">
        <ele>1709.0</ele>
        <time>2014-07-12T15:07:23Z</time>
      </trkpt>
      <trkpt lat="37.256583" lon="-3.032217">
        <ele>1697.0</ele>
        <time>2014-07-12T15:07:26Z</time>
      </trkpt>
      <trkpt lat="37.256483" lon="-3.032300">
        <ele>1691.0</ele>
        <time>2014-07-12T15:07:29Z</time>
      </trkpt>
      <trkpt lat="37.256400" lon="-3.032367">
        <ele>1686.0</ele>
        <time>2014-07-12T15:07:32Z</time>
      </trkpt>
      <trkpt lat="37.256333" lon="-3.032433">
        <ele>1680.0</ele>
        <time>2014-07-12T15:07:35Z</time>
      </trkpt>
      <trkpt lat="37.256300" lon="-3.032517">
        <ele>1673.0</ele>
        <time>2014-07-12T15:07:38Z</time>
      </trkpt>
      <trkpt lat="37.256233" lon="-3.032567">
        <ele>1665.0</ele>
        <time>2014-07-12T15:07:41Z</time>
      </trkpt>
      <trkpt lat="37.256217" lon="-3.032633">
        <ele>1658.0</ele>
        <time>2014-07-12T15:07:44Z</time>
      </trkpt>
      <trkpt lat="37.256233" lon="-3.032683">
        <ele>1651.0</ele>
        <time>2014-07-12T15:07:47Z</time>
      </trkpt>
      <trkpt lat="37.256250" lon="-3.032650">
        <ele>1644.0</ele>
        <time>2014-07-12T15:07:50Z</time>
      </trkpt>
      <trkpt lat="37.256250" lon="-3.032683">
        <ele>1636.0</ele>
        <time>2014-07-12T15:07:53Z</time>
      </trkpt>
      <trkpt lat="37.256267" lon="-3.032717">
        <ele>1629.0</ele>
        <time>2014-07-12T15:07:57Z</time>
      </trkpt>
      <trkpt lat="37.256233" lon="-3.032783">
        <ele>1621.0</ele>
        <time>2014-07-12T15:08:00Z</time>
      </trkpt>
      <trkpt lat="37.256217" lon="-3.032783">
        <ele>1613.0</ele>
        <time>2014-07-12T15:08:03Z</time>
      </trkpt>
      <trkpt lat="37.256217" lon="-3.032767">
        <ele>1608.0</ele>
        <time>2014-07-12T15:08:06Z</time>
      </trkpt>
      <trkpt lat="37.256183" lon="-3.032700">
        <ele>1601.0</ele>
        <time>2014-07-12T15:08:09Z</time>
      </trkpt>
      <trkpt lat="37.256150" lon="-3.032583">
        <ele>1594.0</ele>
        <time>2014-07-12T15:08:12Z</time>
      </trkpt>
      <trkpt lat="37.256150" lon="-3.032517">
        <ele>1586.0</ele>
        <time>2014-07-12T15:08:15Z</time>
      </trkpt>
      <trkpt lat="37.256183" lon="-3.032450">
        <ele>1581.0</ele>
        <time>2014-07-12T15:08:18Z</time>
      </trkpt>
      <trkpt lat="37.256250" lon="-3.032467">
        <ele>1581.0</ele>
        <time>2014-07-12T15:08:21Z</time>
      </trkpt>
      <trkpt lat="37.256317" lon="-3.032517">
        <ele>1576.0</ele>
        <time>2014-07-12T15:08:24Z</time>
      </trkpt>
      <trkpt lat="37.256400" lon="-3.032500">
        <ele>1570.0</ele>
        <time>2014-07-12T15:08:27Z</time>
      </trkpt>
      <trkpt lat="37.256467" lon="-3.032433">
        <ele>1565.0</ele>
        <time>2014-07-12T15:08:30Z</time>
      </trkpt>
      <trkpt lat="37.256567" lon="-3.032400">
        <ele>1559.0</ele>
        <time>2014-07-12T15:08:33Z</time>
      </trkpt>
      <trkpt lat="37.256600" lon="-3.032400">
        <ele>1553.0</ele>
        <time>2014-07-12T15:08:36Z</time>
      </trkpt>
      <trkpt lat="37.256633" lon="-3.032367">
        <ele>1547.0</ele>
        <time>2014-07-12T15:08:39Z</time>
      </trkpt>
      <trkpt lat="37.256717" lon="-3.032317">
        <ele>1540.0</ele>
        <time>2014-07-12T15:08:42Z</time>
      </trkpt>
      <trkpt lat="37.256733" lon="-3.032383">
        <ele>1533.0</ele>
        <time>2014-07-12T15:08:45Z</time>
      </trkpt>
      <trkpt lat="37.256717" lon="-3.032400">
        <ele>1526.0</ele>
        <time>2014-07-12T15:08:48Z</time>
      </trkpt>
      <trkpt lat="37.256733" lon="-3.032400">
        <ele>1519.0</ele>
        <time>2014-07-12T15:08:51Z</time>
      </trkpt>
      <trkpt lat="37.256717" lon="-3.032367">
        <ele>1513.0</ele>
        <time>2014-07-12T15:08:54Z</time>
      </trkpt>
      <trkpt lat="37.256667" lon="-3.032267">
        <ele>1507.0</ele>
        <time>2014-07-12T15:08:57Z</time>
      </trkpt>
      <trkpt lat="37.256700" lon="-3.032250">
        <ele>1502.0</ele>
        <time>2014-07-12T15:09:00Z</time>
      </trkpt>
      <trkpt lat="37.256750" lon="-3.032217">
        <ele>1497.0</ele>
        <time>2014-07-12T15:09:03Z</time>
      </trkpt>
      <trkpt lat="37.256800" lon="-3.032150">
        <ele>1494.0</ele>
        <time>2014-07-12T15:09:06Z</time>
      </trkpt>
      <trkpt lat="37.256917" lon="-3.032067">
        <ele>1491.0</ele>
        <time>2014-07-12T15:09:09Z</time>
      </trkpt>
      <trkpt lat="37.256950" lon="-3.031967">
        <ele>1488.0</ele>
        <time>2014-07-12T15:09:12Z</time>
      </trkpt>
      <trkpt lat="37.256933" lon="-3.032000">
        <ele>1486.0</ele>
        <time>2014-07-12T15:09:15Z</time>
      </trkpt>
      <trkpt lat="37.256900" lon="-3.032100">
        <ele>1485.0</ele>
        <time>2014-07-12T15:09:18Z</time>
      </trkpt>
      <trkpt lat="37.256850" lon="-3.032167">
        <ele>1485.0</ele>
        <time>2014-07-12T15:09:21Z</time>
      </trkpt>
      <trkpt lat="37.256850" lon="-3.032233">
        <ele>1484.0</ele>
        <time>2014-07-12T15:09:24Z</time>
      </trkpt>
      <trkpt lat="37.256817" lon="-3.032367">
        <ele>1484.0</ele>
        <time>2014-07-12T15:09:27Z</time>
      </trkpt>
      <trkpt lat="37.256783" lon="-3.032517">
        <ele>1485.0</ele>
        <time>2014-07-12T15:09:30Z</time>
      </trkpt>
      <trkpt lat="37.256733" lon="-3.032600">
        <ele>1486.0</ele>
        <time>2014-07-12T15:09:33Z</time>
      </trkpt>
      <trkpt lat="37.256717" lon="-3.032750">
        <ele>1487.0</ele>
        <time>2014-07-12T15:09:36Z</time>
      </trkpt>
      <trkpt lat="37.256700" lon="-3.032900">
        <ele>1488.0</ele>
        <time>2014-07-12T15:09:39Z</time>
      </trkpt>
      <trkpt lat="37.256683" lon="-3.033033">
        <ele>1490.0</ele>
        <time>2014-07-12T15:09:42Z</time>
      </trkpt>
      <trkpt lat="37.256733" lon="-3.033167">
        <ele>1491.0</ele>
        <time>2014-07-12T15:09:45Z</time>
      </trkpt>
      <trkpt lat="37.256700" lon="-3.033217">
        <ele>1493.0</ele>
        <time>2014-07-12T15:09:48Z</time>
      </trkpt>
      <trkpt lat="37.256650" lon="-3.033267">
        <ele>1496.0</ele>
        <time>2014-07-12T15:09:51Z</time>
      </trkpt>
      <trkpt lat="37.256633" lon="-3.033267">
        <ele>1497.0</ele>
        <time>2014-07-12T15:09:54Z</time>
      </trkpt>
      <trkpt lat="37.256550" lon="-3.033150">
        <ele>1499.0</ele>
        <time>2014-07-12T15:09:57Z</time>
      </trkpt>
      <trkpt lat="37.256583" lon="-3.032967">
        <ele>1502.0</ele>
        <time>2014-07-12T15:10:00Z</time>
      </trkpt>
      <trkpt lat="37.256667" lon="-3.032767">
        <ele>1503.0</ele>
        <time>2014-07-12T15:10:03Z</time>
      </trkpt>
      <trkpt lat="37.256750" lon="-3.032700">
        <ele>1504.0</ele>
        <time>2014-07-12T15:10:06Z</time>
      </trkpt>
      <trkpt lat="37.256833" lon="-3.032683">
        <ele>1503.0</ele>
        <time>2014-07-12T15:10:09Z</time>
      </trkpt>
      <trkpt lat="37.256883" lon="-3.032700">
        <ele>1502.0</ele>
        <time>2014-07-12T15:10:12Z</time>
      </trkpt>
      <trkpt lat="37.256917" lon="-3.032700">
        <ele>1500.0</ele>
        <time>2014-07-12T15:10:15Z</time>
      </trkpt>
      <trkpt lat="37.256950" lon="-3.032717">
        <ele>1498.0</ele>
        <time>2014-07-12T15:10:18Z</time>
      </trkpt>
      <trkpt lat="37.256967" lon="-3.032667">
        <ele>1496.0</ele>
        <time>2014-07-12T15:10:21Z</time>
      </trkpt>
      <trkpt lat="37.256983" lon="-3.032583">
        <ele>1492.0</ele>
        <time>2014-07-12T15:10:24Z</time>
      </trkpt>
      <trkpt lat="37.257033" lon="-3.032567">
        <ele>1489.0</ele>
        <time>2014-07-12T15:10:28Z</time>
      </trkpt>
      <trkpt lat="37.257100" lon="-3.032550">
        <ele>1485.0</ele>
        <time>2014-07-12T15:10:31Z</time>
      </trkpt>
      <trkpt lat="37.257117" lon="-3.032567">
        <ele>1481.0</ele>
        <time>2014-07-12T15:10:34Z</time>
      </trkpt>
      <trkpt lat="37.257133" lon="-3.032583">
        <ele>1477.0</ele>
        <time>2014-07-12T15:10:37Z</time>
      </trkpt>
      <trkpt lat="37.257217" lon="-3.032617">
        <ele>1473.0</ele>
        <time>2014-07-12T15:10:40Z</time>
      </trkpt>
      <trkpt lat="37.257250" lon="-3.032717">
        <ele>1469.0</ele>
        <time>2014-07-12T15:10:43Z</time>
      </trkpt>
      <trkpt lat="37.257333" lon="-3.032700">
        <ele>1464.0</ele>
        <time>2014-07-12T15:10:46Z</time>
      </trkpt>
      <trkpt lat="37.257350" lon="-3.032767">
        <ele>1459.0</ele>
        <time>2014-07-12T15:10:49Z</time>
      </trkpt>
      <trkpt lat="37.257317" lon="-3.032850">
        <ele>1453.0</ele>
        <time>2014-07-12T15:10:52Z</time>
      </trkpt>
      <trkpt lat="37.257417" lon="-3.032817">
        <ele>1446.0</ele>
        <time>2014-07-12T15:10:55Z</time>
      </trkpt>
      <trkpt lat="37.257333" lon="-3.032917">
        <ele>1437.0</ele>
        <time>2014-07-12T15:10:58Z</time>
      </trkpt>
      <trkpt lat="37.257350" lon="-3.032933">
        <ele>1429.0</ele>
        <time>2014-07-12T15:11:01Z</time>
      </trkpt>
      <trkpt lat="37.257417" lon="-3.032933">
        <ele>1422.0</ele>
        <time>2014-07-12T15:11:04Z</time>
      </trkpt>
      <trkpt lat="37.257317" lon="-3.033050">
        <ele>1409.0</ele>
        <time>2014-07-12T15:11:07Z</time>
      </trkpt>
      <trkpt lat="37.257417" lon="-3.033000">
        <ele>1399.0</ele>
        <time>2014-07-12T15:11:10Z</time>
      </trkpt>
      <trkpt lat="37.257450" lon="-3.033000">
        <ele>1391.0</ele>
        <time>2014-07-12T15:11:13Z</time>
      </trkpt>
      <trkpt lat="37.257383" lon="-3.033100">
        <ele>1381.0</ele>
        <time>2014-07-12T15:11:16Z</time>
      </trkpt>
      <trkpt lat="37.257483" lon="-3.033067">
        <ele>1374.0</ele>
        <time>2014-07-12T15:11:19Z</time>
      </trkpt>
      <trkpt lat="37.257417" lon="-3.033217">
        <ele>1363.0</ele>
        <time>2014-07-12T15:11:22Z</time>
      </trkpt>
      <trkpt lat="37.257383" lon="-3.033333">
        <ele>1353.0</ele>
        <time>2014-07-12T15:11:25Z</time>
      </trkpt>
      <trkpt lat="37.257417" lon="-3.033450">
        <ele>1345.0</ele>
        <time>2014-07-12T15:11:28Z</time>
      </trkpt>
      <trkpt lat="37.257300" lon="-3.033633">
        <ele>1329.0</ele>
        <time>2014-07-12T15:11:31Z</time>
      </trkpt>
      <trkpt lat="37.257333" lon="-3.033700">
        <ele>1321.0</ele>
        <time>2014-07-12T15:11:34Z</time>
      </trkpt>
      <trkpt lat="37.257400" lon="-3.033517">
        <ele>1309.0</ele>
        <time>2014-07-12T15:11:37Z</time>
      </trkpt>
      <trkpt lat="37.257517" lon="-3.033383">
        <ele>1300.0</ele>
        <time>2014-07-12T15:11:40Z</time>
      </trkpt>
      <trkpt lat="37.257583" lon="-3.033250">
        <ele>1293.0</ele>
        <time>2014-07-12T15:11:43Z</time>
      </trkpt>
      <trkpt lat="37.257683" lon="-3.033033">
        <ele>1279.0</ele>
        <time>2014-07-12T15:11:46Z</time>
      </trkpt>
      <trkpt lat="37.257800" lon="-3.032867">
        <ele>1267.0</ele>
        <time>2014-07-12T15:11:49Z</time>
      </trkpt>
      <trkpt lat="37.257900" lon="-3.032683">
        <ele>1255.0</ele>
        <time>2014-07-12T15:11:52Z</time>
      </trkpt>
      <trkpt lat="37.258017" lon="-3.032367">
        <ele>1244.0</ele>
        <time>2014-07-12T15:11:55Z</time>
      </trkpt>
      <trkpt lat="37.258117" lon="-3.032067">
        <ele>1234.0</ele>
        <time>2014-07-12T15:11:58Z</time>
      </trkpt>
      <trkpt lat="37.258267" lon="-3.032050">
        <ele>1228.0</ele>
        <time>2014-07-12T15:12:01Z</time>
      </trkpt>
      <trkpt lat="37.258267" lon="-3.032200">
        <ele>1223.0</ele>
        <time>2014-07-12T15:12:04Z</time>
      </trkpt>
      <trkpt lat="37.258283" lon="-3.032333">
        <ele>1217.0</ele>
        <time>2014-07-12T15:12:07Z</time>
      </trkpt>
      <trkpt lat="37.258400" lon="-3.032367">
        <ele>1212.0</ele>
        <time>2014-07-12T15:12:10Z</time>
      </trkpt>
      <trkpt lat="37.258533" lon="-3.032400">
        <ele>1206.0</ele>
        <time>2014-07-12T15:12:13Z</time>
      </trkpt>
      <trkpt lat="37.258583" lon="-3.032417">
        <ele>1204.0</ele>
        <time>2014-07-12T15:12:16Z</time>
      </trkpt>
      <trkpt lat="37.258583" lon="-3.032450">
        <ele>1198.0</ele>
        <time>2014-07-12T15:12:19Z</time>
      </trkpt>
      <trkpt lat="37.258567" lon="-3.032400">
        <ele>1195.0</ele>
        <time>2014-07-12T15:12:22Z</time>
      </trkpt>
      <trkpt lat="37.258567" lon="-3.032400">
        <ele>1195.0</ele>
        <time>2014-07-12T15:12:25Z</time>
      </trkpt>
      <trkpt lat="37.258567" lon="-3.032350">
        <ele>1195.0</ele>
        <time>2014-07-12T15:12:28Z</time>
      </trkpt>
      <trkpt lat="37.258533" lon="-3.032283">
        <ele>1195.0</ele>
        <time>2014-07-12T15:12:31Z</time>
      </trkpt>
      <trkpt lat="37.258533" lon="-3.032300">
        <ele>1192.0</ele>
        <time>2014-07-12T15:12:34Z</time>
      </trkpt>
      <trkpt lat="37.258533" lon="-3.032267">
        <ele>1190.0</ele>
        <time>2014-07-12T15:12:37Z</time>
      </trkpt>
      <trkpt lat="37.258500" lon="-3.032267">
        <ele>1185.0</ele>
        <time>2014-07-12T15:12:40Z</time>
      </trkpt>
      <trkpt lat="37.258450" lon="-3.032233">
        <ele>1180.0</ele>
        <time>2014-07-12T15:12:43Z</time>
      </trkpt>
      <trkpt lat="37.258417" lon="-3.032217">
        <ele>1176.0</ele>
        <time>2014-07-12T15:12:46Z</time>
      </trkpt>
      <trkpt lat="37.258383" lon="-3.032200">
        <ele>1172.0</ele>
        <time>2014-07-12T15:12:49Z</time>
      </trkpt>
      <trkpt lat="37.258350" lon="-3.032200">
        <ele>1168.0</ele>
        <time>2014-07-12T15:12:52Z</time>
      </trkpt>
      <trkpt lat="37.258333" lon="-3.032200">
        <ele>1165.0</ele>
        <time>2014-07-12T15:12:55Z</time>
      </trkpt>
      <trkpt lat="37.258283" lon="-3.032167">
        <ele>1165.0</ele>
        <time>2014-07-12T15:12:59Z</time>
      </trkpt>
      <trkpt lat="37.258250" lon="-3.032150">
        <ele>1164.0</ele>
        <time>2014-07-12T15:13:02Z</time>
      </trkpt>
      <trkpt lat="37.258217" lon="-3.032100">
        <ele>1164.0</ele>
        <time>2014-07-12T15:13:05Z</time>
      </trkpt>
      <trkpt lat="37.258167" lon="-3.032067">
        <ele>1164.0</ele>
        <time>2014-07-12T15:13:08Z</time>
      </trkpt>
      <trkpt lat="37.258133" lon="-3.032033">
        <ele>1164.0</ele>
        <time>2014-07-12T15:13:11Z</time>
      </trkpt>
      <trkpt lat="37.258100" lon="-3.031983">
        <ele>1164.0</ele>
        <time>2014-07-12T15:13:14Z</time>
      </trkpt>
      <trkpt lat="37.258067" lon="-3.031967">
        <ele>1163.0</ele>
        <time>2014-07-12T15:13:17Z</time>
      </trkpt>
      <trkpt lat="37.258033" lon="-3.031950">
        <ele>1162.0</ele>
        <time>2014-07-12T15:13:20Z</time>
      </trkpt>
      <trkpt lat="37.258000" lon="-3.031950">
        <ele>1159.0</ele>
        <time>2014-07-12T15:13:23Z</time>
      </trkpt>
      <trkpt lat="37.257983" lon="-3.031950">
        <ele>1156.0</ele>
        <time>2014-07-12T15:13:26Z</time>
      </trkpt>
      <trkpt lat="37.257933" lon="-3.031933">
        <ele>1155.0</ele>
        <time>2014-07-12T15:13:29Z</time>
      </trkpt>
      <trkpt lat="37.257900" lon="-3.031900">
        <ele>1153.0</ele>
        <time>2014-07-12T15:13:32Z</time>
      </trkpt>
      <trkpt lat="37.257883" lon="-3.031900">
        <ele>1150.0</ele>
        <time>2014-07-12T15:13:35Z</time>
      </trkpt>
      <trkpt lat="37.257850" lon="-3.031900">
        <ele>1146.0</ele>
        <time>2014-07-12T15:13:38Z</time>
      </trkpt>
      <trkpt lat="37.257817" lon="-3.031883">
        <ele>1145.0</ele>
        <time>2014-07-12T15:13:41Z</time>
      </trkpt>
      <trkpt lat="37.257783" lon="-3.031850">
        <ele>1145.0</ele>
        <time>2014-07-12T15:13:44Z</time>
      </trkpt>
      <trkpt lat="37.257750" lon="-3.031833">
        <ele>1144.0</ele>
        <time>2014-07-12T15:13:47Z</time>
      </trkpt>
      <trkpt lat="37.257733" lon="-3.031833">
        <ele>1142.0</ele>
        <time>2014-07-12T15:13:50Z</time>
      </trkpt>
    </trkseg>
  </trk>
</gpx>
